# Wetter Temperatur Luftdruck Luftfeuchtigkeit Sichtweite Windgeschwindigkeit Windrichtung Zeit
1 Clouds 6 1025 93 10000 1.5 120 09:58 29.01.2020
2 Clouds 6 1025 93 10000 1.5 120 09:40 29.01.2020
3 Clouds 7 1025 93 10000 1.5 120 09:20 29.01.2020
4 Clouds 7 1025 93 10000 1.5 120 09:20 29.01.2020
5 Clouds 7 1025 93 10000 2.1 120 08:56 29.01.2020
6 Clouds 7 1025 93 10000 2.1 120 08:38 29.01.2020
7 Clouds 7 1024 87 10000 3.1 180 08:18 29.01.2020
8 Clouds 6 1024 93 10000 1.5 140 07:43 29.01.2020
9 Clouds 6 1024 93 10000 2.1 180 07:23 29.01.2020
10 Clouds 5 1024 93 6000 2.1 130 06:38 29.01.2020
11 Mist 4 1024 100 6000 1.5 140 06:20 29.01.2020
12 Mist 4 1024 100 4000 1 140 05:52 29.01.2020
13 Mist 4 1024 100 4000 1 140 05:52 29.01.2020
14 Mist 4 1024 100 4000 1 140 05:34 29.01.2020
15 Mist 8 1024 100 3000 2.6 130 04:39 29.01.2020
16 Clouds 10 1024 100 5000 2.1 120 03:59 29.01.2020
17 Mist 10 1025 100 4000 1.5 100 02:39 29.01.2020
18 Mist 11 1026 100 2000 2.1 100 01:27 29.01.2020
19 Mist 11 1026 100 2000 1 40 00:39 29.01.2020
20 Clear 11 1026 100 6000 2.1 70 00:21 29.01.2020
21 Clear 12 1026 100 5000 1.5 70 23:40 28.01.2020
22 Clear 12 1026 100 9000 1.5 90 23:20 28.01.2020
23 Clear 12 1026 100 10000 1 80 22:56 28.01.2020
24 Clear 12 1026 100 10000 1 80 22:36 28.01.2020
25 Clear 12 1026 93 10000 2.1 80 22:18 28.01.2020
26 Clear 13 1026 93 10000 2.1 40 21:39 28.01.2020
27 Clear 14 1026 87 10000 1.5 10 21:20 28.01.2020
28 Clear 14 1026 87 8000 1.5 350 20:46 28.01.2020
29 Clear 14 1025 82 8000 2.1 360 20:27 28.01.2020
30 Clear 15 1025 82 8000 2.6 10 19:58 28.01.2020
31 Clear 15 1025 82 8000 2.6 10 19:38 28.01.2020
32 Clear 15 1025 72 10000 6.2 40 19:19 28.01.2020
33 Clear 17 1025 72 10000 4.6 340 18:54 28.01.2020
34 Clear 17 1025 72 10000 4.6 340 18:36 28.01.2020
35 Clear 17 1025 72 10000 4.6 340 18:36 28.01.2020
36 Clear 17 1024 63 10000 2.1 310 18:18 28.01.2020
37 Clear 18 1024 37 10000 1.5 280 17:55 28.01.2020
38 Clear 18 1024 37 10000 1.5 280 17:36 28.01.2020
39 Clear 18 1024 67 10000 4.1 20 17:18 28.01.2020
40 Clear 19 1024 37 10000 1 0 16:44 28.01.2020
41 Clear 19 1024 55 10000 5.1 20 16:26 28.01.2020
42 Clear 18 1024 40 10000 1.5 0 15:59 28.01.2020
43 Clear 18 1024 40 10000 1.5 0 15:40 28.01.2020
44 Clear 18 1024 52 10000 3.1 20 15:18 28.01.2020
45 Clear 19 1025 37 10000 1 0 14:44 28.01.2020
46 Clear 18 1026 40 10000 1.5 110 14:20 28.01.2020
47 Clear 17 1026 48 10000 1 0 13:43 28.01.2020
48 Clear 17 1027 59 8000 2.6 20 13:25 28.01.2020
49 Clear 16 1027 63 10000 1 0 12:56 28.01.2020
50 Clear 16 1027 63 10000 1 0 12:38 28.01.2020
51 Clear 15 1027 63 8000 2.6 360 12:20 28.01.2020
52 Clear 14 1027 67 10000 1.5 150 11:41 28.01.2020
53 Clear 13 1027 71 6000 2.1 180 11:22 28.01.2020
54 Clear 10 1026 87 5000 1.5 130 10:55 28.01.2020
55 Clear 10 1026 87 5000 1.5 130 10:36 28.01.2020
56 Clear 9 1026 93 5000 2.1 160 10:18 28.01.2020
57 Clear 7 1026 93 10000 1 60 09:41 28.01.2020
58 Clear 6 1026 93 8000 1.5 160 09:20 28.01.2020
59 Clouds 6 1025 100 8000 1.5 120 08:46 28.01.2020
60 Clear 6 1025 93 10000 3.1 180 08:26 28.01.2020
61 Clouds 5 1025 93 8000 2.6 110 07:56 28.01.2020
62 Clouds 5 1025 93 8000 1 110 07:34 28.01.2020
63 Clouds 4 1025 93 6000 2.1 80 06:48 28.01.2020
64 Mist 4 1025 93 4000 2.6 90 06:25 28.01.2020
65 Mist 4 1025 93 2000 1.5 110 05:40 28.01.2020
66 Fog 7 1026 100 400 1 110 05:21 28.01.2020
67 Fog 10 1026 100 800 1.5 80 03:49 28.01.2020
68 Clear 10 1026 93 6000 1 0 02:46 28.01.2020
69 Clear 10 1026 93 6000 1 0 02:46 28.01.2020
70 Clear 11 1026 93 8000 1.5 30 02:25 28.01.2020
71 Clear 11 1026 93 8000 1.5 50 01:55 28.01.2020
72 Clear 11 1026 93 10000 1 10 01:20 28.01.2020
73 Clear 11 1026 93 10000 2.1 330 00:43 28.01.2020
74 Clear 11 1026 93 10000 1 0 00:19 28.01.2020
75 Clear 11 1026 93 10000 1.5 80 23:43 27.01.2020
76 Clear 11 1026 93 10000 2.1 90 23:19 27.01.2020
77 Clear 11 1027 93 10000 2.1 90 22:45 27.01.2020
78 Clear 12 1027 93 10000 2.6 60 22:20 27.01.2020
79 Clear 12 1027 93 10000 2.6 60 22:20 27.01.2020
80 Clear 12 1027 87 10000 2.6 40 21:58 27.01.2020
81 Clear 12 1027 87 10000 2.6 40 21:39 27.01.2020
82 Clear 13 1027 76 10000 2.6 30 21:19 27.01.2020
83 Clear 13 1026 81 10000 2.6 20 20:57 27.01.2020
84 Clear 13 1026 81 10000 2.6 20 20:38 27.01.2020
85 Clouds 14 1026 81 10000 3.1 360 20:19 27.01.2020
86 Clouds 14 1026 71 10000 3.6 350 19:56 27.01.2020
87 Clouds 14 1026 71 10000 3.6 350 19:38 27.01.2020
88 Clear 15 1026 67 10000 3.1 20 19:19 27.01.2020
89 Clouds 16 1026 58 10000 4.6 350 18:39 27.01.2020
90 Clear 16 1025 55 10000 6.2 20 18:21 27.01.2020
91 Clouds 16 1025 67 10000 5.1 360 17:58 27.01.2020
92 Clouds 16 1025 67 10000 5.1 360 17:38 27.01.2020
93 Clear 16 1025 51 10000 5.1 40 17:19 27.01.2020
94 Clear 16 1025 51 10000 5.1 40 17:19 27.01.2020
95 Clouds 17 1025 52 10000 2.1 350 16:56 27.01.2020
96 Clouds 17 1025 52 10000 2.1 350 16:37 27.01.2020
97 Clouds 17 1025 63 10000 6.2 20 16:19 27.01.2020
98 Clear 17 1025 52 10000 1.5 60 15:41 27.01.2020
99 Clouds 17 1025 63 10000 6.7 20 15:20 27.01.2020
100 Clear 17 1026 63 10000 2.1 0 14:57 27.01.2020
101 Clear 17 1026 63 10000 2.1 0 14:39 27.01.2020
102 Clouds 17 1026 63 10000 2.1 0 14:20 27.01.2020
103 Clouds 16 1026 72 10000 2.1 40 13:42 27.01.2020
104 Clouds 15 1027 72 10000 2.6 50 13:23 27.01.2020
105 Clouds 15 1027 76 10000 2.6 40 12:58 27.01.2020
106 Clouds 15 1027 76 10000 2.6 40 12:39 27.01.2020
107 Clouds 14 1027 76 10000 2.1 40 12:21 27.01.2020
108 Clouds 13 1027 82 10000 1.5 120 11:43 27.01.2020
109 Clouds 11 1027 87 10000 0.5 0 11:22 27.01.2020
110 Clouds 10 1027 93 8000 1 0 10:56 27.01.2020
111 Clouds 10 1027 93 8000 1 0 10:38 27.01.2020
112 Clouds 9 1027 100 6000 1 160 10:20 27.01.2020
113 Mist 6 1027 100 2000 1 120 09:39 27.01.2020
114 Clouds 6 1026 93 8000 1 180 09:19 27.01.2020
115 Clouds 6 1026 100 8000 1 70 08:55 27.01.2020
116 Clouds 6 1026 100 8000 1 70 08:37 27.01.2020
117 Clear 7 1026 93 10000 1.5 180 08:18 27.01.2020
118 Clear 7 1026 100 9000 0.5 0 07:45 27.01.2020
119 Clear 6 1025 100 9000 1.5 130 07:25 27.01.2020
120 Clear 4 1025 100 5000 1.5 90 06:37 27.01.2020
121 Clear 4 1025 100 5000 1.5 90 05:43 27.01.2020
122 Clear 8 1025 100 10000 2.6 90 04:37 27.01.2020
123 Clear 10 1026 100 6000 1 0 03:35 27.01.2020
124 Clear 11 1026 100 10000 2.1 30 01:54 27.01.2020
125 Clear 12 1026 100 10000 1.5 30 01:25 27.01.2020
126 Clear 11 1026 100 10000 0.5 40 00:41 27.01.2020
127 Clear 12 1026 100 10000 1.5 40 00:21 27.01.2020
128 Clear 12 1026 100 10000 2.1 80 23:43 26.01.2020
129 Clear 12 1026 93 10000 2.1 40 23:22 26.01.2020
130 Clear 13 1026 93 10000 3.1 30 22:58 26.01.2020
131 Clear 13 1026 93 10000 3.1 30 22:38 26.01.2020
132 Clear 13 1026 87 10000 3.1 30 22:20 26.01.2020
133 Clear 13 1026 93 10000 2.6 20 21:57 26.01.2020
134 Clear 12 1026 93 10000 2.6 20 21:39 26.01.2020
135 Clear 13 1026 93 10000 3.1 10 21:20 26.01.2020
136 Clear 13 1026 93 10000 2.6 10 20:57 26.01.2020
137 Clear 13 1026 93 10000 2.6 10 20:38 26.01.2020
138 Clear 13 1026 93 10000 2.6 10 20:38 26.01.2020
139 Clouds 14 1025 87 10000 2.6 360 20:19 26.01.2020
140 Clouds 14 1025 87 10000 2.6 360 20:19 26.01.2020
141 Clouds 14 1025 87 10000 3.6 360 19:57 26.01.2020
142 Clouds 14 1025 87 10000 3.6 360 19:38 26.01.2020
143 Clouds 15 1025 77 8000 4.6 40 19:19 26.01.2020
144 Clouds 15 1025 77 8000 4.6 40 19:19 26.01.2020
145 Clouds 16 1025 72 10000 4.6 360 18:55 26.01.2020
146 Clouds 16 1025 72 10000 4.6 360 18:55 26.01.2020
147 Clouds 16 1025 72 10000 4.6 360 18:36 26.01.2020
148 Clouds 16 1025 72 10000 4.1 60 18:18 26.01.2020
149 Clouds 16 1025 72 10000 4.1 60 18:18 26.01.2020
150 Clouds 16 1025 72 10000 3.6 360 17:55 26.01.2020
151 Clouds 16 1025 72 10000 3.6 360 17:36 26.01.2020
152 Clouds 17 1025 67 10000 4.6 40 17:18 26.01.2020
153 Clouds 17 1025 67 10000 2.6 10 16:55 26.01.2020
154 Clouds 17 1025 67 10000 2.6 10 16:37 26.01.2020
155 Clouds 17 1025 63 10000 3.6 20 16:18 26.01.2020
156 Clouds 17 1026 59 10000 2.1 60 15:42 26.01.2020
157 Clouds 17 1026 67 10000 0.5 0 15:19 26.01.2020
158 Clouds 17 1026 67 10000 0.5 0 14:55 26.01.2020
159 Clouds 16 1026 67 10000 0.5 0 14:37 26.01.2020
160 Clouds 17 1026 67 10000 0.5 0 14:18 26.01.2020
161 Clouds 17 1027 72 10000 1.5 270 13:39 26.01.2020
162 Clear 16 1027 82 0 2.24 360 13:18 26.01.2020
163 Clear 16 1019 77 0 2.24 200 12:43 26.01.2020
164 Clear 16 1019 77 0 2.24 200 12:43 26.01.2020
165 Clear 15 1019 77 0 3.58 200 12:25 26.01.2020
166 Clear 15 1019 77 0 3.58 200 11:59 26.01.2020
167 Clear 15 1019 77 0 3.58 200 11:40 26.01.2020
168 Clouds 13 1027 93 10000 2.1 150 11:19 26.01.2020
169 Clouds 11 1027 93 10000 2.1 150 10:59 26.01.2020
170 Clouds 11 1027 93 10000 2.1 150 10:39 26.01.2020
171 Clouds 11 1027 93 10000 2.1 150 10:21 26.01.2020
172 Clouds 10 1026 93 8000 2.1 170 09:59 26.01.2020
173 Clouds 10 1026 93 8000 2.1 170 09:41 26.01.2020
174 Clouds 10 1026 93 8000 4.6 180 09:22 26.01.2020
175 Clouds 10 1026 93 8000 2.6 160 08:45 26.01.2020
176 Clouds 9 1025 93 8000 2.1 200 08:23 26.01.2020
177 Clouds 9 1025 100 10000 2.6 160 07:59 26.01.2020
178 Clouds 9 1025 100 10000 2.6 160 07:41 26.01.2020
179 Clouds 9 1024 93 8000 3.6 200 07:22 26.01.2020
180 Rain 8 1024 100 7000 1.5 170 06:32 26.01.2020
181 Fog 8 1024 100 10000 2.6 160 05:35 26.01.2020
182 Clouds 9 1024 100 10000 2.6 150 04:52 26.01.2020
183 Clouds 9 1024 100 10000 2.6 180 02:59 26.01.2020
184 Clouds 11 1024 100 10000 3.1 170 01:59 26.01.2020
185 Clouds 11 1024 100 10000 3.1 170 01:38 26.01.2020
186 Clouds 11 1024 100 10000 3.1 160 01:19 26.01.2020
187 Clouds 11 1024 100 10000 3.1 170 00:39 26.01.2020
188 Clouds 11 1024 100 10000 3.6 170 00:20 26.01.2020
189 Clouds 11 1024 100 10000 3.6 170 00:20 26.01.2020
190 Clouds 11 1024 100 10000 3.6 170 00:20 26.01.2020
191 Clear 12 1023 75 0 1.79 201 23:37 25.01.2020
192 Clear 12 1023 75 0 1.34 219 23:19 25.01.2020
193 Clear 12 1023 74 0 0.89 252 22:43 25.01.2020
194 Clear 12 1023 74 0 0.89 252 22:43 25.01.2020
195 Clear 13 1023 74 0 0.45 172 22:20 25.01.2020
196 Clear 13 1023 73 0 0.45 209 21:57 25.01.2020
197 Clear 13 1022 73 0 0.89 214 21:39 25.01.2020
198 Clear 13 1022 72 0 0.45 236 21:21 25.01.2020
199 Clear 12 1023 86 0 3.45 223 20:45 25.01.2020
200 Clear 12 1023 86 0 3.45 223 20:26 25.01.2020
201 Rain 13 1021 78 0 4.86 238 19:56 25.01.2020
202 Rain 14 1021 77 0 4.92 288 19:38 25.01.2020
203 Rain 13 1020 77 0 2.24 245 19:19 25.01.2020
204 Rain 14 1020 76 0 1.79 255 18:55 25.01.2020
205 Rain 14 1020 75 0 4.92 271 18:37 25.01.2020
206 Rain 13 1019 74 0 1.79 245 18:18 25.01.2020
207 Rain 13 1019 73 0 4.47 255 17:39 25.01.2020
208 Rain 16 1018 64 0 7.47 245 17:19 25.01.2020
209 Clouds 15 1019 82 10000 8.7 210 16:56 25.01.2020
210 Clouds 15 1019 82 10000 8.7 210 16:38 25.01.2020
211 Clouds 15 1019 82 10000 8.7 210 16:19 25.01.2020
212 Rain 13 1018 67 0 3.13 194 15:42 25.01.2020
213 Rain 14 1018 64 0 6.26 264 15:24 25.01.2020
214 Rain 14 1018 62 0 3.13 209 14:57 25.01.2020
215 Rain 15 1018 62 0 2.24 241 14:39 25.01.2020
216 Rain 15 1018 61 0 1.79 276 14:18 25.01.2020
217 Rain 16 1018 58 0 3.58 274 13:40 25.01.2020
218 Rain 15 1019 58 0 6.71 299 13:22 25.01.2020
219 Clouds 14 1020 87 10000 7.2 170 12:43 25.01.2020
220 Clouds 14 1020 87 10000 7.2 170 12:43 25.01.2020
221 Clouds 13 1020 87 10000 7.2 170 12:21 25.01.2020
222 Clouds 12 1020 87 10000 7.2 170 11:45 25.01.2020
223 Clouds 12 1020 87 10000 7.2 170 11:45 25.01.2020
224 Clouds 12 1019 81 10000 9.3 200 11:21 25.01.2020
225 Clouds 12 1019 81 10000 9.3 200 11:21 25.01.2020
226 Clouds 12 1019 93 10000 9.3 150 10:57 25.01.2020
227 Clouds 12 1019 93 10000 9.3 150 10:39 25.01.2020
228 Rain 12 1020 100 10000 10.3 170 10:19 25.01.2020
229 Clouds 12 1019 100 10000 7.2 180 09:40 25.01.2020
230 Rain 12 1018 76 6000 9.3 200 09:21 25.01.2020
231 Clouds 12 1018 87 10000 8.7 190 08:43 25.01.2020
232 Clouds 12 1017 82 10000 7.2 200 08:21 25.01.2020
233 Clouds 12 1018 93 10000 5.7 180 07:42 25.01.2020
234 Clouds 12 1018 93 10000 5.7 180 07:42 25.01.2020
235 Rain 11 1017 100 5000 9.8 180 06:45 25.01.2020
236 Clouds 11 1017 81 10000 8.7 190 06:25 25.01.2020
237 Rain 11 1017 81 10000 10.3 200 05:45 25.01.2020
238 Rain 12 1017 87 10000 5.7 0 04:26 25.01.2020
239 Clouds 12 1018 87 10000 6.2 170 03:50 25.01.2020
240 Rain 12 1018 93 10000 7.2 170 02:53 25.01.2020
241 Rain 13 1019 87 10000 8.2 220 01:59 25.01.2020
242 Rain 13 1019 87 10000 8.2 220 01:59 25.01.2020
243 Rain 13 1019 87 10000 8.2 220 01:37 25.01.2020
244 Clouds 13 1019 93 10000 5.1 180 00:42 25.01.2020
245 Clouds 13 1019 81 10000 5.7 170 00:23 25.01.2020
246 Clouds 13 1019 81 10000 5.7 190 23:56 24.01.2020
247 Clouds 13 1019 81 10000 5.7 190 23:38 24.01.2020
248 Clouds 13 1019 81 10000 5.7 190 23:38 24.01.2020
249 Clouds 14 1018 76 10000 6.7 220 23:19 24.01.2020
250 Clouds 13 1019 87 10000 4.6 170 22:42 24.01.2020
251 Rain 13 1018 93 10000 4.6 220 22:23 24.01.2020
252 Clouds 13 1019 87 10000 4.6 190 21:42 24.01.2020
253 Clouds 14 1018 82 10000 6.2 170 21:20 24.01.2020
254 Clouds 14 1018 82 10000 3.6 170 20:56 24.01.2020
255 Clouds 14 1018 82 10000 3.6 170 20:37 24.01.2020
256 Clouds 14 1018 76 10000 2.1 200 20:18 24.01.2020
257 Clouds 14 1018 87 10000 5.1 190 19:55 24.01.2020
258 Clouds 14 1018 87 10000 5.1 190 19:37 24.01.2020
259 Clouds 15 1018 72 10000 3.1 220 19:19 24.01.2020
260 Clouds 15 1018 82 10000 6.7 200 18:42 24.01.2020
261 Clouds 16 1017 63 10000 5.1 220 18:22 24.01.2020
262 Clouds 16 1017 72 10000 7.7 200 17:46 24.01.2020
263 Clouds 17 1017 63 10000 7.2 240 17:23 24.01.2020
264 Clouds 17 1018 67 10000 10.8 200 16:58 24.01.2020
265 Clouds 17 1018 67 10000 10.8 200 16:39 24.01.2020
266 Clouds 17 1017 63 10000 6.7 200 16:19 24.01.2020
267 Clouds 17 1017 63 10000 6.7 200 16:19 24.01.2020
268 Clouds 17 1018 72 10000 10.8 200 15:42 24.01.2020
269 Clouds 16 1018 59 10000 7.2 240 15:21 24.01.2020
270 Clouds 15 1018 72 10000 8.7 190 14:55 24.01.2020
271 Clouds 15 1018 72 10000 8.7 190 14:37 24.01.2020
272 Clouds 15 1018 72 10000 6.2 220 14:19 24.01.2020
273 Clouds 14 1020 82 10000 9.3 230 13:41 24.01.2020
274 Clouds 14 1020 76 10000 5.7 240 13:22 24.01.2020
275 Clouds 15 1020 71 10000 9.3 200 12:43 24.01.2020
276 Rain 15 1020 62 10000 8.2 240 12:21 24.01.2020
277 Clouds 15 1020 72 10000 5.1 160 11:45 24.01.2020
278 Clouds 15 1019 62 10000 5.1 200 11:19 24.01.2020
279 Clouds 14 1019 82 8000 4.1 140 10:58 24.01.2020
280 Clouds 13 1019 82 8000 4.1 140 10:40 24.01.2020
281 Clouds 13 1018 71 10000 3.6 160 10:19 24.01.2020
282 Clouds 11 1019 93 10000 3.6 140 09:41 24.01.2020
283 Clouds 10 1018 76 10000 3.6 180 09:23 24.01.2020
284 Clouds 10 1018 93 6000 3.6 140 08:41 24.01.2020
285 Clouds 10 1018 81 10000 4.1 200 08:21 24.01.2020
286 Mist 10 1018 93 3000 4.1 160 07:59 24.01.2020
287 Mist 10 1018 93 3000 4.1 160 07:41 24.01.2020
288 Clouds 9 1018 93 10000 3.1 140 06:55 24.01.2020
289 Clouds 9 1018 93 10000 3.1 140 06:35 24.01.2020
290 Clouds 11 1018 93 10000 4.1 150 05:59 24.01.2020
291 Clouds 10 1018 100 10000 3.1 160 05:18 24.01.2020
292 Clouds 11 1019 100 10000 3.1 150 02:54 24.01.2020
293 Clouds 11 1020 93 10000 4.1 180 02:28 24.01.2020
294 Rain 12 1020 93 8000 4.1 180 01:56 24.01.2020
295 Rain 12 1020 93 8000 4.1 180 01:35 24.01.2020
296 Rain 12 1020 93 10000 6.7 180 00:39 24.01.2020
297 Clouds 12 1019 87 10000 5.1 200 23:58 23.01.2020
298 Clouds 12 1019 87 10000 5.1 200 23:40 23.01.2020
299 Clouds 11 1019 93 10000 4.1 180 23:21 23.01.2020
300 Clouds 12 1019 87 10000 6.2 200 22:55 23.01.2020
301 Clouds 12 1019 87 10000 6.2 200 22:55 23.01.2020
302 Clouds 12 1019 87 10000 6.2 200 22:36 23.01.2020
303 Rain 12 1019 87 10000 6.2 190 22:18 23.01.2020
304 Clouds 12 1019 93 10000 6.7 180 21:54 23.01.2020
305 Clouds 12 1019 93 10000 6.7 180 21:36 23.01.2020
306 Clouds 12 1019 93 10000 6.2 180 21:18 23.01.2020
307 Clouds 12 1018 93 10000 7.7 180 20:39 23.01.2020
308 Clouds 12 1018 93 10000 6.2 180 20:21 23.01.2020
309 Rain 12 1018 93 10000 6.7 170 19:56 23.01.2020
310 Rain 12 1018 93 10000 6.7 170 19:38 23.01.2020
311 Clouds 12 1017 76 8000 6.2 220 19:20 23.01.2020
312 Clouds 13 1017 87 10000 6.2 220 18:56 23.01.2020
313 Clouds 13 1017 87 10000 6.2 220 18:37 23.01.2020
314 Clouds 13 1016 82 8000 3.1 220 18:19 23.01.2020
315 Clouds 13 1016 100 10000 3.1 250 17:43 23.01.2020
316 Rain 13 1016 93 6000 6.2 260 17:20 23.01.2020
317 Rain 13 1016 93 5000 8.7 220 16:58 23.01.2020
318 Rain 13 1016 93 5000 8.7 220 16:37 23.01.2020
319 Rain 14 1016 87 6000 5.7 280 16:18 23.01.2020
320 Clouds 17 1015 63 10000 9.3 220 15:57 23.01.2020
321 Clouds 17 1015 63 10000 9.3 220 15:37 23.01.2020
322 Clouds 17 1016 55 10000 6.2 240 15:18 23.01.2020
323 Clouds 16 1016 67 10000 9.3 200 14:56 23.01.2020
324 Clouds 16 1016 67 10000 9.3 200 14:38 23.01.2020
325 Clouds 16 1016 63 10000 10.8 200 14:20 23.01.2020
326 Clouds 15 1017 67 10000 9.8 200 13:43 23.01.2020
327 Clouds 15 1017 62 10000 7.2 240 13:20 23.01.2020
328 Clouds 15 1017 62 10000 8.7 190 12:54 23.01.2020
329 Clouds 15 1017 62 10000 8.7 190 12:36 23.01.2020
330 Clouds 14 1017 62 10000 9.8 200 12:18 23.01.2020
331 Clouds 14 1017 62 10000 9.8 200 11:42 23.01.2020
332 Clouds 13 1017 76 10000 5.1 200 11:23 23.01.2020
333 Clouds 12 1017 93 10000 4.1 170 10:56 23.01.2020
334 Clouds 12 1017 93 10000 4.1 170 10:38 23.01.2020
335 Clouds 12 1017 87 10000 5.7 170 10:18 23.01.2020
336 Clouds 11 1017 93 10000 5.7 180 09:40 23.01.2020
337 Clouds 11 1016 87 10000 6.7 180 09:21 23.01.2020
338 Clouds 11 1016 87 10000 5.7 170 08:43 23.01.2020
339 Clouds 11 1015 81 10000 6.2 200 08:25 23.01.2020
340 Clouds 11 1015 93 10000 4.6 160 07:52 23.01.2020
341 Clouds 11 1015 81 10000 6.2 200 07:27 23.01.2020
342 Clouds 10 1015 100 10000 3.1 160 06:58 23.01.2020
343 Clouds 10 1016 93 10000 3.1 150 06:25 23.01.2020
344 Clouds 10 1016 93 10000 3.1 160 05:59 23.01.2020
345 Clouds 11 1016 93 10000 4.6 170 04:25 23.01.2020
346 Clouds 11 1016 100 10000 3.1 170 03:23 23.01.2020
347 Clouds 10 1016 100 10000 2.6 150 01:53 23.01.2020
348 Clouds 11 1017 93 10000 4.1 160 00:44 23.01.2020
349 Clouds 11 1017 93 10000 3.1 150 00:22 23.01.2020
350 Rain 11 1017 100 10000 4.1 160 23:46 22.01.2020
351 Rain 11 1017 93 10000 4.1 170 23:28 22.01.2020
352 Clouds 11 1016 93 10000 3.1 170 22:43 22.01.2020
353 Clouds 12 1016 100 10000 3.1 170 22:25 22.01.2020
354 Clouds 12 1016 100 10000 3.1 170 21:58 22.01.2020
355 Clouds 11 1016 100 10000 3.1 170 21:36 22.01.2020
356 Clouds 11 1016 100 10000 3.1 170 21:36 22.01.2020
357 Clouds 12 1016 100 10000 3.1 150 21:18 22.01.2020
358 Clouds 12 1016 100 10000 3.1 170 20:42 22.01.2020
359 Clouds 12 1015 71 10000 4.1 200 20:23 22.01.2020
360 Clouds 14 1015 87 10000 3.6 220 19:59 22.01.2020
361 Clouds 14 1015 87 10000 3.6 220 19:41 22.01.2020
362 Rain 14 1015 76 10000 4.1 180 19:20 22.01.2020
363 Clouds 15 1015 71 10000 5.1 180 18:58 22.01.2020
364 Clouds 15 1015 71 10000 5.1 180 18:39 22.01.2020
365 Clouds 15 1014 55 10000 4.1 220 18:21 22.01.2020
366 Clouds 16 1015 59 10000 6.7 200 17:57 22.01.2020
367 Clouds 16 1015 59 10000 6.7 200 17:38 22.01.2020
368 Clouds 16 1014 59 10000 6.7 200 17:19 22.01.2020
369 Clouds 16 1014 59 10000 8.2 210 16:54 22.01.2020
370 Clouds 16 1014 59 10000 8.2 210 16:36 22.01.2020
371 Clouds 16 1015 59 10000 8.2 200 16:18 22.01.2020
372 Clouds 16 1015 59 10000 6.7 210 15:41 22.01.2020
373 Clouds 17 1014 55 10000 6.2 220 15:23 22.01.2020
374 Clouds 16 1015 63 10000 8.7 180 14:58 22.01.2020
375 Clouds 15 1015 63 10000 8.7 180 14:37 22.01.2020
376 Clouds 15 1015 67 10000 7.2 200 14:19 22.01.2020
377 Clouds 15 1016 76 10000 7.7 210 13:55 22.01.2020
378 Clouds 15 1016 76 10000 7.7 210 13:36 22.01.2020
379 Clouds 15 1016 71 10000 8.2 200 13:18 22.01.2020
380 Clouds 14 1016 76 10000 7.7 200 12:56 22.01.2020
381 Clouds 14 1016 76 10000 7.7 200 12:37 22.01.2020
382 Clouds 14 1016 76 10000 7.2 200 12:18 22.01.2020
383 Clouds 12 1016 87 10000 6.2 180 11:56 22.01.2020
384 Clouds 12 1016 87 10000 6.2 180 11:38 22.01.2020
385 Clouds 12 1015 81 10000 5.1 200 11:19 22.01.2020
386 Clouds 11 1016 93 10000 4.6 170 10:44 22.01.2020
387 Clouds 10 1015 81 10000 5.1 200 10:21 22.01.2020
388 Clouds 9 1015 100 10000 4.1 170 09:44 22.01.2020
389 Clouds 9 1015 87 10000 3.1 200 09:26 22.01.2020
390 Clouds 8 1014 100 6000 4.6 150 08:59 22.01.2020
391 Clouds 8 1014 100 6000 4.6 150 08:40 22.01.2020
392 Clouds 8 1014 87 10000 4.1 200 08:21 22.01.2020
393 Clouds 7 1014 100 7000 3.6 160 07:58 22.01.2020
394 Clouds 7 1014 100 7000 3.6 160 07:58 22.01.2020
395 Clouds 7 1014 100 7000 3.6 160 07:40 22.01.2020
396 Clouds 8 1014 100 7000 3.6 170 07:21 22.01.2020
397 Mist 7 1014 100 4900 3.6 170 06:31 22.01.2020
398 Mist 6 1014 100 4000 3.1 160 05:41 22.01.2020
399 Clouds 9 1014 100 6000 2.6 180 04:20 22.01.2020
400 Clouds 9 1014 100 6000 2.6 180 03:23 22.01.2020
401 Clouds 9 1014 100 6000 2.6 180 03:23 22.01.2020
402 Mist 9 1014 100 1200 2.1 180 02:27 22.01.2020
403 Rain 8 1014 100 5000 1 200 00:45 22.01.2020
404 Rain 8 1014 100 5000 1 160 00:26 22.01.2020
405 Rain 10 1014 100 5000 0.5 0 23:39 21.01.2020
406 Rain 10 1014 100 5000 1 150 23:21 21.01.2020
407 Rain 10 1014 100 10000 2.1 130 22:59 21.01.2020
408 Rain 10 1014 100 10000 2.1 130 22:39 21.01.2020
409 Rain 10 1014 100 10000 2.1 130 22:20 21.01.2020
410 Rain 11 1014 100 10000 1 100 21:56 21.01.2020
411 Rain 10 1014 100 10000 1 100 21:37 21.01.2020
412 Rain 11 1013 93 10000 1 0 21:19 21.01.2020
413 Rain 12 1013 93 10000 2.1 310 20:55 21.01.2020
414 Rain 12 1013 93 10000 2.1 310 20:37 21.01.2020
415 Clouds 12 1013 71 10000 2.1 340 20:18 21.01.2020
416 Clouds 12 1013 71 10000 2.1 340 20:18 21.01.2020
417 Clouds 13 1013 71 10000 2.1 340 19:55 21.01.2020
418 Clouds 13 1013 71 10000 2.1 340 19:37 21.01.2020
419 Clouds 13 1013 71 10000 2.1 340 19:37 21.01.2020
420 Clouds 13 1013 71 10000 2.1 340 19:18 21.01.2020
421 Clouds 14 1012 76 10000 2.6 320 18:55 21.01.2020
422 Clouds 14 1012 76 10000 2.6 320 18:36 21.01.2020
423 Clouds 14 1012 71 10000 1.5 320 18:18 21.01.2020
424 Clouds 14 1012 66 10000 0.5 0 17:42 21.01.2020
425 Clouds 14 1012 67 10000 3.1 320 17:19 21.01.2020
426 Clouds 14 1012 71 10000 2.1 250 16:57 21.01.2020
427 Clouds 14 1012 71 10000 2.1 250 16:36 21.01.2020
428 Clouds 14 1012 67 10000 4.1 320 16:18 21.01.2020
429 Clouds 15 1012 71 10000 2.6 260 15:40 21.01.2020
430 Clouds 15 1013 63 10000 4.1 280 15:20 21.01.2020
431 Clouds 14 1012 71 10000 2.6 270 14:57 21.01.2020
432 Clouds 14 1012 71 10000 2.6 270 14:37 21.01.2020
433 Clouds 14 1013 67 10000 3.1 280 14:18 21.01.2020
434 Clouds 14 1013 62 10000 2.6 210 13:39 21.01.2020
435 Clouds 14 1013 67 10000 2.6 180 13:18 21.01.2020
436 Clouds 14 1013 71 10000 3.6 190 12:43 21.01.2020
437 Clear 13 1013 71 10000 4.1 220 12:25 21.01.2020
438 Clouds 12 1014 87 10000 2.6 190 11:57 21.01.2020
439 Clouds 12 1014 87 10000 2.6 190 11:38 21.01.2020
440 Clear 11 1013 81 6000 3.1 200 11:19 21.01.2020
441 Clouds 9 1013 100 8000 1.5 130 10:44 21.01.2020
442 Mist 8 1013 100 4000 2.1 200 10:23 21.01.2020
443 Mist 7 1013 100 3000 1.5 120 09:58 21.01.2020
444 Mist 6 1013 100 3000 1.5 120 09:40 21.01.2020
445 Fog 6 1013 100 400 5.1 180 09:21 21.01.2020
446 Fog 6 1012 100 200 3.1 180 08:47 21.01.2020
447 Clouds 6 1012 100 5000 5.1 180 08:27 21.01.2020
448 Fog 6 1012 100 800 1.5 180 07:56 21.01.2020
449 Fog 6 1012 100 800 1.5 180 07:37 21.01.2020
450 Fog 5 1011 100 800 2.1 170 07:19 21.01.2020
451 Fog 4 1011 100 500 2.6 180 06:44 21.01.2020
452 Fog 3 1011 100 500 2.6 170 06:23 21.01.2020
453 Fog 4 1011 100 750 2.6 210 05:41 21.01.2020
454 Fog 6 1011 100 500 1.5 190 04:39 21.01.2020
455 Fog 6 1011 100 500 1.5 190 04:39 21.01.2020
456 Clouds 8 1011 100 10000 2.1 110 02:34 21.01.2020
457 Clouds 8 1011 100 10000 2.6 150 01:37 21.01.2020
458 Clouds 9 1012 100 10000 2.1 130 00:52 21.01.2020
459 Clouds 9 1012 100 10000 2.6 120 00:29 21.01.2020
460 Clouds 9 1011 100 6000 2.1 120 23:56 20.01.2020
461 Clouds 10 1011 100 6000 2.1 100 23:36 20.01.2020
462 Clouds 9 1011 100 6000 2.1 120 23:36 20.01.2020
463 Clouds 10 1011 100 6000 2.1 100 23:18 20.01.2020
464 Clouds 10 1011 100 5000 1 0 22:54 20.01.2020
465 Clouds 9 1011 100 5000 1 0 22:36 20.01.2020
466 Clouds 10 1011 100 5000 2.1 90 22:18 20.01.2020
467 Clouds 10 1011 100 6000 1.5 150 21:54 20.01.2020
468 Clouds 10 1011 100 6000 1.5 150 21:36 20.01.2020
469 Clouds 11 1011 93 6000 1.5 110 21:18 20.01.2020
470 Clouds 11 1011 100 10000 1 0 20:42 20.01.2020
471 Clouds 11 1011 71 10000 2.6 80 20:20 20.01.2020
472 Clouds 12 1010 93 10000 2.1 110 19:59 20.01.2020
473 Clouds 12 1010 93 10000 2.1 110 19:41 20.01.2020
474 Clouds 12 1010 66 10000 2.6 40 19:19 20.01.2020
475 Clouds 13 1010 93 10000 2.1 140 18:56 20.01.2020
476 Clouds 13 1010 93 10000 2.1 140 18:38 20.01.2020
477 Clouds 13 1009 62 10000 3.1 60 18:19 20.01.2020
478 Clouds 14 1009 87 10000 2.6 160 17:38 20.01.2020
479 Clouds 14 1009 58 10000 3.6 20 17:19 20.01.2020
480 Rain 13 1009 87 6000 2.6 160 16:47 20.01.2020
481 Clouds 13 1009 58 10000 5.1 360 16:26 20.01.2020
482 Rain 13 1009 81 5000 2.6 250 15:59 20.01.2020
483 Rain 13 1009 81 5000 2.6 250 15:40 20.01.2020
484 Clouds 14 1009 58 10000 5.7 340 15:22 20.01.2020
485 Clouds 14 1010 76 10000 2.6 230 14:59 20.01.2020
486 Clouds 14 1010 76 10000 2.6 230 14:40 20.01.2020
487 Clouds 14 1010 62 10000 3.6 320 14:21 20.01.2020
488 Clouds 13 1011 81 10000 3.1 220 13:56 20.01.2020
489 Clouds 13 1011 81 10000 3.1 220 13:38 20.01.2020
490 Clouds 13 1011 62 10000 3.1 320 13:18 20.01.2020
491 Clouds 13 1011 87 10000 5.1 230 12:42 20.01.2020
492 Clouds 13 1011 67 10000 4.1 360 12:23 20.01.2020
493 Clouds 12 1011 81 10000 2.1 180 11:55 20.01.2020
494 Clouds 12 1011 81 10000 2.1 180 11:36 20.01.2020
495 Clouds 12 1011 66 10000 4.1 360 11:18 20.01.2020
496 Clouds 11 1011 93 10000 2.6 190 10:41 20.01.2020
497 Clouds 11 1011 71 10000 3.6 320 10:20 20.01.2020
498 Clouds 10 1011 93 10000 2.6 200 09:42 20.01.2020
499 Clouds 10 1011 76 10000 3.1 360 09:24 20.01.2020
500 Clouds 9 1012 93 10000 2.1 200 08:56 20.01.2020
501 Clouds 9 1012 93 10000 2.1 200 08:34 20.01.2020
502 Clouds 9 1012 100 10000 2.6 170 07:59 20.01.2020
503 Clouds 9 1012 100 10000 2.6 170 07:41 20.01.2020
504 Clouds 9 1012 100 10000 1 180 07:21 20.01.2020
505 Clouds 9 1012 100 10000 1.5 260 06:42 20.01.2020
506 Clouds 9 1012 93 10000 2.1 280 06:21 20.01.2020
507 Clouds 9 1012 100 10000 1 80 05:38 20.01.2020
508 Clouds 9 1012 100 10000 1 80 05:19 20.01.2020
509 Clouds 11 1014 93 10000 4.1 60 03:55 20.01.2020
510 Clouds 10 1015 100 10000 3.1 210 01:58 20.01.2020
511 Clouds 10 1015 100 10000 3.1 210 01:39 20.01.2020
512 Clouds 10 1015 100 10000 3.1 210 01:18 20.01.2020
513 Clouds 11 1016 100 10000 2.6 210 00:42 20.01.2020
514 Clouds 12 1016 93 10000 1.5 250 00:20 20.01.2020
515 Clouds 12 1016 93 10000 1.5 240 23:38 19.01.2020
516 Clouds 12 1017 100 10000 2.1 210 23:19 19.01.2020
517 Drizzle 12 1017 100 10000 2.6 200 22:56 19.01.2020
518 Drizzle 12 1017 100 10000 2.6 200 22:37 19.01.2020
519 Drizzle 12 1018 100 10000 2.6 200 22:19 19.01.2020
520 Clouds 12 1018 100 10000 3.1 190 21:56 19.01.2020
521 Clouds 12 1018 100 10000 3.1 190 21:38 19.01.2020
522 Clouds 12 1018 100 10000 3.1 190 21:19 19.01.2020
523 Clouds 13 1018 100 10000 2.1 230 20:56 19.01.2020
524 Clouds 12 1018 100 10000 2.1 230 20:38 19.01.2020
525 Clouds 13 1019 93 10000 2.1 240 20:19 19.01.2020
526 Rain 13 1019 93 8000 2.1 260 19:55 19.01.2020
527 Rain 13 1019 93 8000 2.1 260 19:37 19.01.2020
528 Clouds 13 1019 93 6000 2.6 260 19:19 19.01.2020
529 Clouds 13 1020 93 6000 6.2 330 18:55 19.01.2020
530 -273 0 0 0 0 0 18:37 19.01.2020
531 Clouds 13 1020 93 6000 3.6 320 18:19 19.01.2020
532 Rain 14 1020 87 4000 6.7 300 17:57 19.01.2020
533 Rain 14 1020 87 4000 6.7 300 17:38 19.01.2020
534 Clouds 15 1020 67 10000 9.8 320 17:20 19.01.2020
535 Clouds 14 1020 72 10000 3.6 300 16:57 19.01.2020
536 Clouds 14 1020 72 10000 3.6 300 16:37 19.01.2020
537 Clouds 14 1020 72 10000 3.6 300 16:37 19.01.2020
538 Clouds 13 1021 87 10000 7.2 300 16:19 19.01.2020
539 Clouds 15 1021 72 10000 7.2 300 15:56 19.01.2020
540 Clouds 16 1021 72 10000 7.2 300 15:37 19.01.2020
541 Clouds 16 1022 67 10000 9.8 340 15:18 19.01.2020
542 Clouds 16 1022 72 10000 6.7 310 14:56 19.01.2020
543 Clouds 16 1022 72 10000 6.7 310 14:56 19.01.2020
544 Clouds 16 1022 72 10000 6.7 310 14:37 19.01.2020
545 Clouds 16 1022 59 10000 8.7 340 14:18 19.01.2020
546 Clouds 16 1022 59 10000 8.7 340 14:18 19.01.2020
547 Clouds 16 1023 72 10000 6.7 310 13:54 19.01.2020
548 Clouds 16 1023 72 10000 6.7 310 13:36 19.01.2020
549 Clouds 16 1024 63 10000 9.8 360 13:18 19.01.2020
550 Clouds 16 1025 82 8000 5.1 290 12:42 19.01.2020
551 Clouds 16 1025 93 8000 4.6 280 12:23 19.01.2020
552 Clouds 16 1025 93 8000 3.1 280 11:57 19.01.2020
553 Clouds 16 1025 93 8000 3.1 280 11:39 19.01.2020
554 Clouds 15 1025 82 5000 5.7 320 11:19 19.01.2020
555 Rain 15 1025 100 6000 2.6 280 10:54 19.01.2020
556 Rain 15 1025 100 6000 2.6 280 10:36 19.01.2020
557 Clouds 15 1025 100 5000 1.5 300 10:18 19.01.2020
558 Rain 14 1026 100 4000 4.6 250 09:41 19.01.2020
559 Rain 14 1025 100 3000 5.7 340 09:23 19.01.2020
560 Clouds 14 1025 100 6000 4.6 220 08:56 19.01.2020
561 Clouds 14 1025 100 6000 4.6 220 08:38 19.01.2020
562 Rain 14 1025 100 3000 5.1 240 08:19 19.01.2020
563 Drizzle 12 1026 100 3500 3.1 190 07:30 19.01.2020
564 Clouds 12 1026 87 10000 4.1 180 06:56 19.01.2020
565 Clouds 12 1026 93 10000 3.1 160 06:25 19.01.2020
566 Clouds 12 1028 87 10000 1.5 190 04:39 19.01.2020
567 Mist 10 1029 93 4000 1.5 180 02:37 19.01.2020
568 Mist 11 1029 93 4000 2.1 180 02:19 19.01.2020
569 Clouds 11 1030 100 5000 2.6 160 01:24 19.01.2020
570 Clouds 11 1030 100 5000 2.1 160 00:45 19.01.2020
571 Clouds 12 1030 93 5000 1.5 140 00:27 19.01.2020
572 Clouds 12 1030 93 5000 1.5 140 23:55 18.01.2020
573 Clouds 11 1030 93 5000 1.5 140 23:36 18.01.2020
574 Clouds 12 1030 93 6000 1 0 23:18 18.01.2020
575 Clouds 12 1030 93 6000 1 0 23:18 18.01.2020
576 Clouds 13 1030 93 8000 1 0 22:54 18.01.2020
577 Clouds 13 1030 93 8000 1 0 22:36 18.01.2020
578 Clouds 13 1030 87 10000 0.5 300 22:18 18.01.2020
579 Clouds 13 1030 93 8000 0.5 0 21:56 18.01.2020
580 Clouds 13 1030 93 8000 0.5 0 21:36 18.01.2020
581 Clouds 15 1030 82 10000 1 0 21:18 18.01.2020
582 Clouds 15 1030 76 10000 1 360 20:41 18.01.2020
583 Clear 15 1030 67 10000 2.1 20 20:20 18.01.2020
584 Clear 15 1030 72 10000 2.1 350 19:54 18.01.2020
585 Clear 15 1030 72 10000 2.1 350 19:36 18.01.2020
586 Clear 16 1030 67 10000 3.1 20 19:18 18.01.2020
587 Clear 17 1030 59 10000 3.1 10 18:40 18.01.2020
588 Clear 17 1030 59 10000 3.1 10 18:40 18.01.2020
589 Clear 17 1030 59 10000 3.1 40 18:21 18.01.2020
590 Clear 19 1030 48 10000 4.1 350 17:41 18.01.2020
591 Clear 19 1030 52 10000 4.1 360 17:21 18.01.2020
592 Clear 20 1030 30 10000 3.6 10 16:57 18.01.2020
593 Clear 20 1030 30 10000 3.6 10 16:39 18.01.2020
594 Clear 20 1030 45 10000 4.1 20 16:21 18.01.2020
595 Clouds 19 1030 28 10000 3.6 360 15:57 18.01.2020
596 Clouds 19 1030 28 10000 3.6 360 15:39 18.01.2020
597 Clear 19 1031 52 10000 2.1 80 15:20 18.01.2020
598 Clear 18 1031 28 10000 2.6 280 14:42 18.01.2020
599 Clouds 18 1031 59 10000 4.1 20 14:20 18.01.2020
600 Clouds 19 1032 30 10000 1.5 0 13:58 18.01.2020
601 Clouds 19 1032 30 10000 1.5 0 13:39 18.01.2020
602 Clouds 18 1032 45 10000 3.1 20 13:20 18.01.2020
603 Clouds 17 1032 30 10000 1 0 12:54 18.01.2020
604 Clouds 17 1032 30 10000 1 0 12:54 18.01.2020
605 Clouds 17 1032 30 10000 1 0 12:36 18.01.2020
606 Clouds 17 1033 42 10000 2.1 80 12:18 18.01.2020
607 Clouds 15 1033 38 10000 1 0 11:43 18.01.2020
608 Clouds 14 1033 47 10000 2.1 160 11:21 18.01.2020
609 Clouds 11 1033 46 10000 1.5 150 10:43 18.01.2020
610 Clouds 9 1032 57 10000 2.1 160 10:22 18.01.2020
611 Clouds 6 1032 80 10000 2.1 110 09:57 18.01.2020
612 Clouds 6 1032 80 10000 2.1 110 09:39 18.01.2020
613 Clouds 6 1032 65 10000 2.1 160 09:19 18.01.2020
614 Clouds 5 1032 45 10000 1.5 110 08:42 18.01.2020
615 Clear 6 1032 65 10000 3.1 180 08:20 18.01.2020
616 Clear 5 1031 51 10000 1.5 120 07:59 18.01.2020
617 Clear 5 1031 51 10000 1.5 120 07:37 18.01.2020
618 Clear 3 1031 51 10000 2.1 120 06:50 18.01.2020
619 Clear 3 1031 51 10000 2.1 120 06:27 18.01.2020
620 Clear 3 1031 51 10000 1 140 05:49 18.01.2020
621 Clear 8 1031 80 10000 1.5 120 04:24 18.01.2020
622 Clear 10 1032 80 9000 1.5 110 02:34 18.01.2020
623 Clouds 10 1032 75 10000 2.1 90 01:40 18.01.2020
624 Clouds 11 1032 87 10000 1.5 110 00:39 18.01.2020
625 Clouds 11 1032 81 10000 1.5 110 00:19 18.01.2020
626 Clouds 12 1032 76 10000 1.5 30 23:58 17.01.2020
627 Clouds 12 1032 76 10000 1.5 30 23:38 17.01.2020
628 Clouds 12 1032 81 10000 2.1 60 23:18 17.01.2020
629 Clouds 14 1032 66 10000 3.1 20 22:41 17.01.2020
630 Clouds 14 1031 62 10000 2.6 20 22:19 17.01.2020
631 Clouds 14 1031 54 10000 3.1 10 21:54 17.01.2020
632 Clouds 14 1031 54 10000 3.1 10 21:36 17.01.2020
633 Clouds 14 1031 50 10000 4.1 10 21:18 17.01.2020
634 Clouds 15 1031 47 10000 3.6 10 20:41 17.01.2020
635 Clouds 15 1031 58 10000 2.1 40 20:21 17.01.2020
636 Clouds 16 1030 51 10000 3.1 60 19:58 17.01.2020
637 Clouds 16 1030 51 10000 3.1 60 19:38 17.01.2020
638 Clouds 16 1030 51 10000 3.1 60 19:20 17.01.2020
639 Clouds 13 1030 42 10000 5.1 360 18:58 17.01.2020
640 Clouds 13 1030 42 10000 5.1 360 18:39 17.01.2020
641 Clouds 13 1030 93 10000 4.6 20 18:21 17.01.2020
642 Clouds 18 1030 37 10000 4.6 350 17:40 17.01.2020
643 Clouds 18 1030 45 10000 5.7 40 17:22 17.01.2020
644 Clouds 18 1030 37 10000 5.7 340 16:57 17.01.2020
645 Clouds 18 1030 37 10000 5.7 340 16:38 17.01.2020
646 Clouds 18 1030 52 10000 5.1 40 16:19 17.01.2020
647 Clouds 18 1030 32 10000 5.1 340 15:45 17.01.2020
648 Clouds 19 1030 48 10000 3.51 20 15:26 17.01.2020
649 Clouds 20 1030 18 10000 3.6 360 14:45 17.01.2020
650 Clouds 19 1031 37 10000 3.51 20 14:27 17.01.2020
651 Clouds 19 1031 21 10000 4.1 50 13:58 17.01.2020
652 Clouds 19 1031 21 10000 4.1 50 13:37 17.01.2020
653 Clouds 18 1032 31 10000 2.6 60 13:19 17.01.2020
654 Clouds 18 1032 27 10000 3.1 40 12:44 17.01.2020
655 Clouds 17 1032 34 8000 3.1 120 12:21 17.01.2020
656 Clouds 14 1032 38 10000 2.6 80 11:38 17.01.2020
657 Clear 14 1032 54 10000 1.5 160 11:18 17.01.2020
658 Clear 11 1033 53 10000 2.1 110 10:44 17.01.2020
659 Clear 9 1032 66 6000 1.5 160 10:23 17.01.2020
660 Clear 5 1032 74 10000 2.1 90 09:58 17.01.2020
661 Clear 5 1032 74 10000 2.1 90 09:40 17.01.2020
662 Clear 5 1032 80 10000 2.1 90 09:20 17.01.2020
663 Clear 5 1032 74 10000 2.1 90 08:45 17.01.2020
664 Clear 6 1032 65 10000 3.1 180 08:25 17.01.2020
665 Clear 5 1031 80 10000 1 0 07:55 17.01.2020
666 Clear 5 1031 70 10000 3.6 180 07:32 17.01.2020
667 Clear 5 1031 70 10000 3.6 180 07:32 17.01.2020
668 Clear 2 1031 80 10000 2.1 110 06:59 17.01.2020
669 Clear 2 1031 80 10000 2.1 110 06:41 17.01.2020
670 Clear 5 1031 80 10000 1.5 130 05:56 17.01.2020
671 Clear 9 1031 80 10000 2.1 130 03:39 17.01.2020
672 Clear 11 1031 80 10000 2.1 140 02:53 17.01.2020
673 Clouds 9 1031 80 10000 2.1 140 01:47 17.01.2020
674 Clouds 9 1031 80 10000 2.1 130 01:29 17.01.2020
675 Clouds 14 1030 62 0 0.89 340 00:51 17.01.2020
676 Clouds 11 1030 75 10000 2.6 210 00:28 17.01.2020
677 Clouds 11 1030 75 10000 2.6 210 23:46 16.01.2020
678 Clouds 10 1030 75 10000 2.6 210 23:26 16.01.2020
679 Clouds 12 1030 66 10000 2.6 200 22:58 16.01.2020
680 Clouds 12 1030 66 10000 2.6 200 22:40 16.01.2020
681 Clouds 11 1030 75 10000 2.6 160 22:20 16.01.2020
682 Clouds 12 1030 62 10000 0.5 0 21:55 16.01.2020
683 Clouds 12 1030 62 10000 0.5 0 21:37 16.01.2020
684 Clouds 13 1030 62 10000 0.5 0 21:18 16.01.2020
685 Clouds 13 1030 58 10000 1 0 20:41 16.01.2020
686 Clear 13 1029 62 10000 1.5 340 20:22 16.01.2020
687 Clear 14 1029 58 10000 2.1 310 19:59 16.01.2020
688 Clear 14 1029 58 10000 2.1 310 19:41 16.01.2020
689 Clear 15 1029 47 10000 2.1 340 19:22 16.01.2020
690 Clear 16 1028 42 10000 3.6 320 18:57 16.01.2020
691 Clear 17 1028 42 10000 3.6 320 18:39 16.01.2020
692 Clear 17 1028 36 10000 3.1 340 18:20 16.01.2020
693 Clear 19 1028 32 10000 3.6 320 17:59 16.01.2020
694 Clear 19 1028 32 10000 3.6 320 17:41 16.01.2020
695 Clear 19 1028 37 10000 4.1 360 17:20 16.01.2020
696 Clear 19 1027 21 10000 1 0 16:43 16.01.2020
697 Clear 19 1028 34 10000 4.1 300 16:25 16.01.2020
698 Clear 20 1027 22 10000 1 0 15:59 16.01.2020
699 Clear 20 1027 22 10000 1 0 15:40 16.01.2020
700 Clear 20 1027 32 10000 4.1 340 15:21 16.01.2020
701 Clear 20 1027 32 10000 4.1 340 15:21 16.01.2020
702 Clear 20 1028 32 10000 4.6 340 14:45 16.01.2020
703 Clear 20 1028 32 10000 4.6 340 14:24 16.01.2020
704 Clouds 19 1028 27 10000 1 0 13:57 16.01.2020
705 Clouds 19 1028 27 10000 1 0 13:39 16.01.2020
706 Clouds 19 1029 27 10000 1.5 260 13:21 16.01.2020
707 Clouds 17 1029 36 10000 1.5 180 12:43 16.01.2020
708 Clouds 16 1029 33 10000 1.5 160 12:25 16.01.2020
709 Clouds 14 1029 27 10000 2.1 140 11:54 16.01.2020
710 Clouds 14 1029 27 10000 2.1 140 11:36 16.01.2020
711 Clouds 14 1029 41 10000 3.1 180 11:18 16.01.2020
712 Clouds 10 1028 61 10000 1.5 140 10:38 16.01.2020
713 Clouds 9 1028 43 10000 3.6 180 10:20 16.01.2020
714 Clouds 4 1028 69 10000 1.5 140 09:56 16.01.2020
715 Clouds 4 1028 69 10000 1.5 140 09:37 16.01.2020
716 Clouds 3 1027 74 10000 2.1 160 09:19 16.01.2020
717 Clouds 2 1027 80 10000 2.1 160 08:49 16.01.2020
718 Clouds 1 1027 80 10000 2.6 160 08:29 16.01.2020
719 Clouds 1 1026 80 10000 2.6 150 07:57 16.01.2020
720 Clouds 1 1026 80 10000 2.6 150 07:37 16.01.2020
721 Clouds 1 1026 80 10000 1.5 120 07:18 16.01.2020
722 Clouds 2 1026 74 10000 1.5 90 06:42 16.01.2020
723 Clouds 3 1026 69 10000 1.5 100 05:58 16.01.2020
724 Clouds 3 1026 69 10000 1.5 100 05:40 16.01.2020
725 Clear 7 1026 74 10000 2.1 110 04:37 16.01.2020
726 Clear 8 1026 74 10000 2.1 90 03:28 16.01.2020
727 Clear 9 1026 69 10000 1.5 120 02:42 16.01.2020
728 Clear 10 1026 56 10000 1.5 90 00:53 16.01.2020
729 Clear 10 1027 56 10000 1.5 130 00:24 16.01.2020
730 Clear 10 1027 50 10000 1.5 120 23:48 15.01.2020
731 Clear 11 1027 61 10000 2.1 100 23:23 15.01.2020
732 Clear 11 1027 61 10000 2.1 100 23:23 15.01.2020
733 Clear 11 1027 66 10000 2.6 80 22:57 15.01.2020
734 Clear 11 1027 66 10000 2.6 80 22:39 15.01.2020
735 Clear 12 1026 61 10000 2.1 60 22:19 15.01.2020
736 Clear 13 1026 58 10000 2.1 30 21:57 15.01.2020
737 Clear 13 1026 58 10000 2.1 30 21:57 15.01.2020
738 Clear 13 1026 58 10000 2.1 30 21:38 15.01.2020
739 Clear 14 1026 54 10000 2.6 30 21:20 15.01.2020
740 Clear 14 1027 54 10000 2.6 360 20:58 15.01.2020
741 Clear 14 1027 54 10000 2.6 360 20:58 15.01.2020
742 Clear 13 1027 54 10000 2.6 360 20:40 15.01.2020
743 Clear 14 1026 62 10000 2.1 20 20:20 15.01.2020
744 Clear 16 1026 41 10000 2.6 350 19:55 15.01.2020
745 Clear 16 1026 41 10000 2.6 350 19:37 15.01.2020
746 Clear 17 1026 48 10000 2.6 20 19:19 15.01.2020
747 Clear 18 1026 31 10000 2.1 350 18:56 15.01.2020
748 Clear 18 1026 31 10000 2.1 350 18:56 15.01.2020
749 Clear 18 1026 31 10000 2.1 350 18:38 15.01.2020
750 Clear 19 1026 34 10000 4.1 20 18:19 15.01.2020
751 Clear 20 1025 22 10000 2.1 320 17:57 15.01.2020
752 Clear 20 1025 22 10000 2.1 320 17:38 15.01.2020
753 Clear 19 1025 24 10000 1.5 300 17:19 15.01.2020
754 Clear 20 1025 22 10000 1.5 280 16:41 15.01.2020
755 Clear 20 1025 22 10000 1.5 280 16:22 15.01.2020
756 Clear 20 1025 22 10000 1.5 280 16:22 15.01.2020
757 Clear 20 1025 22 10000 1 0 15:58 15.01.2020
758 Clear 20 1025 22 10000 1 0 15:39 15.01.2020
759 Clear 20 1025 22 10000 3.1 160 15:20 15.01.2020
760 Clear 20 1026 24 10000 1.5 0 14:43 15.01.2020
761 Clear 20 1026 28 10000 2.1 160 14:20 15.01.2020
762 Clear 20 1027 28 10000 3.1 140 13:55 15.01.2020
763 Clear 19 1027 28 10000 3.1 140 13:37 15.01.2020
764 Clear 19 1027 30 10000 4.6 200 13:18 15.01.2020
765 Clear 17 1027 31 10000 3.6 150 12:41 15.01.2020
766 Clear 16 1028 41 10000 4.6 200 12:20 15.01.2020
767 Clear 16 1028 38 10000 3.6 140 11:58 15.01.2020
768 Clear 16 1028 38 10000 3.6 140 11:38 15.01.2020
769 Clear 14 1027 47 8000 4.6 200 11:19 15.01.2020
770 Clear 11 1027 53 10000 2.6 150 10:46 15.01.2020
771 Clear 10 1027 53 8000 4.6 200 10:28 15.01.2020
772 Clear 9 1027 75 10000 2.1 120 09:54 15.01.2020
773 Clear 5 1027 75 10000 2.1 120 09:36 15.01.2020
774 Clear 6 1026 44 10000 2.6 120 09:18 15.01.2020
775 Clear 6 1026 44 10000 2.6 140 08:41 15.01.2020
776 Clear 7 1026 44 10000 4.6 180 08:23 15.01.2020
777 Clouds 4 1026 46 10000 2.1 120 07:53 15.01.2020
778 Clouds 4 1025 46 10000 2.1 130 07:32 15.01.2020
779 Clouds 4 1025 46 10000 3.1 130 06:47 15.01.2020
780 Clouds 3 1025 46 10000 2.6 130 06:21 15.01.2020
781 Clear 10 1025 47 10000 2.1 130 04:45 15.01.2020
782 Clear 9 1025 75 10000 2.1 140 02:39 15.01.2020
783 Clouds 9 1025 70 10000 2.1 130 01:28 15.01.2020
784 Clouds 9 1025 70 10000 2.1 130 01:28 15.01.2020
785 Clouds 10 1025 61 10000 2.6 130 00:59 15.01.2020
786 Clouds 10 1025 61 10000 2.6 130 00:36 15.01.2020
787 Clouds 11 1025 61 10000 2.6 130 00:18 15.01.2020
788 Clouds 11 1025 61 10000 2.6 140 23:45 14.01.2020
789 Clouds 11 1025 61 10000 2.6 140 23:24 14.01.2020
790 Clouds 11 1025 65 10000 2.6 140 22:41 14.01.2020
791 Clouds 11 1025 65 10000 2.6 140 22:41 14.01.2020
792 Clouds 11 1025 66 10000 2.6 140 22:19 14.01.2020
793 Clouds 11 1025 61 10000 1 0 21:59 14.01.2020
794 Clouds 12 1025 61 10000 1 0 21:40 14.01.2020
795 Clouds 12 1025 66 10000 2.1 120 21:22 14.01.2020
796 Clouds 12 1025 62 10000 2.1 140 20:59 14.01.2020
797 Clouds 12 1025 62 10000 2.1 140 20:40 14.01.2020
798 Clouds 14 1024 54 10000 1 270 20:20 14.01.2020
799 Clouds 14 1024 54 10000 1 270 19:56 14.01.2020
800 Clouds 14 1024 54 10000 1 270 19:38 14.01.2020
801 Clouds 15 1024 62 10000 1 280 19:18 14.01.2020
802 Clouds 15 1024 62 10000 1 280 19:18 14.01.2020
803 Clouds 15 1024 51 10000 2.1 260 18:56 14.01.2020
804 Clouds 15 1024 51 10000 2.1 260 18:37 14.01.2020
805 Clouds 16 1024 42 10000 3.1 240 18:18 14.01.2020
806 Clouds 17 1024 42 10000 3.1 240 17:38 14.01.2020
807 Clouds 17 1023 39 10000 3.1 240 17:19 14.01.2020
808 Clouds 17 1023 39 10000 3.1 230 16:55 14.01.2020
809 Clouds 17 1023 39 10000 3.1 230 16:37 14.01.2020
810 Clouds 17 1023 48 10000 2.1 320 16:19 14.01.2020
811 Clouds 17 1023 36 10000 4.1 240 15:43 14.01.2020
812 Clouds 17 1023 42 10000 2.1 240 15:19 14.01.2020
813 Clouds 17 1024 48 8000 3.1 200 14:47 14.01.2020
814 Clouds 17 1024 48 8000 3.1 200 14:47 14.01.2020
815 Clouds 17 1024 48 8000 3.1 200 14:23 14.01.2020
816 Clouds 16 1025 48 10000 3.1 190 13:59 14.01.2020
817 Clouds 16 1025 48 10000 3.1 190 13:41 14.01.2020
818 Clouds 16 1025 51 8000 2.1 200 13:19 14.01.2020
819 Clouds 15 1026 55 10000 2.6 170 12:42 14.01.2020
820 Clouds 15 1026 62 6000 4.1 180 12:24 14.01.2020
821 Clouds 13 1026 58 10000 3.6 170 11:58 14.01.2020
822 Clouds 13 1026 58 10000 3.6 170 11:40 14.01.2020
823 Clouds 12 1026 71 6000 4.1 180 11:22 14.01.2020
824 Clouds 10 1026 76 10000 1.5 210 10:56 14.01.2020
825 Clouds 10 1026 76 10000 1.5 210 10:37 14.01.2020
826 Clouds 9 1026 81 6000 3.1 180 10:19 14.01.2020
827 Clouds 6 1025 86 10000 2.1 190 09:43 14.01.2020
828 Clouds 5 1025 81 6000 3.1 180 09:24 14.01.2020
829 Clouds 5 1025 93 10000 2.1 170 08:58 14.01.2020
830 Clouds 5 1025 93 10000 2.1 170 08:39 14.01.2020
831 Clouds 5 1024 87 10000 3.1 180 08:20 14.01.2020
832 Clouds 6 1024 86 10000 1 130 07:46 14.01.2020
833 Clouds 5 1024 93 10000 2.1 140 07:18 14.01.2020
834 Clouds 4 1024 86 10000 1.5 130 06:42 14.01.2020
835 Clouds 3 1024 93 10000 2.1 130 05:57 14.01.2020
836 Clouds 10 1024 93 10000 2.1 130 04:49 14.01.2020
837 Clouds 8 1024 93 10000 1 130 03:45 14.01.2020
838 Clouds 9 1024 86 10000 2.1 40 02:33 14.01.2020
839 Clouds 9 1024 93 10000 2.1 100 01:19 14.01.2020
840 Clouds 10 1025 93 10000 1.5 100 00:47 14.01.2020
841 Clouds 10 1025 93 10000 2.1 100 00:21 14.01.2020
842 Clouds 10 1025 100 10000 1.5 70 23:44 13.01.2020
843 Clouds 10 1025 100 8000 1.5 90 23:19 13.01.2020
844 Clouds 10 1025 100 8000 2.6 90 22:57 13.01.2020
845 Clouds 10 1025 100 8000 2.6 90 22:39 13.01.2020
846 Clouds 11 1025 93 10000 1 80 22:19 13.01.2020
847 Clouds 11 1025 93 10000 1 60 21:55 13.01.2020
848 Clouds 11 1025 93 10000 1 60 21:36 13.01.2020
849 Clouds 12 1025 87 10000 1.5 20 21:18 13.01.2020
850 Clouds 12 1026 87 10000 2.1 10 20:55 13.01.2020
851 Clouds 13 1026 87 10000 2.1 10 20:37 13.01.2020
852 Clouds 13 1026 87 10000 2.1 10 20:37 13.01.2020
853 Clouds 13 1026 82 10000 2.1 360 20:19 13.01.2020
854 Clouds 14 1026 82 10000 2.1 350 19:41 13.01.2020
855 Clouds 15 1026 72 10000 1.5 20 19:20 13.01.2020
856 Clouds 15 1025 67 10000 3.1 360 18:58 13.01.2020
857 Clouds 16 1025 67 10000 3.1 360 18:38 13.01.2020
858 Clouds 16 1025 67 10000 3.1 360 18:19 13.01.2020
859 Clouds 16 1025 63 10000 3.1 360 17:58 13.01.2020
860 Clouds 16 1025 63 10000 3.1 360 17:39 13.01.2020
861 Clouds 17 1025 63 10000 4.1 20 17:20 13.01.2020
862 Clouds 17 1025 51 10000 3.6 330 16:42 13.01.2020
863 Clouds 17 1025 67 10000 3.1 340 16:23 13.01.2020
864 Clouds 16 1026 63 0 4.02 340 15:58 13.01.2020
865 Clouds 16 1026 63 0 4.02 340 15:40 13.01.2020
866 Clouds 17 1026 63 0 4.02 340 15:20 13.01.2020
867 Clouds 16 1026 55 0 5.81 340 14:43 13.01.2020
868 Clouds 16 1026 55 0 5.81 340 14:24 13.01.2020
869 Clear 16 1027 48 0 1.79 300 13:59 13.01.2020
870 Clear 16 1027 48 0 1.79 300 13:40 13.01.2020
871 Clear 16 1027 48 0 1.79 300 13:40 13.01.2020
872 Clear 16 1027 48 0 1.79 300 13:22 13.01.2020
873 Clear 15 1027 50 10000 1.5 200 12:57 13.01.2020
874 Clear 14 1027 50 10000 1.5 200 12:39 13.01.2020
875 Clear 16 1027 50 10000 1.5 200 12:21 13.01.2020
876 Clear 17 1027 50 10000 1.5 200 11:40 13.01.2020
877 Clear 15 1027 58 8000 4.1 200 11:20 13.01.2020
878 Clear 15 1027 58 8000 4.1 200 11:20 13.01.2020
879 Clear 13 1017 41 10000 3.1 360 10:58 13.01.2020
880 Clear 13 1026 70 10000 2.1 170 10:39 13.01.2020
881 Clear 12 1026 61 6000 4.1 180 10:20 13.01.2020
882 Clear 12 1026 61 6000 4.1 180 10:20 13.01.2020
883 Clear 6 1026 93 10000 2.1 100 09:58 13.01.2020
884 Clear 5 1026 93 10000 2.1 100 09:40 13.01.2020
885 Clear 5 1026 81 8000 1.5 160 09:21 13.01.2020
886 Clear 5 1026 57 10000 1.5 120 08:41 13.01.2020
887 Clear 5 1026 81 10000 3.6 180 08:20 13.01.2020
888 Clear 6 1026 93 10000 1 0 07:48 13.01.2020
889 Clear 2 1026 93 10000 1 140 07:27 13.01.2020
890 Clear 2 1026 93 10000 1.5 130 06:43 13.01.2020
891 Clear 2 1025 100 10000 1.5 120 06:21 13.01.2020
892 Clear 3 1026 93 10000 1 130 05:27 13.01.2020
893 Clear 9 1026 93 10000 1.5 100 03:57 13.01.2020
894 Clear 9 1026 93 10000 1.5 100 03:25 13.01.2020
895 Clear 9 1026 100 10000 2.1 100 02:47 13.01.2020
896 Clear 9 1027 93 10000 2.1 100 02:28 13.01.2020
897 Clouds 9 1027 93 10000 2.1 90 01:21 13.01.2020
898 Clear 10 1028 100 10000 2.6 90 00:41 13.01.2020
899 Clear 11 1028 100 10000 2.1 60 00:23 13.01.2020
900 Clear 12 1028 93 10000 2.6 20 23:54 12.01.2020
901 Clear 12 1028 93 10000 2.6 20 23:36 12.01.2020
902 Clear 12 1028 93 10000 1.5 30 23:18 12.01.2020
903 Clear 12 1028 93 10000 1.5 40 22:42 12.01.2020
904 Clear 13 1028 87 10000 2.1 30 22:23 12.01.2020
905 Clear 12 1027 87 10000 2.1 30 21:57 12.01.2020
906 Clear 13 1027 87 10000 2.1 30 21:38 12.01.2020
907 Clear 13 1027 81 10000 1.5 20 21:19 12.01.2020
908 Clear 13 1027 81 10000 1.5 20 20:56 12.01.2020
909 Clear 13 1027 81 10000 1.5 20 20:38 12.01.2020
910 Clear 14 1027 71 10000 4.1 60 20:20 12.01.2020
911 Clear 14 1027 76 10000 2.6 360 19:56 12.01.2020
912 Clear 15 1027 76 10000 2.6 360 19:37 12.01.2020
913 Clear 15 1027 67 10000 4.6 60 19:18 12.01.2020
914 Clear 16 1027 62 10000 5.1 360 18:57 12.01.2020
915 Clear 16 1027 62 10000 5.1 360 18:39 12.01.2020
916 Clear 16 1026 63 10000 6.2 40 18:21 12.01.2020
917 Clear 16 1026 59 10000 5.1 330 17:54 12.01.2020
918 Clear 16 1026 59 10000 5.1 330 17:36 12.01.2020
919 Clear 16 1026 63 10000 8.2 20 17:18 12.01.2020
920 Clear 16 1026 45 10000 4.6 300 16:40 12.01.2020
921 Clear 16 1026 55 10000 5.1 20 16:21 12.01.2020
922 Clear 16 1026 55 10000 5.1 20 16:21 12.01.2020
923 Clear 16 1026 45 10000 4.6 280 15:58 12.01.2020
924 Clear 16 1026 45 10000 4.6 280 15:39 12.01.2020
925 Clear 16 1026 51 10000 3.6 20 15:21 12.01.2020
926 Clear 16 1026 42 10000 4.6 280 14:44 12.01.2020
927 Clear 16 1026 51 10000 3.1 20 14:25 12.01.2020
928 Clear 16 1027 42 10000 3.1 300 13:57 12.01.2020
929 Clear 16 1027 42 10000 3.1 300 13:39 12.01.2020
930 Clear 16 1028 48 10000 3.1 340 13:20 12.01.2020
931 Clear 14 1028 44 10000 2.1 290 12:57 12.01.2020
932 Clear 15 1028 44 10000 2.1 290 12:38 12.01.2020
933 Clear 14 1028 47 10000 1 0 12:19 12.01.2020
934 Clear 13 1028 58 10000 1 0 11:42 12.01.2020
935 Clear 12 1028 62 8000 1.5 180 11:22 12.01.2020
936 Clear 9 1027 75 10000 1.5 70 10:58 12.01.2020
937 Clear 9 1027 75 10000 1.5 70 10:40 12.01.2020
938 Clear 9 1027 76 8000 2.6 140 10:20 12.01.2020
939 Clear 6 1027 93 10000 2.1 110 09:43 12.01.2020
940 Clear 6 1026 81 6000 3.1 180 09:24 12.01.2020
941 Clear 5 1026 93 10000 2.6 110 08:48 12.01.2020
942 Clear 4 1026 87 6000 1.5 180 08:25 12.01.2020
943 Clear 6 1025 100 10000 2.6 50 07:58 12.01.2020
944 Clear 6 1025 100 10000 2.6 50 07:38 12.01.2020
945 Clear 6 1026 81 6000 2.1 180 07:19 12.01.2020
946 Clear 3 1025 93 10000 1.5 110 06:40 12.01.2020
947 Clear 3 1025 100 10000 1 40 05:58 12.01.2020
948 Clear 12 1025 100 10000 0.5 0 05:18 12.01.2020
949 Clear 10 1025 93 10000 1 0 03:44 12.01.2020
950 Rain 12 1025 81 10000 2.6 20 02:55 12.01.2020
951 Clear 12 1025 71 10000 3.6 10 02:30 12.01.2020
952 Clear 13 1025 71 10000 3.6 10 01:39 12.01.2020
953 Clear 13 1026 71 10000 3.1 10 00:57 12.01.2020
954 Clear 13 1026 71 10000 3.1 10 00:37 12.01.2020
955 Clear 13 1026 71 10000 5.1 10 00:18 12.01.2020
956 Clear 13 1026 66 10000 6.2 10 23:41 11.01.2020
957 Clear 14 1026 71 10000 6.7 10 23:19 11.01.2020
958 Clear 14 1025 76 10000 6.7 10 22:57 11.01.2020
959 Clear 13 1025 76 10000 6.7 10 22:38 11.01.2020
960 Clear 14 1025 81 10000 5.1 10 22:20 11.01.2020
961 Clear 14 1025 82 10000 5.7 10 21:54 11.01.2020
962 Clear 14 1025 82 10000 5.7 10 21:36 11.01.2020
963 Clear 14 1025 82 10000 6.2 10 21:18 11.01.2020
964 Clear 14 1025 82 10000 5.7 360 20:39 11.01.2020
965 Clear 14 1025 67 10000 5.1 40 20:20 11.01.2020
966 Clear 15 1025 82 10000 5.7 350 19:58 11.01.2020
967 Clear 15 1025 82 10000 5.7 350 19:38 11.01.2020
968 Clear 15 1025 82 10000 5.7 350 19:38 11.01.2020
969 Clear 15 1025 72 10000 6.2 40 19:20 11.01.2020
970 Clear 15 1024 71 10000 5.7 360 18:56 11.01.2020
971 Clear 15 1024 71 10000 5.7 360 18:37 11.01.2020
972 Clear 16 1024 63 10000 6.2 40 18:19 11.01.2020
973 Clear 16 1024 63 10000 6.2 40 18:19 11.01.2020
974 Clouds 16 1024 62 10000 6.7 360 17:57 11.01.2020
975 Clouds 16 1024 62 10000 6.7 360 17:39 11.01.2020
976 Clear 16 1024 59 10000 7.2 40 17:18 11.01.2020
977 Clouds 16 1024 59 10000 6.7 360 16:44 11.01.2020
978 Clouds 16 1025 55 10000 6.2 20 16:25 11.01.2020
979 Clouds 16 1024 51 10000 3.6 40 15:57 11.01.2020
980 Clouds 16 1024 51 10000 3.6 40 15:39 11.01.2020
981 Clouds 16 1025 55 10000 6.2 20 15:20 11.01.2020
982 Clouds 16 1024 48 10000 4.1 30 14:46 11.01.2020
983 Clouds 16 1025 51 10000 5.1 10 14:25 11.01.2020
984 Clouds 16 1025 51 10000 6.2 20 13:58 11.01.2020
985 Clouds 16 1025 51 10000 6.2 20 13:38 11.01.2020
986 Clouds 15 1026 55 10000 5.1 40 13:20 11.01.2020
987 Clouds 15 1026 58 10000 3.6 30 12:56 11.01.2020
988 Clouds 15 1026 58 10000 3.6 30 12:37 11.01.2020
989 Clouds 15 1027 54 10000 5.1 80 12:19 11.01.2020
990 Clouds 13 1027 66 10000 3.6 60 11:42 11.01.2020
991 Clouds 13 1027 76 10000 2.1 120 11:24 11.01.2020
992 Clouds 12 1027 93 10000 1.5 80 10:46 11.01.2020
993 Clouds 11 1026 81 10000 2.1 200 10:25 11.01.2020
994 Clouds 10 1026 93 10000 1.5 40 09:43 11.01.2020
995 Clouds 10 1026 81 10000 1 180 09:21 11.01.2020
996 Clouds 11 1025 87 10000 1 0 08:57 11.01.2020
997 Clouds 11 1025 87 10000 1 0 08:38 11.01.2020
998 Clouds 11 1025 66 10000 1 360 08:19 11.01.2020
999 Clouds 11 1025 81 10000 2.1 10 07:42 11.01.2020
1000 Clouds 11 1025 62 10000 1 360 07:24 11.01.2020
1001 Clouds 10 1025 87 10000 0.5 0 06:43 11.01.2020
1002 Clouds 11 1026 87 10000 1.5 270 05:29 11.01.2020
1003 Clouds 13 1026 93 10000 0.5 0 04:40 11.01.2020
1004 Clouds 13 1026 93 10000 1 0 04:21 11.01.2020
1005 Clouds 13 1026 93 10000 1 220 02:46 11.01.2020
1006 Clouds 13 1027 93 10000 1.5 220 01:47 11.01.2020
1007 Clouds 13 1027 93 10000 1 130 01:25 11.01.2020
1008 Clouds 13 1027 93 10000 1 0 00:52 11.01.2020
1009 Clouds 13 1027 93 10000 1 0 00:24 11.01.2020
1010 Clouds 13 1027 93 10000 1 0 23:58 10.01.2020
1011 Clouds 13 1027 93 10000 1 0 23:38 10.01.2020
1012 Clouds 13 1027 93 10000 1 0 23:38 10.01.2020
1013 Clouds 13 1027 93 10000 1 90 23:20 10.01.2020
1014 Clouds 14 1027 93 10000 1 0 22:41 10.01.2020
1015 Clouds 13 1027 93 10000 1 0 22:22 10.01.2020
1016 Clouds 14 1027 87 10000 1.5 320 21:58 10.01.2020
1017 Clouds 14 1027 87 10000 1.5 320 21:40 10.01.2020
1018 Clouds 14 1027 87 10000 2.6 320 21:20 10.01.2020
1019 Clouds 14 1027 81 10000 3.6 320 20:57 10.01.2020
1020 Clouds 14 1026 72 10000 5.1 360 20:38 10.01.2020
1021 Clouds 14 1026 72 10000 5.1 360 20:19 10.01.2020
1022 Clouds 15 1027 82 10000 4.1 320 19:40 10.01.2020
1023 Clouds 15 1027 67 10000 6.7 360 19:21 10.01.2020
1024 Clouds 15 1026 76 10000 4.1 350 18:55 10.01.2020
1025 Clouds 15 1026 76 10000 4.1 350 18:37 10.01.2020
1026 Clouds 15 1026 72 10000 5.7 360 18:18 10.01.2020
1027 Clouds 16 1026 72 10000 6.2 360 17:56 10.01.2020
1028 Clouds 16 1026 72 10000 6.2 360 17:37 10.01.2020
1029 Clouds 15 1027 67 10000 5.7 20 17:19 10.01.2020
1030 Clouds 15 1027 67 10000 5.7 20 17:19 10.01.2020
1031 Clouds 16 1026 72 10000 7.2 350 16:42 10.01.2020
1032 Clouds 16 1026 67 10000 6.2 20 16:21 10.01.2020
1033 Clouds 16 1026 72 10000 7.7 330 15:57 10.01.2020
1034 Clouds 16 1026 72 10000 7.7 330 15:38 10.01.2020
1035 Clouds 16 1027 72 10000 5.7 20 15:19 10.01.2020
1036 Clouds 18 1026 55 10000 3.6 310 14:58 10.01.2020
1037 Clouds 18 1026 55 10000 3.6 310 14:40 10.01.2020
1038 Clear 18 1027 55 10000 3.1 320 14:19 10.01.2020
1039 Clear 17 1028 59 10000 2.1 0 13:56 10.01.2020
1040 Clear 17 1028 59 10000 2.1 0 13:37 10.01.2020
1041 Clear 17 1029 59 10000 2.1 280 13:18 10.01.2020
1042 Clear 17 1029 63 10000 2.1 60 12:56 10.01.2020
1043 Clear 17 1029 63 10000 2.1 60 12:38 10.01.2020
1044 Clear 17 1029 59 10000 2.1 120 12:18 10.01.2020
1045 Clear 16 1029 67 10000 2.6 100 11:42 10.01.2020
1046 Clear 16 1029 67 10000 2.6 100 11:42 10.01.2020
1047 Clear 16 1029 67 10000 2.6 100 11:42 10.01.2020
1048 Clear 15 1029 67 10000 4.1 160 11:22 10.01.2020
1049 Clouds 13 1029 87 6000 3.1 140 10:59 10.01.2020
1050 Clouds 13 1029 87 6000 3.1 140 10:38 10.01.2020
1051 Clouds 12 1029 82 8000 3.1 180 10:19 10.01.2020
1052 Clouds 11 1028 93 6000 3.1 120 09:48 10.01.2020
1053 Clouds 10 1028 93 8000 1 180 09:27 10.01.2020
1054 Clouds 9 1029 100 7000 2.6 80 08:59 10.01.2020
1055 Clouds 9 1029 100 7000 2.6 80 08:38 10.01.2020
1056 Clouds 9 1028 93 8000 1 180 08:20 10.01.2020
1057 Clouds 9 1028 100 6000 2.1 120 07:44 10.01.2020
1058 Clouds 9 1028 93 8000 1 180 07:22 10.01.2020
1059 Clouds 8 1028 100 8000 2.1 110 06:43 10.01.2020
1060 Clouds 8 1028 100 8000 1 190 06:24 10.01.2020
1061 Clouds 9 1028 100 8000 1.5 200 05:33 10.01.2020
1062 Clouds 12 1028 100 7000 2.1 170 03:34 10.01.2020
1063 Clouds 12 1028 100 7000 2.1 170 03:34 10.01.2020
1064 Clouds 12 1028 100 8000 1.5 200 02:57 10.01.2020
1065 Clouds 12 1028 100 8000 1.5 200 02:36 10.01.2020
1066 Clouds 12 1028 100 10000 1.5 220 01:34 10.01.2020
1067 Clouds 12 1028 93 8000 2.1 150 00:56 10.01.2020
1068 Clouds 12 1028 93 8000 2.1 150 00:38 10.01.2020
1069 Clouds 13 1028 93 10000 1 140 23:57 09.01.2020
1070 Clouds 13 1028 93 10000 1 140 23:37 09.01.2020
1071 Clouds 13 1028 87 10000 0.5 120 23:19 09.01.2020
1072 Clouds 13 1028 87 10000 0.5 120 23:19 09.01.2020
1073 Clouds 13 1028 87 10000 0.5 0 22:56 09.01.2020
1074 Clouds 13 1028 87 10000 0.5 0 22:37 09.01.2020
1075 Clouds 13 1028 87 10000 0.5 0 22:37 09.01.2020
1076 Clouds 13 1028 87 10000 1 0 22:18 09.01.2020
1077 Clouds 13 1028 87 10000 1.5 310 21:56 09.01.2020
1078 Clouds 13 1028 87 10000 1.5 310 21:37 09.01.2020
1079 Clouds 13 1028 87 10000 1.5 310 21:37 09.01.2020
1080 Clouds 13 1028 87 10000 1.5 310 21:37 09.01.2020
1081 Clouds 13 1028 87 10000 1.5 310 21:37 09.01.2020
1082 Clouds 14 1028 81 10000 1.5 320 21:18 09.01.2020
1083 Clouds 14 1027 76 10000 1 0 20:55 09.01.2020
1084 Clouds 14 1027 76 10000 1 0 20:37 09.01.2020
1085 Clouds 15 1027 72 10000 3.1 20 20:19 09.01.2020
1086 Clouds 15 1027 82 10000 3.1 320 19:54 09.01.2020
1087 Clouds 15 1027 67 10000 3.1 20 19:36 09.01.2020
1088 Clouds 15 1027 67 10000 3.1 20 19:18 09.01.2020
1089 Clouds 16 1027 67 10000 5.1 360 18:41 09.01.2020
1090 Clouds 16 1027 67 10000 5.1 360 18:22 09.01.2020
1091 Clouds 16 1026 77 10000 3.6 320 17:58 09.01.2020
1092 Clouds 16 1026 72 8000 4.1 340 17:40 09.01.2020
1093 Clouds 16 1026 72 8000 4.1 340 17:18 09.01.2020
1094 Clouds 16 1026 72 8000 4.1 340 17:18 09.01.2020
1095 Clouds 17 1026 72 10000 3.6 320 16:46 09.01.2020
1096 Clouds 17 1026 68 8000 3.1 340 16:22 09.01.2020
1097 Clouds 16 1026 67 10000 4.1 320 15:44 09.01.2020
1098 Clouds 16 1027 77 6000 3.1 280 15:25 09.01.2020
1099 Clouds 16 1026 72 10000 3.1 330 14:59 09.01.2020
1100 Clouds 16 1026 72 10000 3.1 330 14:41 09.01.2020
1101 Clouds 16 1027 77 6000 3.1 280 14:19 09.01.2020
1102 Clouds 15 1027 77 10000 3.1 310 13:57 09.01.2020
1103 Clouds 15 1027 77 10000 2.1 310 13:38 09.01.2020
1104 Clouds 15 1027 77 10000 2.1 310 13:19 09.01.2020
1105 Clouds 15 1028 77 10000 1 0 12:57 09.01.2020
1106 Mist 15 1028 82 3000 2.1 180 12:38 09.01.2020
1107 Mist 15 1028 82 3000 2.1 180 12:18 09.01.2020
1108 Clouds 13 1028 87 8000 2.1 160 11:43 09.01.2020
1109 Mist 12 1028 87 3000 3.1 180 11:25 09.01.2020
1110 Mist 12 1028 87 3000 3.1 180 11:25 09.01.2020
1111 Clouds 12 1028 93 7000 2.1 170 10:59 09.01.2020
1112 Clouds 12 1028 93 7000 2.1 170 10:41 09.01.2020
1113 Fog 11 1025 87 900 2.1 160 10:22 09.01.2020
1114 Mist 8 1027 100 3000 1.5 140 09:49 09.01.2020
1115 Fog 8 1027 100 900 4.1 200 09:25 09.01.2020
1116 Mist 7 1027 100 1000 1.5 170 08:59 09.01.2020
1117 Fog 7 1027 100 600 3.1 180 08:40 09.01.2020
1118 Fog 7 1027 100 600 3.1 180 08:22 09.01.2020
1119 Clouds 7 1027 100 550 1.5 160 07:55 09.01.2020
1120 Fog 7 1027 100 900 4.6 180 07:35 09.01.2020
1121 Clouds 7 1027 100 700 2.1 150 06:54 09.01.2020
1122 Clouds 7 1027 100 700 2.1 160 06:32 09.01.2020
1123 -273 0 0 0 0 0 05:52 09.01.2020
1124 Clouds 5 1027 100 600 1 150 05:28 09.01.2020
1125 Fog 11 1027 100 300 2.1 140 04:41 09.01.2020
1126 Fog 11 1027 100 500 2.1 100 03:28 09.01.2020
1127 Clear 12 1027 87 0 0.89 140 02:47 09.01.2020
1128 Clear 14 1027 87 0 0.89 140 01:42 09.01.2020
1129 Fog 11 1028 100 200 2.1 110 01:18 09.01.2020
1130 Fog 11 1028 100 200 2.1 110 00:39 09.01.2020
1131 Fog 12 1028 100 200 2.1 110 00:19 09.01.2020
1132 Fog 12 1028 100 200 2.1 140 23:41 08.01.2020
1133 Fog 12 1028 100 200 2.1 140 23:23 08.01.2020
1134 Fog 12 1028 100 200 1.5 180 22:56 08.01.2020
1135 Mist 11 1028 93 1200 0.5 0 22:38 08.01.2020
1136 Mist 12 1028 93 1200 0.5 0 22:19 08.01.2020
1137 Fog 11 1027 93 200 1 0 21:55 08.01.2020
1138 Fog 11 1027 93 200 0.5 0 21:37 08.01.2020
1139 Fog 12 1027 93 200 0.5 0 21:18 08.01.2020
1140 Fog 13 1027 100 200 1.5 0 20:41 08.01.2020
1141 Clouds 13 1027 87 8000 1 140 20:21 08.01.2020
1142 Clouds 14 1027 71 10000 1.5 330 19:59 08.01.2020
1143 Clouds 14 1027 87 10000 1.5 320 19:38 08.01.2020
1144 Clouds 14 1027 87 10000 1.5 320 19:20 08.01.2020
1145 Clouds 15 1027 54 10000 3.1 350 18:58 08.01.2020
1146 Clouds 16 1027 82 10000 3.1 320 18:39 08.01.2020
1147 Clouds 16 1027 82 10000 3.1 320 18:19 08.01.2020
1148 Clouds 16 1027 82 10000 3.1 320 18:19 08.01.2020
1149 Clouds 17 1026 42 10000 4.6 340 17:57 08.01.2020
1150 Clouds 17 1026 72 10000 4.6 340 17:38 08.01.2020
1151 Clear 17 1026 72 10000 4.6 340 17:19 08.01.2020
1152 Clear 17 1026 72 10000 4.6 340 17:19 08.01.2020
1153 Clear 17 1026 45 10000 3.6 320 16:56 08.01.2020
1154 Clear 17 1026 68 10000 4.1 340 16:38 08.01.2020
1155 Clear 17 1026 68 10000 4.1 340 16:19 08.01.2020
1156 Clear 17 1026 48 10000 3.6 330 15:45 08.01.2020
1157 Clear 17 1026 55 10000 4.1 360 15:22 08.01.2020
1158 Clear 17 1026 48 10000 2.6 330 14:59 08.01.2020
1159 Clear 17 1027 59 10000 5.1 360 14:40 08.01.2020
1160 Clear 17 1027 59 10000 5.1 360 14:40 08.01.2020
1161 Clear 17 1027 59 10000 5.1 360 14:21 08.01.2020
1162 Clear 16 1027 51 10000 1 0 13:41 08.01.2020
1163 Clear 16 1028 59 10000 1 80 13:22 08.01.2020
1164 Clear 15 1028 62 10000 1 0 12:55 08.01.2020
1165 Clear 15 1029 62 8000 3.1 180 12:37 08.01.2020
1166 Clear 15 1029 62 8000 3.1 180 12:18 08.01.2020
1167 Clear 13 1029 66 10000 0.5 0 11:48 08.01.2020
1168 Clear 13 1029 66 10000 0.5 0 11:48 08.01.2020
1169 Clear 12 1029 66 5000 3.1 180 11:19 08.01.2020
1170 Clear 9 1029 81 10000 1.5 150 10:59 08.01.2020
1171 Clear 8 1028 81 5000 1 160 10:40 08.01.2020
1172 Clear 8 1028 81 5000 1 160 10:21 08.01.2020
1173 Clear 8 1028 81 5000 1 160 10:21 08.01.2020
1174 Clear 4 1028 93 10000 2.1 110 09:43 08.01.2020
1175 Clear 3 1028 93 8000 2.6 160 09:20 08.01.2020
1176 Clear 4 1027 93 10000 1.5 160 08:59 08.01.2020
1177 Clear 4 1027 93 10000 1.5 160 08:41 08.01.2020
1178 Clear 4 1027 86 10000 1 160 08:22 08.01.2020
1179 Clear 4 1027 66 8000 1.5 120 07:58 08.01.2020
1180 Clear 4 1027 87 10000 2.1 180 07:39 08.01.2020
1181 Clear 5 1027 87 10000 2.1 180 07:18 08.01.2020
1182 Clear 2 1027 93 6000 2.1 100 06:41 08.01.2020
1183 Clear 3 1026 93 6000 2.1 110 05:56 08.01.2020
1184 Clear 4 1027 93 6000 2.1 60 05:26 08.01.2020
1185 Clear 10 1027 93 8000 2.6 140 04:36 08.01.2020
1186 Clear 9 1027 93 8000 1.5 120 02:46 08.01.2020
1187 Clear 9 1027 93 8000 2.1 100 02:28 08.01.2020
1188 Clear 10 1027 93 8000 2.1 100 01:57 08.01.2020
1189 Clear 10 1028 93 8000 1 0 01:32 08.01.2020
1190 Clear 10 1028 93 8000 1 0 00:51 08.01.2020
1191 Clear 11 1028 93 8000 1.5 130 00:22 08.01.2020
1192 Clear 11 1028 93 8000 3.1 150 23:46 07.01.2020
1193 Clear 11 1028 93 8000 2.1 130 23:21 07.01.2020
1194 Clear 11 1028 93 8000 2.1 130 23:21 07.01.2020
1195 Clear 10 1028 93 8000 1.5 120 22:43 07.01.2020
1196 Clear 11 1028 93 8000 2.1 110 22:21 07.01.2020
1197 Clear 12 1028 87 8000 2.1 10 21:59 07.01.2020
1198 Clear 13 1028 87 8000 2.1 10 21:41 07.01.2020
1199 Clear 13 1028 81 8000 2.1 360 21:21 07.01.2020
1200 Clear 13 1028 81 8000 2.1 360 21:21 07.01.2020
1201 Clear 13 1027 81 8000 2.1 360 20:58 07.01.2020
1202 Clear 13 1027 71 10000 4.1 20 20:39 07.01.2020
1203 Clear 13 1027 71 10000 4.1 20 20:21 07.01.2020
1204 Clear 14 1027 76 10000 2.6 350 19:57 07.01.2020
1205 Clear 14 1027 67 10000 4.1 20 19:37 07.01.2020
1206 Clear 14 1027 67 10000 4.1 20 19:19 07.01.2020
1207 Clear 14 1027 67 10000 4.1 20 19:19 07.01.2020
1208 Clear 15 1027 67 10000 4.1 350 18:56 07.01.2020
1209 Clear 15 1026 62 10000 5.1 20 18:37 07.01.2020
1210 Clear 15 1026 62 10000 5.1 20 18:18 07.01.2020
1211 Clear 16 1026 59 10000 3.1 360 17:42 07.01.2020
1212 Clear 17 1026 51 10000 4.6 340 17:23 07.01.2020
1213 Clear 17 1026 55 10000 3.6 320 16:58 07.01.2020
1214 Clear 17 1026 63 10000 2.67 8 16:39 07.01.2020
1215 Clear 17 1026 63 10000 2.67 8 16:20 07.01.2020
1216 Clear 17 1026 63 10000 2.6 310 15:59 07.01.2020
1217 Clear 17 1026 63 10000 2.6 310 15:41 07.01.2020
1218 Clear 17 1026 63 10000 3.1 340 15:23 07.01.2020
1219 Clear 16 1026 67 10000 2.1 280 14:57 07.01.2020
1220 Clear 16 1027 63 8000 3.1 40 14:37 07.01.2020
1221 Clear 16 1027 63 8000 3.1 40 14:19 07.01.2020
1222 Clear 16 1027 63 8000 3.1 40 14:19 07.01.2020
1223 Clouds 16 1028 67 6000 1 60 13:40 07.01.2020
1224 Clouds 16 1028 67 6000 1 60 13:20 07.01.2020
1225 Clear 15 1028 77 10000 3.1 360 12:54 07.01.2020
1226 Clouds 14 1029 67 6000 1 160 12:36 07.01.2020
1227 Clouds 14 1029 67 6000 1 160 12:18 07.01.2020
1228 Clear 12 1029 76 10000 0.5 0 11:41 07.01.2020
1229 Clouds 12 1029 76 6000 1 160 11:21 07.01.2020
1230 Clear 10 1028 93 10000 0.5 0 10:43 07.01.2020
1231 Clear 8 1028 81 6000 2.1 160 10:24 07.01.2020
1232 Clouds 6 1028 100 10000 1.5 120 09:59 07.01.2020
1233 Clear 4 1027 87 6000 2.1 180 09:38 07.01.2020
1234 Clear 4 1027 87 6000 2.1 180 09:20 07.01.2020
1235 Clear 7 1027 93 8000 1 100 08:47 07.01.2020
1236 Clear 6 1027 87 10000 3.1 200 08:27 07.01.2020
1237 Clear 7 1027 100 8000 1.5 120 07:55 07.01.2020
1238 Clear 7 1026 87 10000 2.1 200 07:34 07.01.2020
1239 Mist 4 1026 100 4000 1.5 110 06:54 07.01.2020
1240 Mist 4 1026 100 4000 1.5 110 06:35 07.01.2020
1241 Mist 4 1027 100 4000 1.5 100 05:57 07.01.2020
1242 Mist 4 1027 100 4000 2.1 90 05:38 07.01.2020
1243 Mist 10 1027 100 2000 2.6 110 03:44 07.01.2020
1244 Mist 11 1027 100 2000 2.1 50 02:25 07.01.2020
1245 Clouds 12 1027 93 6000 1.5 20 01:57 07.01.2020
1246 Clouds 12 1027 93 7000 1.5 20 01:34 07.01.2020
1247 Clouds 13 1027 93 8000 2.1 10 00:40 07.01.2020
1248 Clouds 13 1027 93 8000 2.1 10 00:20 07.01.2020
1249 Clouds 13 1027 93 8000 3.1 360 23:55 06.01.2020
1250 Clouds 13 1027 93 8000 3.1 360 23:36 06.01.2020
1251 Clouds 13 1027 93 8000 3.1 360 23:18 06.01.2020
1252 Clouds 13 1027 93 8000 2.6 360 22:43 06.01.2020
1253 Clouds 14 1027 87 8000 2.6 360 22:23 06.01.2020
1254 Clouds 14 1027 93 8000 3.6 360 21:58 06.01.2020
1255 Clouds 13 1027 93 8000 2.6 360 21:39 06.01.2020
1256 Clouds 14 1027 93 8000 2.6 360 21:20 06.01.2020
1257 Clouds 14 1027 93 8000 2.6 360 21:20 06.01.2020
1258 Clouds 14 1027 93 8000 2.6 360 21:20 06.01.2020
1259 Clouds 14 1026 87 10000 3.6 360 20:57 06.01.2020
1260 Clouds 14 1026 77 10000 3.6 20 20:38 06.01.2020
1261 Clouds 14 1026 77 10000 3.6 20 20:20 06.01.2020
1262 Clouds 14 1026 87 10000 3.6 360 19:56 06.01.2020
1263 Clouds 14 1025 72 10000 3.1 40 19:38 06.01.2020
1264 Clouds 15 1025 72 10000 3.1 40 19:19 06.01.2020
1265 Clouds 16 1025 72 10000 4.1 350 18:47 06.01.2020
1266 Clouds 16 1025 72 10000 4.1 350 18:47 06.01.2020
1267 Clouds 16 1025 72 10000 5.1 40 18:21 06.01.2020
1268 Clouds 16 1025 67 10000 5.7 350 17:58 06.01.2020
1269 Clouds 16 1025 67 10000 5.1 20 17:38 06.01.2020
1270 Clouds 16 1025 67 10000 5.1 20 17:18 06.01.2020
1271 Clouds 17 1024 59 10000 5.1 360 16:44 06.01.2020
1272 Clouds 17 1025 55 10000 4.1 40 16:25 06.01.2020
1273 Clouds 17 1025 55 10000 3.1 350 15:59 06.01.2020
1274 Clouds 17 1025 55 10000 5.7 20 15:39 06.01.2020
1275 Clouds 17 1025 55 10000 5.7 20 15:19 06.01.2020
1276 Clouds 17 1025 59 10000 2.6 30 14:57 06.01.2020
1277 Clouds 16 1026 55 10000 4.1 20 14:39 06.01.2020
1278 Clouds 16 1026 55 10000 4.1 20 14:18 06.01.2020
1279 Clouds 16 1026 59 10000 2.6 50 13:42 06.01.2020
1280 Clouds 16 1027 59 8000 3.6 20 13:22 06.01.2020
1281 Clouds 15 1027 62 10000 1.5 0 12:59 06.01.2020
1282 Clouds 15 1027 62 10000 1.5 0 12:41 06.01.2020
1283 Clouds 15 1028 63 8000 2.1 20 12:20 06.01.2020
1284 Clouds 13 1027 71 8000 1 0 11:56 06.01.2020
1285 Clouds 12 1027 76 5000 2.1 180 11:38 06.01.2020
1286 Clouds 12 1027 76 5000 2.1 180 11:20 06.01.2020
1287 Clouds 12 1027 76 5000 2.1 180 11:20 06.01.2020
1288 Clouds 10 1027 87 6000 2.1 200 10:42 06.01.2020
1289 Clouds 8 1027 81 5000 2.6 160 10:21 06.01.2020
1290 Mist 6 1027 93 4000 0.5 0 09:42 06.01.2020
1291 Mist 6 1027 93 4000 0.5 0 09:24 06.01.2020
1292 Clouds 6 1027 93 10000 1.5 110 08:58 06.01.2020
1293 Clouds 5 1026 87 10000 2.6 160 08:40 06.01.2020
1294 Clear 6 1026 87 10000 2.6 160 08:21 06.01.2020
1295 Clear 6 1026 93 10000 1.5 110 07:48 06.01.2020
1296 Clear 6 1026 87 10000 2.1 160 07:21 06.01.2020
1297 Clear 6 1026 87 10000 2.1 160 07:21 06.01.2020
1298 Clear 4 1025 93 8000 1.5 100 06:41 06.01.2020
1299 Clouds 4 1025 93 6000 2.6 100 05:51 06.01.2020
1300 Clouds 4 1025 93 6000 1.5 90 05:33 06.01.2020
1301 Clouds 10 1025 93 5000 1 100 04:26 06.01.2020
1302 Clouds 9 1025 93 6000 1 120 03:53 06.01.2020
1303 Clouds 9 1025 93 6000 1.5 100 02:32 06.01.2020
1304 Clouds 10 1025 93 8000 2.1 110 01:56 06.01.2020
1305 Clouds 10 1026 93 8000 1 110 01:32 06.01.2020
1306 Clouds 10 1026 93 8000 1 140 00:57 06.01.2020
1307 Clouds 10 1026 93 8000 1.5 150 00:39 06.01.2020
1308 Clouds 10 1026 93 8000 1.5 150 00:18 06.01.2020
1309 Clouds 10 1026 93 8000 2.6 150 23:40 05.01.2020
1310 Clouds 11 1026 93 8000 2.6 150 23:21 05.01.2020
1311 Clouds 11 1026 93 8000 1 110 22:40 05.01.2020
1312 Clouds 11 1026 93 8000 1 110 22:21 05.01.2020
1313 Clear 11 1025 93 8000 1.5 70 21:59 05.01.2020
1314 Clear 12 1025 87 8000 1.5 20 21:40 05.01.2020
1315 Clear 12 1025 87 8000 1.5 20 21:20 05.01.2020
1316 Clear 13 1025 81 10000 2.6 10 20:58 05.01.2020
1317 Clear 13 1025 76 10000 2.1 360 20:39 05.01.2020
1318 Clear 13 1025 76 10000 2.1 360 20:19 05.01.2020
1319 Clouds 14 1025 76 10000 2.6 350 19:59 05.01.2020
1320 Clouds 14 1025 71 10000 2.1 20 19:39 05.01.2020
1321 Clouds 14 1025 71 10000 2.1 20 19:20 05.01.2020
1322 Clouds 15 1025 67 10000 2.6 350 18:56 05.01.2020
1323 Clouds 15 1024 67 10000 4.1 360 18:38 05.01.2020
1324 Clouds 15 1024 67 10000 4.1 360 18:19 05.01.2020
1325 Clouds 15 1024 67 10000 4.1 360 18:19 05.01.2020
1326 Clouds 16 1024 63 10000 2.1 310 17:58 05.01.2020
1327 Clouds 16 1024 63 10000 2.1 310 17:39 05.01.2020
1328 Clouds 16 1024 63 10000 2.1 310 17:20 05.01.2020
1329 Clouds 17 1024 63 10000 2.1 300 16:57 05.01.2020
1330 Clouds 16 1024 55 10000 3.1 320 16:39 05.01.2020
1331 Clouds 16 1024 55 10000 3.1 320 16:19 05.01.2020
1332 Clouds 16 1025 59 10000 4.1 340 15:40 05.01.2020
1333 Clouds 16 1025 59 10000 4.1 340 15:21 05.01.2020
1334 Clouds 16 1025 63 10000 2.1 340 14:57 05.01.2020
1335 Clouds 16 1025 63 10000 3.1 320 14:38 05.01.2020
1336 Clouds 16 1025 63 10000 3.1 320 14:20 05.01.2020
1337 Clouds 16 1026 63 10000 2.1 350 13:57 05.01.2020
1338 Clouds 16 1026 59 10000 2.1 100 13:38 05.01.2020
1339 Clouds 16 1026 59 10000 2.1 100 13:38 05.01.2020
1340 Clouds 16 1026 59 10000 2.1 100 13:19 05.01.2020
1341 Clouds 16 1026 59 10000 2.1 100 13:19 05.01.2020
1342 Clear 15 1027 63 10000 2.1 40 12:56 05.01.2020
1343 Clear 15 1027 63 10000 2.1 40 12:56 05.01.2020
1344 Clouds 15 1027 63 6000 1.5 160 12:37 05.01.2020
1345 Clouds 15 1027 63 6000 1.5 160 12:19 05.01.2020
1346 Clear 13 1027 76 10000 2.1 110 11:44 05.01.2020
1347 Clear 13 1027 71 6000 3.1 160 11:20 05.01.2020
1348 Clear 11 1027 87 5000 2.6 130 10:59 05.01.2020
1349 Clouds 10 1027 81 6000 2.1 160 10:40 05.01.2020
1350 Clouds 10 1027 81 6000 2.1 160 10:19 05.01.2020
1351 Mist 7 1027 100 3000 1.5 130 09:42 05.01.2020
1352 Clouds 7 1027 87 6000 2.1 160 09:22 05.01.2020
1353 Fog 7 1027 100 700 1 0 08:51 05.01.2020
1354 Clouds 7 1027 87 5000 2.1 180 08:32 05.01.2020
1355 Fog 7 1026 100 500 1 0 07:59 05.01.2020
1356 Clouds 7 1027 87 5000 3.1 180 07:39 05.01.2020
1357 Clouds 7 1027 87 5000 3.1 180 07:39 05.01.2020
1358 Clouds 7 1027 87 5000 3.1 180 07:20 05.01.2020
1359 Fog 3 1027 100 800 2.1 140 06:40 05.01.2020
1360 Mist 2 1027 100 1500 2.1 150 05:34 05.01.2020
1361 Fog 10 1027 100 100 1 150 04:49 05.01.2020
1362 Fog 10 1027 100 400 1.5 110 04:18 05.01.2020
1363 Fog 9 1027 100 300 2.1 130 03:18 05.01.2020
1364 Clouds 10 1028 100 300 1 120 02:32 05.01.2020
1365 Fog 10 1028 100 300 1 140 01:49 05.01.2020
1366 Fog 11 1028 100 400 1.5 120 01:20 05.01.2020
1367 Fog 10 1028 100 500 2.1 130 00:56 05.01.2020
1368 Mist 11 1028 93 1300 1.5 100 00:37 05.01.2020
1369 Mist 11 1028 93 1300 1.5 100 00:19 05.01.2020
1370 Mist 12 1028 93 8000 2.6 10 23:40 04.01.2020
1371 Mist 13 1028 93 8000 2.6 10 23:20 04.01.2020
1372 Clear 12 1028 93 8000 2.6 10 22:40 04.01.2020
1373 Clear 13 1028 93 8000 2.6 10 22:22 04.01.2020
1374 Clouds 13 1028 87 8000 2.6 10 21:58 04.01.2020
1375 Clouds 13 1028 87 8000 2.6 360 21:40 04.01.2020
1376 Clouds 13 1028 87 8000 2.6 360 21:22 04.01.2020
1377 Clouds 13 1028 87 10000 2.1 360 20:59 04.01.2020
1378 Clear 13 1028 71 10000 5.1 20 20:40 04.01.2020
1379 Clear 13 1028 71 10000 5.1 20 20:22 04.01.2020
1380 Clear 14 1028 76 10000 2.6 350 19:57 04.01.2020
1381 Clear 14 1028 67 10000 2.6 20 19:38 04.01.2020
1382 Clear 15 1028 67 10000 2.6 20 19:20 04.01.2020
1383 Clear 16 1028 71 10000 4.1 350 18:56 04.01.2020
1384 Clear 16 1028 52 10000 5.7 20 18:37 04.01.2020
1385 Clear 16 1028 52 10000 5.7 20 18:19 04.01.2020
1386 Clouds 16 1028 63 10000 4.6 350 17:41 04.01.2020
1387 Clouds 17 1028 59 10000 5.1 350 17:23 04.01.2020
1388 Clouds 17 1028 59 10000 5.1 10 16:59 04.01.2020
1389 Clear 17 1028 52 10000 4.6 60 16:40 04.01.2020
1390 Clear 17 1028 52 10000 4.6 60 16:21 04.01.2020
1391 Clouds 17 1028 59 10000 5.7 10 15:56 04.01.2020
1392 Clear 17 1029 52 10000 3.6 20 15:38 04.01.2020
1393 Clear 17 1029 52 10000 3.6 20 15:18 04.01.2020
1394 Clear 18 1029 59 10000 4.6 360 14:42 04.01.2020
1395 Clear 18 1029 59 10000 4.6 360 14:42 04.01.2020
1396 Clouds 17 1030 55 10000 3.6 40 14:20 04.01.2020
1397 Clouds 17 1030 63 10000 4.6 20 13:59 04.01.2020
1398 Clouds 17 1031 59 10000 5.1 40 13:38 04.01.2020
1399 Clouds 17 1031 59 10000 5.1 40 13:19 04.01.2020
1400 Clouds 16 1031 63 10000 5.7 30 12:57 04.01.2020
1401 Clouds 16 1031 63 10000 5.7 30 12:57 04.01.2020
1402 Clouds 16 1031 59 10000 6.2 80 12:39 04.01.2020
1403 Clouds 16 1031 59 10000 6.2 80 12:19 04.01.2020
1404 Clouds 14 1032 76 10000 2.6 60 11:57 04.01.2020
1405 Clouds 14 1032 76 10000 2.6 60 11:57 04.01.2020
1406 Clouds 14 1032 71 10000 3.1 140 11:38 04.01.2020
1407 Clouds 14 1032 71 10000 3.1 140 11:38 04.01.2020
1408 Clouds 14 1032 71 10000 3.1 140 11:18 04.01.2020
1409 Clouds 11 1031 76 10000 3.1 140 10:41 04.01.2020
1410 Clouds 11 1031 76 10000 3.1 140 10:22 04.01.2020
1411 Clouds 9 1031 100 10000 1.5 70 09:48 04.01.2020
1412 Clouds 8 1031 81 10000 3.1 160 09:26 04.01.2020
1413 Clouds 8 1031 100 8000 1 90 08:49 04.01.2020
1414 Clouds 8 1030 81 10000 2.1 180 08:29 04.01.2020
1415 Clouds 8 1031 100 7000 1.5 90 07:59 04.01.2020
1416 Clouds 7 1030 100 7000 2.1 80 07:40 04.01.2020
1417 Clouds 5 1030 93 7000 2.1 50 06:46 04.01.2020
1418 Clouds 5 1030 100 8000 2.1 60 05:59 04.01.2020
1419 Clouds 12 1031 100 8000 2.1 90 04:53 04.01.2020
1420 Clouds 11 1031 100 8000 1.5 70 04:32 04.01.2020
1421 Clouds 10 1031 100 10000 1 110 03:37 04.01.2020
1422 Clouds 11 1031 100 10000 1 110 03:18 04.01.2020
1423 Clouds 11 1031 100 7000 1 60 02:20 04.01.2020
1424 Clouds 12 1032 100 10000 2.1 40 01:51 04.01.2020
1425 Clouds 12 1032 93 10000 2.1 50 01:30 04.01.2020
1426 Clouds 13 1033 93 10000 2.1 40 00:29 04.01.2020
1427 Clouds 13 1033 93 7000 2.1 30 23:59 03.01.2020
1428 Mist 12 1033 100 4000 2.1 40 23:37 03.01.2020
1429 Mist 13 1033 100 4000 2.1 40 23:19 03.01.2020
1430 Mist 13 1032 100 4000 2.6 10 22:41 03.01.2020
1431 Mist 14 1032 100 4000 2.6 10 22:19 03.01.2020
1432 Clouds 14 1032 100 4000 3.1 360 21:58 03.01.2020
1433 Clouds 13 1032 100 6000 2.6 360 21:38 03.01.2020
1434 Clouds 13 1032 100 6000 2.6 360 21:38 03.01.2020
1435 Clouds 14 1032 100 6000 2.6 360 21:19 03.01.2020
1436 Clouds 14 1032 100 6000 2.6 360 21:19 03.01.2020
1437 Clouds 14 1032 93 5000 3.1 350 20:56 03.01.2020
1438 Clouds 14 1032 82 8000 2.1 40 20:38 03.01.2020
1439 Clouds 14 1032 82 8000 2.1 40 20:18 03.01.2020
1440 Clouds 14 1031 93 5000 3.1 350 19:55 03.01.2020
1441 Clouds 14 1031 82 10000 2.1 20 19:37 03.01.2020
1442 Clouds 14 1031 82 10000 2.1 20 19:18 03.01.2020
1443 Clouds 16 1031 77 10000 4.6 20 18:40 03.01.2020
1444 Clouds 16 1031 77 10000 4.6 20 18:21 03.01.2020
1445 Clouds 16 1031 77 10000 4.1 360 17:54 03.01.2020
1446 Clouds 16 1031 72 10000 5.1 20 17:36 03.01.2020
1447 Clouds 16 1031 72 10000 5.1 20 17:18 03.01.2020
1448 Clouds 16 1030 72 10000 4.6 350 16:42 03.01.2020
1449 Clouds 17 1031 72 10000 4.6 20 16:22 03.01.2020
1450 Clouds 17 1031 63 10000 3.1 360 15:43 03.01.2020
1451 Clouds 17 1031 68 8000 4.1 20 15:19 03.01.2020
1452 Clouds 17 1031 68 8000 4.1 20 15:19 03.01.2020
1453 Clouds 17 1031 68 8000 4.1 20 15:19 03.01.2020
1454 Clouds 17 1031 67 10000 3.1 10 14:56 03.01.2020
1455 Clouds 16 1032 67 8000 2.1 80 14:37 03.01.2020
1456 Clouds 16 1032 67 8000 2.1 80 14:19 03.01.2020
1457 Clouds 16 1032 72 10000 2.1 40 13:41 03.01.2020
1458 Clouds 16 1032 72 6000 3.1 100 13:23 03.01.2020
1459 Clouds 16 1033 77 8000 2.1 50 12:56 03.01.2020
1460 Clouds 15 1033 77 6000 2.1 100 12:38 03.01.2020
1461 Clouds 15 1033 77 6000 2.1 100 12:19 03.01.2020
1462 Clouds 13 1033 87 6000 1 0 11:42 03.01.2020
1463 Clouds 13 1033 87 5000 1 140 11:18 03.01.2020
1464 Mist 11 1033 100 4000 1 0 10:43 03.01.2020
1465 Clouds 10 1032 93 10000 1 160 10:24 03.01.2020
1466 Mist 8 1032 100 3000 1 90 09:57 03.01.2020
1467 Clouds 7 1031 93 10000 2.1 180 09:38 03.01.2020
1468 Clouds 7 1031 93 10000 2.1 180 09:20 03.01.2020
1469 Fog 7 1032 100 450 1.5 100 08:54 03.01.2020
1470 Clouds 7 1031 93 10000 2.1 180 08:36 03.01.2020
1471 Clouds 7 1031 93 10000 2.1 180 08:18 03.01.2020
1472 Clouds 8 1031 93 10000 2.1 160 07:39 03.01.2020
1473 Clouds 8 1031 93 10000 2.1 160 07:18 03.01.2020
1474 Clouds 8 1031 93 10000 2.1 160 07:18 03.01.2020
1475 Fog 8 1031 100 300 1.5 90 06:42 03.01.2020
1476 Fog 8 1030 100 350 1.5 120 06:24 03.01.2020
1477 Clouds 12 1030 100 6000 1.5 130 05:20 03.01.2020
1478 Clouds 10 1030 100 8000 1.5 120 03:55 03.01.2020
1479 Clouds 11 1031 100 8000 0.5 130 02:55 03.01.2020
1480 Clear 10 1031 100 8000 1 110 01:57 03.01.2020
1481 Clear 11 1031 100 8000 2.1 130 01:36 03.01.2020
1482 Clouds 11 1031 100 8000 1.5 100 00:46 03.01.2020
1483 Clouds 11 1031 93 10000 1 130 00:26 03.01.2020
1484 Clouds 12 1031 93 8000 2.1 120 23:55 02.01.2020
1485 Clouds 11 1031 93 7000 1 120 23:37 02.01.2020
1486 Clouds 12 1031 93 7000 1 120 23:18 02.01.2020
1487 Clouds 12 1031 93 7000 2.1 100 22:42 02.01.2020
1488 Clouds 12 1031 100 8000 1.5 110 22:20 02.01.2020
1489 Clouds 12 1031 93 10000 1.5 110 21:57 02.01.2020
1490 Clouds 12 1031 93 10000 1.5 110 21:57 02.01.2020
1491 Clouds 13 1031 93 10000 1 0 21:38 02.01.2020
1492 Clouds 13 1031 93 10000 1 0 21:20 02.01.2020
1493 Clouds 14 1031 87 10000 2.1 360 20:56 02.01.2020
1494 Clear 13 1030 82 10000 1 20 20:38 02.01.2020
1495 Clear 13 1030 82 10000 1 20 20:20 02.01.2020
1496 Clouds 15 1030 87 10000 3.1 320 19:55 02.01.2020
1497 Clear 15 1030 72 10000 3.1 360 19:36 02.01.2020
1498 Clear 15 1030 72 10000 3.1 360 19:18 02.01.2020
1499 Clouds 16 1029 82 10000 4.1 320 18:54 02.01.2020
1500 Clear 16 1029 67 10000 4.1 340 18:36 02.01.2020
1501 Clear 17 1029 67 10000 4.1 340 18:18 02.01.2020
1502 Clouds 17 1029 72 10000 4.6 310 17:55 02.01.2020
1503 Clear 18 1029 63 10000 3.1 340 17:36 02.01.2020
1504 Clear 18 1029 63 10000 3.1 340 17:18 02.01.2020
1505 Clouds 18 1029 63 10000 2.1 280 16:41 02.01.2020
1506 Clear 18 1029 63 10000 3.1 300 16:20 02.01.2020
1507 Clouds 18 1029 63 10000 2.1 220 15:58 02.01.2020
1508 Clouds 18 1029 59 10000 3.1 340 15:40 02.01.2020
1509 Clouds 18 1029 59 10000 3.1 340 15:22 02.01.2020
1510 Clouds 18 1030 63 10000 2.1 220 14:57 02.01.2020
1511 Clouds 18 1030 59 10000 2.1 240 14:36 02.01.2020
1512 Clouds 18 1030 59 10000 2.1 240 14:18 02.01.2020
1513 Clouds 17 1030 67 10000 1 0 13:50 02.01.2020
1514 Clouds 17 1031 63 8000 2.1 160 13:31 02.01.2020
1515 Clear 17 1031 77 10000 1.5 190 12:46 02.01.2020
1516 Clouds 16 1032 72 6000 3.1 200 12:28 02.01.2020
1517 Clouds 14 1032 76 6000 5.1 180 11:59 02.01.2020
1518 Clouds 14 1032 76 6000 5.1 180 11:40 02.01.2020
1519 Clouds 13 1032 76 6000 5.1 180 11:20 02.01.2020
1520 Clouds 11 1032 93 5000 2.6 0 10:45 02.01.2020
1521 Mist 9 1031 100 3000 2.6 140 10:26 02.01.2020
1522 Mist 9 1031 100 3000 2.1 140 09:52 02.01.2020
1523 Clouds 8 1030 93 6000 4.1 180 09:33 02.01.2020
1524 Clouds 8 1030 100 6000 2.1 160 08:48 02.01.2020
1525 Clear 8 1030 93 10000 4.1 180 08:27 02.01.2020
1526 Clouds 4 1030 93 5000 2.1 150 07:54 02.01.2020
1527 Mist 5 1029 93 4000 1.5 160 07:31 02.01.2020
1528 Mist 5 1029 93 3000 2.1 150 06:55 02.01.2020
1529 Mist 5 1029 93 3000 2.1 160 06:36 02.01.2020
1530 Mist 5 1029 93 3000 2.1 160 06:36 02.01.2020
1531 Mist 5 1029 93 4000 1 160 05:36 02.01.2020
1532 Clouds 12 1029 93 8000 2.1 120 04:33 02.01.2020
1533 Clouds 11 1029 93 8000 2.1 120 02:55 02.01.2020
1534 Clouds 11 1029 93 8000 2.1 120 02:20 02.01.2020
1535 Clouds 11 1030 93 7000 2.6 120 01:46 02.01.2020
1536 Clouds 11 1030 93 8000 2.1 100 01:19 02.01.2020
1537 Clouds 12 1030 93 8000 2.1 120 00:34 02.01.2020
1538 Clouds 12 1031 93 8000 2.1 120 23:58 01.01.2020
1539 Clear 12 1031 93 8000 2.1 120 23:40 01.01.2020
1540 Clear 12 1031 93 8000 2.1 120 23:19 01.01.2020
1541 Clear 12 1031 93 8000 2.1 120 22:38 01.01.2020
1542 Clear 12 1031 93 8000 2.1 120 22:38 01.01.2020
1543 Clear 13 1031 93 8000 2.1 120 22:20 01.01.2020
1544 Clear 13 1031 93 8000 2.1 120 22:20 01.01.2020
1545 Clear 13 1031 93 8000 2.1 120 22:20 01.01.2020
1546 Clear 13 1031 93 10000 2.6 110 21:56 01.01.2020
1547 Clouds 14 1030 77 5000 1 260 21:38 01.01.2020
1548 Clouds 14 1030 77 5000 1 260 21:19 01.01.2020
1549 Clear 14 1030 93 10000 1.5 320 20:56 01.01.2020
1550 Clouds 14 1030 77 5000 1 280 20:38 01.01.2020
1551 Clouds 14 1030 77 5000 1 280 20:19 01.01.2020
1552 Clear 15 1030 87 10000 2.1 320 19:55 01.01.2020
1553 Clouds 15 1030 72 5000 2.1 260 19:37 01.01.2020
1554 Clouds 15 1030 72 5000 2.1 260 19:37 01.01.2020
1555 Clouds 15 1030 72 5000 2.1 260 19:19 01.01.2020
1556 Clear 16 1030 77 10000 2.6 260 18:55 01.01.2020
1557 Clouds 17 1030 72 5000 2.1 280 18:36 01.01.2020
1558 Clouds 17 1030 72 5000 2.1 280 18:36 01.01.2020
1559 Clouds 17 1030 72 5000 2.1 280 18:36 01.01.2020
1560 Clouds 17 1030 72 5000 2.1 280 18:18 01.01.2020
1561 Clear 17 1030 63 10000 3.6 240 17:56 01.01.2020
1562 Clear 17 1030 63 10000 3.6 240 17:56 01.01.2020
1563 Clear 17 1030 68 8000 5.1 280 17:37 01.01.2020
1564 Clear 18 1030 68 8000 5.1 280 17:18 01.01.2020
1565 Clear 18 1029 68 6000 2.6 300 16:40 01.01.2020
1566 Clear 18 1029 68 6000 2.6 300 16:22 01.01.2020
1567 Clear 18 1029 48 10000 4.6 240 15:58 01.01.2020
1568 Clear 18 1029 68 5000 4.6 300 15:40 01.01.2020
1569 Clear 18 1029 68 5000 4.6 300 15:21 01.01.2020
1570 Clear 18 1030 45 10000 4.6 220 14:58 01.01.2020
1571 Clear 18 1030 63 5000 2.1 260 14:40 01.01.2020
1572 Clear 18 1030 63 5000 2.1 260 14:21 01.01.2020
1573 Clear 18 1030 48 10000 5.7 230 13:56 01.01.2020
1574 Clear 17 1031 63 10000 4.6 260 13:37 01.01.2020
1575 Clear 17 1031 63 10000 4.6 260 13:37 01.01.2020
1576 Clear 17 1031 63 10000 4.6 260 13:37 01.01.2020
1577 Clear 17 1031 63 10000 4.6 260 13:37 01.01.2020
1578 Clear 17 1031 63 10000 4.6 260 13:18 01.01.2020
1579 Clear 16 1031 51 10000 5.1 230 12:55 01.01.2020
1580 Clear 16 1031 59 10000 4.1 240 12:37 01.01.2020
1581 Clear 16 1031 59 10000 4.1 240 12:18 01.01.2020
1582 Clear 15 1031 55 10000 3.6 200 11:43 01.01.2020
1583 Clear 14 1031 62 10000 2.6 220 11:22 01.01.2020
1584 Clear 11 1031 76 10000 1.5 210 10:59 01.01.2020
1585 Clear 11 1030 81 8000 1 100 10:40 01.01.2020
1586 Clear 11 1030 81 8000 1 100 10:20 01.01.2020
1587 Clear 11 1030 81 8000 1 100 10:20 01.01.2020
1588 Clear 9 1030 93 10000 1.5 190 09:56 01.01.2020
1589 Clear 7 1029 81 10000 1 200 09:37 01.01.2020
1590 Clear 7 1029 81 10000 1 200 09:18 01.01.2020
1591 Clear 8 1029 93 10000 3.1 150 08:55 01.01.2020
1592 Clear 7 1029 87 10000 2.1 180 08:36 01.01.2020
1593 Clear 7 1029 87 10000 2.1 180 08:36 01.01.2020
1594 Clear 7 1029 87 10000 2.1 180 08:36 01.01.2020
1595 Clear 7 1029 87 10000 2.1 180 08:36 01.01.2020
1596 Clear 8 1029 87 10000 2.1 180 08:18 01.01.2020
1597 Clear 9 1029 93 10000 3.6 150 07:48 01.01.2020
1598 Clear 9 1028 81 10000 4.1 180 07:30 01.01.2020
1599 Clouds 5 1028 100 10000 2.1 150 06:44 01.01.2020
1600 Clouds 6 1028 93 10000 1.5 160 06:20 01.01.2020
1601 Clouds 11 1028 100 9000 2.6 170 05:21 01.01.2020
1602 Clouds 10 1028 93 6000 1.5 140 03:43 01.01.2020
1603 Clouds 10 1028 93 6000 2.1 120 03:22 01.01.2020
1604 Clouds 10 1028 93 6000 2.1 120 03:22 01.01.2020
1605 Clouds 9 1028 93 6000 2.1 170 02:56 01.01.2020
1606 Clouds 9 1028 93 6000 2.1 170 02:33 01.01.2020
1607 Clouds 10 1028 93 6000 2.1 130 01:45 01.01.2020
1608 Clouds 10 1028 100 6000 2.1 130 01:25 01.01.2020
1609 Clouds 10 1029 93 6000 2.1 140 00:57 01.01.2020
1610 Clouds 10 1029 93 6000 2.1 140 00:38 01.01.2020
1611 Clouds 10 1029 93 6000 2.1 140 00:20 01.01.2020
1612 Clouds 11 1028 100 10000 0.5 130 23:40 31.12.2019
1613 Clouds 11 1028 100 10000 0.5 130 23:21 31.12.2019
1614 Clouds 11 1028 93 10000 1 140 22:57 31.12.2019
1615 Clouds 12 1028 87 10000 1.5 130 22:38 31.12.2019
1616 Clouds 12 1028 87 10000 1.5 130 22:18 31.12.2019
1617 Clear 12 1028 87 10000 2.1 120 21:54 31.12.2019
1618 Clear 12 1027 87 10000 1 360 21:36 31.12.2019
1619 Clear 12 1027 87 10000 1 360 21:18 31.12.2019
1620 Clear 13 1027 82 10000 1 20 20:40 31.12.2019
1621 Clear 13 1027 82 10000 1 20 20:21 31.12.2019
1622 Clear 14 1027 87 10000 2.6 320 19:59 31.12.2019
1623 Clear 14 1027 72 10000 1 20 19:40 31.12.2019
1624 Clear 14 1027 72 10000 1 20 19:22 31.12.2019
1625 Clear 15 1027 71 10000 2.6 320 18:58 31.12.2019
1626 Clear 16 1027 72 10000 3.1 300 18:40 31.12.2019
1627 Clear 16 1027 72 10000 3.1 300 18:19 31.12.2019
1628 Clear 17 1026 67 10000 2.6 310 17:56 31.12.2019
1629 Clear 17 1026 63 10000 3.1 320 17:37 31.12.2019
1630 Clear 17 1026 63 10000 3.1 320 17:19 31.12.2019
1631 Clear 17 1026 63 10000 3.1 320 17:19 31.12.2019
1632 Clear 18 1026 52 10000 2.6 290 16:56 31.12.2019
1633 Clear 18 1026 59 10000 3.1 340 16:37 31.12.2019
1634 Clear 18 1026 59 10000 3.1 340 16:19 31.12.2019
1635 Clear 18 1026 52 10000 2.1 290 15:56 31.12.2019
1636 Clear 18 1026 59 10000 2.1 340 15:38 31.12.2019
1637 Clear 18 1026 59 10000 2.1 340 15:38 31.12.2019
1638 Clear 18 1026 59 10000 2.1 340 15:20 31.12.2019
1639 Clear 18 1026 48 10000 2.1 290 14:56 31.12.2019
1640 Clear 18 1027 68 8000 3.6 360 14:37 31.12.2019
1641 Clear 18 1027 68 8000 3.6 360 14:19 31.12.2019
1642 Clear 17 1027 52 10000 1.5 230 13:56 31.12.2019
1643 Mist 17 1027 59 4000 1 200 13:38 31.12.2019
1644 Mist 17 1027 59 4000 1 200 13:20 31.12.2019
1645 Clear 16 1028 67 10000 1.5 200 12:56 31.12.2019
1646 Mist 15 1028 72 3000 2.1 240 12:38 31.12.2019
1647 Mist 15 1028 72 3000 2.1 240 12:19 31.12.2019
1648 Clear 13 1028 87 10000 1 0 11:55 31.12.2019
1649 Mist 13 1028 87 3000 2.1 140 11:37 31.12.2019
1650 Mist 13 1028 87 3000 2.1 140 11:37 31.12.2019
1651 Mist 13 1028 87 3000 2.1 140 11:19 31.12.2019
1652 Clear 11 1028 93 10000 2.1 200 10:56 31.12.2019
1653 Mist 9 1028 93 3000 2.1 160 10:37 31.12.2019
1654 Mist 9 1028 93 3000 2.1 160 10:19 31.12.2019
1655 Mist 5 1026 100 400 1 160 09:58 31.12.2019
1656 Clear 5 1026 100 8000 1 160 09:38 31.12.2019
1657 Clear 5 1026 100 8000 1 160 09:19 31.12.2019
1658 Fog 5 1026 100 4000 1 0 08:43 31.12.2019
1659 Clear 6 1026 93 10000 1 180 08:24 31.12.2019
1660 Mist 6 1026 100 4000 1.5 140 07:59 31.12.2019
1661 Mist 6 1026 100 4000 1.5 140 07:41 31.12.2019
1662 Clear 6 1025 93 10000 3.1 180 07:19 31.12.2019
1663 Fog 3 1025 100 300 1.5 180 06:41 31.12.2019
1664 Fog 3 1025 100 200 1.5 140 05:45 31.12.2019
1665 Fog 11 1025 100 200 1 140 04:27 31.12.2019
1666 Fog 10 1025 100 400 1.5 150 03:24 31.12.2019
1667 Fog 10 1025 100 300 1.5 150 02:39 31.12.2019
1668 Fog 10 1025 100 400 1.5 120 01:53 31.12.2019
1669 Fog 10 1026 100 600 1.5 160 01:32 31.12.2019
1670 Fog 10 1026 100 750 1 0 00:56 31.12.2019
1671 Fog 11 1026 100 750 0.5 0 00:37 31.12.2019
1672 Fog 12 1026 100 750 0.5 0 00:18 31.12.2019
1673 Fog 12 1026 100 750 0.5 0 00:18 31.12.2019
1674 Drizzle 12 1026 100 1000 0.5 0 23:55 30.12.2019
1675 Fog 11 1026 100 450 1.5 120 23:36 30.12.2019
1676 Fog 12 1026 100 450 1.5 120 23:18 30.12.2019
1677 Fog 12 1026 100 400 1.5 120 22:55 30.12.2019
1678 Fog 12 1026 100 400 1.5 120 22:55 30.12.2019
1679 Clouds 13 1026 93 5000 1 0 22:36 30.12.2019
1680 Clouds 13 1026 93 5000 1 0 22:18 30.12.2019
1681 Mist 13 1025 93 3000 1 0 21:55 30.12.2019
1682 Mist 13 1025 93 3000 1 0 21:55 30.12.2019
1683 Mist 13 1025 93 3000 1 0 21:55 30.12.2019
1684 Mist 14 1025 93 2000 2.6 360 21:37 30.12.2019
1685 Mist 14 1025 93 2000 2.6 360 21:18 30.12.2019
1686 Mist 14 1025 100 2000 2.6 360 20:54 30.12.2019
1687 Mist 14 1025 100 2000 2.1 360 20:36 30.12.2019
1688 Mist 15 1025 100 2000 2.1 360 20:18 30.12.2019
1689 Clouds 16 1025 93 6000 3.1 350 19:55 30.12.2019
1690 Clear 15 1025 82 10000 3.1 20 19:36 30.12.2019
1691 Clear 16 1025 82 10000 3.1 20 19:18 30.12.2019
1692 Clear 16 1025 82 10000 3.1 20 19:18 30.12.2019
1693 Clouds 16 1025 77 8000 4.1 360 18:41 30.12.2019
1694 Clouds 17 1025 82 10000 4.1 20 18:21 30.12.2019
1695 Clouds 17 1025 72 8000 3.6 350 17:59 30.12.2019
1696 Clear 17 1025 77 10000 5.1 20 17:41 30.12.2019
1697 Clear 17 1025 77 10000 5.1 20 17:20 30.12.2019
1698 Clouds 18 1024 56 8000 3.1 340 16:59 30.12.2019
1699 Clear 18 1025 72 10000 4.1 40 16:40 30.12.2019
1700 Clear 18 1025 72 10000 4.1 40 16:20 30.12.2019
1701 Clouds 18 1024 46 10000 2.6 360 15:57 30.12.2019
1702 Clear 18 1025 88 10000 4.1 20 15:39 30.12.2019
1703 Clear 18 1025 88 10000 4.1 20 15:19 30.12.2019
1704 Clouds 18 1025 49 10000 2.6 360 14:55 30.12.2019
1705 Clear 18 1025 88 10000 3.1 340 14:37 30.12.2019
1706 Clear 18 1025 88 10000 3.1 340 14:18 30.12.2019
1707 Clear 18 1026 49 10000 2.1 20 13:42 30.12.2019
1708 Clear 18 1026 63 8000 3.1 20 13:23 30.12.2019
1709 Clear 17 1026 59 10000 1.5 280 12:58 30.12.2019
1710 Clear 16 1027 59 8000 1 20 12:40 30.12.2019
1711 Clear 16 1027 59 8000 1 20 12:19 30.12.2019
1712 Clear 14 1027 72 10000 1 0 11:56 30.12.2019
1713 Clear 14 1027 67 5000 2.1 140 11:37 30.12.2019
1714 Clear 14 1027 67 5000 2.1 140 11:18 30.12.2019
1715 Clear 11 1026 81 10000 0.5 0 10:42 30.12.2019
1716 Clear 10 1026 76 5000 2.6 180 10:20 30.12.2019
1717 Clear 8 1026 93 10000 1.5 150 09:44 30.12.2019
1718 Clear 8 1025 87 5000 3.1 200 09:22 30.12.2019
1719 Clear 8 1025 93 10000 1.5 130 08:58 30.12.2019
1720 Clear 7 1025 87 5000 1.5 200 08:39 30.12.2019
1721 Clear 7 1025 87 5000 1.5 200 08:21 30.12.2019
1722 Clear 7 1025 93 7000 2.1 110 07:49 30.12.2019
1723 Clouds 7 1025 87 6000 2.1 180 07:25 30.12.2019
1724 Clear 4 1025 93 7000 1.5 100 06:39 30.12.2019
1725 Clouds 10 1025 93 9000 1.5 180 04:32 30.12.2019
1726 Clouds 10 1025 93 9000 1.5 170 03:52 30.12.2019
1727 Clouds 10 1025 93 8000 2.1 140 02:47 30.12.2019
1728 Clouds 10 1025 93 8000 2.1 110 02:29 30.12.2019
1729 Clouds 10 1025 93 9000 2.1 90 01:43 30.12.2019
1730 Clouds 11 1025 93 8000 1.5 120 01:19 30.12.2019
1731 Clouds 12 1025 87 7000 1 0 00:42 30.12.2019
1732 Clouds 11 1025 93 6000 2.6 130 23:58 29.12.2019
1733 Clouds 11 1026 93 6000 3.1 100 23:38 29.12.2019
1734 Clouds 12 1026 93 6000 3.1 100 23:19 29.12.2019
1735 Clouds 12 1025 87 7000 1.5 40 22:41 29.12.2019
1736 Clouds 13 1025 87 7000 1 0 22:22 29.12.2019
1737 Clouds 13 1025 87 8000 2.1 190 21:56 29.12.2019
1738 Clouds 13 1024 81 9000 1.5 180 21:38 29.12.2019
1739 Clouds 13 1024 81 9000 1.5 180 21:19 29.12.2019
1740 Clouds 13 1024 81 10000 2.1 180 20:56 29.12.2019
1741 Clear 13 1024 82 6000 0.54 48 20:38 29.12.2019
1742 Clear 13 1024 82 6000 1.65 27 20:18 29.12.2019
1743 Clear 15 1024 76 10000 0.5 0 19:56 29.12.2019
1744 Clear 16 1023 72 6000 1.5 240 19:38 29.12.2019
1745 Clear 16 1023 72 6000 1.5 240 19:19 29.12.2019
1746 Clear 17 1024 59 10000 2.1 360 18:55 29.12.2019
1747 Clear 18 1023 59 10000 1.5 40 18:37 29.12.2019
1748 Clear 18 1023 59 10000 1.5 40 18:18 29.12.2019
1749 Clear 19 1023 60 10000 3.1 320 17:56 29.12.2019
1750 Clear 20 1023 49 10000 1.5 360 17:38 29.12.2019
1751 Clear 20 1023 49 10000 1.5 360 17:19 29.12.2019
1752 Clear 20 1023 49 10000 2.1 300 16:56 29.12.2019
1753 Clear 20 1023 49 10000 2.1 360 16:36 29.12.2019
1754 Clear 20 1023 49 10000 2.1 360 16:18 29.12.2019
1755 Clear 19 1023 35 10000 2.1 260 15:56 29.12.2019
1756 Clear 19 1023 35 10000 2.1 260 15:56 29.12.2019
1757 Clear 19 1026 77 10000 3.1 340 15:38 29.12.2019
1758 Clear 19 1026 77 10000 3.1 340 15:18 29.12.2019
1759 Clear 20 1023 38 10000 2.1 290 14:55 29.12.2019
1760 Clear 20 1023 72 10000 2.1 340 14:37 29.12.2019
1761 Clear 20 1023 72 10000 2.1 340 14:18 29.12.2019
1762 Clear 20 1024 35 10000 1.5 0 13:55 29.12.2019
1763 Clear 20 1024 45 10000 1.5 320 13:37 29.12.2019
1764 Clear 20 1024 45 10000 1.5 320 13:18 29.12.2019
1765 Clear 18 1025 42 10000 1 0 12:41 29.12.2019
1766 Clear 17 1025 52 10000 1 40 12:23 29.12.2019
1767 Clear 16 1026 59 10000 1 0 11:54 29.12.2019
1768 Clear 15 1025 58 10000 2.1 140 11:36 29.12.2019
1769 Clear 15 1025 58 10000 2.1 140 11:18 29.12.2019
1770 Clear 12 1025 81 10000 1 0 10:41 29.12.2019
1771 Clear 11 1025 62 10000 1.5 160 10:20 29.12.2019
1772 Clear 9 1024 81 10000 2.6 180 09:54 29.12.2019
1773 Clear 9 1024 71 10000 4.6 180 09:36 29.12.2019
1774 Clear 9 1024 71 10000 4.6 180 09:18 29.12.2019
1775 Clear 8 1024 86 10000 2.6 160 08:44 29.12.2019
1776 Clear 8 1024 76 10000 4.1 180 08:24 29.12.2019
1777 Clear 7 1024 86 10000 2.1 130 07:54 29.12.2019
1778 Clear 7 1024 86 10000 2.1 90 07:27 29.12.2019
1779 Clear 6 1023 81 10000 1.5 110 06:53 29.12.2019
1780 Clear 5 1023 86 10000 2.6 130 06:23 29.12.2019
1781 Clear 6 1023 81 10000 2.6 110 05:48 29.12.2019
1782 Clear 11 1023 87 10000 1.5 110 04:34 29.12.2019
1783 Clear 10 1023 87 10000 1.5 70 03:40 29.12.2019
1784 Clear 11 1023 87 10000 1.5 70 03:19 29.12.2019
1785 Clouds 11 1023 87 10000 1.5 110 02:19 29.12.2019
1786 Clouds 11 1023 87 10000 1.5 110 01:31 29.12.2019
1787 Clouds 12 1023 87 10000 2.1 120 00:51 29.12.2019
1788 Clouds 11 1024 87 10000 1.5 120 00:27 29.12.2019
1789 Clouds 12 1023 87 8000 1.5 140 23:57 28.12.2019
1790 Clouds 11 1023 100 8000 1.5 130 23:39 28.12.2019
1791 Clouds 12 1023 100 8000 1.5 130 23:18 28.12.2019
1792 Clouds 12 1023 93 10000 1.5 150 22:39 28.12.2019
1793 Clouds 13 1023 93 10000 1.5 150 22:19 28.12.2019
1794 Clouds 13 1023 87 10000 2.6 120 21:57 28.12.2019
1795 Clear 13 1023 82 8000 1.5 140 21:38 28.12.2019
1796 Clear 13 1023 82 8000 1.5 140 21:20 28.12.2019
1797 Clouds 14 1023 82 10000 2.1 60 20:55 28.12.2019
1798 Clear 15 1022 77 10000 1 160 20:36 28.12.2019
1799 Clear 15 1022 77 10000 1 160 20:18 28.12.2019
1800 Clouds 16 1023 67 10000 1.5 10 19:55 28.12.2019
1801 Clear 16 1022 72 10000 2.1 60 19:36 28.12.2019
1802 Clear 16 1022 72 10000 2.1 60 19:18 28.12.2019
1803 Clear 18 1022 52 10000 2.1 350 18:55 28.12.2019
1804 Clear 19 1022 55 10000 2.1 40 18:37 28.12.2019
1805 Clear 19 1022 55 10000 2.1 40 18:18 28.12.2019
1806 Clear 19 1022 43 10000 2.6 10 17:42 28.12.2019
1807 Clear 20 1022 52 10000 2.1 40 17:21 28.12.2019
1808 Clear 20 1022 37 10000 3.6 350 16:55 28.12.2019
1809 Clear 21 1022 52 10000 4.1 20 16:37 28.12.2019
1810 Clear 20 1022 52 10000 4.1 20 16:19 28.12.2019
1811 Clear 20 1022 40 10000 2.6 0 15:43 28.12.2019
1812 Clear 20 1022 60 10000 3.1 20 15:21 28.12.2019
1813 Clear 19 1022 38 10000 2.6 360 14:48 28.12.2019
1814 Clear 19 1022 63 10000 2.1 340 14:26 28.12.2019
1815 Clear 20 1023 35 10000 1 0 13:58 28.12.2019
1816 Clear 20 1023 49 10000 3.1 360 13:40 28.12.2019
1817 Clear 19 1023 49 10000 3.1 360 13:20 28.12.2019
1818 Clear 17 1024 49 10000 1 0 12:57 28.12.2019
1819 Clear 17 1024 52 10000 2.1 180 12:39 28.12.2019
1820 Clear 17 1024 52 10000 2.1 180 12:20 28.12.2019
1821 Clear 14 1024 51 10000 4.1 180 11:40 28.12.2019
1822 Clear 14 1024 51 10000 4.1 180 11:21 28.12.2019
1823 Clear 12 1024 71 10000 2.1 150 10:56 28.12.2019
1824 Clear 11 1023 66 10000 2.1 160 10:37 28.12.2019
1825 Clear 11 1023 66 10000 2.1 160 10:18 28.12.2019
1826 Clear 10 1023 87 8000 2.1 130 09:45 28.12.2019
1827 Clear 10 1023 71 10000 3.1 180 09:24 28.12.2019
1828 Clear 9 1023 87 5000 2.6 110 08:58 28.12.2019
1829 Clear 9 1022 71 10000 3.1 180 08:39 28.12.2019
1830 Clear 9 1022 71 10000 3.1 180 08:20 28.12.2019
1831 Clear 9 1023 93 10000 2.1 160 07:43 28.12.2019
1832 Clear 6 1023 93 10000 1.5 130 06:59 28.12.2019
1833 Clear 6 1023 93 10000 2.1 110 05:43 28.12.2019
1834 Clear 11 1022 93 10000 2.1 90 03:48 28.12.2019
1835 Clear 12 1022 93 10000 2.6 110 02:50 28.12.2019
1836 Clouds 12 1022 93 10000 2.6 100 02:20 28.12.2019
1837 Clouds 12 1023 93 10000 2.1 110 01:53 28.12.2019
1838 Clouds 13 1023 93 10000 1.5 160 01:22 28.12.2019
1839 Clouds 13 1023 93 10000 0.5 0 00:44 28.12.2019
1840 Clouds 13 1023 93 10000 1 0 00:26 28.12.2019
1841 Clouds 13 1023 87 10000 2.1 140 23:56 27.12.2019
1842 Clouds 12 1023 93 10000 1.5 110 23:36 27.12.2019
1843 Clouds 13 1023 93 10000 1.5 110 23:18 27.12.2019
1844 Clouds 14 1023 93 8000 1.5 110 22:55 27.12.2019
1845 Clouds 13 1022 93 8000 2.6 90 22:37 27.12.2019
1846 Clouds 14 1022 93 8000 2.6 90 22:19 27.12.2019
1847 Clouds 14 1022 93 8000 2.1 70 21:41 27.12.2019
1848 Clouds 14 1022 82 10000 1 40 21:23 27.12.2019
1849 Clouds 14 1022 87 10000 2.1 60 20:44 27.12.2019
1850 Clouds 15 1022 82 10000 1 40 20:26 27.12.2019
1851 Clouds 16 1022 77 10000 1 0 19:57 27.12.2019
1852 Clouds 16 1022 77 10000 1 0 19:57 27.12.2019
1853 Clouds 16 1021 77 10000 1 40 19:38 27.12.2019
1854 Clouds 16 1021 77 10000 1 40 19:38 27.12.2019
1855 Clouds 16 1021 77 10000 1 40 19:19 27.12.2019
1856 Clouds 17 1021 63 10000 2.6 20 18:55 27.12.2019
1857 Clouds 18 1021 68 10000 3.1 80 18:36 27.12.2019
1858 Clouds 18 1021 68 10000 3.1 80 18:18 27.12.2019
1859 Clouds 20 1021 56 10000 2.6 40 17:42 27.12.2019
1860 Clouds 20 1021 64 8000 3.1 80 17:20 27.12.2019
1861 Clouds 20 1021 53 10000 2.6 350 16:59 27.12.2019
1862 Clouds 20 1021 64 8000 3.1 40 16:41 27.12.2019
1863 Clouds 20 1021 64 8000 3.1 40 16:41 27.12.2019
1864 Clouds 20 1021 64 8000 3.1 40 16:22 27.12.2019
1865 Clouds 20 1021 46 10000 2.1 10 15:56 27.12.2019
1866 Clouds 20 1021 64 8000 4.1 20 15:37 27.12.2019
1867 Clouds 20 1021 64 8000 4.1 20 15:18 27.12.2019
1868 Clouds 20 1021 43 10000 2.1 350 14:55 27.12.2019
1869 Clouds 20 1021 60 6000 3.1 20 14:36 27.12.2019
1870 Clouds 20 1021 60 6000 3.1 20 14:18 27.12.2019
1871 Clouds 19 1021 40 10000 2.1 10 13:43 27.12.2019
1872 Clouds 19 1022 68 5000 3.6 360 13:22 27.12.2019
1873 Clouds 18 1022 59 10000 0.5 0 12:48 27.12.2019
1874 Clouds 16 1023 63 10000 0.5 0 12:29 27.12.2019
1875 Clouds 16 1023 67 10000 1 0 11:59 27.12.2019
1876 Clouds 16 1023 67 10000 1 0 11:41 27.12.2019
1877 Mist 15 1022 82 4000 1.99 154 11:20 27.12.2019
1878 Mist 15 1022 82 4000 1.99 154 11:20 27.12.2019
1879 Clouds 13 1022 82 10000 2.1 120 10:46 27.12.2019
1880 Mist 13 1022 82 3000 3.1 180 10:24 27.12.2019
1881 Clouds 10 1022 87 10000 2.6 100 09:55 27.12.2019
1882 Mist 8 1021 100 3000 3.6 180 09:37 27.12.2019
1883 Mist 8 1021 100 3000 3.6 180 09:19 27.12.2019
1884 Mist 8 1021 100 3000 3.6 180 09:19 27.12.2019
1885 Clouds 8 1021 93 10000 2.6 100 08:43 27.12.2019
1886 Mist 8 1021 100 3000 3.6 180 08:25 27.12.2019
1887 Fog 8 1021 100 900 1.5 160 07:38 27.12.2019
1888 Fog 8 1021 100 900 1.5 160 07:19 27.12.2019
1889 Clouds 7 1021 100 10000 2.6 140 06:25 27.12.2019
1890 Rain 8 1021 100 10000 0.82 158 04:39 27.12.2019
1891 Clouds 10 1022 93 10000 1 70 02:29 27.12.2019
1892 Clouds 10 1022 93 10000 1 70 01:45 27.12.2019
1893 Clouds 10 1022 93 10000 1 70 01:23 27.12.2019
1894 Clouds 10 1022 100 9000 1.5 80 00:47 27.12.2019
1895 Clouds 11 1022 100 9000 1 0 00:25 27.12.2019
1896 Clouds 10 1022 100 8000 1 0 23:56 26.12.2019
1897 Clouds 11 1023 100 8000 1.5 100 23:37 26.12.2019
1898 Clouds 11 1023 100 8000 1.5 100 23:19 26.12.2019
1899 Clouds 12 1022 93 10000 2.1 60 22:40 26.12.2019
1900 Clouds 14 1022 93 10000 2.1 60 22:18 26.12.2019
1901 Clouds 14 1021 93 5000 1 20 21:40 26.12.2019
1902 Clouds 15 1021 93 5000 1 20 21:21 26.12.2019
1903 Clouds 15 1022 93 10000 1 0 20:58 26.12.2019
1904 Clouds 16 1021 93 5000 1 20 20:39 26.12.2019
1905 Clouds 16 1021 93 5000 1 20 20:21 26.12.2019
1906 Clouds 16 1022 87 10000 2.1 350 19:56 26.12.2019
1907 Clouds 16 1022 88 5000 1 360 19:38 26.12.2019
1908 Clouds 16 1022 88 5000 1 360 19:19 26.12.2019
1909 Clouds 16 1022 82 10000 2.1 320 18:57 26.12.2019
1910 Clouds 17 1021 88 5000 4.1 20 18:36 26.12.2019
1911 Clouds 17 1021 88 5000 4.1 20 18:18 26.12.2019
1912 Clouds 18 1021 72 10000 3.1 320 17:41 26.12.2019
1913 Clouds 18 1021 72 10000 3.1 320 17:41 26.12.2019
1914 Clouds 18 1021 77 5000 5.1 20 17:21 26.12.2019
1915 Clouds 18 1021 72 10000 3.6 350 16:50 26.12.2019
1916 Clouds 18 1021 72 6000 4.1 20 16:27 26.12.2019
1917 Clouds 19 1021 60 10000 3.1 340 15:57 26.12.2019
1918 Clouds 19 1021 72 6000 4.1 360 15:39 26.12.2019
1919 Clouds 19 1021 72 6000 4.1 360 15:19 26.12.2019
1920 Clouds 18 1021 52 10000 3.6 350 14:41 26.12.2019
1921 Clouds 18 1022 72 8000 5.1 20 14:23 26.12.2019
1922 Clouds 19 1022 60 10000 3.1 360 13:55 26.12.2019
1923 Clouds 18 1023 72 8000 3.1 40 13:36 26.12.2019
1924 Clouds 18 1023 72 8000 3.1 40 13:18 26.12.2019
1925 Clouds 17 1023 68 10000 2.6 30 12:45 26.12.2019
1926 Clouds 17 1023 72 5000 4.1 40 12:25 26.12.2019
1927 Clouds 16 1024 77 10000 1 0 11:59 26.12.2019
1928 Clouds 15 1023 87 5000 2.1 80 11:40 26.12.2019
1929 Clouds 15 1023 87 5000 2.1 80 11:21 26.12.2019
1930 Clouds 14 1023 93 10000 1 70 10:50 26.12.2019
1931 Mist 13 1023 93 2000 2.1 100 10:26 26.12.2019
1932 Clouds 12 1023 93 10000 1 120 09:55 26.12.2019
1933 Mist 12 1023 100 2000 3.1 80 09:36 26.12.2019
1934 Mist 12 1023 100 2000 3.1 80 09:18 26.12.2019
1935 Fog 12 1022 100 800 1 100 08:39 26.12.2019
1936 Fog 12 1022 100 800 1 100 08:20 26.12.2019
1937 Clouds 10 1022 93 10000 1.5 40 07:41 26.12.2019
1938 Clouds 10 1022 93 10000 1.5 40 07:19 26.12.2019
1939 Fog 12 1022 93 5000 2.6 40 06:37 26.12.2019
1940 Fog 11 1022 93 5000 2.6 40 06:19 26.12.2019
1941 Mist 10 1023 93 4000 1.5 340 05:41 26.12.2019
1942 Clouds 13 1023 93 6000 1 60 04:33 26.12.2019
1943 Clouds 12 1023 93 10000 1.5 360 03:31 26.12.2019
1944 Clouds 13 1023 87 10000 1 0 02:46 26.12.2019
1945 Clouds 13 1023 87 10000 2.1 50 02:27 26.12.2019
1946 Clouds 14 1023 87 10000 2.1 50 01:44 26.12.2019
1947 Clouds 14 1024 81 10000 1 0 01:24 26.12.2019
1948 Clouds 14 1024 87 10000 2.1 70 00:44 26.12.2019
1949 Clouds 13 1024 87 10000 2.6 90 00:23 26.12.2019
1950 Clouds 13 1024 87 10000 2.6 90 00:23 26.12.2019
1951 Clouds 14 1024 87 10000 2.1 100 23:57 25.12.2019
1952 Clouds 14 1024 87 10000 3.1 100 23:37 25.12.2019
1953 Clouds 14 1024 87 10000 3.1 100 23:18 25.12.2019
1954 Clouds 14 1025 87 10000 2.1 90 22:56 25.12.2019
1955 Clouds 14 1025 82 10000 1.5 70 22:37 25.12.2019
1956 Clouds 15 1025 82 10000 1.5 70 22:18 25.12.2019
1957 Clouds 15 1024 87 10000 2.1 90 21:55 25.12.2019
1958 Clouds 15 1024 82 8000 1.5 160 21:37 25.12.2019
1959 Clouds 15 1024 82 8000 1.5 160 21:18 25.12.2019
1960 Clouds 15 1024 77 10000 1.5 160 20:40 25.12.2019
1961 Clouds 15 1024 77 10000 1.5 160 20:20 25.12.2019
1962 Clouds 17 1024 82 10000 2.1 60 19:57 25.12.2019
1963 Clouds 17 1024 77 10000 2.1 80 19:39 25.12.2019
1964 Clouds 17 1024 77 10000 2.1 80 19:21 25.12.2019
1965 Clouds 18 1023 72 10000 1.5 20 18:39 25.12.2019
1966 Clouds 19 1023 72 10000 1.5 20 18:20 25.12.2019
1967 Clouds 19 1023 72 10000 1.5 20 18:20 25.12.2019
1968 Clouds 20 1024 60 10000 2.6 330 17:57 25.12.2019
1969 Clouds 20 1023 68 10000 5.1 20 17:36 25.12.2019
1970 Clouds 20 1023 68 10000 5.1 20 17:18 25.12.2019
1971 Clouds 21 1023 60 10000 4.1 360 16:39 25.12.2019
1972 Clouds 21 1023 60 10000 4.1 360 16:20 25.12.2019
1973 Clouds 20 1023 46 10000 3.6 310 15:58 25.12.2019
1974 Clouds 20 1023 68 10000 3.6 320 15:40 25.12.2019
1975 Clouds 20 1023 68 10000 3.6 320 15:21 25.12.2019
1976 Clouds 21 1023 47 10000 2.6 290 14:59 25.12.2019
1977 Clouds 21 1023 46 10000 4.6 320 14:40 25.12.2019
1978 Clouds 21 1023 46 10000 4.6 320 14:40 25.12.2019
1979 Clouds 21 1023 46 10000 4.6 320 14:21 25.12.2019
1980 Clouds 21 1024 49 10000 2.1 260 13:57 25.12.2019
1981 Clouds 21 1024 53 10000 4.1 300 13:38 25.12.2019
1982 Clouds 21 1024 53 10000 4.1 300 13:19 25.12.2019
1983 Clouds 20 1024 53 10000 1 0 12:42 25.12.2019
1984 Clouds 19 1024 49 10000 3.1 180 12:21 25.12.2019
1985 Clouds 18 1024 63 10000 2.1 140 11:57 25.12.2019
1986 Clouds 17 1024 55 8000 3.1 180 11:39 25.12.2019
1987 Clouds 18 1024 55 8000 3.1 180 11:18 25.12.2019
1988 Clouds 15 1023 62 6000 3.1 200 10:38 25.12.2019
1989 Clouds 14 1023 62 6000 3.1 200 10:20 25.12.2019
1990 Clouds 11 1023 87 10000 2.1 130 09:51 25.12.2019
1991 Clouds 11 1022 71 8000 3.1 200 09:32 25.12.2019
1992 Clouds 11 1023 81 10000 2.1 130 08:51 25.12.2019
1993 Clouds 11 1022 71 10000 32.9 200 08:31 25.12.2019
1994 Clouds 8 1022 87 10000 2.6 130 07:53 25.12.2019
1995 Clouds 8 1022 87 10000 1.5 160 07:34 25.12.2019
1996 Clouds 7 1022 93 10000 1.5 140 06:58 25.12.2019
1997 Clouds 7 1022 93 10000 2.1 110 06:23 25.12.2019
1998 Drizzle 8 1022 93 10000 1 150 05:31 25.12.2019
1999 Clouds 13 1022 87 10000 1.5 110 04:39 25.12.2019
2000 Clouds 13 1022 87 10000 1.5 110 04:20 25.12.2019
2001 Clouds 13 1022 87 10000 1.5 110 04:20 25.12.2019
2002 Clouds 13 1022 87 10000 3.1 120 03:43 25.12.2019
2003 Clouds 13 1022 93 10000 2.6 110 02:56 25.12.2019
2004 Clouds 13 1022 93 10000 2.6 110 02:27 25.12.2019
2005 Clouds 13 1023 93 10000 2.1 100 01:26 25.12.2019
2006 Clouds 14 1023 87 10000 1.5 150 00:56 25.12.2019
2007 Clouds 14 1023 87 10000 1.5 150 00:33 25.12.2019
2008 Clouds 14 1023 87 10000 2.1 140 23:58 24.12.2019
2009 Clouds 14 1023 87 10000 2.1 140 23:39 24.12.2019
2010 Clouds 14 1023 87 10000 2.1 140 23:20 24.12.2019
2011 Clouds 15 1023 82 8000 2.1 120 22:41 24.12.2019
2012 Clouds 15 1023 87 8000 2.1 100 22:23 24.12.2019
2013 Clouds 15 1023 93 8000 2.6 90 21:55 24.12.2019
2014 Clouds 16 1023 82 5000 2.1 80 21:36 24.12.2019
2015 Clouds 16 1023 82 5000 2.1 80 21:18 24.12.2019
2016 Clouds 16 1023 87 8000 2.1 60 20:41 24.12.2019
2017 Clouds 16 1023 82 5000 2.1 100 20:19 24.12.2019
2018 Clouds 17 1023 82 10000 2.6 40 19:46 24.12.2019
2019 Clouds 17 1023 72 5000 1.6 31 19:22 24.12.2019
2020 Clouds 19 1023 72 6000 2.1 40 18:58 24.12.2019
2021 Clouds 20 1022 64 10000 2.1 60 18:40 24.12.2019
2022 Clouds 20 1022 64 10000 2.1 60 18:18 24.12.2019
2023 Clouds 21 1023 53 10000 1.5 40 17:42 24.12.2019
2024 Clouds 21 1024 60 10000 2.1 6 17:21 24.12.2019
2025 Clouds 21 1023 50 10000 1 0 16:58 24.12.2019
2026 Clouds 21 1023 50 10000 1 0 16:58 24.12.2019
2027 Clouds 21 1024 60 10000 3.1 20 16:39 24.12.2019
2028 Clouds 21 1024 60 10000 3.1 20 16:20 24.12.2019
2029 Clouds 21 1023 44 10000 2.1 260 15:56 24.12.2019
2030 Clouds 21 1024 60 10000 4.1 360 15:36 24.12.2019
2031 Clouds 21 1024 60 10000 4.1 360 15:18 24.12.2019
2032 Clouds 21 1023 44 10000 2.1 260 14:57 24.12.2019
2033 Clouds 21 1023 44 10000 2.1 260 14:57 24.12.2019
2034 Clouds 21 1024 60 10000 3.1 360 14:38 24.12.2019
2035 Clouds 21 1024 60 10000 3.1 360 14:20 24.12.2019
2036 Clouds 21 1024 47 10000 3.1 240 13:55 24.12.2019
2037 Clouds 20 1024 60 10000 3.1 340 13:37 24.12.2019
2038 Clouds 20 1024 60 10000 3.1 340 13:19 24.12.2019
2039 Clouds 20 1024 60 10000 3.1 340 13:19 24.12.2019
2040 Clouds 20 1025 56 10000 3.1 210 12:55 24.12.2019
2041 Clouds 19 1024 64 10000 2.1 320 12:36 24.12.2019
2042 Clouds 19 1024 64 10000 2.1 320 12:18 24.12.2019
2043 Clouds 18 1025 64 10000 3.1 180 11:55 24.12.2019
2044 Clouds 17 1024 68 10000 2.1 360 11:36 24.12.2019
2045 Clouds 17 1024 68 10000 2.1 360 11:18 24.12.2019
2046 Clouds 15 1024 82 10000 1.5 170 10:56 24.12.2019
2047 Clouds 15 1024 63 10000 2.1 200 10:37 24.12.2019
2048 Clouds 15 1024 63 10000 2.1 200 10:19 24.12.2019
2049 Clouds 13 1024 93 10000 2.6 160 09:54 24.12.2019
2050 Clouds 13 1023 67 10000 2.42 177 09:36 24.12.2019
2051 Clouds 13 1023 67 10000 2.42 177 09:18 24.12.2019
2052 Clouds 10 1023 93 10000 2.1 110 08:44 24.12.2019
2053 Clouds 11 1022 76 10000 1.96 181 08:20 24.12.2019
2054 Clouds 11 1023 87 10000 2.6 150 07:45 24.12.2019
2055 Clouds 10 1023 100 8000 2.6 170 07:25 24.12.2019
2056 Clouds 10 1023 100 8000 3.6 160 06:57 24.12.2019
2057 Clouds 15 1022 63 0 1.96 181 06:38 24.12.2019
2058 Clouds 10 1023 100 8000 3.1 170 06:18 24.12.2019
2059 Clouds 14 1023 100 8000 2.1 180 05:20 24.12.2019
2060 Clouds 14 1023 100 8000 1 170 04:44 24.12.2019
2061 Mist 13 1023 100 4000 2.1 130 03:50 24.12.2019
2062 Fog 13 1024 100 300 0.5 30 02:59 24.12.2019
2063 Fog 13 1024 100 300 1.5 140 02:21 24.12.2019
2064 Fog 14 1024 100 300 1.5 140 01:42 24.12.2019
2065 Fog 13 1024 100 800 1 0 01:20 24.12.2019
2066 Fog 14 1024 100 800 1.5 210 00:43 24.12.2019
2067 Fog 13 1024 100 650 1 0 00:23 24.12.2019
2068 Fog 13 1024 100 650 1 0 23:55 23.12.2019
2069 Fog 14 1024 100 600 1 0 23:37 23.12.2019
2070 Fog 14 1024 100 600 1 0 23:19 23.12.2019
2071 Fog 14 1024 100 600 1 0 23:19 23.12.2019
2072 Mist 14 1025 100 2000 1.5 280 22:55 23.12.2019
2073 Mist 14 1025 100 2000 1.5 280 22:55 23.12.2019
2074 Mist 14 1025 100 1100 1.5 250 22:36 23.12.2019
2075 Mist 14 1025 100 1100 1.5 250 22:36 23.12.2019
2076 Mist 14 1025 100 1100 1.5 250 22:36 23.12.2019
2077 Mist 15 1025 100 1100 1.5 250 22:18 23.12.2019
2078 Mist 15 1025 100 4000 2.1 290 21:55 23.12.2019
2079 Clouds 15 1024 87 8000 2.1 60 21:36 23.12.2019
2080 Clouds 15 1024 87 8000 2.1 60 21:18 23.12.2019
2081 Clouds 16 1024 93 5000 1 0 20:56 23.12.2019
2082 Clouds 16 1023 82 0 4.02 40 20:38 23.12.2019
2083 Clouds 17 1023 82 8000 4.1 40 20:18 23.12.2019
2084 Clouds 17 1023 82 8000 4.1 40 19:54 23.12.2019
2085 Clouds 17 1023 82 8000 3.1 340 19:36 23.12.2019
2086 Clouds 17 1023 82 8000 3.1 340 19:18 23.12.2019
2087 Clouds 18 1023 82 8000 4.1 40 18:55 23.12.2019
2088 Clouds 18 1023 68 10000 2.6 340 18:36 23.12.2019
2089 Clouds 19 1023 68 10000 2.6 340 18:18 23.12.2019
2090 Clouds 19 1023 77 8000 4.1 20 17:55 23.12.2019
2091 Clouds 20 1023 60 10000 3.1 10 17:37 23.12.2019
2092 Clouds 20 1023 60 10000 3.1 10 17:18 23.12.2019
2093 Clouds 20 1023 72 8000 5.1 40 16:42 23.12.2019
2094 Clouds 20 1023 60 10000 2.1 360 16:19 23.12.2019
2095 Clouds 20 1023 72 8000 4.1 40 15:58 23.12.2019
2096 Clouds 20 1024 64 10000 2.6 360 15:38 23.12.2019
2097 Clouds 19 1024 64 10000 2.6 360 15:19 23.12.2019
2098 Clouds 19 1024 73 10000 2.1 20 14:58 23.12.2019
2099 Clouds 19 1024 77 600 5.1 60 14:39 23.12.2019
2100 Clouds 19 1024 77 600 5.1 60 14:21 23.12.2019
2101 Clouds 17 1025 72 10000 4.1 30 13:58 23.12.2019
2102 Mist 17 1025 88 3000 6.2 60 13:40 23.12.2019
2103 Mist 17 1025 88 3000 6.2 60 13:21 23.12.2019
2104 Clouds 17 1026 77 10000 4.1 20 12:55 23.12.2019
2105 Mist 16 1027 93 3000 7.2 60 12:37 23.12.2019
2106 Mist 16 1027 93 3000 7.2 60 12:19 23.12.2019
2107 Clouds 15 1027 93 10000 3.1 50 11:44 23.12.2019
2108 Mist 14 1027 100 3000 6.2 40 11:25 23.12.2019
2109 Mist 14 1027 100 4000 2.1 20 10:57 23.12.2019
2110 Mist 14 1026 100 3000 4.6 60 10:39 23.12.2019
2111 Mist 14 1026 100 3000 4.6 60 10:20 23.12.2019
2112 Mist 14 1026 100 3000 4.6 60 10:20 23.12.2019
2113 Fog 14 1026 100 700 2.1 360 09:59 23.12.2019
2114 Clouds 14 1026 93 6000 3.1 40 09:39 23.12.2019
2115 Clouds 14 1026 93 6000 3.1 40 09:20 23.12.2019
2116 Fog 14 1025 100 800 2.1 20 08:55 23.12.2019
2117 Fog 14 1025 100 800 2.6 30 08:37 23.12.2019
2118 Fog 14 1025 100 800 2.6 30 08:19 23.12.2019
2119 Mist 14 1025 100 3000 3.1 40 07:43 23.12.2019
2120 Clouds 14 1025 93 10000 2.6 80 07:20 23.12.2019
2121 Clouds 14 1025 100 10000 3.1 40 06:51 23.12.2019
2122 Clouds 14 1025 100 10000 3.1 50 06:24 23.12.2019
2123 Clouds 15 1025 100 10000 5.1 40 05:49 23.12.2019
2124 Clouds 14 1025 100 10000 4.6 30 05:26 23.12.2019
2125 Clouds 15 1025 100 10000 4.6 40 04:27 23.12.2019
2126 Clouds 15 1025 100 6000 3.6 60 02:56 23.12.2019
2127 Mist 15 1025 100 4000 2.6 40 02:28 23.12.2019
2128 Mist 16 1026 100 4000 3.1 40 01:56 23.12.2019
2129 Mist 16 1026 100 4000 3.1 30 01:38 23.12.2019
2130 Mist 16 1026 100 4000 3.1 30 01:19 23.12.2019
2131 Mist 16 1027 100 4000 3.6 30 00:36 23.12.2019
2132 Mist 16 1027 100 4000 3.6 30 23:58 22.12.2019
2133 Fog 16 1027 100 800 3.6 20 23:39 22.12.2019
2134 Fog 16 1027 100 800 3.6 20 23:20 22.12.2019
2135 Fog 16 1027 100 800 3.6 20 23:20 22.12.2019
2136 Fog 16 1027 100 700 3.6 20 22:58 22.12.2019
2137 Fog 16 1027 100 700 4.1 10 22:38 22.12.2019
2138 Fog 16 1027 100 700 4.1 10 22:19 22.12.2019
2139 Clouds 16 1027 100 800 3.6 20 21:57 22.12.2019
2140 Clouds 16 1027 93 8000 2.6 20 21:39 22.12.2019
2141 Clouds 17 1027 93 8000 2.6 20 21:20 22.12.2019
2142 Clouds 17 1027 100 6000 3.1 10 20:56 22.12.2019
2143 Clouds 17 1026 93 10000 2.1 20 20:38 22.12.2019
2144 Clouds 17 1026 93 10000 2.1 20 20:18 22.12.2019
2145 Clouds 18 1027 93 8000 2.6 360 19:41 22.12.2019
2146 Clouds 18 1026 88 10000 2.6 20 19:21 22.12.2019
2147 Clouds 18 1026 88 10000 3.6 360 18:58 22.12.2019
2148 Clouds 19 1026 82 10000 4.6 20 18:38 22.12.2019
2149 Clouds 19 1026 82 10000 4.6 20 18:19 22.12.2019
2150 Clouds 19 1026 82 10000 3.6 360 17:55 22.12.2019
2151 Clouds 19 1026 82 10000 4.1 340 17:37 22.12.2019
2152 Clouds 20 1026 82 10000 4.1 340 17:18 22.12.2019
2153 Clouds 20 1026 72 10000 2.6 360 16:56 22.12.2019
2154 Clouds 20 1026 72 10000 2.6 360 16:56 22.12.2019
2155 Clouds 20 1026 73 10000 4.6 340 16:37 22.12.2019
2156 Clouds 20 1026 73 10000 4.6 340 16:19 22.12.2019
2157 Clouds 19 1026 77 10000 3.1 340 15:54 22.12.2019
2158 Clouds 19 1026 77 10000 3.6 300 15:36 22.12.2019
2159 Clouds 19 1026 77 10000 3.6 300 15:18 22.12.2019
2160 Clouds 19 1027 77 10000 3.1 340 14:39 22.12.2019
2161 Clouds 19 1027 77 10000 3.1 340 14:19 22.12.2019
2162 Clouds 19 1027 82 10000 2.1 310 13:56 22.12.2019
2163 Clouds 19 1027 77 10000 2.6 220 13:38 22.12.2019
2164 Clouds 19 1027 77 10000 2.6 220 13:20 22.12.2019
2165 Clouds 19 1027 77 10000 0.5 0 12:57 22.12.2019
2166 Clouds 18 1027 77 10000 1 200 12:39 22.12.2019
2167 Clouds 18 1027 77 10000 1 200 12:20 22.12.2019
2168 Clouds 18 1027 77 10000 1 200 12:20 22.12.2019
2169 Clouds 17 1028 88 10000 1 0 11:59 22.12.2019
2170 Clouds 17 1027 88 10000 2.6 180 11:39 22.12.2019
2171 Clouds 17 1027 88 10000 2.6 180 11:20 22.12.2019
2172 Clouds 16 1027 87 10000 1.5 150 10:58 22.12.2019
2173 Clouds 16 1026 93 10000 3.1 180 10:40 22.12.2019
2174 Clouds 16 1026 93 10000 3.1 180 10:40 22.12.2019
2175 Clouds 16 1026 93 10000 3.1 180 10:20 22.12.2019
2176 Clouds 15 1027 100 10000 1 130 09:58 22.12.2019
2177 Clouds 15 1026 87 10000 2.6 200 09:40 22.12.2019
2178 Clouds 15 1026 87 10000 2.6 200 09:21 22.12.2019
2179 Clouds 15 1026 93 10000 2.1 140 08:45 22.12.2019
2180 Clouds 14 1025 93 10000 3.1 200 08:23 22.12.2019
2181 Clouds 15 1025 100 10000 1 150 07:52 22.12.2019
2182 Clouds 15 1024 93 10000 4.6 180 07:22 22.12.2019
2183 Clouds 14 1025 100 10000 1.5 150 06:57 22.12.2019
2184 Clouds 14 1025 100 10000 2.1 140 06:30 22.12.2019
2185 Mist 15 1025 100 2800 2.1 160 05:43 22.12.2019
2186 Mist 14 1025 100 2800 2.1 160 05:21 22.12.2019
2187 Clouds 15 1025 100 10000 0.5 0 04:27 22.12.2019
2188 Clouds 16 1025 100 10000 2.1 190 03:28 22.12.2019
2189 Clouds 17 1026 100 10000 3.1 180 02:35 22.12.2019
2190 Clouds 17 1026 100 10000 3.6 160 01:33 22.12.2019
2191 Clouds 17 1027 93 10000 2.6 170 00:59 22.12.2019
2192 Clouds 17 1027 93 10000 2.6 170 00:41 22.12.2019
2193 Clouds 17 1027 93 10000 2.6 170 00:21 22.12.2019
2194 Clouds 16 1026 100 10000 3.6 160 23:42 21.12.2019
2195 Clouds 16 1026 100 10000 3.1 160 23:24 21.12.2019
2196 Clouds 16 1026 100 10000 2.1 200 22:58 21.12.2019
2197 Clouds 17 1026 93 10000 2.6 170 22:39 21.12.2019
2198 Clouds 17 1026 93 10000 2.6 170 22:19 21.12.2019
2199 Clouds 17 1026 100 10000 3.1 170 21:56 21.12.2019
2200 Clouds 17 1025 82 5000 2.1 240 21:37 21.12.2019
2201 Clouds 17 1025 82 5000 2.1 240 21:19 21.12.2019
2202 Clouds 17 1025 93 10000 2.6 190 20:57 21.12.2019
2203 Clouds 17 1024 82 5000 2.6 240 20:38 21.12.2019
2204 Clouds 17 1024 82 5000 2.6 240 20:20 21.12.2019
2205 Clouds 18 1025 93 10000 2.6 210 19:57 21.12.2019
2206 Clouds 18 1025 93 10000 2.6 210 19:57 21.12.2019
2207 Clouds 18 1025 93 10000 2.6 210 19:57 21.12.2019
2208 Clouds 18 1024 77 5000 3.1 240 19:39 21.12.2019
2209 Clouds 18 1024 77 5000 3.1 240 19:19 21.12.2019
2210 Clouds 18 1024 82 10000 4.1 250 18:42 21.12.2019
2211 Clouds 19 1024 82 10000 3.6 260 18:23 21.12.2019
2212 Clouds 19 1024 77 10000 5.1 220 17:57 21.12.2019
2213 Clouds 19 1023 77 10000 4.1 260 17:39 21.12.2019
2214 Clouds 20 1023 77 10000 4.1 260 17:20 21.12.2019
2215 Clouds 20 1023 72 10000 5.1 210 16:57 21.12.2019
2216 Clouds 20 1023 72 10000 5.1 210 16:57 21.12.2019
2217 Clouds 20 1022 68 10000 6.2 200 16:39 21.12.2019
2218 Clouds 20 1022 68 10000 6.2 200 16:18 21.12.2019
2219 Clouds 20 1023 72 10000 6.7 220 15:56 21.12.2019
2220 Clouds 20 1023 72 10000 7.2 200 15:38 21.12.2019
2221 Clouds 20 1023 72 10000 7.2 200 15:19 21.12.2019
2222 Clouds 21 1023 68 10000 7.2 200 14:44 21.12.2019
2223 Clouds 20 1023 77 10000 8.2 190 14:25 21.12.2019
2224 Clouds 20 1023 77 10000 8.2 190 13:59 21.12.2019
2225 Clouds 19 1023 72 10000 7.2 220 13:40 21.12.2019
2226 Clouds 19 1023 72 10000 7.2 220 13:20 21.12.2019
2227 Clouds 18 1024 77 10000 8.7 190 12:57 21.12.2019
2228 Clouds 18 1023 82 10000 8.2 200 12:39 21.12.2019
2229 Clouds 19 1023 82 10000 8.2 200 12:21 21.12.2019
2230 Clouds 18 1024 77 10000 7.7 180 11:57 21.12.2019
2231 Clouds 18 1023 82 10000 8.2 200 11:39 21.12.2019
2232 Clouds 18 1023 82 10000 8.2 200 11:21 21.12.2019
2233 Clouds 17 1024 87 10000 7.7 190 10:42 21.12.2019
2234 Clouds 17 1022 88 10000 8.2 200 10:23 21.12.2019
2235 Clouds 16 1023 93 10000 7.7 180 09:59 21.12.2019
2236 Clouds 16 1022 93 10000 6.2 200 09:41 21.12.2019
2237 Clouds 16 1022 93 10000 6.2 200 09:20 21.12.2019
2238 Clouds 16 1022 93 10000 5.7 190 08:55 21.12.2019
2239 Clouds 16 1021 93 10000 4.1 200 08:36 21.12.2019
2240 Clouds 16 1021 93 10000 4.1 200 08:18 21.12.2019
2241 Clouds 16 1021 93 10000 6.7 190 07:41 21.12.2019
2242 Clouds 16 1021 93 10000 6.7 190 07:21 21.12.2019
2243 Clouds 16 1021 93 10000 6.7 190 06:42 21.12.2019
2244 Clouds 16 1021 93 10000 6.2 190 06:24 21.12.2019
2245 Clouds 16 1020 100 10000 5.7 190 05:45 21.12.2019
2246 Clouds 16 1021 93 10000 5.7 190 04:57 21.12.2019
2247 Clouds 17 1021 87 10000 7.2 190 03:56 21.12.2019
2248 Clouds 17 1021 87 10000 7.2 190 02:40 21.12.2019
2249 Clouds 17 1021 87 10000 7.2 190 01:55 21.12.2019
2250 Clouds 17 1021 87 10000 7.7 200 01:27 21.12.2019
2251 Clouds 18 1021 82 10000 8.7 210 00:51 21.12.2019
2252 Clouds 17 1022 87 10000 8.2 200 00:31 21.12.2019
2253 Clouds 18 1021 82 10000 8.7 200 23:56 20.12.2019
2254 Clouds 18 1021 82 10000 8.2 200 23:37 20.12.2019
2255 Clouds 18 1021 82 10000 8.2 200 23:18 20.12.2019
2256 Clouds 18 1020 88 10000 8.7 190 22:40 20.12.2019
2257 Clouds 18 1020 88 10000 8.7 190 22:21 20.12.2019
2258 Clouds 18 1021 88 10000 8.2 190 21:57 20.12.2019
2259 Clouds 18 1020 82 10000 7.2 220 21:39 20.12.2019
2260 Clouds 18 1020 82 10000 7.2 220 21:19 20.12.2019
2261 Clouds 18 1019 72 10000 6.2 220 20:41 20.12.2019
2262 Clouds 19 1019 72 10000 6.2 220 20:20 20.12.2019
2263 Clouds 19 1020 82 10000 7.7 200 19:59 20.12.2019
2264 Clouds 19 1019 77 10000 7.2 220 19:40 20.12.2019
2265 Clouds 19 1019 77 10000 7.2 220 19:40 20.12.2019
2266 Clouds 19 1019 77 10000 7.2 220 19:19 20.12.2019
2267 Clouds 19 1020 82 10000 8.7 210 18:54 20.12.2019
2268 Clouds 19 1019 68 10000 6.7 240 18:36 20.12.2019
2269 Clouds 19 1019 68 10000 6.7 240 18:18 20.12.2019
2270 Clouds 20 1019 77 10000 9.8 200 17:42 20.12.2019
2271 Clouds 20 1018 68 10000 6.2 240 17:21 20.12.2019
2272 Clouds 20 1019 77 10000 10.8 210 16:59 20.12.2019
2273 Clouds 20 1019 77 10000 10.8 210 16:39 20.12.2019
2274 Clouds 20 1018 68 10000 9.3 240 16:20 20.12.2019
2275 Clouds 20 1019 72 10000 10.8 210 15:56 20.12.2019
2276 Clouds 20 1019 72 10000 10.8 210 15:38 20.12.2019
2277 Clouds 21 1018 64 10000 7.2 240 15:19 20.12.2019
2278 Clouds 20 1019 77 10000 11.3 200 14:55 20.12.2019
2279 Clouds 19 1019 77 10000 11.3 200 14:37 20.12.2019
2280 Clouds 19 1019 77 10000 10.8 200 14:18 20.12.2019
2281 Clouds 19 1020 77 10000 10.8 210 13:41 20.12.2019
2282 Clouds 19 1019 72 10000 8.7 220 13:20 20.12.2019
2283 Clouds 19 1020 77 10000 10.8 210 12:58 20.12.2019
2284 Clouds 19 1020 77 10000 10.8 210 12:38 20.12.2019
2285 Clouds 19 1020 72 10000 7.2 240 12:19 20.12.2019
2286 Clouds 18 1021 77 10000 8.7 190 11:59 20.12.2019
2287 Clouds 18 1021 77 10000 8.7 190 11:59 20.12.2019
2288 Clouds 18 1021 77 10000 8.7 190 11:39 20.12.2019
2289 Clouds 18 1020 72 10000 7.2 200 11:19 20.12.2019
2290 Clouds 17 1020 82 10000 8.2 210 10:58 20.12.2019
2291 Clouds 17 1020 82 10000 8.2 210 10:58 20.12.2019
2292 Clouds 17 1020 82 10000 8.2 210 10:40 20.12.2019
2293 Clouds 17 1019 82 10000 8.2 200 10:20 20.12.2019
2294 Clouds 16 1019 87 10000 8.2 180 09:55 20.12.2019
2295 Clouds 16 1019 87 10000 8.2 180 09:37 20.12.2019
2296 Clouds 16 1020 87 10000 7.2 180 09:19 20.12.2019
2297 Clouds 16 1020 87 10000 7.2 180 08:42 20.12.2019
2298 Clouds 16 1019 87 10000 7.2 200 08:22 20.12.2019
2299 Clouds 16 1019 87 10000 7.7 190 07:58 20.12.2019
2300 Clouds 16 1019 87 10000 7.7 190 07:40 20.12.2019
2301 Clouds 16 1018 82 10000 7.7 220 07:19 20.12.2019
2302 Clouds 16 1019 87 10000 7.7 180 06:51 20.12.2019
2303 Clouds 16 1019 87 10000 8.2 180 06:31 20.12.2019
2304 Clouds 16 1019 87 10000 7.2 180 05:53 20.12.2019
2305 Clouds 16 1019 87 10000 8.2 180 05:34 20.12.2019
2306 Clouds 16 1019 82 10000 8.2 190 04:30 20.12.2019
2307 Clouds 16 1020 87 10000 8.2 190 03:30 20.12.2019
2308 Clouds 16 1020 87 10000 7.7 190 02:42 20.12.2019
2309 Clouds 16 1021 87 10000 7.2 200 01:47 20.12.2019
2310 Clouds 16 1020 93 10000 7.7 180 01:29 20.12.2019
2311 Clouds 16 1020 87 10000 8.7 200 00:42 20.12.2019
2312 Clouds 16 1021 87 10000 6.7 180 00:20 20.12.2019
2313 Clouds 16 1021 93 10000 6.2 180 23:43 19.12.2019
2314 Clouds 16 1021 93 10000 5.7 180 23:24 19.12.2019
2315 Clouds 16 1021 87 10000 7.2 190 22:59 19.12.2019
2316 Clouds 16 1021 87 10000 7.2 190 22:36 19.12.2019
2317 Clouds 17 1021 87 10000 7.2 190 22:18 19.12.2019
2318 Clouds 17 1021 87 10000 7.2 190 22:18 19.12.2019
2319 Clouds 16 1021 87 10000 6.7 200 21:55 19.12.2019
2320 Clouds 16 1021 87 10000 6.7 200 21:37 19.12.2019
2321 Clouds 16 1020 77 10000 4.1 240 21:18 19.12.2019
2322 Clouds 16 1020 87 10000 5.1 190 20:55 19.12.2019
2323 Clouds 16 1020 87 10000 5.1 190 20:36 19.12.2019
2324 Clouds 17 1020 77 10000 4.1 240 20:18 19.12.2019
2325 Clouds 17 1020 87 10000 4.1 190 19:54 19.12.2019
2326 Clouds 17 1020 87 10000 4.1 190 19:36 19.12.2019
2327 Clouds 17 1019 72 10000 4.6 220 19:18 19.12.2019
2328 Clouds 18 1020 87 10000 3.6 190 18:41 19.12.2019
2329 Clouds 18 1019 72 10000 3.6 240 18:21 19.12.2019
2330 Clouds 18 1019 72 10000 5.1 200 17:57 19.12.2019
2331 Clouds 18 1019 72 10000 5.1 200 17:39 19.12.2019
2332 Clouds 19 1018 72 10000 5.1 240 17:19 19.12.2019
2333 Clouds 19 1019 77 10000 6.7 180 16:57 19.12.2019
2334 Clouds 19 1019 77 10000 6.7 180 16:38 19.12.2019
2335 Clouds 19 1019 72 10000 7.7 220 16:20 19.12.2019
2336 Clouds 19 1019 72 10000 7.7 190 15:58 19.12.2019
2337 Clouds 19 1019 72 10000 7.7 190 15:39 19.12.2019
2338 Clouds 19 1018 68 10000 7.2 200 15:19 19.12.2019
2339 Clouds 19 1019 72 10000 8.7 180 14:58 19.12.2019
2340 Clouds 19 1019 72 10000 8.7 180 14:40 19.12.2019
2341 Clouds 19 1019 68 10000 6.2 240 14:18 19.12.2019
2342 Clouds 19 1020 72 10000 9.3 170 13:56 19.12.2019
2343 Clouds 19 1020 72 10000 9.3 170 13:37 19.12.2019
2344 Clouds 18 1020 77 10000 9.8 170 13:18 19.12.2019
2345 Clouds 18 1021 82 10000 9.3 180 12:54 19.12.2019
2346 Clouds 18 1021 82 10000 9.3 180 12:36 19.12.2019
2347 Clouds 18 1021 77 10000 7.2 200 12:18 19.12.2019
2348 Clouds 18 1021 77 10000 7.2 200 12:18 19.12.2019
2349 Clouds 18 1021 77 10000 7.2 200 12:18 19.12.2019
2350 Clouds 18 1021 77 10000 7.2 200 12:18 19.12.2019
2351 Clouds 18 1021 77 10000 7.2 200 12:18 19.12.2019
2352 Clouds 17 1022 82 10000 7.7 180 11:42 19.12.2019
2353 Clouds 16 1022 77 10000 7.2 200 11:20 19.12.2019
2354 Clouds 15 1022 82 10000 7.2 180 10:59 19.12.2019
2355 Clouds 15 1022 82 10000 7.2 180 10:39 19.12.2019
2356 Clouds 14 1021 82 10000 5.1 200 10:20 19.12.2019
2357 Clouds 14 1022 87 10000 4.1 170 09:57 19.12.2019
2358 Clouds 14 1022 87 10000 4.1 170 09:38 19.12.2019
2359 Clouds 13 1020 87 10000 6.2 180 09:20 19.12.2019
2360 Clouds 13 1021 93 10000 3.1 190 08:55 19.12.2019
2361 Clouds 13 1021 93 10000 3.1 190 08:37 19.12.2019
2362 Clouds 13 1020 87 10000 5.1 180 08:18 19.12.2019
2363 Clouds 12 1020 87 10000 4.6 160 07:54 19.12.2019
2364 Clouds 12 1020 87 10000 4.6 160 07:36 19.12.2019
2365 Clouds 12 1020 93 10000 4.6 160 07:18 19.12.2019
2366 Clouds 13 1020 93 10000 5.1 160 06:42 19.12.2019
2367 Clouds 13 1021 93 10000 5.1 150 06:24 19.12.2019
2368 Clouds 14 1021 87 10000 4.6 150 05:47 19.12.2019
2369 Clouds 13 1021 93 10000 4.6 140 05:27 19.12.2019
2370 Clouds 14 1021 87 10000 4.1 150 04:41 19.12.2019
2371 Clouds 14 1021 93 10000 3.1 180 02:30 19.12.2019
2372 Clouds 14 1021 93 10000 3.1 210 01:43 19.12.2019
2373 Clouds 14 1021 93 10000 4.1 160 01:21 19.12.2019
2374 Clouds 14 1021 93 10000 3.6 160 00:39 19.12.2019
2375 Clouds 14 1021 93 10000 3.6 160 00:39 19.12.2019
2376 Clouds 14 1022 93 10000 4.1 160 00:19 19.12.2019
2377 Clouds 14 1022 93 10000 3.6 150 23:45 18.12.2019
2378 Clouds 14 1022 100 10000 4.6 160 23:19 18.12.2019
2379 Clouds 15 1022 93 10000 4.1 170 22:58 18.12.2019
2380 Clouds 15 1022 93 10000 4.1 170 22:40 18.12.2019
2381 Clouds 15 1022 93 10000 3.1 200 22:22 18.12.2019
2382 Clouds 15 1022 87 10000 2.6 190 21:59 18.12.2019
2383 Clouds 15 1022 87 10000 2.6 190 21:41 18.12.2019
2384 Clouds 15 1020 82 10000 2.1 200 21:21 18.12.2019
2385 Clouds 16 1022 87 10000 2.6 210 20:58 18.12.2019
2386 Clouds 16 1022 87 10000 2.6 210 20:39 18.12.2019
2387 Clouds 16 1020 77 10000 4.1 200 20:20 18.12.2019
2388 Clouds 16 1021 82 10000 3.1 190 19:57 18.12.2019
2389 Clouds 16 1021 82 10000 3.1 190 19:39 18.12.2019
2390 Clouds 17 1020 72 10000 4.1 200 19:19 18.12.2019
2391 Clouds 17 1021 72 10000 4.1 220 18:59 18.12.2019
2392 Clouds 18 1021 72 10000 4.1 220 18:41 18.12.2019
2393 Clouds 18 1020 72 10000 3.1 200 18:22 18.12.2019
2394 Clouds 18 1020 68 10000 2.6 210 17:56 18.12.2019
2395 Clouds 18 1020 68 10000 2.6 210 17:38 18.12.2019
2396 Clouds 18 1020 68 10000 3.1 240 17:19 18.12.2019
2397 Clouds 18 1020 63 10000 3.6 200 16:43 18.12.2019
2398 Clear 18 1020 63 0 4.1 220 16:24 18.12.2019
2399 Clouds 18 1020 59 10000 4.6 0 15:59 18.12.2019
2400 Clear 18 1020 55 10000 6.2 200 15:40 18.12.2019
2401 Clear 18 1020 55 10000 6.2 200 15:21 18.12.2019
2402 Clouds 18 1020 59 10000 4.1 190 14:58 18.12.2019
2403 Clear 18 1020 55 10000 6.2 200 14:40 18.12.2019
2404 Clear 18 1020 55 10000 6.2 200 14:20 18.12.2019
2405 Clear 19 1021 55 10000 4.1 180 13:56 18.12.2019
2406 Clear 19 1021 55 10000 4.1 180 13:56 18.12.2019
2407 Clear 18 1021 55 10000 5.1 200 13:37 18.12.2019
2408 Clear 18 1021 55 10000 5.1 200 13:19 18.12.2019
2409 Clear 17 1022 59 10000 4.6 180 12:57 18.12.2019
2410 Clear 16 1021 63 10000 6.2 180 12:37 18.12.2019
2411 Clear 16 1021 63 10000 6.2 180 12:19 18.12.2019
2412 Clear 15 1021 67 10000 3.6 160 11:54 18.12.2019
2413 Clear 14 1021 67 10000 5.1 180 11:36 18.12.2019
2414 Clear 14 1021 67 10000 5.1 180 11:18 18.12.2019
2415 Clear 12 1021 76 10000 3.1 140 10:55 18.12.2019
2416 Clear 12 1020 71 10000 6.2 180 10:36 18.12.2019
2417 Clear 12 1020 71 10000 6.2 180 10:18 18.12.2019
2418 Clear 9 1020 81 10000 2.1 200 09:21 18.12.2019
2419 Clouds 8 1020 93 10000 2.1 140 08:58 18.12.2019
2420 Clear 7 1019 87 10000 2.1 180 08:39 18.12.2019
2421 Clear 8 1019 87 10000 2.1 180 08:21 18.12.2019
2422 Clouds 6 1019 93 8000 2.6 130 07:43 18.12.2019
2423 Clouds 6 1019 93 10000 2.1 120 07:22 18.12.2019
2424 Clouds 6 1019 93 10000 2.1 140 06:53 18.12.2019
2425 Clouds 6 1019 93 10000 2.1 140 06:26 18.12.2019
2426 Clouds 6 1019 93 10000 2.1 160 05:43 18.12.2019
2427 Clouds 10 1019 93 5000 3.1 140 04:37 18.12.2019
2428 Clouds 10 1019 93 6000 3.1 140 02:50 18.12.2019
2429 Clouds 10 1019 93 5000 3.1 140 02:30 18.12.2019
2430 Clouds 10 1020 93 5000 3.6 140 01:47 18.12.2019
2431 Rain 10 1020 93 5000 3.1 140 01:29 18.12.2019
2432 Clouds 10 1020 93 5000 3.1 140 00:59 18.12.2019
2433 Clouds 10 1020 93 10000 3.6 140 00:40 18.12.2019
2434 Clouds 10 1020 93 10000 3.6 140 00:21 18.12.2019
2435 Clouds 10 1020 100 10000 3.1 140 23:54 17.12.2019
2436 Clouds 10 1020 100 10000 2.6 140 23:36 17.12.2019
2437 Clouds 10 1020 100 10000 2.6 140 23:18 17.12.2019
2438 Clouds 10 1020 93 10000 3.1 160 22:54 17.12.2019
2439 Clouds 10 1019 93 10000 2.6 140 22:36 17.12.2019
2440 Clouds 11 1019 93 10000 2.6 140 22:18 17.12.2019
2441 Clouds 11 1019 93 10000 3.1 160 21:55 17.12.2019
2442 Clouds 11 1019 87 10000 1 180 21:36 17.12.2019
2443 Clouds 11 1019 87 10000 1 180 21:18 17.12.2019
2444 Clouds 12 1019 93 10000 3.1 180 20:40 17.12.2019
2445 Clouds 12 1019 93 10000 3.1 180 20:19 17.12.2019
2446 Clouds 13 1018 93 10000 2.6 170 19:59 17.12.2019
2447 Rain 13 1018 71 10000 1 220 19:41 17.12.2019
2448 Rain 13 1018 71 10000 1 220 19:41 17.12.2019
2449 Rain 13 1018 71 10000 1 220 19:41 17.12.2019
2450 Rain 13 1018 71 10000 1 220 19:20 17.12.2019
2451 Clouds 14 1018 81 10000 4.1 190 18:58 17.12.2019
2452 Rain 14 1017 67 10000 2.1 260 18:39 17.12.2019
2453 Rain 14 1017 67 10000 2.1 260 18:21 17.12.2019
2454 Clouds 14 1017 82 10000 6.7 210 17:56 17.12.2019
2455 Rain 14 1016 76 10000 6.7 200 17:38 17.12.2019
2456 Rain 15 1016 76 10000 6.7 200 17:18 17.12.2019
2457 Clouds 16 1016 67 10000 6.7 220 16:55 17.12.2019
2458 Rain 16 1015 59 10000 5.1 300 16:37 17.12.2019
2459 Rain 16 1015 59 10000 5.1 300 16:37 17.12.2019
2460 Rain 15 1015 59 10000 5.1 300 16:18 17.12.2019
2461 Clouds 15 1015 71 10000 7.2 230 15:54 17.12.2019
2462 Rain 15 1014 55 10000 6.2 300 15:36 17.12.2019
2463 Rain 15 1014 55 10000 6.2 300 15:18 17.12.2019
2464 Clouds 15 1015 81 10000 8.2 220 14:54 17.12.2019
2465 Rain 15 1014 55 10000 6.2 260 14:36 17.12.2019
2466 Rain 15 1014 55 10000 6.2 260 14:18 17.12.2019
2467 Clouds 14 1014 62 10000 5.1 300 13:41 17.12.2019
2468 Clouds 15 1014 62 10000 5.1 300 13:20 17.12.2019
2469 Clouds 14 1015 82 10000 6.7 200 12:59 17.12.2019
2470 Clouds 14 1015 82 10000 6.7 200 12:59 17.12.2019
2471 Clouds 14 1014 72 10000 3.1 140 12:39 17.12.2019
2472 Clouds 14 1014 72 10000 3.1 140 12:19 17.12.2019
2473 Clouds 13 1015 93 10000 6.7 180 11:58 17.12.2019
2474 Clouds 13 1014 82 10000 4.1 240 11:37 17.12.2019
2475 Clouds 13 1014 82 10000 4.1 240 11:19 17.12.2019
2476 Rain 12 1013 93 10000 6.7 170 10:58 17.12.2019
2477 Clouds 11 1012 93 10000 3.1 240 10:39 17.12.2019
2478 Clouds 11 1012 93 10000 3.1 240 10:20 17.12.2019
2479 Clouds 11 1012 93 10000 4.6 180 09:58 17.12.2019
2480 Thunderstorm 11 1011 93 8000 3.1 240 09:40 17.12.2019
2481 Thunderstorm 11 1011 93 8000 3.1 240 09:19 17.12.2019
2482 Thunderstorm 11 1010 93 800 4.1 240 08:55 17.12.2019
2483 Rain 11 1010 93 8000 4.1 240 08:37 17.12.2019
2484 Rain 12 1010 93 8000 4.1 240 08:19 17.12.2019
2485 Rain 12 1010 100 10000 5.7 190 07:45 17.12.2019
2486 Rain 12 1009 93 10000 4.1 210 07:24 17.12.2019
2487 Rain 11 1008 93 10000 7.2 200 06:55 17.12.2019
2488 Rain 11 1008 100 7000 5.7 250 06:32 17.12.2019
2489 Rain 11 1008 100 7000 5.7 250 05:52 17.12.2019
2490 Rain 11 1006 100 10000 8.2 200 05:34 17.12.2019
2491 Rain 9 1006 100 10000 7.7 200 04:25 17.12.2019
2492 Clouds 9 1006 100 10000 8.2 190 02:33 17.12.2019
2493 Rain 9 1005 100 10000 9.3 200 01:50 17.12.2019
2494 Clouds 9 1006 93 10000 7.2 200 00:56 17.12.2019
2495 Clouds 9 1006 93 10000 8.2 200 00:36 17.12.2019
2496 Clouds 11 1006 93 10000 8.2 200 00:18 17.12.2019
2497 Clouds 11 1005 93 0 10.8 200 23:40 16.12.2019
2498 Clouds 11 1005 93 0 10.8 200 23:19 16.12.2019
2499 Clouds 11 1005 93 10000 10.8 210 22:55 16.12.2019
2500 Clouds 11 1005 87 10000 12.3 210 22:37 16.12.2019
2501 Clouds 11 1005 87 10000 12.3 210 22:19 16.12.2019
2502 Rain 12 1005 93 10000 10.8 0 21:54 16.12.2019
2503 Rain 12 1005 87 10000 10.8 180 21:36 16.12.2019
2504 Rain 12 1005 87 10000 10.8 180 21:36 16.12.2019
2505 Rain 12 1005 87 10000 10.8 180 21:36 16.12.2019
2506 Rain 12 1005 87 10000 10.8 180 21:18 16.12.2019
2507 Clouds 12 1005 87 10000 9.8 170 20:56 16.12.2019
2508 Rain 12 1004 93 10000 9.3 200 20:37 16.12.2019
2509 Rain 11 1004 93 10000 9.3 200 20:19 16.12.2019
2510 Clouds 12 1004 87 10000 8.7 180 19:55 16.12.2019
2511 Rain 12 1003 87 10000 9.8 180 19:36 16.12.2019
2512 Rain 12 1003 87 10000 9.8 180 19:18 16.12.2019
2513 Clouds 13 1004 87 10000 10.8 190 18:55 16.12.2019
2514 Rain 13 1003 82 10000 9.3 200 18:37 16.12.2019
2515 Rain 14 1003 82 10000 9.3 200 18:18 16.12.2019
2516 Rain 14 1003 81 10000 10.3 210 17:56 16.12.2019
2517 Rain 14 1002 76 10000 9.8 200 17:37 16.12.2019
2518 Rain 14 1002 76 10000 9.8 200 17:19 16.12.2019
2519 Clouds 15 1003 71 10000 12.3 210 16:54 16.12.2019
2520 Clouds 16 1002 77 10000 9.8 240 16:36 16.12.2019
2521 Clouds 16 1002 77 10000 9.8 240 16:18 16.12.2019
2522 Clouds 17 1002 59 10000 12.3 210 15:55 16.12.2019
2523 Clouds 17 1002 59 10000 12.3 210 15:55 16.12.2019
2524 Clouds 17 1002 59 8000 7.2 220 15:37 16.12.2019
2525 Clouds 17 1002 59 8000 7.2 220 15:37 16.12.2019
2526 Clouds 17 1002 59 8000 7.2 220 15:19 16.12.2019
2527 Clouds 17 1002 63 10000 10.3 220 14:54 16.12.2019
2528 Clouds 17 1003 67 8000 6.2 260 14:36 16.12.2019
2529 Clouds 18 1003 67 8000 6.2 260 14:18 16.12.2019
2530 Clouds 19 1004 59 8000 13.9 260 13:38 16.12.2019
2531 Clouds 19 1004 59 8000 13.9 260 13:20 16.12.2019
2532 Clouds 19 1004 42 10000 12.3 200 12:59 16.12.2019
2533 Clouds 19 1004 55 10000 9.3 220 12:41 16.12.2019
2534 Clouds 19 1004 55 10000 9.3 220 12:20 16.12.2019
2535 Clouds 18 1005 55 10000 9.3 200 11:59 16.12.2019
2536 Clouds 18 1005 55 10000 9.3 200 11:59 16.12.2019
2537 Clouds 17 1005 59 10000 7.2 200 11:41 16.12.2019
2538 Clouds 17 1005 59 10000 7.2 200 11:22 16.12.2019
2539 Clouds 15 1006 67 10000 6.2 200 10:59 16.12.2019
2540 Clouds 15 1005 59 10000 3.1 220 10:40 16.12.2019
2541 Clouds 15 1005 59 10000 3.1 220 10:21 16.12.2019
2542 Clouds 15 1005 66 10000 3.6 200 09:55 16.12.2019
2543 Clouds 15 1005 51 10000 3.1 220 09:37 16.12.2019
2544 Clouds 15 1005 51 10000 3.1 220 09:19 16.12.2019
2545 Clouds 14 1005 55 10000 7.2 180 08:39 16.12.2019
2546 Clouds 14 1005 55 10000 7.2 180 08:19 16.12.2019
2547 Clouds 13 1006 66 10000 3.6 160 07:51 16.12.2019
2548 Clouds 13 1005 62 10000 4.1 180 07:31 16.12.2019
2549 Clouds 13 1005 62 10000 4.1 180 07:31 16.12.2019
2550 Clouds 11 1006 76 10000 4.1 140 06:48 16.12.2019
2551 Clouds 12 1006 71 10000 5.1 140 06:27 16.12.2019
2552 Clouds 12 1007 71 10000 5.7 140 05:58 16.12.2019
2553 Clouds 11 1008 81 10000 5.1 140 05:39 16.12.2019
2554 Clouds 14 1008 81 10000 5.1 140 05:21 16.12.2019
2555 Clouds 13 1010 87 10000 5.1 150 02:59 16.12.2019
2556 Clouds 13 1011 87 10000 4.6 160 01:45 16.12.2019
2557 Clouds 13 1012 93 10000 3.1 150 00:56 16.12.2019
2558 Clouds 13 1012 87 10000 3.1 150 00:37 16.12.2019
2559 Clouds 13 1012 87 10000 3.1 150 00:18 16.12.2019
2560 Clouds 13 1013 93 10000 3.1 170 23:40 15.12.2019
2561 Clouds 14 1013 93 10000 3.1 170 23:22 15.12.2019
2562 Clouds 14 1013 87 8000 2.6 170 22:56 15.12.2019
2563 Clouds 13 1013 93 8000 1.5 140 22:38 15.12.2019
2564 Clouds 13 1013 93 8000 1.5 140 22:19 15.12.2019
2565 Clouds 14 1013 93 10000 1.5 190 21:57 15.12.2019
2566 Clouds 14 1013 87 8000 4.1 260 21:38 15.12.2019
2567 Clouds 14 1013 87 8000 4.1 260 21:19 15.12.2019
2568 Clouds 14 1013 93 7000 0.5 0 20:57 15.12.2019
2569 Clouds 14 1013 87 8000 2.6 260 20:38 15.12.2019
2570 Clouds 14 1013 87 8000 2.6 260 20:19 15.12.2019
2571 Clouds 15 1013 82 8000 2.6 280 19:57 15.12.2019
2572 Clouds 15 1013 82 8000 2.6 280 19:39 15.12.2019
2573 Clouds 15 1013 82 8000 2.6 280 19:39 15.12.2019
2574 Clouds 15 1013 82 8000 2.6 280 19:19 15.12.2019
2575 Clouds 15 1013 82 10000 2.1 310 18:57 15.12.2019
2576 Clouds 16 1013 82 10000 3.1 300 18:38 15.12.2019
2577 Clouds 16 1013 82 10000 3.1 300 18:18 15.12.2019
2578 Clouds 18 1014 48 10000 4.1 260 17:56 15.12.2019
2579 Clouds 18 1014 68 10000 5.1 300 17:37 15.12.2019
2580 Clouds 18 1014 68 10000 5.1 300 17:19 15.12.2019
2581 Clouds 18 1014 40 10000 3.6 220 16:56 15.12.2019
2582 Clouds 18 1014 72 10000 4.1 20 16:38 15.12.2019
2583 Clouds 18 1014 72 10000 4.1 20 16:20 15.12.2019
2584 Clouds 19 1014 35 10000 3.6 220 15:55 15.12.2019
2585 Clouds 19 1014 35 10000 3.6 220 15:55 15.12.2019
2586 Clouds 19 1015 68 10000 4.1 20 15:37 15.12.2019
2587 Clouds 19 1015 68 10000 4.1 20 15:18 15.12.2019
2588 Clouds 19 1015 40 10000 4.1 220 14:55 15.12.2019
2589 Clouds 19 1016 68 10000 2.1 20 14:36 15.12.2019
2590 Clouds 19 1016 68 10000 2.1 20 14:18 15.12.2019
2591 Clouds 19 1016 68 10000 2.1 20 14:18 15.12.2019
2592 Clouds 19 1016 56 10000 2.6 220 13:55 15.12.2019
2593 Clouds 18 1017 63 10000 4.1 240 13:36 15.12.2019
2594 Clouds 18 1017 63 10000 4.1 240 13:18 15.12.2019
2595 Clouds 18 1017 63 10000 4.1 240 13:18 15.12.2019
2596 Clouds 17 1017 68 10000 2.1 220 12:55 15.12.2019
2597 Clouds 17 1018 63 10000 3.1 260 12:37 15.12.2019
2598 Clouds 17 1018 63 10000 3.1 260 12:37 15.12.2019
2599 Clouds 17 1018 63 10000 3.1 260 12:19 15.12.2019
2600 Clouds 15 1018 77 10000 1 20 11:38 15.12.2019
2601 Clouds 15 1018 77 10000 1 20 11:19 15.12.2019
2602 Clouds 13 1019 87 10000 0.5 0 10:58 15.12.2019
2603 Clouds 12 1018 81 10000 0.5 120 10:39 15.12.2019
2604 Clouds 12 1018 81 10000 0.5 120 10:19 15.12.2019
2605 Clouds 9 1018 100 10000 1 0 09:58 15.12.2019
2606 Clouds 8 1018 93 10000 1 180 09:37 15.12.2019
2607 Clouds 8 1018 93 10000 1 180 09:19 15.12.2019
2608 Clouds 9 1018 100 8000 1 0 08:55 15.12.2019
2609 Clouds 8 1018 93 10000 3.1 180 08:36 15.12.2019
2610 Clouds 9 1018 93 10000 3.1 180 08:18 15.12.2019
2611 Clouds 9 1018 100 9000 1 0 07:47 15.12.2019
2612 Clouds 9 1018 93 10000 2.6 180 07:28 15.12.2019
2613 Clouds 7 1018 93 10000 1.5 90 06:26 15.12.2019
2614 Clouds 8 1019 93 10000 1 310 05:42 15.12.2019
2615 Clouds 14 1019 93 10000 1 310 05:21 15.12.2019
2616 Clouds 13 1019 93 10000 0.5 0 04:21 15.12.2019
2617 Clouds 12 1019 93 10000 2.1 100 02:55 15.12.2019
2618 Clouds 13 1019 93 10000 1.5 10 02:32 15.12.2019
2619 Clouds 13 1020 93 10000 0.5 0 01:41 15.12.2019
2620 Clouds 13 1020 93 10000 3.1 90 01:19 15.12.2019
2621 Clouds 13 1020 93 10000 2.6 60 00:49 15.12.2019
2622 Clouds 13 1021 87 10000 3.1 50 00:31 15.12.2019
2623 Clouds 14 1021 87 10000 2.6 40 23:54 14.12.2019
2624 Clouds 14 1021 87 10000 3.6 30 23:36 14.12.2019
2625 Clouds 14 1021 87 10000 3.6 30 23:18 14.12.2019
2626 Clouds 15 1021 87 10000 2.6 20 22:42 14.12.2019
2627 Clouds 15 1021 87 10000 2.6 20 22:22 14.12.2019
2628 Clouds 15 1021 82 10000 2.6 360 21:58 14.12.2019
2629 Clouds 15 1021 77 10000 3.1 40 21:40 14.12.2019
2630 Clouds 15 1021 77 10000 3.1 40 21:20 14.12.2019
2631 Clouds 15 1021 82 10000 3.1 10 20:59 14.12.2019
2632 Clouds 16 1021 77 10000 4.1 360 20:41 14.12.2019
2633 Clouds 16 1021 77 10000 4.1 360 20:20 14.12.2019
2634 Clouds 16 1021 77 10000 4.1 360 19:59 14.12.2019
2635 Clouds 16 1021 72 10000 3.1 40 19:39 14.12.2019
2636 Clouds 16 1021 72 10000 3.1 40 19:39 14.12.2019
2637 Clouds 16 1021 72 10000 3.1 40 19:20 14.12.2019
2638 Clouds 17 1021 67 10000 4.1 350 18:56 14.12.2019
2639 Clouds 17 1021 72 10000 4.1 20 18:38 14.12.2019
2640 Clouds 17 1021 72 10000 4.1 20 18:20 14.12.2019
2641 Clouds 18 1020 68 10000 6.2 40 17:44 14.12.2019
2642 Clouds 18 1020 68 10000 6.2 40 17:24 14.12.2019
2643 Clouds 18 1020 63 10000 6.2 330 16:59 14.12.2019
2644 Clouds 18 1021 68 10000 5.1 40 16:40 14.12.2019
2645 Clouds 18 1021 68 10000 5.1 40 16:19 14.12.2019
2646 Clouds 19 1021 63 10000 5.1 60 15:54 14.12.2019
2647 Clouds 19 1021 63 10000 5.1 60 15:36 14.12.2019
2648 Clouds 19 1021 63 10000 5.1 60 15:36 14.12.2019
2649 Clouds 19 1021 63 10000 5.1 60 15:18 14.12.2019
2650 Clouds 18 1021 63 10000 6.2 40 14:40 14.12.2019
2651 Clouds 18 1021 63 10000 6.2 40 14:21 14.12.2019
2652 Clouds 18 1022 68 10000 4.1 40 13:59 14.12.2019
2653 Clouds 18 1022 63 10000 5.1 80 13:41 14.12.2019
2654 Clouds 18 1022 63 10000 5.1 80 13:19 14.12.2019
2655 Clouds 18 1023 67 10000 5.1 50 12:56 14.12.2019
2656 Clouds 17 1023 68 10000 5.1 100 12:37 14.12.2019
2657 Clouds 17 1023 68 10000 5.1 100 12:19 14.12.2019
2658 Clouds 17 1024 72 10000 5.1 30 11:56 14.12.2019
2659 Clouds 17 1024 72 10000 6.2 100 11:37 14.12.2019
2660 Clouds 17 1024 72 10000 6.2 100 11:18 14.12.2019
2661 Clouds 16 1024 82 10000 2.6 50 10:56 14.12.2019
2662 Clouds 15 1023 82 10000 3.1 120 10:38 14.12.2019
2663 Clouds 15 1023 82 10000 3.1 120 10:19 14.12.2019
2664 Clouds 15 1024 87 10000 2.1 60 09:43 14.12.2019
2665 Clouds 15 1023 87 10000 3.1 120 09:21 14.12.2019
2666 Clouds 14 1023 87 10000 1.5 30 08:57 14.12.2019
2667 Clouds 14 1023 93 10000 3.1 120 08:38 14.12.2019
2668 Clouds 14 1023 93 10000 3.1 120 08:19 14.12.2019
2669 Clouds 14 1023 93 10000 1 160 07:40 14.12.2019
2670 Clouds 14 1023 93 10000 1 160 07:21 14.12.2019
2671 Clouds 14 1023 93 10000 3.1 30 06:45 14.12.2019
2672 Clouds 14 1023 93 10000 2.6 20 06:22 14.12.2019
2673 Clouds 14 1023 93 10000 2.6 20 05:43 14.12.2019
2674 Clouds 14 1024 93 10000 2.1 40 03:44 14.12.2019
2675 Clouds 14 1024 93 10000 2.1 30 02:23 14.12.2019
2676 Clouds 15 1024 92 10000 3.1 40 01:44 14.12.2019
2677 Clouds 15 1025 93 10000 3.6 40 01:20 14.12.2019
2678 Clouds 14 1025 93 8000 3.6 20 00:41 14.12.2019
2679 Clouds 14 1025 93 8000 3.6 20 00:20 14.12.2019
2680 Clouds 14 1025 93 8000 3.6 10 23:41 13.12.2019
2681 Clouds 15 1025 93 8000 3.6 10 23:19 13.12.2019
2682 Clouds 15 1025 93 8000 4.1 10 22:57 13.12.2019
2683 Clouds 15 1025 93 8000 3.1 10 22:38 13.12.2019
2684 Clouds 15 1025 93 8000 3.1 10 22:18 13.12.2019
2685 Clouds 15 1025 93 8000 3.1 10 21:44 13.12.2019
2686 Clouds 15 1025 87 10000 2.1 20 21:22 13.12.2019
2687 Clear 15 1025 87 10000 3.6 360 20:59 13.12.2019
2688 Clouds 15 1025 87 10000 3.1 20 20:40 13.12.2019
2689 Clouds 16 1025 87 10000 3.1 20 20:20 13.12.2019
2690 Clear 16 1025 82 10000 4.1 350 19:56 13.12.2019
2691 Clear 16 1025 82 10000 4.1 350 19:38 13.12.2019
2692 Clear 16 1025 82 10000 4.1 20 19:19 13.12.2019
2693 Clear 16 1025 72 10000 5.1 350 18:55 13.12.2019
2694 Clear 16 1025 72 10000 5.1 350 18:36 13.12.2019
2695 Clear 16 1025 82 10000 5.1 20 18:18 13.12.2019
2696 Clear 18 1025 63 10000 4.6 360 17:40 13.12.2019
2697 Clear 18 1025 68 10000 8.2 20 17:19 13.12.2019
2698 Clear 19 1025 63 10000 4.6 60 16:57 13.12.2019
2699 Clear 19 1025 63 10000 4.6 60 16:57 13.12.2019
2700 Clear 19 1025 63 10000 4.6 60 16:38 13.12.2019
2701 Clear 19 1025 56 10000 5.1 360 16:20 13.12.2019
2702 Clear 19 1026 63 10000 6.2 20 15:43 13.12.2019
2703 Clear 18 1026 63 10000 6.2 20 15:22 13.12.2019
2704 Clear 19 1026 55 10000 4.1 20 14:57 13.12.2019
2705 Clear 19 1026 55 10000 4.1 20 14:38 13.12.2019
2706 Clear 19 1027 56 10000 3.6 40 14:19 13.12.2019
2707 Clear 18 1027 55 10000 4.1 10 13:44 13.12.2019
2708 Clear 18 1028 52 10000 2.1 80 13:26 13.12.2019
2709 Clouds 17 1029 63 10000 3.6 40 12:58 13.12.2019
2710 Clouds 17 1029 63 10000 3.6 40 12:40 13.12.2019
2711 Clear 19 1029 55 10000 3.1 100 12:19 13.12.2019
2712 Clouds 19 1029 59 10000 3.1 50 11:45 13.12.2019
2713 Clouds 18 1029 67 10000 2.6 90 11:26 13.12.2019
2714 Clear 16 1017 41 10000 3.1 360 10:57 13.12.2019
2715 Clouds 16 1029 71 10000 1.5 140 10:39 13.12.2019
2716 Clouds 16 1029 62 10000 2.1 200 10:21 13.12.2019
2717 Clouds 11 1029 87 10000 1 0 09:42 13.12.2019
2718 Clouds 11 1028 66 10000 4.1 200 09:21 13.12.2019
2719 Clouds 9 1028 87 10000 1.5 100 08:55 13.12.2019
2720 Clouds 9 1028 87 10000 1.5 100 08:55 13.12.2019
2721 Clouds 9 1028 87 10000 1.5 100 08:36 13.12.2019
2722 Clouds 9 1028 66 10000 3.1 180 08:18 13.12.2019
2723 Clear 10 1028 87 10000 1.5 110 07:42 13.12.2019
2724 Clouds 10 1028 71 10000 3.1 180 07:19 13.12.2019
2725 Clear 10 1028 87 10000 0.5 0 06:39 13.12.2019
2726 Clear 9 1028 93 10000 0.5 110 06:20 13.12.2019
2727 Clear 10 1028 87 10000 1.5 120 05:37 13.12.2019
2728 Clear 12 1028 87 10000 1.5 110 05:19 13.12.2019
2729 Clouds 10 1028 87 10000 2.1 90 03:55 13.12.2019
2730 Clouds 10 1028 87 10000 1.5 120 02:56 13.12.2019
2731 Clouds 10 1029 87 10000 1 0 02:30 13.12.2019
2732 Clouds 11 1029 87 0 1.5 100 01:34 13.12.2019
2733 Clouds 11 1029 87 10000 2.1 140 00:50 13.12.2019
2734 Clouds 11 1029 87 10000 1.5 120 00:28 13.12.2019
2735 Clouds 11 1029 87 10000 2.1 90 23:43 12.12.2019
2736 Clouds 12 1029 81 10000 2.1 70 23:25 12.12.2019
2737 Clouds 12 1029 76 10000 1.5 50 22:56 12.12.2019
2738 Clouds 12 1029 76 10000 1.5 50 22:38 12.12.2019
2739 Clouds 12 1029 76 10000 1.5 50 22:38 12.12.2019
2740 Clouds 13 1029 76 10000 2.1 50 22:20 12.12.2019
2741 Clouds 13 1029 76 10000 1.5 40 21:56 12.12.2019
2742 Clouds 13 1029 76 10000 1.5 40 21:37 12.12.2019
2743 Clouds 13 1028 67 10000 3.1 40 21:19 12.12.2019
2744 Clouds 13 1029 71 10000 2.1 30 20:59 12.12.2019
2745 Clouds 14 1029 71 10000 2.1 30 20:40 12.12.2019
2746 Clear 15 1029 58 0 4.92 40 20:21 12.12.2019
2747 Clouds 14 1029 62 10000 3.1 360 19:56 12.12.2019
2748 Clouds 14 1029 62 10000 3.1 360 19:37 12.12.2019
2749 Clouds 14 1029 62 10000 3.1 360 19:18 12.12.2019
2750 Clouds 14 1029 62 10000 3.1 360 19:18 12.12.2019
2751 Clouds 14 1029 62 10000 3.1 360 18:55 12.12.2019
2752 Clouds 15 1029 62 10000 3.1 360 18:37 12.12.2019
2753 Clouds 15 1029 58 10000 5.1 40 18:19 12.12.2019
2754 Clouds 16 1028 58 10000 5.1 360 17:56 12.12.2019
2755 Clouds 16 1028 58 10000 5.1 360 17:38 12.12.2019
2756 Clouds 16 1028 58 10000 5.7 340 17:19 12.12.2019
2757 Clouds 16 1028 55 10000 5.7 360 16:54 12.12.2019
2758 Clouds 16 1028 55 10000 5.7 360 16:36 12.12.2019
2759 Clouds 16 1028 55 10000 4.1 20 16:18 12.12.2019
2760 Clouds 16 1028 59 10000 5.7 360 15:42 12.12.2019
2761 Clouds 16 1029 55 10000 4.1 20 15:20 12.12.2019
2762 Clouds 17 1029 63 10000 5.7 340 14:57 12.12.2019
2763 Clouds 16 1029 63 10000 5.7 340 14:37 12.12.2019
2764 Clouds 16 1029 55 10000 7.2 40 14:19 12.12.2019
2765 Clouds 16 1029 67 10000 5.7 330 13:55 12.12.2019
2766 Clouds 16 1029 67 10000 5.7 330 13:37 12.12.2019
2767 Clouds 16 1029 67 10000 5.7 330 13:37 12.12.2019
2768 Clouds 16 1030 59 10000 7.2 20 13:18 12.12.2019
2769 Clouds 16 1029 77 10000 4.1 360 12:55 12.12.2019
2770 Clouds 16 1029 77 10000 4.1 360 12:37 12.12.2019
2771 Clouds 15 1029 82 10000 3.1 350 12:18 12.12.2019
2772 Clouds 15 1030 87 10000 3.6 350 11:40 12.12.2019
2773 Clouds 15 1030 72 10000 6.2 20 11:22 12.12.2019
2774 Clouds 14 1029 93 10000 2.1 60 10:59 12.12.2019
2775 Clouds 14 1029 93 10000 2.1 60 10:59 12.12.2019
2776 Clouds 14 1029 93 10000 2.1 60 10:41 12.12.2019
2777 Clouds 13 1029 93 8000 0.5 140 10:22 12.12.2019
2778 Clouds 12 1029 100 8000 2.1 90 09:57 12.12.2019
2779 Clouds 12 1029 100 8000 2.1 90 09:39 12.12.2019
2780 Clouds 12 1029 93 10000 1 180 09:20 12.12.2019
2781 Clouds 13 1029 93 6000 1.5 360 08:50 12.12.2019
2782 Clouds 12 1029 93 10000 2.66 51 08:29 12.12.2019
2783 Mist 11 1028 100 5000 2.1 330 07:59 12.12.2019
2784 Mist 11 1028 100 5000 2.1 330 07:39 12.12.2019
2785 Mist 11 1028 100 4000 1 0 07:21 12.12.2019
2786 Mist 11 1028 100 4000 1 0 06:42 12.12.2019
2787 Clouds 11 1027 100 6000 1 110 06:23 12.12.2019
2788 Mist 11 1028 100 4000 1 0 05:34 12.12.2019
2789 Mist 13 1028 100 4000 1.5 90 04:48 12.12.2019
2790 Mist 13 1028 100 1500 1 0 02:44 12.12.2019
2791 Fog 12 1028 100 900 1.5 100 02:25 12.12.2019
2792 Fog 12 1028 100 200 1.5 90 01:59 12.12.2019
2793 Fog 12 1028 100 200 1.5 90 01:36 12.12.2019
2794 Fog 13 1029 100 200 2.1 80 00:50 12.12.2019
2795 Fog 12 1029 100 200 2.6 90 00:22 12.12.2019
2796 Mist 13 1028 100 4000 2.1 80 23:58 11.12.2019
2797 Mist 13 1028 100 4000 2.1 80 23:39 11.12.2019
2798 Mist 13 1028 93 3000 2.6 360 23:19 11.12.2019
2799 Mist 13 1028 100 3000 3.1 350 22:57 11.12.2019
2800 Mist 13 1028 100 3000 3.1 350 22:38 11.12.2019
2801 Clouds 14 1028 100 5000 3.1 340 22:19 11.12.2019
2802 Clouds 14 1028 93 5000 3.1 340 21:55 11.12.2019
2803 Clouds 14 1028 93 5000 3.1 340 21:55 11.12.2019
2804 Clouds 14 1028 93 5000 3.1 340 21:37 11.12.2019
2805 Clouds 14 1028 87 5000 3.1 340 21:19 11.12.2019
2806 Clouds 14 1028 87 10000 3.1 340 20:55 11.12.2019
2807 Clouds 14 1028 87 10000 3.1 340 20:37 11.12.2019
2808 Clear 14 1028 87 10000 1 360 20:18 11.12.2019
2809 Clouds 15 1028 87 10000 2.6 350 19:43 11.12.2019
2810 Clear 16 1027 77 10000 1.5 360 19:23 11.12.2019
2811 Clouds 16 1027 82 10000 3.1 350 18:59 11.12.2019
2812 Clouds 16 1027 82 10000 3.1 350 18:40 11.12.2019
2813 Clouds 16 1027 77 10000 1.5 40 18:20 11.12.2019
2814 Clear 17 1027 67 10000 4.1 360 17:57 11.12.2019
2815 Clear 18 1027 67 10000 4.1 360 17:38 11.12.2019
2816 Clouds 18 1027 72 10000 3.6 20 17:18 11.12.2019
2817 Clear 18 1027 63 10000 4.1 340 16:56 11.12.2019
2818 Clear 18 1027 63 10000 4.1 340 16:37 11.12.2019
2819 Clouds 18 1027 68 10000 4.1 40 16:19 11.12.2019
2820 Clear 18 1027 52 10000 3.1 320 15:57 11.12.2019
2821 Clear 18 1027 52 10000 3.1 320 15:37 11.12.2019
2822 Clouds 18 1027 68 10000 4.1 20 15:19 11.12.2019
2823 Clear 18 1028 59 10000 2.6 320 14:55 11.12.2019
2824 Clear 18 1028 59 10000 2.6 320 14:37 11.12.2019
2825 Clouds 18 1028 63 10000 2.6 320 14:18 11.12.2019
2826 Clouds 17 1028 67 10000 3.1 350 13:44 11.12.2019
2827 Clouds 17 1029 72 10000 2.1 300 13:23 11.12.2019
2828 Clouds 17 1029 77 10000 1 120 12:59 11.12.2019
2829 Clouds 17 1029 77 10000 1 120 12:39 11.12.2019
2830 Clouds 17 1029 77 10000 1 120 12:21 11.12.2019
2831 Clear 15 1029 82 10000 2.6 90 11:58 11.12.2019
2832 Clear 15 1029 82 10000 2.6 90 11:39 11.12.2019
2833 Clear 15 1029 77 8000 3.1 180 11:19 11.12.2019
2834 Clouds 13 1029 93 10000 2.1 140 10:59 11.12.2019
2835 Clouds 12 1029 93 10000 2.1 140 10:40 11.12.2019
2836 Clear 12 1029 87 6000 5.1 180 10:21 11.12.2019
2837 Clouds 10 1029 93 8000 1.5 140 09:56 11.12.2019
2838 Clouds 10 1029 93 8000 1.5 140 09:38 11.12.2019
2839 Clear 8 1028 93 6000 3.1 180 09:19 11.12.2019
2840 Mist 8 1028 100 3400 2.1 140 08:55 11.12.2019
2841 Mist 8 1028 100 3400 2.1 140 08:36 11.12.2019
2842 Mist 8 1028 100 3400 1.5 120 08:18 11.12.2019
2843 Mist 5 1027 100 3000 1.5 130 07:43 11.12.2019
2844 Clouds 5 1027 100 7000 1.5 130 07:23 11.12.2019
2845 Clouds 5 1027 100 8000 2.6 130 06:46 11.12.2019
2846 Clouds 5 1027 100 8000 2.6 130 06:24 11.12.2019
2847 Clear 7 1027 93 8000 1 0 05:54 11.12.2019
2848 Clear 6 1027 100 8000 1.5 320 05:35 11.12.2019
2849 Clear 13 1026 100 10000 2.1 330 04:51 11.12.2019
2850 Clear 11 1026 93 10000 1.5 140 03:26 11.12.2019
2851 Clear 12 1026 93 10000 1.5 100 02:35 11.12.2019
2852 Clear 12 1027 100 10000 1 0 01:22 11.12.2019
2853 Clear 12 1027 93 10000 2.1 90 00:38 11.12.2019
2854 Clear 12 1027 93 10000 2.1 80 00:19 11.12.2019
2855 Clear 12 1027 93 10000 1.5 60 23:44 10.12.2019
2856 Clear 14 1027 87 10000 2.6 30 23:23 10.12.2019
2857 Clear 14 1027 93 10000 2.1 20 22:56 10.12.2019
2858 Clear 14 1027 93 10000 2.1 20 22:38 10.12.2019
2859 Clear 14 1027 87 10000 2.1 10 22:20 10.12.2019
2860 Clear 14 1027 87 10000 3.1 20 21:54 10.12.2019
2861 Clear 14 1027 87 10000 3.1 20 21:36 10.12.2019
2862 Clear 14 1027 82 8000 3.1 80 21:18 10.12.2019
2863 Clear 15 1027 82 10000 3.1 360 20:55 10.12.2019
2864 Clear 15 1027 82 10000 3.1 360 20:36 10.12.2019
2865 Clear 15 1026 82 8000 5.1 60 20:18 10.12.2019
2866 Clear 15 1026 82 8000 5.1 60 20:18 10.12.2019
2867 Clear 15 1026 76 10000 3.6 360 19:44 10.12.2019
2868 Clear 16 1026 77 8000 4.1 60 19:25 10.12.2019
2869 Clear 16 1026 72 10000 4.6 350 18:57 10.12.2019
2870 Clear 16 1026 72 10000 4.6 350 18:39 10.12.2019
2871 Clear 16 1026 77 10000 5.7 60 18:19 10.12.2019
2872 Clear 17 1026 63 10000 4.1 360 17:54 10.12.2019
2873 Clear 17 1026 63 10000 4.1 360 17:54 10.12.2019
2874 Clear 18 1026 63 10000 4.1 360 17:36 10.12.2019
2875 Clear 18 1026 68 10000 4.1 40 17:18 10.12.2019
2876 Clear 18 1026 59 10000 4.6 350 16:42 10.12.2019
2877 Clouds 18 1026 59 10000 4.6 40 16:20 10.12.2019
2878 Clouds 18 1026 59 10000 4.6 40 16:20 10.12.2019
2879 Clear 18 1026 59 10000 3.6 20 15:54 10.12.2019
2880 Clear 18 1026 59 10000 3.6 20 15:36 10.12.2019
2881 Clear 18 1026 59 10000 4.1 20 15:18 10.12.2019
2882 Clear 18 1026 59 10000 4.1 10 14:42 10.12.2019
2883 Clouds 18 1028 59 10000 5.7 60 14:24 10.12.2019
2884 Clear 18 1027 63 10000 4.1 10 13:59 10.12.2019
2885 Clear 18 1027 63 10000 4.1 10 13:40 10.12.2019
2886 Clouds 18 1028 59 10000 4.1 80 13:20 10.12.2019
2887 Clear 18 1028 63 10000 4.1 30 12:57 10.12.2019
2888 Clear 18 1028 63 10000 4.1 30 12:38 10.12.2019
2889 Clear 17 1028 63 10000 4.6 120 12:20 10.12.2019
2890 Clear 16 1029 72 10000 4.1 50 11:41 10.12.2019
2891 Clear 16 1029 77 10000 3.1 120 11:22 10.12.2019
2892 Clouds 14 1029 87 10000 2.6 70 10:55 10.12.2019
2893 Clouds 14 1029 87 10000 2.6 70 10:36 10.12.2019
2894 Clear 13 1028 82 10000 3.1 180 10:18 10.12.2019
2895 Clouds 12 1028 93 10000 1.5 60 09:54 10.12.2019
2896 Clouds 12 1028 93 10000 1.5 60 09:36 10.12.2019
2897 Clear 11 1028 93 10000 2.1 180 09:18 10.12.2019
2898 Clouds 11 1028 100 10000 1.5 100 08:41 10.12.2019
2899 Clouds 11 1028 93 10000 1 160 08:22 10.12.2019
2900 Clouds 11 1027 100 8000 1.5 50 07:57 10.12.2019
2901 Clouds 11 1027 100 8000 1.5 50 07:39 10.12.2019
2902 Clouds 11 1027 100 8000 1.5 50 07:39 10.12.2019
2903 Clear 11 1027 87 10000 1.5 360 07:20 10.12.2019
2904 Clouds 10 1027 100 8000 1 0 06:46 10.12.2019
2905 Clouds 10 1027 100 10000 2.1 80 06:19 10.12.2019
2906 Clouds 10 1027 100 10000 2.1 80 06:19 10.12.2019
2907 Clouds 11 1027 100 8000 2.1 90 05:52 10.12.2019
2908 Clouds 13 1028 93 10000 1.5 30 04:50 10.12.2019
2909 Clouds 14 1028 93 10000 2.1 20 03:32 10.12.2019
2910 Clouds 14 1028 93 10000 2.1 360 02:40 10.12.2019
2911 Clouds 14 1029 93 10000 2.1 30 01:44 10.12.2019
2912 Clouds 14 1029 93 10000 2.1 360 01:20 10.12.2019
2913 Clouds 15 1029 93 10000 2.1 50 00:40 10.12.2019
2914 Clouds 15 1029 82 10000 3.1 30 00:19 10.12.2019
2915 Clouds 16 1029 82 10000 3.1 20 23:41 09.12.2019
2916 Clouds 16 1029 82 10000 3.1 20 23:41 09.12.2019
2917 Clouds 16 1029 87 10000 2.6 20 23:22 09.12.2019
2918 Clouds 15 1029 87 8000 2.6 20 22:58 09.12.2019
2919 Clouds 15 1029 87 8000 2.6 20 22:39 09.12.2019
2920 Clouds 15 1029 87 8000 2.6 20 22:19 09.12.2019
2921 Clouds 15 1029 93 8000 3.1 20 21:56 09.12.2019
2922 Clouds 16 1029 93 8000 3.1 20 21:38 09.12.2019
2923 Clouds 17 1028 93 10000 3.1 10 21:18 09.12.2019
2924 Clear 17 1028 87 10000 3.6 10 20:56 09.12.2019
2925 Clear 17 1028 87 10000 3.6 10 20:38 09.12.2019
2926 Clouds 17 1028 87 10000 4.1 360 20:20 09.12.2019
2927 Clouds 17 1028 82 10000 4.6 360 19:55 09.12.2019
2928 Clouds 17 1028 82 10000 4.6 360 19:55 09.12.2019
2929 Clouds 17 1028 82 10000 4.6 360 19:37 09.12.2019
2930 Clouds 17 1028 77 10000 4.1 350 19:19 09.12.2019
2931 Clouds 17 1027 82 10000 4.1 350 18:56 09.12.2019
2932 Clouds 17 1027 82 10000 4.1 350 18:37 09.12.2019
2933 Clouds 18 1027 72 10000 4.6 350 18:19 09.12.2019
2934 Clouds 18 1027 68 10000 5.1 350 17:57 09.12.2019
2935 Clouds 18 1027 68 10000 5.1 350 17:38 09.12.2019
2936 Clouds 19 1027 63 10000 5.1 350 17:20 09.12.2019
2937 Clouds 19 1027 60 10000 5.1 360 16:56 09.12.2019
2938 Clouds 19 1027 60 10000 5.1 360 16:37 09.12.2019
2939 Clouds 19 1028 68 10000 6.2 20 16:18 09.12.2019
2940 Clouds 19 1028 56 10000 4.6 360 15:55 09.12.2019
2941 Clouds 19 1028 56 10000 4.6 360 15:36 09.12.2019
2942 Clouds 19 1028 56 10000 4.6 360 15:36 09.12.2019
2943 Clouds 19 1028 63 10000 6.2 40 15:18 09.12.2019
2944 Clouds 19 1028 52 10000 4.6 20 14:42 09.12.2019
2945 Clear 19 1029 63 10000 6.2 40 14:19 09.12.2019
2946 Clear 18 1030 52 10000 4.1 20 13:58 09.12.2019
2947 Clear 18 1030 52 10000 4.1 20 13:38 09.12.2019
2948 Clear 18 1030 59 10000 6.2 80 13:19 09.12.2019
2949 Clear 18 1030 55 10000 3.1 40 12:57 09.12.2019
2950 Clear 18 1030 55 10000 3.1 40 12:38 09.12.2019
2951 Clear 18 1030 68 10000 5.1 100 12:19 09.12.2019
2952 Clear 16 1031 72 10000 2.6 40 11:57 09.12.2019
2953 Clear 16 1031 72 10000 2.6 40 11:37 09.12.2019
2954 Clear 16 1031 77 10000 2.1 120 11:18 09.12.2019
2955 Clear 14 1030 93 10000 1.5 110 10:41 09.12.2019
2956 Clear 13 1030 82 10000 2.1 200 10:20 09.12.2019
2957 Clear 11 1030 93 10000 0.5 60 09:59 09.12.2019
2958 Clear 11 1030 93 10000 0.5 60 09:41 09.12.2019
2959 Clear 11 1030 93 10000 0.5 60 09:41 09.12.2019
2960 Clear 10 1030 93 10000 2.6 180 09:21 09.12.2019
2961 Clear 8 1030 100 6000 1 0 08:54 09.12.2019
2962 Clear 8 1030 100 6000 1 0 08:36 09.12.2019
2963 Clear 8 1029 100 10000 2.1 200 08:18 09.12.2019
2964 Clear 8 1029 100 10000 2.1 200 08:18 09.12.2019
2965 Clouds 9 1029 100 6000 1.5 120 07:42 09.12.2019
2966 Clouds 8 1029 100 6000 1.5 70 07:23 09.12.2019
2967 Mist 7 1028 100 4000 1.5 60 06:49 09.12.2019
2968 Mist 7 1028 100 4000 1 70 06:25 09.12.2019
2969 Fog 7 1028 100 800 1 120 05:29 09.12.2019
2970 Mist 12 1028 100 4000 1.5 110 04:46 09.12.2019
2971 Clouds 13 1028 93 5000 2.6 20 03:45 09.12.2019
2972 Clouds 12 1029 93 8000 2.1 110 02:24 09.12.2019
2973 Clouds 12 1029 100 8000 1.5 110 01:44 09.12.2019
2974 Clouds 14 1029 87 8000 2.1 20 00:53 09.12.2019
2975 Clouds 14 1029 87 8000 2.1 20 00:32 09.12.2019
2976 Clouds 14 1029 93 7000 2.1 20 23:44 08.12.2019
2977 Clouds 14 1029 87 7000 2.1 20 23:24 08.12.2019
2978 Clouds 14 1029 87 7000 2.1 10 22:58 08.12.2019
2979 Clouds 14 1029 87 7000 2.1 10 22:39 08.12.2019
2980 Clouds 12 1029 93 7000 2.1 50 22:20 08.12.2019
2981 Clouds 14 1028 87 7000 2.6 10 21:58 08.12.2019
2982 Clouds 14 1028 87 7000 2.6 10 21:40 08.12.2019
2983 Clouds 15 1028 87 7000 2.6 10 21:22 08.12.2019
2984 Clouds 15 1028 93 7000 3.1 10 20:57 08.12.2019
2985 Clouds 15 1028 93 7000 3.1 10 20:38 08.12.2019
2986 Clouds 15 1027 93 5000 3.1 60 20:20 08.12.2019
2987 Clear 15 1028 93 10000 2.1 10 19:59 08.12.2019
2988 Clear 15 1028 93 10000 2.1 10 19:41 08.12.2019
2989 Clouds 16 1027 87 5000 3.1 60 19:23 08.12.2019
2990 Clear 16 1027 72 10000 4.1 350 18:55 08.12.2019
2991 Clear 16 1027 72 10000 4.1 350 18:55 08.12.2019
2992 Clear 16 1027 72 10000 4.1 350 18:37 08.12.2019
2993 Clouds 16 1027 87 8000 5.1 20 18:19 08.12.2019
2994 Clouds 17 1027 63 10000 4.1 360 17:57 08.12.2019
2995 Clouds 17 1027 63 10000 4.1 360 17:38 08.12.2019
2996 Clear 17 1027 72 10000 4.1 20 17:20 08.12.2019
2997 Clear 17 1027 72 10000 4.1 20 17:20 08.12.2019
2998 Clear 17 1027 72 10000 4.1 20 17:20 08.12.2019
2999 Clear 17 1027 72 10000 4.1 20 17:20 08.12.2019
3000 Clear 17 1027 72 10000 4.1 20 17:20 08.12.2019
3001 Clouds 17 1026 59 10000 3.1 10 16:57 08.12.2019
3002 Clouds 17 1026 59 10000 3.1 10 16:39 08.12.2019
3003 Clear 17 1026 68 10000 5.1 60 16:20 08.12.2019
3004 Clouds 18 1026 59 10000 2.6 10 15:55 08.12.2019
3005 Clouds 18 1026 59 10000 2.6 10 15:36 08.12.2019
3006 Clear 17 1026 68 8000 3.1 20 15:18 08.12.2019
3007 Clouds 17 1027 59 10000 2.1 330 14:43 08.12.2019
3008 Clouds 17 1027 68 10000 2.6 350 14:24 08.12.2019
3009 Clear 17 1027 68 5000 5.1 20 13:58 08.12.2019
3010 Clear 17 1027 68 5000 5.1 20 13:40 08.12.2019
3011 Clear 17 1027 68 5000 5.1 20 13:21 08.12.2019
3012 Clear 17 1028 72 10000 1.5 340 12:56 08.12.2019
3013 Clear 17 1028 72 10000 1.5 340 12:38 08.12.2019
3014 Mist 16 1028 77 3000 2.1 100 12:18 08.12.2019
3015 Clear 15 1028 87 6000 1.5 100 11:55 08.12.2019
3016 Clear 15 1028 87 6000 1.5 100 11:37 08.12.2019
3017 Mist 15 1028 82 3000 2.6 140 11:19 08.12.2019
3018 Mist 15 1028 82 3000 2.6 140 11:19 08.12.2019
3019 Mist 15 1028 82 3000 2.6 140 11:19 08.12.2019
3020 Mist 13 1028 100 3700 1 0 10:40 08.12.2019
3021 Mist 12 1027 93 3000 1.5 140 10:21 08.12.2019
3022 Clear 11 1027 100 4900 2.1 120 09:58 08.12.2019
3023 Clear 10 1027 100 4900 2.1 120 09:39 08.12.2019
3024 Mist 9 1027 100 2000 1.5 160 09:20 08.12.2019
3025 Mist 9 1027 100 2000 1.5 160 09:20 08.12.2019
3026 Mist 9 1026 100 2000 1 0 08:59 08.12.2019
3027 Mist 9 1026 100 2000 1 0 08:39 08.12.2019
3028 Mist 9 1026 100 2000 2.1 180 08:21 08.12.2019
3029 Mist 9 1026 100 2000 2.1 180 08:21 08.12.2019
3030 Fog 9 1026 100 500 2.1 110 07:45 08.12.2019
3031 Mist 9 1025 100 2000 2.6 200 07:20 08.12.2019
3032 Fog 8 1025 100 300 1 0 06:52 08.12.2019
3033 Fog 9 1025 100 300 1 0 06:23 08.12.2019
3034 Fog 10 1025 100 400 1.5 170 05:52 08.12.2019
3035 Fog 14 1025 100 200 1 0 05:18 08.12.2019
3036 Fog 13 1025 100 200 1.5 150 03:54 08.12.2019
3037 Fog 13 1025 100 200 1.5 150 03:36 08.12.2019
3038 Fog 13 1025 100 200 1 0 02:40 08.12.2019
3039 Fog 13 1025 100 200 1 260 01:56 08.12.2019
3040 Fog 13 1025 100 200 0.5 0 01:33 08.12.2019
3041 Fog 13 1025 100 800 2.6 100 00:42 08.12.2019
3042 Mist 14 1026 93 3000 1 0 00:21 08.12.2019
3043 Mist 14 1026 100 2000 2.6 140 23:55 07.12.2019
3044 Mist 14 1026 100 2000 2.6 140 23:36 07.12.2019
3045 Mist 14 1025 100 2000 2.6 140 23:18 07.12.2019
3046 Fog 14 1025 100 600 2.6 120 22:54 07.12.2019
3047 Fog 14 1025 100 600 2.6 120 22:54 07.12.2019
3048 Fog 14 1025 100 600 2.6 120 22:36 07.12.2019
3049 Fog 14 1025 100 600 2.6 120 22:36 07.12.2019
3050 Fog 15 1025 100 600 1 0 22:18 07.12.2019
3051 Fog 15 1025 93 3000 1 310 21:54 07.12.2019
3052 Fog 15 1025 93 3000 1 310 21:36 07.12.2019
3053 Mist 15 1023 87 3000 1 260 21:18 07.12.2019
3054 Clouds 16 1024 93 8000 1 0 20:37 07.12.2019
3055 Mist 15 1023 77 3000 1 280 20:19 07.12.2019
3056 Clouds 16 1023 93 10000 2.1 310 19:57 07.12.2019
3057 Clouds 16 1023 93 10000 2.1 310 19:38 07.12.2019
3058 Mist 16 1024 59 3000 1.5 280 19:20 07.12.2019
3059 Clouds 17 1022 82 10000 3.1 300 18:55 07.12.2019
3060 Clouds 17 1022 82 10000 3.1 300 18:36 07.12.2019
3061 Clear 17 1022 77 8000 4.1 320 18:18 07.12.2019
3062 Clouds 18 1022 63 10000 3.1 280 17:42 07.12.2019
3063 Clouds 19 1022 59 10000 3.1 280 17:24 07.12.2019
3064 Clouds 19 1021 59 10000 2.6 290 16:58 07.12.2019
3065 Clouds 19 1021 59 10000 2.6 290 16:39 07.12.2019
3066 Clouds 19 1021 63 10000 4.1 320 16:21 07.12.2019
3067 Clouds 19 1021 63 10000 2.6 260 15:57 07.12.2019
3068 Clouds 19 1021 63 10000 2.6 260 15:38 07.12.2019
3069 Clouds 19 1021 68 8000 4.1 320 15:20 07.12.2019
3070 Clouds 18 1022 68 10000 2.6 240 14:42 07.12.2019
3071 Clouds 18 1022 68 10000 2.6 240 14:19 07.12.2019
3072 Clouds 18 1022 68 10000 2.1 230 13:58 07.12.2019
3073 Clouds 18 1022 68 10000 2.1 230 13:58 07.12.2019
3074 Clouds 18 1022 68 10000 2.1 230 13:39 07.12.2019
3075 Clouds 17 1022 77 6000 4.1 220 13:19 07.12.2019
3076 Clouds 17 1023 87 10000 3.1 230 12:41 07.12.2019
3077 Mist 17 1022 87 4000 6.2 180 12:23 07.12.2019
3078 Mist 17 1022 87 4000 6.2 180 12:23 07.12.2019
3079 Clouds 16 1023 93 8000 3.1 190 11:59 07.12.2019
3080 Clouds 16 1023 93 8000 3.1 190 11:41 07.12.2019
3081 Clouds 16 1023 93 8000 3.1 190 11:41 07.12.2019
3082 Mist 15 1022 93 3000 2.6 180 11:22 07.12.2019
3083 Mist 14 1022 100 4000 4.1 180 10:39 07.12.2019
3084 Mist 14 1021 93 3000 5.1 200 10:20 07.12.2019
3085 Fog 13 1021 100 600 3.6 180 09:59 07.12.2019
3086 Fog 13 1021 100 600 3.6 180 09:38 07.12.2019
3087 Fog 13 1021 100 600 3.6 180 09:38 07.12.2019
3088 Mist 12 1021 93 3000 2.6 180 09:20 07.12.2019
3089 Fog 12 1021 100 600 3.1 190 08:45 07.12.2019
3090 Clouds 12 1020 93 6000 4.1 200 08:22 07.12.2019
3091 Fog 11 1020 100 800 2.6 160 07:47 07.12.2019
3092 Clouds 11 1019 93 6000 2.6 160 07:28 07.12.2019
3093 Clouds 11 1019 100 1000 2.1 190 06:52 07.12.2019
3094 Fog 11 1019 100 600 3.1 170 06:25 07.12.2019
3095 Clear 11 1019 100 1400 2.6 190 05:44 07.12.2019
3096 Fog 14 1019 100 900 2.6 170 04:41 07.12.2019
3097 Fog 14 1019 100 600 2.1 180 03:49 07.12.2019
3098 Fog 14 1018 100 500 2.1 200 02:22 07.12.2019
3099 Fog 14 1018 100 500 2.1 200 01:37 07.12.2019
3100 Fog 14 1018 100 400 1 0 01:18 07.12.2019
3101 Clouds 13 1018 93 5000 1 0 00:21 07.12.2019
3102 Clouds 14 1018 100 5000 1 0 23:57 06.12.2019
3103 Clouds 14 1018 100 5000 1 0 23:38 06.12.2019
3104 Clouds 14 1018 100 5000 1 0 23:19 06.12.2019
3105 Clouds 14 1018 100 5000 1 0 22:39 06.12.2019
3106 Clouds 15 1018 100 5000 1 0 22:21 06.12.2019
3107 Clear 14 1017 100 6000 1 0 21:58 06.12.2019
3108 Clear 14 1017 100 6000 1 0 21:40 06.12.2019
3109 Clouds 15 1017 87 10000 2.1 340 21:20 06.12.2019
3110 Clear 15 1017 87 10000 3.1 360 20:45 06.12.2019
3111 Clouds 15 1017 87 10000 2.1 360 20:25 06.12.2019
3112 Clouds 16 1016 87 10000 4.1 360 19:59 06.12.2019
3113 Clouds 16 1016 87 10000 4.1 360 19:40 06.12.2019
3114 Clouds 16 1016 87 10000 1 360 19:22 06.12.2019
3115 Clouds 16 1016 87 10000 1 360 19:22 06.12.2019
3116 Clouds 16 1016 87 10000 1 360 19:22 06.12.2019
3117 Clouds 17 1016 82 10000 4.1 360 18:58 06.12.2019
3118 Clouds 17 1016 82 10000 4.1 360 18:40 06.12.2019
3119 Clouds 17 1015 77 10000 5.7 20 18:20 06.12.2019
3120 Clear 18 1015 68 10000 3.1 360 17:57 06.12.2019
3121 Clear 18 1015 68 10000 3.1 360 17:39 06.12.2019
3122 Clouds 18 1015 72 0 4.1 360 17:20 06.12.2019
3123 Clouds 18 1014 68 10000 4.6 340 16:55 06.12.2019
3124 Clouds 18 1014 68 10000 4.6 340 16:37 06.12.2019
3125 Clouds 18 1014 68 10000 4.6 340 16:18 06.12.2019
3126 Clouds 18 1014 63 10000 2.6 10 15:41 06.12.2019
3127 Clouds 18 1015 68 10000 4.6 360 15:19 06.12.2019
3128 Clouds 18 1015 68 10000 4.6 360 15:19 06.12.2019
3129 Clouds 18 1015 59 10000 2.6 360 14:57 06.12.2019
3130 Clouds 18 1015 59 10000 2.6 360 14:38 06.12.2019
3131 Clouds 18 1015 59 10000 2.6 360 14:38 06.12.2019
3132 Clouds 18 1016 72 10000 3.1 320 14:19 06.12.2019
3133 Clouds 18 1016 63 10000 2.1 330 13:43 06.12.2019
3134 Clouds 18 1016 63 10000 2.1 330 13:43 06.12.2019
3135 Clouds 18 1016 68 10000 3.1 340 13:25 06.12.2019
3136 Clouds 17 1016 67 10000 1.5 0 12:43 06.12.2019
3137 Clouds 17 1016 72 10000 0.5 0 12:23 06.12.2019
3138 Clouds 17 1016 72 10000 0.5 0 12:23 06.12.2019
3139 Clouds 17 1016 77 10000 0.5 0 11:58 06.12.2019
3140 Clouds 17 1016 77 10000 0.5 0 11:39 06.12.2019
3141 Clouds 16 1016 77 10000 2.6 180 11:21 06.12.2019
3142 Clouds 15 1016 93 5000 2.1 200 10:44 06.12.2019
3143 Clouds 14 1016 82 8000 2.6 160 10:22 06.12.2019
3144 Clouds 14 1015 93 7000 1 0 09:58 06.12.2019
3145 Clouds 14 1015 93 7000 1 0 09:38 06.12.2019
3146 Clouds 13 1014 87 10000 2.1 240 09:20 06.12.2019
3147 Clouds 13 1014 93 7000 1.5 110 08:55 06.12.2019
3148 Clouds 13 1014 93 7000 1.5 110 08:36 06.12.2019
3149 Rain 13 1014 93 7000 1 170 08:18 06.12.2019
3150 Clouds 13 1014 93 8000 1 0 07:36 06.12.2019
3151 Clouds 13 1014 93 10000 2.1 180 07:18 06.12.2019
3152 Clouds 13 1014 93 10000 2.1 180 07:18 06.12.2019
3153 Clouds 12 1013 100 5000 1.5 130 06:29 06.12.2019
3154 Clouds 12 1013 100 5000 1.5 150 05:53 06.12.2019
3155 Clouds 12 1013 100 5000 1 180 05:34 06.12.2019
3156 Clouds 13 1013 93 5000 1 290 02:19 06.12.2019
3157 Clouds 13 1013 93 8000 0.5 0 01:30 06.12.2019
3158 Clouds 13 1013 93 8000 1 50 00:46 06.12.2019
3159 Clouds 13 1013 93 10000 1.5 60 00:21 06.12.2019
3160 Clouds 14 1013 93 10000 2.1 10 23:47 05.12.2019
3161 Clouds 14 1013 93 10000 2.6 360 23:19 05.12.2019
3162 Clouds 14 1013 93 10000 2.6 350 22:57 05.12.2019
3163 Clouds 14 1013 93 10000 2.6 350 22:38 05.12.2019
3164 Clouds 15 1013 87 10000 2.6 10 22:18 05.12.2019
3165 Clouds 15 1013 87 10000 3.1 20 21:44 05.12.2019
3166 Clouds 15 1012 77 10000 3.1 40 21:25 05.12.2019
3167 Clouds 15 1012 87 10000 3.6 350 20:59 05.12.2019
3168 Clouds 15 1012 87 10000 3.6 350 20:40 05.12.2019
3169 Clouds 15 1012 87 10000 3.6 350 20:40 05.12.2019
3170 Clouds 15 1012 77 10000 4.1 40 20:21 05.12.2019
3171 Clouds 15 1011 87 10000 3.6 360 19:58 05.12.2019
3172 Clouds 15 1011 87 10000 3.6 360 19:58 05.12.2019
3173 Clouds 15 1011 87 10000 3.6 360 19:58 05.12.2019
3174 Clouds 16 1011 77 10000 4.6 40 19:40 05.12.2019
3175 Clouds 16 1011 77 10000 4.6 40 19:20 05.12.2019
3176 Clouds 16 1011 82 10000 4.6 350 18:57 05.12.2019
3177 Clouds 16 1011 77 10000 5.1 20 18:38 05.12.2019
3178 Clouds 16 1011 77 10000 5.1 20 18:20 05.12.2019
3179 Clouds 17 1009 63 10000 5.7 350 17:40 05.12.2019
3180 Clouds 17 1009 63 10000 5.7 350 17:20 05.12.2019
3181 Clouds 17 1009 77 10000 6.7 350 16:57 05.12.2019
3182 Clouds 17 1009 72 10000 7.2 20 16:39 05.12.2019
3183 Clouds 17 1009 72 10000 7.2 20 16:21 05.12.2019
3184 Clouds 17 1009 63 10000 4.6 350 15:57 05.12.2019
3185 Clouds 17 1010 77 10000 6.2 20 15:38 05.12.2019
3186 Clouds 17 1010 77 10000 6.2 20 15:20 05.12.2019
3187 Clouds 17 1010 63 10000 3.6 360 14:55 05.12.2019
3188 Clouds 17 1010 77 10000 6.2 20 14:37 05.12.2019
3189 Clouds 17 1010 77 10000 6.2 20 14:19 05.12.2019
3190 Clouds 17 1010 63 10000 3.1 30 13:56 05.12.2019
3191 Clouds 17 1011 72 10000 2.1 40 13:38 05.12.2019
3192 Clouds 17 1011 72 10000 2.1 40 13:19 05.12.2019
3193 Clouds 17 1011 63 10000 3.6 30 12:55 05.12.2019
3194 Clouds 17 1011 68 10000 2.1 80 12:37 05.12.2019
3195 Clouds 17 1011 68 10000 2.1 80 12:37 05.12.2019
3196 Clouds 17 1011 68 10000 2.1 80 12:19 05.12.2019
3197 Clouds 16 1011 77 8000 2.1 100 11:39 05.12.2019
3198 Clouds 16 1011 77 8000 2.1 100 11:20 05.12.2019
3199 Clouds 14 1011 82 10000 2.6 50 10:57 05.12.2019
3200 Clouds 14 1011 87 8000 2.1 20 10:39 05.12.2019
3201 Clouds 14 1011 87 8000 2.1 20 10:18 05.12.2019
3202 Clouds 12 1011 93 10000 1.5 90 09:54 05.12.2019
3203 Clouds 12 1010 93 10000 1 160 09:36 05.12.2019
3204 Clouds 12 1010 93 10000 1 160 09:18 05.12.2019
3205 Clouds 12 1010 93 10000 2.1 160 08:39 05.12.2019
3206 Clouds 11 1010 93 10000 2.1 160 08:20 05.12.2019
3207 Clouds 11 1010 93 10000 2.1 160 08:20 05.12.2019
3208 Clouds 11 1010 93 10000 1.5 70 07:57 05.12.2019
3209 Clouds 10 1010 100 10000 2.1 60 07:36 05.12.2019
3210 Clouds 10 1010 100 10000 2.1 60 07:18 05.12.2019
3211 Clouds 12 1010 93 7000 2.1 120 06:42 05.12.2019
3212 Clouds 12 1010 93 7000 2.1 120 06:21 05.12.2019
3213 Clouds 12 1010 93 10000 0.5 150 05:48 05.12.2019
3214 Clouds 12 1010 93 10000 0.5 150 05:23 05.12.2019
3215 Clouds 12 1010 100 10000 1.5 140 04:25 05.12.2019
3216 Clouds 12 1010 100 10000 1.5 140 04:25 05.12.2019
3217 Clouds 14 1010 87 10000 3.1 170 02:54 05.12.2019
3218 Clouds 14 1011 87 10000 4.1 170 02:25 05.12.2019
3219 Clouds 14 1011 87 10000 4.1 170 01:55 05.12.2019
3220 Clouds 13 1011 87 10000 3.6 170 01:27 05.12.2019
3221 Clouds 13 1011 87 10000 3.6 170 01:27 05.12.2019
3222 Clouds 14 1011 87 10000 3.1 180 00:54 05.12.2019
3223 Clouds 14 1011 87 10000 3.1 180 00:36 05.12.2019
3224 Clouds 14 1011 87 10000 3.1 180 00:18 05.12.2019
3225 Clouds 14 1012 87 10000 4.1 180 23:40 04.12.2019
3226 Clouds 14 1012 87 10000 4.1 180 23:22 04.12.2019
3227 Clouds 14 1012 93 10000 5.1 190 22:55 04.12.2019
3228 Clouds 14 1012 93 10000 6.2 190 22:36 04.12.2019
3229 Clouds 14 1012 93 10000 6.2 190 22:36 04.12.2019
3230 Clouds 14 1012 93 10000 6.2 190 22:18 04.12.2019
3231 Drizzle 14 1012 93 10000 6.2 190 21:54 04.12.2019
3232 Drizzle 14 1012 93 10000 6.2 190 21:36 04.12.2019
3233 Drizzle 14 1012 93 10000 6.2 190 21:18 04.12.2019
3234 Drizzle 14 1012 87 10000 5.1 190 20:56 04.12.2019
3235 Clouds 14 1011 93 10000 5.1 200 20:37 04.12.2019
3236 Clouds 14 1011 93 10000 5.1 200 20:19 04.12.2019
3237 Clouds 14 1011 82 10000 4.1 240 19:40 04.12.2019
3238 Clouds 14 1011 82 10000 4.1 240 19:21 04.12.2019
3239 Clouds 14 1012 82 10000 5.1 180 18:58 04.12.2019
3240 Clouds 14 1012 82 10000 5.1 180 18:58 04.12.2019
3241 Clouds 14 1011 82 10000 4.1 220 18:40 04.12.2019
3242 Clouds 14 1011 82 10000 4.1 220 18:22 04.12.2019
3243 Clouds 16 1012 76 10000 6.2 180 17:56 04.12.2019
3244 Clouds 15 1011 72 10000 4.1 220 17:37 04.12.2019
3245 Clouds 15 1011 72 10000 4.1 220 17:18 04.12.2019
3246 Clouds 16 1011 72 10000 4.1 220 16:40 04.12.2019
3247 Clouds 16 1011 72 10000 4.1 220 16:20 04.12.2019
3248 Rain 15 1012 87 10000 4.1 0 15:57 04.12.2019
3249 Clouds 15 1012 77 10000 5.1 200 15:39 04.12.2019
3250 Clouds 15 1012 77 10000 5.1 200 15:20 04.12.2019
3251 Clouds 16 1012 72 10000 6.7 230 14:57 04.12.2019
3252 Clouds 16 1012 72 10000 6.2 280 14:39 04.12.2019
3253 Clouds 17 1012 72 10000 6.2 280 14:20 04.12.2019
3254 Clouds 17 1013 71 10000 7.2 210 13:55 04.12.2019
3255 Clouds 17 1013 72 10000 5.1 220 13:36 04.12.2019
3256 Clouds 17 1013 72 10000 5.1 220 13:18 04.12.2019
3257 Clouds 15 1014 82 10000 5.1 200 12:41 04.12.2019
3258 Clouds 15 1014 82 10000 5.1 200 12:23 04.12.2019
3259 Clouds 15 1015 93 10000 6.7 200 11:43 04.12.2019
3260 Clouds 14 1014 82 10000 4.1 200 11:24 04.12.2019
3261 Clouds 14 1014 100 10000 7.2 180 10:58 04.12.2019
3262 Clouds 13 1014 82 10000 7.2 200 10:39 04.12.2019
3263 Clouds 13 1014 82 10000 7.2 200 10:21 04.12.2019
3264 Clouds 13 1014 100 10000 6.2 180 09:43 04.12.2019
3265 Clouds 13 1014 100 10000 5.1 180 09:23 04.12.2019
3266 Clouds 12 1014 100 10000 4.6 180 08:44 04.12.2019
3267 Clouds 12 1014 100 10000 4.6 180 08:44 04.12.2019
3268 Clouds 12 1013 54 10000 4.1 220 08:25 04.12.2019
3269 Clouds 12 1014 100 10000 5.1 180 07:51 04.12.2019
3270 Clouds 12 1014 100 10000 4.6 190 07:31 04.12.2019
3271 Clouds 12 1014 100 10000 4.6 180 06:59 04.12.2019
3272 Clouds 11 1014 100 10000 5.1 190 06:31 04.12.2019
3273 Clouds 11 1014 100 10000 5.1 190 05:46 04.12.2019
3274 Clouds 13 1014 100 10000 3.6 200 04:34 04.12.2019
3275 Clouds 13 1014 100 10000 4.1 190 03:51 04.12.2019
3276 Clouds 13 1015 100 10000 4.6 190 01:49 04.12.2019
3277 Clouds 13 1015 100 10000 4.1 200 00:48 04.12.2019
3278 Clouds 13 1015 100 10000 4.1 210 00:22 04.12.2019
3279 Clouds 13 1015 100 10000 3.1 210 23:43 03.12.2019
3280 Clouds 14 1015 100 10000 4.6 220 23:20 03.12.2019
3281 Clouds 14 1015 100 10000 4.1 220 22:59 03.12.2019
3282 Clouds 14 1014 100 10000 4.6 220 22:38 03.12.2019
3283 Clouds 14 1014 100 10000 4.6 220 22:18 03.12.2019
3284 Clouds 14 1014 100 10000 3.6 220 21:57 03.12.2019
3285 Clouds 14 1014 100 10000 2.6 220 21:37 03.12.2019
3286 Clouds 14 1014 100 10000 2.6 220 21:18 03.12.2019
3287 Rain 14 1014 100 6000 3.1 230 20:42 03.12.2019
3288 Clouds 14 1013 93 10000 3.1 230 20:20 03.12.2019
3289 Clouds 14 1013 93 10000 3.1 230 20:20 03.12.2019
3290 Clouds 14 1013 87 10000 3.1 240 19:57 03.12.2019
3291 Clouds 15 1013 82 10000 3.1 240 19:39 03.12.2019
3292 Clouds 15 1013 82 10000 3.1 240 19:21 03.12.2019
3293 Clouds 15 1012 82 10000 3.6 260 18:59 03.12.2019
3294 Clouds 15 1012 77 10000 3.6 260 18:41 03.12.2019
3295 Clouds 16 1012 77 10000 3.6 260 18:21 03.12.2019
3296 Clouds 16 1012 77 10000 4.1 260 17:58 03.12.2019
3297 Clouds 16 1012 77 10000 4.1 260 17:58 03.12.2019
3298 Clouds 16 1012 67 10000 4.1 280 17:39 03.12.2019
3299 Clouds 16 1012 67 10000 4.1 280 17:18 03.12.2019
3300 Clouds 16 1012 67 10000 4.1 280 17:18 03.12.2019
3301 Clouds 16 1012 67 10000 4.1 280 17:18 03.12.2019
3302 Clouds 16 1011 63 10000 5.1 280 16:58 03.12.2019
3303 Clouds 16 1011 67 10000 5.1 240 16:39 03.12.2019
3304 Clouds 16 1011 67 10000 5.1 240 16:21 03.12.2019
3305 Clouds 16 1011 72 10000 5.1 280 15:58 03.12.2019
3306 Clouds 16 1011 67 10000 4.1 280 15:38 03.12.2019
3307 Clouds 16 1011 67 10000 4.1 280 15:19 03.12.2019
3308 Clouds 16 1011 72 10000 5.1 260 14:44 03.12.2019
3309 Clouds 16 1011 72 10000 3.1 300 14:21 03.12.2019
3310 Clouds 17 1012 77 10000 3.6 260 13:58 03.12.2019
3311 Clouds 17 1015 64 10000 4.6 320 13:37 03.12.2019
3312 Clouds 17 1015 64 10000 4.6 320 13:19 03.12.2019
3313 Clouds 15 1012 82 10000 3.1 210 12:56 03.12.2019
3314 Clouds 15 1012 77 10000 2.6 220 12:36 03.12.2019
3315 Clouds 15 1012 77 10000 2.6 220 12:18 03.12.2019
3316 Clouds 14 1012 100 10000 3.1 190 11:54 03.12.2019
3317 Clouds 13 1011 82 8000 2.6 200 11:36 03.12.2019
3318 Clouds 13 1011 82 8000 2.6 200 11:18 03.12.2019
3319 Clouds 12 1011 100 10000 3.1 170 10:42 03.12.2019
3320 Clouds 11 1011 93 8000 4.6 200 10:21 03.12.2019
3321 Clouds 10 1011 100 8000 2.6 140 09:57 03.12.2019
3322 Clouds 9 1011 100 8000 2.6 180 09:39 03.12.2019
3323 Clouds 9 1011 100 8000 2.6 180 09:20 03.12.2019
3324 Mist 8 1011 100 4000 2.1 80 08:54 03.12.2019
3325 Clouds 8 1010 93 10000 3.1 200 08:36 03.12.2019
3326 Clouds 8 1010 93 10000 3.1 200 08:18 03.12.2019
3327 Mist 8 1009 100 4000 1.5 150 07:48 03.12.2019
3328 Clouds 9 1009 93 10000 1.5 140 07:23 03.12.2019
3329 Mist 9 1008 100 4000 2.1 120 06:23 03.12.2019
3330 Clouds 8 1008 100 5000 2.6 130 05:58 03.12.2019
3331 Mist 8 1008 100 4000 2.1 160 04:49 03.12.2019
3332 Clouds 9 1008 100 8000 2.1 140 03:40 03.12.2019
3333 Clouds 10 1008 100 8000 2.1 140 03:19 03.12.2019
3334 Clouds 10 1008 100 8000 2.1 140 03:19 03.12.2019
3335 Rain 10 1008 100 10000 2.6 160 02:48 03.12.2019
3336 Clouds 9 1009 100 10000 2.1 170 02:27 03.12.2019
3337 Clouds 10 1009 100 10000 2.1 170 01:43 03.12.2019
3338 Clouds 11 1009 100 10000 2.6 160 01:24 03.12.2019
3339 Clouds 10 1009 100 10000 2.6 150 00:56 03.12.2019
3340 Clouds 11 1008 100 10000 2.1 130 00:37 03.12.2019
3341 Clouds 11 1008 100 10000 2.1 130 00:19 03.12.2019
3342 Clouds 11 1008 100 9000 2.1 140 23:42 02.12.2019
3343 Clouds 12 1008 100 9000 1.5 130 23:20 02.12.2019
3344 Clouds 12 1008 100 10000 1 0 22:42 02.12.2019
3345 Clouds 12 1008 100 10000 2.1 120 22:22 02.12.2019
3346 Clouds 12 1008 100 10000 1.5 160 21:58 02.12.2019
3347 Clouds 12 1008 82 10000 3.1 180 21:37 02.12.2019
3348 Clouds 12 1008 82 10000 3.1 180 21:19 02.12.2019
3349 Clouds 12 1008 100 10000 1.5 180 20:56 02.12.2019
3350 Clouds 12 1007 82 10000 1.5 120 20:38 02.12.2019
3351 Clouds 12 1007 82 10000 1.5 120 20:20 02.12.2019
3352 Clouds 13 1007 100 10000 3.1 180 19:55 02.12.2019
3353 Clouds 12 1007 82 10000 2.6 240 19:36 02.12.2019
3354 Clouds 12 1007 82 10000 2.6 240 19:18 02.12.2019
3355 Clouds 13 1006 82 10000 3.6 180 18:42 02.12.2019
3356 Clouds 13 1006 82 10000 3.6 180 18:19 02.12.2019
3357 Clouds 13 1007 93 10000 3.1 200 17:58 02.12.2019
3358 Clouds 14 1007 93 10000 3.1 200 17:39 02.12.2019
3359 Clouds 14 1007 93 10000 3.1 200 17:19 02.12.2019
3360 Clouds 14 1007 93 10000 2.6 200 16:42 02.12.2019
3361 Clouds 14 1007 82 10000 4.6 240 16:19 02.12.2019
3362 Rain 13 1007 93 10000 2.6 260 15:59 02.12.2019
3363 Clouds 13 1007 87 10000 4.1 180 15:40 02.12.2019
3364 Clouds 13 1007 87 10000 4.1 180 15:22 02.12.2019
3365 Rain 13 1008 93 10000 2.6 260 14:59 02.12.2019
3366 Rain 13 1008 81 8000 3.6 200 14:38 02.12.2019
3367 Rain 13 1008 81 8000 3.6 200 14:20 02.12.2019
3368 Clouds 13 1009 100 8000 4.6 210 13:57 02.12.2019
3369 Rain 14 1009 82 8000 1 20 13:39 02.12.2019
3370 Rain 14 1009 82 8000 1 20 13:19 02.12.2019
3371 Rain 13 1010 100 5000 3.1 180 12:56 02.12.2019
3372 Clouds 13 1011 82 10000 3.1 220 12:37 02.12.2019
3373 Clouds 13 1011 82 10000 3.1 220 12:19 02.12.2019
3374 Thunderstorm 13 1011 82 10000 2.1 220 11:38 02.12.2019
3375 Thunderstorm 13 1011 82 10000 2.1 220 11:38 02.12.2019
3376 Thunderstorm 13 1011 82 10000 2.1 220 11:20 02.12.2019
3377 Rain 12 1011 100 6000 4.6 190 10:59 02.12.2019
3378 Clouds 13 1010 93 6000 2.1 180 10:41 02.12.2019
3379 Clouds 12 1010 93 6000 2.1 180 10:22 02.12.2019
3380 Clouds 13 1011 100 10000 5.1 190 09:57 02.12.2019
3381 Clouds 12 1010 87 10000 3.6 200 09:39 02.12.2019
3382 Clouds 12 1010 87 10000 3.6 200 09:18 02.12.2019
3383 Clouds 12 1010 87 10000 3.6 200 09:18 02.12.2019
3384 Rain 13 1011 100 10000 4.6 190 08:55 02.12.2019
3385 Clouds 12 1010 87 10000 2.6 220 08:37 02.12.2019
3386 Clouds 12 1010 87 10000 2.6 220 08:19 02.12.2019
3387 Clouds 12 1010 93 10000 3.1 220 07:40 02.12.2019
3388 Clouds 12 1010 93 10000 3.1 220 07:20 02.12.2019
3389 Clouds 12 1011 100 10000 4.1 210 06:45 02.12.2019
3390 Clouds 12 1011 100 10000 4.1 210 06:27 02.12.2019
3391 Clouds 14 1012 100 10000 3.1 200 05:19 02.12.2019
3392 Rain 14 1012 100 10000 2.1 190 04:19 02.12.2019
3393 Clouds 13 1013 100 10000 2.6 190 02:51 02.12.2019
3394 Clouds 14 1014 100 10000 4.1 250 01:50 02.12.2019
3395 Clouds 14 1014 100 10000 3.6 220 01:21 02.12.2019
3396 Clouds 14 1014 100 10000 3.1 250 00:44 02.12.2019
3397 Clouds 14 1015 100 10000 3.6 250 00:23 02.12.2019
3398 Clouds 14 1015 100 8000 4.1 210 23:44 01.12.2019
3399 Clouds 14 1015 100 8000 3.6 210 23:23 01.12.2019
3400 Clouds 14 1015 100 8000 3.6 210 23:23 01.12.2019
3401 Clouds 14 1015 100 10000 3.1 200 22:58 01.12.2019
3402 Clouds 14 1015 100 10000 2.6 200 22:39 01.12.2019
3403 Clouds 15 1015 100 10000 2.6 200 22:20 01.12.2019
3404 Clouds 15 1015 100 10000 3.6 180 21:58 01.12.2019
3405 Clouds 15 1015 82 6000 2.1 240 21:40 01.12.2019
3406 Clouds 15 1015 82 6000 2.1 240 21:21 01.12.2019
3407 Clouds 15 1016 100 10000 2.6 230 20:58 01.12.2019
3408 Clouds 15 1015 82 6000 2.1 240 20:40 01.12.2019
3409 Clouds 15 1015 82 6000 2.1 240 20:21 01.12.2019
3410 Clouds 16 1016 100 10000 2.6 230 19:58 01.12.2019
3411 Clouds 16 1016 72 8000 4.6 260 19:39 01.12.2019
3412 Clouds 16 1016 72 8000 4.6 260 19:39 01.12.2019
3413 Clouds 16 1016 72 8000 4.6 260 19:21 01.12.2019
3414 Clouds 17 1016 100 10000 2.6 250 18:57 01.12.2019
3415 Clouds 17 1016 68 10000 3.1 280 18:38 01.12.2019
3416 Clouds 17 1016 68 10000 3.1 280 18:19 01.12.2019
3417 Clouds 17 1016 93 10000 5.1 280 17:57 01.12.2019
3418 Clouds 17 1016 72 10000 5.7 280 17:39 01.12.2019
3419 Clouds 17 1016 72 10000 5.7 280 17:20 01.12.2019
3420 Clouds 17 1016 72 10000 5.7 280 17:20 01.12.2019
3421 Clouds 17 1016 72 10000 5.7 280 17:20 01.12.2019
3422 Clouds 18 1017 88 10000 4.1 250 16:55 01.12.2019
3423 Clouds 18 1016 68 10000 3.1 280 16:36 01.12.2019
3424 Clouds 18 1016 68 10000 3.1 280 16:18 01.12.2019
3425 Clouds 17 1017 100 10000 5.1 210 15:44 01.12.2019
3426 Clouds 17 1017 82 6000 4.1 240 15:26 01.12.2019
3427 Clouds 17 1017 82 6000 4.1 240 15:26 01.12.2019
3428 Clouds 16 1018 88 5000 4.1 240 14:41 01.12.2019
3429 Clouds 16 1018 88 5000 4.1 240 14:41 01.12.2019
3430 Clouds 16 1018 88 5000 4.1 240 14:41 01.12.2019
3431 Clouds 16 1018 88 5000 4.1 240 14:41 01.12.2019
3432 Clouds 16 1018 88 5000 4.1 240 14:19 01.12.2019
3433 Clouds 16 1018 100 10000 6.7 200 13:56 01.12.2019
3434 Rain 16 1019 93 8000 5.1 200 13:37 01.12.2019
3435 Rain 16 1019 93 8000 5.1 200 13:19 01.12.2019
3436 Rain 16 1019 93 8000 5.1 200 13:19 01.12.2019
3437 Clouds 16 1020 100 10000 6.2 200 12:41 01.12.2019
3438 Clouds 16 1020 100 10000 6.2 210 11:55 01.12.2019
3439 Clouds 16 1020 100 10000 6.2 180 11:37 01.12.2019
3440 Clouds 16 1020 100 10000 6.2 180 11:37 01.12.2019
3441 Clouds 15 1020 100 10000 6.2 180 11:18 01.12.2019
3442 Clouds 15 1019 100 10000 4.1 190 10:43 01.12.2019
3443 Clouds 14 1019 93 10000 4.1 180 10:20 01.12.2019
3444 Mist 13 1019 100 3000 2.63 220 09:42 01.12.2019
3445 Clouds 13 1019 93 10000 3.1 200 09:24 01.12.2019
3446 Fog 13 1019 100 300 2.6 190 08:58 01.12.2019
3447 Fog 12 1019 100 300 2.63 220 08:38 01.12.2019
3448 Fog 12 1019 100 300 1.57 263 08:19 01.12.2019
3449 Mist 13 1019 93 1200 3.1 190 07:49 01.12.2019
3450 Clouds 13 1019 93 10000 3.1 200 07:29 01.12.2019
3451 Mist 12 1019 93 1200 2.1 190 06:53 01.12.2019
3452 Mist 12 1019 100 2000 1.5 220 06:19 01.12.2019
3453 Mist 12 1019 100 2000 1 0 05:42 01.12.2019
3454 Mist 14 1020 100 4000 1.5 120 04:29 01.12.2019
3455 Mist 14 1021 100 2500 0.5 0 02:46 01.12.2019
3456 Fog 13 1021 100 800 1.5 140 02:28 01.12.2019
3457 Fog 14 1021 100 800 1.5 110 01:54 01.12.2019
3458 Fog 14 1021 100 800 1.5 110 01:32 01.12.2019
3459 Mist 14 1022 93 1200 1.5 80 00:50 01.12.2019
3460 Mist 14 1022 100 1200 1 50 00:27 01.12.2019
3461 Mist 15 1022 100 3000 1.5 50 23:57 30.11.2019
3462 Clouds 15 1022 100 5000 2.1 360 23:39 30.11.2019
3463 Clouds 15 1022 100 5000 2.1 360 23:20 30.11.2019
3464 Clouds 15 1022 100 6000 2.6 350 22:46 30.11.2019
3465 Mist 15 1022 93 4000 2.6 340 22:28 30.11.2019
3466 Mist 16 1022 100 3000 2.1 350 21:54 30.11.2019
3467 Clouds 15 1021 93 10000 3.1 40 21:36 30.11.2019
3468 Clouds 15 1021 93 10000 3.1 40 21:18 30.11.2019
3469 Clouds 16 1021 100 5000 2.6 360 20:54 30.11.2019
3470 Clouds 16 1021 88 10000 2.6 60 20:36 30.11.2019
3471 Clouds 16 1021 88 10000 2.6 60 20:18 30.11.2019
3472 Clouds 16 1021 100 7000 3.1 350 19:54 30.11.2019
3473 Clouds 16 1021 88 10000 2.1 20 19:36 30.11.2019
3474 Clouds 16 1021 88 10000 2.1 20 19:18 30.11.2019
3475 Clear 18 1021 82 10000 4.1 340 18:39 30.11.2019
3476 Clear 18 1021 82 10000 4.1 340 18:21 30.11.2019
3477 Clear 18 1021 82 10000 4.1 350 17:59 30.11.2019
3478 Clouds 19 1021 72 10000 4.6 40 17:41 30.11.2019
3479 Clouds 19 1021 72 10000 4.6 40 17:23 30.11.2019
3480 Clear 19 1021 72 10000 4.6 360 16:59 30.11.2019
3481 Clouds 19 1021 72 10000 6.2 40 16:41 30.11.2019
3482 Clouds 19 1021 72 10000 6.2 40 16:22 30.11.2019
3483 Clear 19 1021 72 10000 5.1 340 15:54 30.11.2019
3484 Clouds 19 1021 72 10000 5.1 20 15:36 30.11.2019
3485 Clouds 19 1021 72 10000 5.1 20 15:18 30.11.2019
3486 Clear 19 1021 53 10000 2.6 340 14:55 30.11.2019
3487 Clouds 19 1022 72 8000 5.1 40 14:36 30.11.2019
3488 Clouds 19 1022 72 8000 5.1 40 14:18 30.11.2019
3489 Clear 19 1022 56 10000 2.1 340 13:45 30.11.2019
3490 Clear 19 1022 72 8000 5.1 40 13:25 30.11.2019
3491 Clear 19 1023 56 10000 0.5 0 12:58 30.11.2019
3492 Clear 18 1023 68 6000 2.1 80 12:39 30.11.2019
3493 Clear 18 1023 68 6000 2.1 80 12:21 30.11.2019
3494 Clear 17 1023 77 10000 2.1 150 11:42 30.11.2019
3495 Mist 16 1023 82 4000 1 180 11:19 30.11.2019
3496 Mist 16 1023 82 4000 1 180 11:19 30.11.2019
3497 Clear 14 1023 93 10000 3.1 140 10:55 30.11.2019
3498 Clear 14 1023 93 10000 3.1 140 10:55 30.11.2019
3499 Clouds 13 1023 100 3000 2.1 180 10:37 30.11.2019
3500 Clouds 13 1023 100 3000 2.1 180 10:18 30.11.2019
3501 Mist 12 1023 93 300 21.6 180 09:46 30.11.2019
3502 Clear 11 1022 93 8000 2.1 180 09:23 30.11.2019
3503 Clouds 9 1022 100 8000 1 0 08:44 30.11.2019
3504 Clouds 9 1022 100 8000 2.1 200 08:20 30.11.2019
3505 Clouds 9 1022 100 8000 0.5 0 07:56 30.11.2019
3506 Clouds 9 1022 100 8000 2.1 180 07:37 30.11.2019
3507 Fog 7 1021 100 4000 1 20 06:56 30.11.2019
3508 Fog 7 1021 100 600 0.5 0 06:29 30.11.2019
3509 Fog 7 1021 100 2000 1.5 190 05:49 30.11.2019
3510 Fog 12 1021 100 400 0.25 18 03:44 30.11.2019
3511 Fog 13 1021 100 3000 1 50 02:39 30.11.2019
3512 Fog 13 1021 100 3000 1 50 02:21 30.11.2019
3513 Fog 13 1022 100 4000 1 80 01:25 30.11.2019
3514 Fog 13 1022 100 5000 1.5 120 00:50 30.11.2019
3515 Clouds 14 1022 93 10000 1.5 50 00:31 30.11.2019
3516 Clouds 14 1022 93 10000 2.1 40 23:59 29.11.2019
3517 Clear 14 1022 93 10000 2.6 30 23:40 29.11.2019
3518 Clouds 15 1022 93 10000 2.6 30 23:21 29.11.2019
3519 Clouds 15 1022 93 10000 2.6 10 22:44 29.11.2019
3520 Clouds 16 1022 93 10000 2.1 30 22:25 29.11.2019
3521 Clouds 15 1022 93 10000 2.6 360 21:44 29.11.2019
3522 Clouds 15 1021 87 10000 2.6 60 21:24 29.11.2019
3523 Clouds 16 1021 100 10000 2.6 360 20:57 29.11.2019
3524 Clouds 16 1021 82 10000 4.1 60 20:38 29.11.2019
3525 Clear 16 1021 82 10000 4.1 60 20:19 29.11.2019
3526 Clear 17 1021 100 10000 2.6 360 19:57 29.11.2019
3527 Clear 17 1021 82 10000 3.6 40 19:38 29.11.2019
3528 Clear 17 1021 82 10000 3.6 40 19:19 29.11.2019
3529 Clear 18 1020 82 10000 3.6 360 18:55 29.11.2019
3530 Clear 18 1020 77 10000 4.1 60 18:37 29.11.2019
3531 Clear 18 1020 77 10000 4.1 60 18:19 29.11.2019
3532 Clear 19 1020 72 10000 4.1 360 17:43 29.11.2019
3533 Clear 19 1020 72 10000 6.2 40 17:23 29.11.2019
3534 Clear 20 1020 64 10000 3.6 350 16:56 29.11.2019
3535 Clear 20 1020 68 10000 5.1 60 16:37 29.11.2019
3536 Clear 20 1020 68 10000 5.1 60 16:18 29.11.2019
3537 Clear 20 1020 68 10000 5.1 60 15:40 29.11.2019
3538 Clear 20 1020 68 10000 5.1 60 15:21 29.11.2019
3539 Clear 20 1020 49 10000 2.1 20 14:55 29.11.2019
3540 Clear 20 1021 68 8000 3.1 40 14:37 29.11.2019
3541 Clear 20 1021 68 8000 3.1 40 14:18 29.11.2019
3542 Clear 20 1021 64 8000 4.6 60 13:40 29.11.2019
3543 Clear 20 1021 64 8000 4.6 60 13:20 29.11.2019
3544 Clear 19 1022 64 10000 2.6 20 12:45 29.11.2019
3545 Clear 18 1022 68 6000 2.1 80 12:25 29.11.2019
3546 Clear 17 1022 88 10000 1 0 11:59 29.11.2019
3547 Clear 15 1022 100 6000 0.5 0 11:41 29.11.2019
3548 Clear 15 1022 100 6000 0.5 0 11:19 29.11.2019
3549 Clear 15 1022 100 6000 0.5 0 11:19 29.11.2019
3550 Clouds 15 1022 100 5000 0.5 0 10:59 29.11.2019
3551 Clouds 15 1022 100 5000 0.5 0 10:59 29.11.2019
3552 Clouds 13 1022 100 10000 1 0 10:40 29.11.2019
3553 Clouds 13 1022 100 10000 1 0 10:22 29.11.2019
3554 Clouds 12 1021 100 10000 1 0 09:59 29.11.2019
3555 Clouds 11 1021 100 10000 1.5 100 09:40 29.11.2019
3556 Clouds 11 1021 100 10000 1.5 100 09:40 29.11.2019
3557 Clouds 11 1021 100 10000 1.5 100 09:22 29.11.2019
3558 Clouds 11 1021 100 5000 1.5 120 08:58 29.11.2019
3559 Mist 9 1021 100 1200 1.5 120 08:38 29.11.2019
3560 Mist 9 1021 100 1200 1.5 120 08:20 29.11.2019
3561 Mist 9 1021 100 1200 1.5 120 08:20 29.11.2019
3562 Fog 10 1021 100 600 1.5 110 07:47 29.11.2019
3563 Fog 11 1020 100 600 1.5 100 07:24 29.11.2019
3564 Fog 12 1020 100 800 2.1 90 06:58 29.11.2019
3565 Fog 12 1020 100 800 2.1 50 06:37 29.11.2019
3566 Fog 12 1020 100 600 2.6 100 05:47 29.11.2019
3567 Fog 15 1020 100 800 2.6 70 05:23 29.11.2019
3568 Fog 16 1020 100 750 1.5 100 04:20 29.11.2019
3569 Fog 15 1020 100 550 2.1 100 03:19 29.11.2019
3570 Fog 15 1020 100 600 2.1 10 02:28 29.11.2019
3571 Fog 17 1020 100 750 2.1 360 01:51 29.11.2019
3572 Fog 17 1020 100 750 1.5 10 01:25 29.11.2019
3573 Fog 17 1020 100 600 2.1 40 00:42 29.11.2019
3574 Fog 17 1020 100 600 2.6 10 00:20 29.11.2019
3575 Fog 16 1020 100 600 1.5 20 23:45 28.11.2019
3576 Fog 17 1020 100 600 2.1 360 23:22 28.11.2019
3577 Mist 17 1020 100 4000 2.1 40 22:58 28.11.2019
3578 -273 0 0 0 0 0 22:38 28.11.2019
3579 Clouds 16 1020 100 10000 2.1 30 22:38 28.11.2019
3580 Clouds 16 1020 100 10000 2.1 30 22:20 28.11.2019
3581 Clouds 17 1020 100 10000 2.6 30 21:56 28.11.2019
3582 Clouds 17 1020 100 10000 3.1 20 21:38 28.11.2019
3583 Clouds 17 1020 100 10000 3.1 20 21:19 28.11.2019
3584 Clouds 17 1019 100 5000 3.1 20 20:54 28.11.2019
3585 Clouds 17 1019 100 5000 5.1 360 20:36 28.11.2019
3586 Clouds 17 1019 100 5000 5.1 360 20:18 28.11.2019
3587 Clear 18 1019 88 10000 4.6 350 19:41 28.11.2019
3588 Clear 18 1019 88 10000 4.6 350 19:22 28.11.2019
3589 Clear 19 1018 77 10000 4.6 350 18:59 28.11.2019
3590 Clear 19 1018 77 10000 4.6 350 18:40 28.11.2019
3591 Clear 19 1018 77 10000 4.6 350 18:18 28.11.2019
3592 Clear 19 1018 68 10000 5.1 340 17:59 28.11.2019
3593 Clouds 19 1018 82 8000 6.2 20 17:41 28.11.2019
3594 Clouds 19 1018 82 8000 6.2 20 17:22 28.11.2019
3595 Clouds 20 1018 60 10000 3.6 10 16:57 28.11.2019
3596 Clouds 20 1018 60 10000 3.6 10 16:38 28.11.2019
3597 Clouds 21 1018 60 10000 3.6 10 16:18 28.11.2019
3598 Clouds 21 1018 60 10000 3.6 10 15:42 28.11.2019
3599 Clear 21 1018 68 10000 4.1 20 15:20 28.11.2019
3600 Clouds 20 1018 56 10000 3.1 360 14:59 28.11.2019
3601 Clear 19 1019 64 0 4.02 40 14:41 28.11.2019
3602 Clear 20 1019 64 10000 2.54 23 14:22 28.11.2019
3603 Clear 20 1019 64 10000 2.54 23 13:57 28.11.2019
3604 Clear 20 1019 64 10000 2.54 23 13:39 28.11.2019
3605 Clear 20 1019 64 10000 2.54 23 13:21 28.11.2019
3606 Clear 20 1020 64 10000 3.6 30 12:45 28.11.2019
3607 Clear 19 1020 68 10000 2.1 80 12:27 28.11.2019
3608 Clear 18 1020 77 10000 2.6 50 11:58 28.11.2019
3609 Clouds 18 1020 72 10000 2.1 140 11:39 28.11.2019
3610 Clouds 17 1020 72 10000 2.1 140 11:20 28.11.2019
3611 Clouds 17 1020 72 10000 2.1 140 11:20 28.11.2019
3612 Clear 16 1020 87 10000 1.5 40 10:55 28.11.2019
3613 Clouds 15 1020 77 10000 2.1 180 10:37 28.11.2019
3614 Clouds 15 1020 77 10000 2.1 180 10:18 28.11.2019
3615 Clouds 13 1019 93 10000 2.1 160 09:40 28.11.2019
3616 Clouds 13 1019 93 10000 2.1 160 09:21 28.11.2019
3617 Clouds 13 1019 100 10000 2.1 90 08:56 28.11.2019
3618 Clear 13 1019 93 10000 1 80 08:37 28.11.2019
3619 Clear 12 1019 93 10000 1 80 08:18 28.11.2019
3620 Clear 13 1018 93 10000 1 80 07:41 28.11.2019
3621 Clear 13 1018 93 10000 1 80 07:23 28.11.2019
3622 Clear 13 1018 93 10000 1 80 07:23 28.11.2019
3623 Clouds 13 1018 100 6000 2.1 90 06:44 28.11.2019
3624 Clouds 13 1018 100 6000 2.1 100 06:23 28.11.2019
3625 Clouds 13 1018 100 6000 1 90 05:49 28.11.2019
3626 Clouds 15 1018 100 6000 1 100 05:18 28.11.2019
3627 Clouds 14 1019 100 6000 2.1 90 02:37 28.11.2019
3628 Clouds 14 1019 100 6000 1.5 70 01:47 28.11.2019
3629 Clouds 15 1019 100 6000 1.5 40 00:47 28.11.2019
3630 Clouds 15 1019 100 6000 1.5 70 00:22 28.11.2019
3631 Clouds 15 1019 100 6000 1.5 110 23:55 27.11.2019
3632 Clouds 15 1019 100 6000 2.1 110 23:36 27.11.2019
3633 Clouds 15 1019 100 6000 2.1 110 23:18 27.11.2019
3634 Clouds 16 1019 100 8000 1.5 40 22:39 27.11.2019
3635 Clouds 16 1019 100 8000 1.5 40 22:20 27.11.2019
3636 Clouds 16 1019 100 5000 2.1 30 21:56 27.11.2019
3637 Clouds 17 1019 100 6000 2.1 10 21:37 27.11.2019
3638 Clouds 17 1019 100 6000 2.1 10 21:19 27.11.2019
3639 Clouds 17 1019 100 10000 2.1 10 20:58 27.11.2019
3640 Clouds 17 1018 82 10000 2.1 140 20:39 27.11.2019
3641 Clouds 17 1018 82 10000 2.1 140 20:21 27.11.2019
3642 Clouds 17 1018 100 10000 2.1 350 19:57 27.11.2019
3643 Clouds 17 1018 77 10000 2.1 20 19:39 27.11.2019
3644 Clouds 17 1018 77 10000 2.1 20 19:19 27.11.2019
3645 Clouds 17 1018 77 10000 2.1 20 19:19 27.11.2019
3646 Clouds 18 1018 77 10000 3.1 20 18:58 27.11.2019
3647 Clouds 18 1018 77 10000 3.1 20 18:37 27.11.2019
3648 Clouds 18 1018 77 10000 3.1 20 18:19 27.11.2019
3649 Clouds 18 1018 72 10000 4.1 350 17:56 27.11.2019
3650 Clouds 19 1017 72 10000 3.1 20 17:38 27.11.2019
3651 Clouds 19 1017 72 10000 3.1 20 17:38 27.11.2019
3652 Clouds 19 1017 72 10000 3.1 20 17:20 27.11.2019
3653 Clouds 19 1017 72 10000 3.1 20 17:20 27.11.2019
3654 Clouds 20 1017 60 10000 3.6 360 16:56 27.11.2019
3655 Clouds 20 1017 68 10000 4.1 340 16:37 27.11.2019
3656 Clouds 20 1017 68 10000 4.1 340 16:18 27.11.2019
3657 Clouds 20 1017 52 10000 1.5 0 15:57 27.11.2019
3658 Clouds 20 1017 64 10000 4.1 340 15:38 27.11.2019
3659 Clouds 20 1017 64 10000 4.1 340 15:20 27.11.2019
3660 Clouds 19 1017 52 10000 2.6 310 14:56 27.11.2019
3661 Clouds 19 1018 64 10000 4.1 340 14:38 27.11.2019
3662 Clouds 19 1018 64 10000 4.1 340 14:20 27.11.2019
3663 Clouds 19 1018 56 10000 1.5 330 13:55 27.11.2019
3664 Clouds 19 1018 64 10000 2.1 20 13:37 27.11.2019
3665 Clouds 19 1018 64 10000 2.1 20 13:18 27.11.2019
3666 Clouds 17 1019 72 10000 1.5 220 12:41 27.11.2019
3667 Clouds 17 1019 72 10000 1.5 220 12:22 27.11.2019
3668 Clouds 16 1019 77 8000 1 0 11:57 27.11.2019
3669 Clouds 16 1019 82 6000 2.6 160 11:37 27.11.2019
3670 Clouds 16 1019 82 6000 2.6 160 11:18 27.11.2019
3671 Clouds 13 1019 87 5000 2.1 200 10:46 27.11.2019
3672 Clouds 13 1019 87 5000 2.1 200 10:24 27.11.2019
3673 Mist 12 1019 100 3000 0.5 0 09:58 27.11.2019
3674 Clouds 11 1018 87 6000 3.6 180 09:39 27.11.2019
3675 Clouds 10 1018 87 6000 3.6 180 09:21 27.11.2019
3676 Clouds 9 1018 93 10000 1.5 180 08:42 27.11.2019
3677 Clouds 9 1018 93 10000 1.5 180 08:42 27.11.2019
3678 Clouds 10 1018 93 10000 1.5 180 08:23 27.11.2019
3679 Mist 10 1018 100 4000 2.6 140 07:51 27.11.2019
3680 Drizzle 9 1018 100 7000 1 0 07:30 27.11.2019
3681 Clouds 7 1018 100 6000 2.1 130 06:55 27.11.2019
3682 Clouds 7 1018 100 6000 2.1 130 06:55 27.11.2019
3683 Clouds 7 1018 100 0 2.1 120 06:37 27.11.2019
3684 Clouds 7 1018 100 6000 2.1 120 05:53 27.11.2019
3685 Fog 14 1018 100 400 1.5 130 05:26 27.11.2019
3686 Fog 13 1018 100 400 1.5 130 04:49 27.11.2019
3687 Fog 12 1018 100 400 1 80 04:31 27.11.2019
3688 Fog 12 1018 100 500 1 80 03:45 27.11.2019
3689 Fog 12 1018 100 300 1 100 03:20 27.11.2019
3690 Fog 12 1018 100 500 1 130 02:34 27.11.2019
3691 Fog 13 1019 100 400 2.1 140 00:55 27.11.2019
3692 Fog 13 1019 100 500 1.5 110 00:37 27.11.2019
3693 Fog 13 1019 100 500 1.5 110 00:19 27.11.2019
3694 Clouds 14 1019 100 0 1 0 23:42 26.11.2019
3695 Clouds 14 1019 100 0 1 0 23:23 26.11.2019
3696 Clouds 14 1019 100 8000 1.5 100 22:40 26.11.2019
3697 Clouds 14 1019 100 8000 1.5 100 22:20 26.11.2019
3698 Clouds 14 1019 100 10000 1 100 21:59 26.11.2019
3699 Clouds 14 1019 93 10000 1 340 21:39 26.11.2019
3700 Clouds 14 1019 93 10000 1 340 21:21 26.11.2019
3701 Clouds 15 1019 100 10000 1 60 20:57 26.11.2019
3702 Clouds 15 1018 93 10000 1.5 350 20:37 26.11.2019
3703 Clouds 15 1018 93 10000 1.5 350 20:37 26.11.2019
3704 Clouds 15 1018 93 10000 1.5 350 20:19 26.11.2019
3705 Clouds 15 1018 93 10000 1.5 350 20:19 26.11.2019
3706 Clouds 15 1018 93 10000 1.5 350 19:56 26.11.2019
3707 Clouds 16 1018 87 10000 1.5 20 19:38 26.11.2019
3708 Clouds 16 1018 87 10000 1.5 20 19:19 26.11.2019
3709 Clouds 16 1018 82 10000 4.1 320 18:57 26.11.2019
3710 Clouds 17 1017 72 10000 3.1 320 18:39 26.11.2019
3711 Clouds 18 1017 72 10000 3.1 320 18:21 26.11.2019
3712 Clouds 18 1017 68 10000 3.6 320 17:58 26.11.2019
3713 Clouds 19 1017 64 10000 3.1 330 17:40 26.11.2019
3714 Clouds 19 1017 64 10000 3.1 330 17:21 26.11.2019
3715 Clouds 19 1017 64 10000 3.6 320 16:57 26.11.2019
3716 Clouds 19 1017 68 10000 4.1 20 16:37 26.11.2019
3717 Clouds 19 1017 68 10000 4.1 20 16:19 26.11.2019
3718 Clouds 20 1017 46 10000 1.5 0 15:59 26.11.2019
3719 Clouds 20 1017 60 10000 5.7 360 15:38 26.11.2019
3720 Clouds 20 1017 60 10000 5.7 360 15:19 26.11.2019
3721 Clouds 19 1017 52 10000 1.5 340 14:50 26.11.2019
3722 Clouds 19 1017 60 10000 4.1 40 14:26 26.11.2019
3723 Clouds 19 1018 56 10000 2.1 10 13:57 26.11.2019
3724 Clouds 19 1018 60 8000 2.1 40 13:38 26.11.2019
3725 Clouds 19 1018 60 8000 2.1 40 13:19 26.11.2019
3726 Clouds 18 1019 63 8000 3.1 20 12:39 26.11.2019
3727 Clouds 17 1019 63 8000 3.1 20 12:20 26.11.2019
3728 Clouds 16 1019 77 10000 0.5 0 11:58 26.11.2019
3729 Clouds 16 1019 72 8000 2.1 360 11:39 26.11.2019
3730 Clouds 16 1019 72 8000 2.1 360 11:20 26.11.2019
3731 Clouds 14 1019 100 9000 1 0 10:58 26.11.2019
3732 Clouds 13 1018 82 8000 2.6 160 10:40 26.11.2019
3733 Clouds 13 1018 82 8000 2.6 160 10:20 26.11.2019
3734 Clouds 11 1019 100 10000 1 110 09:57 26.11.2019
3735 Clouds 11 1018 87 8000 2.1 180 09:37 26.11.2019
3736 Clouds 11 1018 87 8000 2.1 180 09:18 26.11.2019
3737 Clouds 9 1018 100 10000 1 0 08:43 26.11.2019
3738 Clouds 9 1018 93 8000 2.1 200 08:24 26.11.2019
3739 Clouds 9 1018 100 8000 2.1 110 07:46 26.11.2019
3740 Clouds 9 1018 93 8000 3.1 180 07:27 26.11.2019
3741 Fog 6 1018 100 5000 2.1 100 06:55 26.11.2019
3742 Clouds 6 1018 100 8000 2.6 100 06:33 26.11.2019
3743 Clouds 7 1019 100 8000 0.5 0 05:41 26.11.2019
3744 Mist 12 1019 100 4000 1.5 110 03:59 26.11.2019
3745 Mist 12 1019 100 2000 1.5 70 02:49 26.11.2019
3746 Clouds 12 1020 100 8000 1.5 70 01:33 26.11.2019
3747 Clear 13 1020 100 8000 2.1 130 00:51 26.11.2019
3748 Clear 13 1020 100 8000 1 0 00:26 26.11.2019
3749 Clouds 13 1020 93 9000 1.5 330 23:41 25.11.2019
3750 Clouds 14 1020 93 9000 1.5 330 23:21 25.11.2019
3751 Clear 14 1020 100 10000 1 0 22:58 25.11.2019
3752 Clear 15 1020 93 10000 1 360 22:38 25.11.2019
3753 Clear 15 1020 93 10000 1 360 22:18 25.11.2019
3754 Clear 15 1020 93 10000 1.5 360 21:58 25.11.2019
3755 Clear 15 1020 72 10000 2.1 20 21:39 25.11.2019
3756 Clear 15 1020 72 10000 2.1 20 21:20 25.11.2019
3757 Clear 16 1020 87 10000 2.6 360 20:56 25.11.2019
3758 Clear 16 1019 67 10000 4.1 20 20:38 25.11.2019
3759 Clear 16 1019 67 10000 4.1 20 20:19 25.11.2019
3760 Clouds 16 1019 82 10000 2.6 350 19:56 25.11.2019
3761 Clouds 16 1019 82 10000 2.6 350 19:56 25.11.2019
3762 Clouds 16 1019 77 10000 4.1 40 19:37 25.11.2019
3763 Clouds 16 1019 77 10000 4.1 40 19:37 25.11.2019
3764 Clouds 16 1019 77 10000 4.1 40 19:18 25.11.2019
3765 Clouds 17 1019 67 10000 3.6 350 18:56 25.11.2019
3766 Clouds 17 1019 67 10000 5.1 20 18:38 25.11.2019
3767 Clouds 17 1019 67 10000 5.1 20 18:19 25.11.2019
3768 Clouds 18 1019 59 10000 4.1 330 17:57 25.11.2019
3769 Clouds 18 1019 63 10000 7.2 20 17:37 25.11.2019
3770 Clouds 18 1019 63 10000 7.2 20 17:19 25.11.2019
3771 Clouds 19 1019 55 10000 3.1 360 16:55 25.11.2019
3772 Clouds 19 1019 59 10000 4.6 40 16:37 25.11.2019
3773 Clouds 19 1019 59 10000 4.6 40 16:18 25.11.2019
3774 Clouds 18 1020 63 10000 5.1 20 15:41 25.11.2019
3775 Clouds 18 1020 63 10000 5.1 20 15:21 25.11.2019
3776 Clouds 18 1020 63 10000 5.1 20 15:21 25.11.2019
3777 Clouds 19 1019 56 10000 3.6 340 14:58 25.11.2019
3778 Clouds 19 1020 55 10000 5.1 20 14:40 25.11.2019
3779 Clear 19 1020 55 10000 5.1 20 14:21 25.11.2019
3780 Clear 18 1020 63 10000 5.1 20 13:41 25.11.2019
3781 Clear 18 1020 63 10000 5.1 20 13:21 25.11.2019
3782 Clear 18 1020 55 10000 3.1 40 12:59 25.11.2019
3783 Clear 18 1021 63 10000 5.1 20 12:40 25.11.2019
3784 Clear 18 1021 63 10000 5.1 20 12:21 25.11.2019
3785 Clear 17 1021 72 10000 3.6 70 11:58 25.11.2019
3786 Clear 16 1021 67 10000 2.1 80 11:39 25.11.2019
3787 Clear 16 1021 67 10000 2.1 80 11:20 25.11.2019
3788 Clear 15 1021 87 10000 2.1 50 10:45 25.11.2019
3789 Clear 14 1021 82 8000 2.1 200 10:27 25.11.2019
3790 Clear 11 1020 93 10000 1 0 09:58 25.11.2019
3791 Clear 10 1020 93 8000 1 180 09:40 25.11.2019
3792 Clear 10 1020 93 8000 1 180 09:22 25.11.2019
3793 Clear 7 1020 93 10000 1 180 08:41 25.11.2019
3794 Clear 8 1020 93 10000 1 180 08:22 25.11.2019
3795 Clear 9 1020 100 10000 1 60 07:44 25.11.2019
3796 Clear 9 1019 93 10000 1 160 07:24 25.11.2019
3797 Clear 8 1019 100 10000 1.5 60 06:50 25.11.2019
3798 Clear 8 1019 100 10000 1.5 50 06:22 25.11.2019
3799 Clear 8 1019 100 10000 1.5 50 06:22 25.11.2019
3800 Clear 8 1019 100 10000 1.5 60 05:40 25.11.2019
3801 Clear 13 1020 100 10000 2.1 90 04:52 25.11.2019
3802 Clear 13 1020 93 10000 2.1 20 03:26 25.11.2019
3803 Clear 13 1020 93 10000 1.5 10 02:31 25.11.2019
3804 Clear 13 1020 93 10000 1.5 30 01:42 25.11.2019
3805 Clear 14 1020 87 10000 1.5 20 01:23 25.11.2019
3806 Clear 13 1021 93 10000 2.1 40 00:37 25.11.2019
3807 Clear 13 1021 93 10000 2.1 40 00:18 25.11.2019
3808 Clear 14 1020 93 10000 2.6 20 23:41 24.11.2019
3809 Clear 14 1020 93 10000 2.6 20 23:20 24.11.2019
3810 Clear 14 1020 93 10000 2.1 10 22:56 24.11.2019
3811 Clear 15 1020 93 10000 2.6 30 22:37 24.11.2019
3812 Clear 15 1020 93 10000 2.6 30 22:18 24.11.2019
3813 Clear 15 1020 93 10000 2.6 30 22:18 24.11.2019
3814 Clear 15 1020 93 10000 2.6 30 21:54 24.11.2019
3815 Clear 15 1020 77 10000 2.1 20 21:36 24.11.2019
3816 Clear 15 1020 77 10000 2.1 20 21:18 24.11.2019
3817 Clear 15 1020 93 10000 3.1 360 20:54 24.11.2019
3818 Clear 15 1019 77 10000 3.1 40 20:36 24.11.2019
3819 Clear 15 1019 77 10000 3.1 40 20:18 24.11.2019
3820 Clear 16 1019 82 10000 3.6 350 19:54 24.11.2019
3821 Clear 16 1019 72 10000 3.1 20 19:36 24.11.2019
3822 Clear 16 1019 72 10000 3.1 20 19:18 24.11.2019
3823 Clear 17 1019 67 10000 4.1 40 18:38 24.11.2019
3824 Clear 17 1019 67 10000 4.1 40 18:20 24.11.2019
3825 Clouds 18 1018 63 10000 3.6 350 17:59 24.11.2019
3826 Clear 18 1018 63 10000 5.1 360 17:41 24.11.2019
3827 Clear 18 1018 63 10000 5.1 360 17:23 24.11.2019
3828 Clouds 19 1018 63 10000 4.1 360 16:59 24.11.2019
3829 Clouds 19 1018 59 10000 7.2 20 16:41 24.11.2019
3830 Clouds 19 1018 59 10000 7.2 20 16:23 24.11.2019
3831 Clouds 19 1018 59 10000 7.2 20 16:23 24.11.2019
3832 Clouds 19 1018 52 10000 2.6 60 15:56 24.11.2019
3833 Clouds 19 1018 59 10000 5.1 20 15:38 24.11.2019
3834 Clouds 19 1018 59 10000 5.1 20 15:20 24.11.2019
3835 Clouds 18 1019 59 10000 5.1 20 14:40 24.11.2019
3836 Clouds 18 1019 59 10000 5.1 20 14:20 24.11.2019
3837 Clouds 18 1019 63 10000 3.1 50 13:59 24.11.2019
3838 Clouds 18 1020 63 10000 3.1 80 13:38 24.11.2019
3839 Clouds 18 1020 63 10000 3.1 80 13:20 24.11.2019
3840 Clouds 18 1020 68 10000 3.1 60 12:56 24.11.2019
3841 Clouds 17 1020 68 10000 3.1 80 12:38 24.11.2019
3842 Clouds 17 1020 68 10000 3.1 80 12:18 24.11.2019
3843 Clouds 16 1021 82 10000 2.1 50 11:54 24.11.2019
3844 Clouds 16 1021 82 8000 2.1 180 11:36 24.11.2019
3845 Clouds 16 1021 82 8000 2.1 180 11:18 24.11.2019
3846 Clouds 14 1020 93 8000 2.1 200 10:42 24.11.2019
3847 Clouds 13 1020 93 8000 2.1 200 10:24 24.11.2019
3848 Clouds 12 1020 93 8000 2.1 160 09:40 24.11.2019
3849 Clouds 12 1020 93 8000 2.1 160 09:20 24.11.2019
3850 Clouds 11 1020 100 10000 1.5 110 08:57 24.11.2019
3851 Clouds 11 1020 100 10000 1.5 110 08:57 24.11.2019
3852 Clouds 11 1019 93 10000 3.1 180 08:39 24.11.2019
3853 Clouds 11 1019 93 10000 3.1 180 08:20 24.11.2019
3854 Clouds 12 1019 100 6000 1.5 110 07:52 24.11.2019
3855 Mist 12 1019 100 4000 1.5 120 07:22 24.11.2019
3856 Mist 12 1018 100 4000 1.5 160 06:52 24.11.2019
3857 Mist 12 1018 100 3000 1.5 90 05:39 24.11.2019
3858 Clouds 14 1018 100 10000 2.1 150 04:41 24.11.2019
3859 Clouds 15 1018 77 10000 1 240 02:43 24.11.2019
3860 Clouds 15 1019 100 10000 0.5 0 01:56 24.11.2019
3861 Clouds 14 1019 100 10000 2.1 180 01:34 24.11.2019
3862 Clouds 15 1019 100 10000 0.5 0 00:53 24.11.2019
3863 Clouds 14 1019 100 10000 1 0 00:25 24.11.2019
3864 Clouds 14 1019 100 10000 1 0 00:25 24.11.2019
3865 Clouds 14 1019 100 10000 2.1 140 23:57 23.11.2019
3866 Clouds 14 1019 100 10000 1.5 120 23:39 23.11.2019
3867 Clouds 15 1019 100 10000 1.5 120 23:20 23.11.2019
3868 Clouds 15 1019 100 10000 1.5 120 23:20 23.11.2019
3869 Clouds 14 1018 100 10000 1.33 323 22:57 23.11.2019
3870 Clouds 15 1018 87 10000 1 290 22:37 23.11.2019
3871 Clouds 15 1018 87 10000 1 290 22:19 23.11.2019
3872 Clouds 15 1018 87 10000 0.5 0 21:55 23.11.2019
3873 Clouds 15 1017 77 10000 3.1 300 21:36 23.11.2019
3874 Clouds 15 1017 77 10000 3.1 300 21:18 23.11.2019
3875 Clouds 16 1017 72 10000 2.1 320 20:38 23.11.2019
3876 Clouds 16 1017 72 10000 2.1 320 20:20 23.11.2019
3877 Clouds 16 1017 72 10000 2.1 320 20:20 23.11.2019
3878 Clouds 16 1017 87 10000 1.5 360 19:57 23.11.2019
3879 Clouds 16 1016 72 10000 2.1 360 19:38 23.11.2019
3880 Clouds 16 1016 72 10000 2.1 360 19:19 23.11.2019
3881 Clouds 17 1016 77 10000 2.1 360 18:55 23.11.2019
3882 Clouds 17 1016 72 10000 2.1 340 18:36 23.11.2019
3883 Clouds 17 1016 72 10000 2.1 340 18:18 23.11.2019
3884 Clouds 18 1016 72 10000 4.1 340 17:42 23.11.2019
3885 Clouds 18 1016 72 10000 4.1 340 17:21 23.11.2019
3886 Clouds 19 1015 59 10000 3.1 300 16:57 23.11.2019
3887 Clouds 19 1015 64 10000 4.1 340 16:38 23.11.2019
3888 Clouds 19 1015 64 10000 4.1 340 16:38 23.11.2019
3889 Clouds 19 1015 64 10000 4.1 340 16:20 23.11.2019
3890 Clouds 19 1015 59 10000 4.1 310 15:58 23.11.2019
3891 Clouds 19 1015 63 10000 3.1 340 15:39 23.11.2019
3892 Clouds 19 1015 63 10000 3.1 340 15:19 23.11.2019
3893 Clouds 18 1015 63 10000 6.7 310 14:56 23.11.2019
3894 Clouds 19 1015 68 10000 5.1 320 14:38 23.11.2019
3895 Clouds 19 1015 68 10000 5.1 320 14:38 23.11.2019
3896 Clouds 19 1015 68 10000 5.1 320 14:20 23.11.2019
3897 Clouds 19 1016 72 10000 5.1 310 13:43 23.11.2019
3898 Clouds 19 1015 72 10000 4.1 340 13:20 23.11.2019
3899 -273 0 0 0 0 0 12:58 23.11.2019
3900 Clouds 19 1015 68 8000 5.1 300 12:40 23.11.2019
3901 Clouds 19 1015 68 8000 5.1 300 12:22 23.11.2019
3902 Clouds 19 1015 72 8000 5.1 300 11:43 23.11.2019
3903 Clouds 19 1015 72 8000 5.1 300 11:21 23.11.2019
3904 Clouds 18 1016 93 10000 3.1 280 10:45 23.11.2019
3905 Clouds 17 1015 82 10000 6.2 300 10:22 23.11.2019
3906 Clouds 17 1015 100 10000 3.1 270 09:43 23.11.2019
3907 Clouds 17 1013 88 10000 3.1 300 09:21 23.11.2019
3908 Clouds 16 1014 100 8000 3.1 250 08:55 23.11.2019
3909 Drizzle 16 1013 100 8000 4.6 270 08:36 23.11.2019
3910 Drizzle 17 1013 100 8000 4.6 270 08:18 23.11.2019
3911 Rain 17 1012 93 8000 4.1 280 07:39 23.11.2019
3912 Rain 16 1012 100 4000 10.3 230 06:48 23.11.2019
3913 Rain 17 1011 100 4600 10.3 200 06:21 23.11.2019
3914 Drizzle 17 1011 100 10000 8.7 200 05:53 23.11.2019
3915 Drizzle 17 1011 100 10000 10.3 200 05:30 23.11.2019
3916 Drizzle 17 1011 100 4000 9.8 200 04:50 23.11.2019
3917 Drizzle 17 1011 100 4000 10.3 200 04:28 23.11.2019
3918 Drizzle 17 1012 100 6000 10.3 200 02:53 23.11.2019
3919 Drizzle 17 1012 100 6000 9.8 190 02:24 23.11.2019
3920 Rain 17 1013 100 4000 9.3 190 01:38 23.11.2019
3921 Rain 17 1013 100 4000 9.8 200 00:43 23.11.2019
3922 Clouds 18 1013 93 10000 9.3 200 00:18 23.11.2019
3923 Clouds 18 1013 93 10000 8.7 200 23:42 22.11.2019
3924 Clouds 17 1013 93 10000 8.7 200 23:21 22.11.2019
3925 Clouds 17 1013 93 10000 8.7 190 22:58 22.11.2019
3926 Clouds 18 1012 88 10000 9.8 200 22:38 22.11.2019
3927 Clouds 18 1012 88 10000 9.8 200 22:38 22.11.2019
3928 Clouds 18 1012 88 10000 9.8 200 22:20 22.11.2019
3929 Clouds 18 1012 88 10000 9.8 200 21:59 22.11.2019
3930 Clouds 17 1012 88 10000 10.3 200 21:39 22.11.2019
3931 Clouds 18 1012 88 10000 10.3 200 21:20 22.11.2019
3932 Clouds 18 1012 93 10000 9.3 200 20:43 22.11.2019
3933 Clouds 19 1012 93 10000 9.3 200 20:22 22.11.2019
3934 Clouds 19 1012 93 10000 9.3 190 19:57 22.11.2019
3935 Clouds 19 1010 68 10000 6.2 220 19:38 22.11.2019
3936 Clouds 19 1010 68 10000 6.2 220 19:19 22.11.2019
3937 Clouds 19 1010 68 10000 6.2 220 19:19 22.11.2019
3938 Clouds 19 1011 88 10000 9.8 200 18:41 22.11.2019
3939 Clouds 20 1011 88 10000 9.8 200 18:22 22.11.2019
3940 Clouds 19 1011 93 10000 10.3 200 17:59 22.11.2019
3941 Clouds 20 1010 68 10000 6.2 240 17:40 22.11.2019
3942 Clouds 20 1010 68 10000 6.2 240 17:22 22.11.2019
3943 Clouds 20 1011 82 10000 10.3 210 16:47 22.11.2019
3944 Clouds 20 1010 64 10000 7.7 240 16:28 22.11.2019
3945 Clouds 20 1011 77 10000 10.3 210 15:47 22.11.2019
3946 Clouds 20 1010 64 10000 99.8 260 15:25 22.11.2019
3947 Clouds 20 1011 73 10000 9.8 230 14:57 22.11.2019
3948 Clouds 19 1011 72 10000 7.2 260 14:39 22.11.2019
3949 Clouds 19 1011 72 10000 7.2 260 14:21 22.11.2019
3950 Clouds 20 1012 72 10000 10.3 230 13:59 22.11.2019
3951 Clouds 20 1011 72 10000 7.2 260 13:37 22.11.2019
3952 Clouds 20 1011 72 10000 7.2 260 13:19 22.11.2019
3953 Clouds 19 1012 77 10000 9.8 230 12:57 22.11.2019
3954 Clouds 19 1011 82 10000 5.1 260 12:39 22.11.2019
3955 Clouds 19 1011 82 10000 5.1 260 12:18 22.11.2019
3956 Clouds 17 1012 100 6000 8.7 230 11:55 22.11.2019
3957 Clouds 17 1010 88 10000 6.2 200 11:36 22.11.2019
3958 Clouds 17 1010 88 10000 6.2 200 11:18 22.11.2019
3959 Clouds 17 1010 88 10000 6.2 200 11:18 22.11.2019
3960 Clouds 17 1010 82 10000 10.8 200 10:40 22.11.2019
3961 Clouds 17 1010 82 10000 10.8 200 10:22 22.11.2019
3962 Clouds 17 1010 82 10000 10.8 200 10:22 22.11.2019
3963 Clouds 17 1010 87 10000 9.3 180 09:57 22.11.2019
3964 Clouds 17 1009 68 10000 10.8 180 09:39 22.11.2019
3965 Clouds 17 1009 68 10000 10.8 180 09:21 22.11.2019
3966 Clouds 17 1010 87 10000 6.2 170 08:47 22.11.2019
3967 Clouds 17 1009 72 10000 7.7 200 08:27 22.11.2019
3968 Clouds 17 1010 82 10000 7.2 180 07:55 22.11.2019
3969 Clouds 17 1010 87 10000 6.2 180 07:37 22.11.2019
3970 Clouds 16 1010 87 10000 6.2 180 07:18 22.11.2019
3971 Clouds 16 1010 93 10000 6.2 160 06:40 22.11.2019
3972 Clouds 16 1011 87 10000 6.2 160 05:56 22.11.2019
3973 Clouds 16 1011 93 10000 7.2 180 04:52 22.11.2019
3974 Clouds 15 1012 100 10000 6.2 180 02:56 22.11.2019
3975 Clouds 15 1012 100 10000 6.2 180 02:32 22.11.2019
3976 Clouds 15 1012 100 10000 6.2 180 01:46 22.11.2019
3977 Clouds 15 1013 100 10000 5.1 180 01:20 22.11.2019
3978 Clouds 15 1013 100 10000 4.1 170 00:54 22.11.2019
3979 Clouds 14 1013 100 10000 2.1 0 00:25 22.11.2019
3980 Clouds 14 1013 100 10000 2.1 0 23:56 21.11.2019
3981 Clouds 14 1013 100 10000 2.1 0 23:56 21.11.2019
3982 Clouds 15 1013 100 10000 3.1 170 23:37 21.11.2019
3983 Clouds 15 1013 100 10000 3.1 170 23:18 21.11.2019
3984 Clouds 15 1013 100 10000 4.1 180 22:41 21.11.2019
3985 Clouds 15 1013 100 10000 4.1 180 22:22 21.11.2019
3986 Clouds 15 1013 100 7000 4.1 180 21:58 21.11.2019
3987 Clouds 15 1013 87 10000 5.1 220 21:39 21.11.2019
3988 Clouds 15 1013 87 10000 5.1 220 21:20 21.11.2019
3989 Clouds 16 1013 93 10000 4.6 190 20:59 21.11.2019
3990 Clouds 16 1013 87 10000 5.1 220 20:39 21.11.2019
3991 Clouds 16 1013 87 10000 5.1 220 20:19 21.11.2019
3992 Clouds 16 1013 87 10000 5.1 220 20:19 21.11.2019
3993 Clouds 16 1013 100 10000 4.6 190 19:59 21.11.2019
3994 Clouds 16 1012 82 10000 4.1 220 19:41 21.11.2019
3995 Clouds 16 1012 82 10000 4.1 220 19:22 21.11.2019
3996 Clouds 17 1012 93 10000 5.1 210 18:57 21.11.2019
3997 Clouds 17 1012 77 10000 4.1 240 18:38 21.11.2019
3998 Clouds 17 1012 77 10000 4.1 240 18:19 21.11.2019
3999 Clouds 17 1012 88 10000 5.1 210 17:57 21.11.2019
4000 Clouds 17 1012 72 10000 4.1 240 17:38 21.11.2019
4001 Clouds 17 1012 72 10000 4.1 240 17:19 21.11.2019
4002 Clouds 17 1012 72 10000 4.1 240 17:19 21.11.2019
4003 Clouds 18 1012 72 10000 5.1 240 16:42 21.11.2019
4004 Clouds 18 1012 72 10000 5.1 240 16:42 21.11.2019
4005 Clouds 18 1012 72 10000 5.1 240 16:22 21.11.2019
4006 Clouds 18 1012 82 10000 6.7 200 15:58 21.11.2019
4007 Clouds 18 1011 68 10000 4.1 240 15:39 21.11.2019
4008 Clouds 18 1011 68 10000 4.1 240 15:19 21.11.2019
4009 Clouds 18 1012 72 10000 6.7 210 14:56 21.11.2019
4010 Clouds 18 1013 77 10000 7.2 220 14:36 21.11.2019
4011 Clouds 18 1013 77 10000 7.2 220 14:18 21.11.2019
4012 Clouds 18 1013 72 10000 4.1 240 13:40 21.11.2019
4013 Clouds 18 1013 72 10000 4.1 240 13:20 21.11.2019
4014 Clouds 18 1014 88 10000 6.2 210 12:59 21.11.2019
4015 Clouds 17 1014 77 10000 5.1 220 12:38 21.11.2019
4016 Clouds 17 1014 77 10000 5.1 220 12:20 21.11.2019
4017 Clouds 16 1014 82 10000 5.1 240 11:41 21.11.2019
4018 Clouds 17 1014 82 10000 5.1 240 11:23 21.11.2019
4019 Clouds 16 1014 100 10000 4.1 180 10:59 21.11.2019
4020 Clouds 15 1013 87 10000 2.1 200 10:41 21.11.2019
4021 Clouds 15 1013 87 10000 2.1 200 10:22 21.11.2019
4022 Clouds 14 1014 100 10000 4.1 170 09:57 21.11.2019
4023 Clouds 14 1013 93 10000 4.1 200 09:38 21.11.2019
4024 Clouds 14 1013 93 10000 4.1 200 09:20 21.11.2019
4025 Clouds 14 1013 93 10000 5.1 180 08:42 21.11.2019
4026 Clouds 14 1013 93 10000 5.1 180 08:20 21.11.2019
4027 Clouds 14 1013 100 10000 4.1 180 07:43 21.11.2019
4028 Clouds 14 1013 100 10000 3.6 180 07:18 21.11.2019
4029 Clouds 14 1013 100 10000 3.6 190 06:57 21.11.2019
4030 Clouds 13 1013 100 8000 3.1 190 06:34 21.11.2019
4031 Clouds 14 1014 100 7000 3.6 180 05:38 21.11.2019
4032 Clouds 14 1014 100 8000 2.6 170 03:34 21.11.2019
4033 Clouds 14 1014 100 8000 3.1 180 02:42 21.11.2019
4034 Clouds 14 1015 100 8000 3.1 180 02:21 21.11.2019
4035 Clouds 14 1015 100 10000 4.6 200 01:42 21.11.2019
4036 Clouds 14 1015 100 10000 4.6 200 01:19 21.11.2019
4037 Clouds 14 1015 100 10000 4.6 200 00:37 21.11.2019
4038 Clouds 14 1015 100 10000 4.6 200 00:18 21.11.2019
4039 Clouds 15 1015 100 10000 4.1 200 23:40 20.11.2019
4040 Clouds 15 1015 100 10000 4.1 200 23:21 20.11.2019
4041 Clouds 15 1015 100 10000 5.1 190 22:56 20.11.2019
4042 Clouds 15 1015 100 10000 4.6 200 22:37 20.11.2019
4043 Clouds 15 1015 100 10000 4.6 200 22:19 20.11.2019
4044 Clouds 15 1015 100 10000 6.2 210 21:57 20.11.2019
4045 Clouds 15 1014 93 8000 4.1 200 21:37 20.11.2019
4046 Clouds 15 1014 93 8000 4.1 200 21:19 20.11.2019
4047 -273 0 0 0 0 0 20:55 20.11.2019
4048 -273 0 0 0 0 0 20:55 20.11.2019
4049 Clouds 15 1014 82 8000 4.1 220 20:37 20.11.2019
4050 Clouds 15 1014 82 8000 4.1 220 20:37 20.11.2019
4051 Clouds 15 1014 82 8000 4.1 220 20:37 20.11.2019
4052 Clouds 15 1014 82 8000 4.1 220 20:18 20.11.2019
4053 Clouds 15 1014 100 10000 4.6 190 19:55 20.11.2019
4054 Clouds 15 1013 87 8000 3.1 220 19:36 20.11.2019
4055 Clouds 15 1013 87 8000 3.1 220 19:36 20.11.2019
4056 Clouds 15 1013 87 8000 3.1 220 19:18 20.11.2019
4057 Clouds 16 1014 100 10000 6.2 210 18:57 20.11.2019
4058 Clouds 16 1013 87 8000 3.1 240 18:37 20.11.2019
4059 Clouds 16 1013 87 8000 3.1 240 18:19 20.11.2019
4060 Clouds 15 1013 93 8000 8.2 230 17:55 20.11.2019
4061 Clouds 15 1013 93 5000 4.1 220 17:36 20.11.2019
4062 Clouds 15 1013 93 5000 4.1 220 17:18 20.11.2019
4063 Rain 16 1012 87 5000 4.6 260 16:41 20.11.2019
4064 Rain 16 1012 87 5000 4.6 260 16:20 20.11.2019
4065 Clouds 17 1012 63 10000 9.3 210 15:58 20.11.2019
4066 Clouds 18 1012 45 10000 9.8 190 15:39 20.11.2019
4067 Clouds 18 1012 45 10000 9.8 190 15:20 20.11.2019
4068 Clouds 18 1013 52 10000 8.2 190 14:56 20.11.2019
4069 Clouds 17 1012 55 10000 6.7 200 14:38 20.11.2019
4070 Clouds 17 1012 55 10000 6.7 200 14:19 20.11.2019
4071 Rain 17 1014 55 10000 7.2 190 13:55 20.11.2019
4072 Clouds 18 1014 48 10000 5.7 220 13:36 20.11.2019
4073 Clouds 17 1014 48 10000 5.7 220 13:18 20.11.2019
4074 Clouds 16 1014 55 10000 6.2 180 12:40 20.11.2019
4075 Clouds 16 1014 55 10000 6.2 180 12:22 20.11.2019
4076 Clouds 16 1015 62 10000 7.2 170 11:55 20.11.2019
4077 Clouds 15 1015 62 10000 6.2 180 11:37 20.11.2019
4078 Clouds 14 1015 62 10000 6.2 180 11:18 20.11.2019
4079 Clouds 13 1015 76 10000 4.1 170 10:54 20.11.2019
4080 Clouds 12 1014 76 10000 6.2 180 10:36 20.11.2019
4081 Clouds 12 1014 76 10000 6.2 180 10:18 20.11.2019
4082 Clouds 12 1015 76 10000 7.2 180 09:42 20.11.2019
4083 Clouds 11 1015 76 10000 7.2 180 09:20 20.11.2019
4084 Clouds 11 1015 93 10000 3.1 150 08:47 20.11.2019
4085 Clouds 10 1015 76 10000 6.2 180 08:28 20.11.2019
4086 Clouds 8 1015 93 10000 3.6 160 07:57 20.11.2019
4087 Clouds 8 1015 93 10000 3.6 160 07:37 20.11.2019
4088 Clouds 8 1015 93 10000 3.6 160 07:18 20.11.2019
4089 Clouds 10 1015 93 10000 3.1 160 06:45 20.11.2019
4090 Clouds 10 1015 100 10000 3.1 160 06:19 20.11.2019
4091 Clouds 11 1015 100 10000 2.1 150 04:50 20.11.2019
4092 Clouds 11 1016 100 10000 2.6 160 02:29 20.11.2019
4093 Clouds 12 1016 100 10000 2.1 170 01:38 20.11.2019
4094 Clouds 12 1016 93 10000 2.6 150 00:58 20.11.2019
4095 Clouds 12 1016 100 10000 2.1 140 00:22 20.11.2019
4096 Clouds 12 1017 93 10000 1 0 23:41 19.11.2019
4097 Clouds 12 1017 93 10000 1 0 23:22 19.11.2019
4098 Clouds 12 1017 93 10000 1 0 22:56 19.11.2019
4099 Clouds 13 1016 81 10000 2.1 320 22:37 19.11.2019
4100 Clouds 13 1016 81 10000 2.1 320 22:18 19.11.2019
4101 Clouds 13 1016 81 10000 2.1 320 22:18 19.11.2019
4102 Clouds 13 1016 81 10000 2.1 320 21:55 19.11.2019
4103 Clouds 13 1016 81 10000 2.1 320 21:36 19.11.2019
4104 Clouds 13 1016 81 10000 2.1 320 21:18 19.11.2019
4105 Clouds 13 1016 81 10000 2.1 320 20:54 19.11.2019
4106 Clouds 14 1017 76 10000 1 340 20:36 19.11.2019
4107 Clouds 14 1017 76 10000 1 340 20:18 19.11.2019
4108 Clouds 15 1016 72 10000 2.1 320 19:41 19.11.2019
4109 Clouds 15 1016 72 10000 2.1 320 19:20 19.11.2019
4110 Clouds 15 1016 72 10000 2.1 320 19:20 19.11.2019
4111 Clouds 15 1016 72 10000 2.1 320 19:20 19.11.2019
4112 Clouds 15 1016 71 10000 2.6 310 18:58 19.11.2019
4113 Clouds 15 1016 67 10000 3.1 340 18:40 19.11.2019
4114 Clouds 15 1016 67 10000 3.1 340 18:20 19.11.2019
4115 Clouds 15 1016 67 10000 3.1 340 18:20 19.11.2019
4116 Clouds 16 1016 59 10000 2.6 320 17:57 19.11.2019
4117 Clouds 16 1016 63 10000 3.1 360 17:39 19.11.2019
4118 Clouds 16 1016 63 10000 3.1 360 17:20 19.11.2019
4119 Clouds 16 1016 51 10000 1.5 360 16:59 19.11.2019
4120 Clouds 16 1016 59 10000 4.1 20 16:39 19.11.2019
4121 Clouds 16 1016 59 10000 4.1 20 16:19 19.11.2019
4122 Clouds 17 1016 59 10000 2.1 10 15:45 19.11.2019
4123 Clouds 17 1017 55 10000 4.1 340 15:26 19.11.2019
4124 Clouds 18 1017 59 10000 1.5 40 14:57 19.11.2019
4125 Clouds 18 1017 52 10000 2.1 260 14:39 19.11.2019
4126 Clouds 18 1017 52 10000 2.1 260 14:20 19.11.2019
4127 Clouds 17 1018 59 10000 2.1 30 13:42 19.11.2019
4128 Clouds 17 1018 55 10000 2.1 160 13:20 19.11.2019
4129 Clouds 16 1019 59 10000 2.1 40 12:54 19.11.2019
4130 Clouds 16 1019 59 10000 2.1 140 12:36 19.11.2019
4131 Clouds 16 1019 59 10000 2.1 140 12:18 19.11.2019
4132 Clouds 15 1019 62 10000 2.6 70 11:54 19.11.2019
4133 Clouds 15 1019 67 10000 2.1 200 11:36 19.11.2019
4134 Clouds 15 1019 67 10000 2.1 200 11:18 19.11.2019
4135 Clouds 13 1019 77 10000 4.1 180 10:42 19.11.2019
4136 Clouds 13 1019 77 10000 4.1 180 10:20 19.11.2019
4137 Clouds 13 1019 77 10000 4.1 180 10:20 19.11.2019
4138 Clouds 11 1019 100 10000 1.5 110 09:42 19.11.2019
4139 Clouds 10 1019 87 10000 2.1 160 09:21 19.11.2019
4140 Clouds 9 1019 100 5000 1 0 08:56 19.11.2019
4141 Clouds 8 1019 93 10000 2.1 180 08:38 19.11.2019
4142 Clouds 8 1019 93 10000 2.1 180 08:20 19.11.2019
4143 Clouds 8 1019 100 10000 1 0 07:42 19.11.2019
4144 Clouds 8 1018 93 10000 2.1 200 07:23 19.11.2019
4145 Clouds 6 1019 100 10000 0.5 0 06:54 19.11.2019
4146 Clouds 6 1018 100 10000 1 160 06:35 19.11.2019
4147 Clouds 6 1018 100 10000 2.1 140 05:49 19.11.2019
4148 Mist 5 1018 100 2000 2.1 110 04:46 19.11.2019
4149 Fog 7 1019 100 600 0.5 140 03:35 19.11.2019
4150 Fog 7 1019 100 600 1.5 130 02:59 19.11.2019
4151 Fog 8 1019 100 600 0.5 130 02:33 19.11.2019
4152 Fog 8 1020 100 800 1 140 01:46 19.11.2019
4153 Clouds 10 1020 100 5000 1.5 120 00:37 19.11.2019
4154 Clouds 10 1020 100 5000 1.5 120 00:19 19.11.2019
4155 Clouds 12 1020 100 10000 1 0 23:37 18.11.2019
4156 Clouds 12 1020 100 10000 1 0 23:19 18.11.2019
4157 Clouds 12 1020 100 10000 0.5 0 22:46 18.11.2019
4158 Clouds 13 1020 100 10000 1.5 110 22:24 18.11.2019
4159 Clouds 13 1020 100 10000 1.5 120 21:57 18.11.2019
4160 Clouds 13 1019 93 8000 2.1 180 21:39 18.11.2019
4161 Clouds 13 1019 93 8000 2.1 180 21:20 18.11.2019
4162 Clouds 13 1020 100 10000 2.1 100 20:57 18.11.2019
4163 Clouds 13 1019 93 8000 4.1 160 20:39 18.11.2019
4164 Clouds 13 1019 93 8000 4.1 160 20:18 18.11.2019
4165 Clouds 13 1019 100 8000 2.6 70 19:56 18.11.2019
4166 Clouds 13 1019 93 6000 5.1 80 19:37 18.11.2019
4167 Clouds 13 1019 93 6000 5.1 80 19:19 18.11.2019
4168 Clouds 13 1019 93 6000 5.1 80 19:19 18.11.2019
4169 Drizzle 13 1019 100 3000 3.6 10 18:55 18.11.2019
4170 Clouds 13 1019 93 6000 5.1 80 18:37 18.11.2019
4171 Clouds 13 1019 93 6000 5.1 80 18:19 18.11.2019
4172 Drizzle 13 1019 100 3000 5.7 10 17:54 18.11.2019
4173 Rain 13 1019 93 6000 5.1 40 17:36 18.11.2019
4174 Rain 13 1019 93 6000 5.1 40 17:18 18.11.2019
4175 Rain 14 1019 93 6000 6.2 40 16:42 18.11.2019
4176 Rain 15 1019 93 6000 6.2 40 16:23 18.11.2019
4177 Clouds 16 1018 100 8000 3.1 260 15:56 18.11.2019
4178 Rain 16 1018 87 6000 5.1 40 15:38 18.11.2019
4179 Rain 16 1018 87 6000 5.1 40 15:19 18.11.2019
4180 Clouds 18 1018 52 10000 6.7 220 14:43 18.11.2019
4181 Clouds 18 1018 55 10000 7.2 230 14:24 18.11.2019
4182 Clouds 18 1018 55 10000 7.2 230 14:24 18.11.2019
4183 Clouds 18 1019 59 10000 7.2 220 13:57 18.11.2019
4184 Clouds 18 1019 60 10000 7.2 260 13:39 18.11.2019
4185 Clouds 18 1019 60 10000 7.2 260 13:39 18.11.2019
4186 Clouds 18 1019 60 10000 7.2 260 13:21 18.11.2019
4187 Clouds 18 1019 59 10000 8.2 240 12:39 18.11.2019
4188 Clouds 17 1019 59 10000 8.2 240 12:20 18.11.2019
4189 Clouds 16 1020 67 10000 7.7 200 11:54 18.11.2019
4190 Clouds 16 1020 59 10000 6.2 220 11:36 18.11.2019
4191 Clouds 16 1020 59 10000 6.2 220 11:18 18.11.2019
4192 Clouds 15 1020 54 10000 6.7 200 10:42 18.11.2019
4193 Clouds 15 1020 54 10000 6.7 200 10:42 18.11.2019
4194 Clouds 15 1020 54 10000 6.7 200 10:23 18.11.2019
4195 Clouds 13 1020 58 10000 5.1 180 09:56 18.11.2019
4196 Clouds 13 1019 58 10000 5.1 200 09:38 18.11.2019
4197 Clouds 13 1019 58 10000 5.1 200 09:19 18.11.2019
4198 Clouds 12 1020 66 10000 4.1 170 08:45 18.11.2019
4199 Clouds 12 1019 62 10000 6.2 200 08:22 18.11.2019
4200 Clouds 11 1020 70 10000 4.1 170 07:49 18.11.2019
4201 Clouds 11 1020 70 10000 4.1 180 07:30 18.11.2019
4202 Clouds 12 1020 70 10000 4.1 180 06:59 18.11.2019
4203 Clouds 11 1019 81 10000 2.6 170 06:41 18.11.2019
4204 Clouds 7 1019 81 10000 2.6 170 06:21 18.11.2019
4205 Clouds 12 1019 81 10000 3.6 170 05:25 18.11.2019
4206 Clouds 11 1020 87 10000 2.6 160 03:30 18.11.2019
4207 Clear 10 1021 87 10000 2.1 140 01:37 18.11.2019
4208 Clear 11 1021 87 10000 2.6 160 00:46 18.11.2019
4209 Clear 11 1021 81 10000 2.1 180 23:59 17.11.2019
4210 Clear 11 1021 81 10000 2.1 180 23:59 17.11.2019
4211 Clear 10 1021 87 10000 2.1 170 23:40 17.11.2019
4212 Clear 11 1021 87 10000 2.1 170 23:21 17.11.2019
4213 Clear 11 1021 81 10000 2.6 160 22:57 17.11.2019
4214 Clear 11 1021 81 10000 2.1 130 22:38 17.11.2019
4215 Clear 12 1021 81 10000 2.1 130 22:20 17.11.2019
4216 Clear 12 1021 76 10000 1.2 201 21:42 17.11.2019
4217 Clear 13 1021 71 10000 0.5 80 21:20 17.11.2019
4218 Clear 13 1021 66 10000 1 350 20:59 17.11.2019
4219 Clear 13 1021 71 10000 1.2 201 20:39 17.11.2019
4220 Clear 13 1021 71 10000 2 338 20:20 17.11.2019
4221 Clear 14 1021 62 10000 2.1 340 19:57 17.11.2019
4222 Clear 15 1021 58 10000 3.1 360 19:39 17.11.2019
4223 Clear 15 1021 58 10000 3.1 360 19:20 17.11.2019
4224 Clear 15 1021 50 10000 4.1 320 18:57 17.11.2019
4225 Clear 16 1021 55 10000 4.1 340 18:38 17.11.2019
4226 Clear 16 1021 55 10000 4.1 340 18:19 17.11.2019
4227 Clear 16 1021 55 10000 4.1 340 18:19 17.11.2019
4228 Clear 17 1021 42 10000 2.6 320 17:58 17.11.2019
4229 Clear 17 1021 45 10000 4.6 360 17:40 17.11.2019
4230 Clear 17 1021 45 10000 4.6 360 17:20 17.11.2019
4231 Clear 18 1021 34 10000 1.5 0 16:59 17.11.2019
4232 Clear 18 1021 42 10000 5.7 360 16:41 17.11.2019
4233 Clear 18 1021 42 10000 5.7 360 16:21 17.11.2019
4234 Clear 18 1022 34 10000 1.5 0 15:56 17.11.2019
4235 Clear 18 1022 34 10000 4.1 20 15:38 17.11.2019
4236 Clear 18 1022 34 10000 4.1 20 15:19 17.11.2019
4237 Clear 17 1022 33 10000 1.5 0 14:57 17.11.2019
4238 Clear 17 1023 33 10000 1 0 14:38 17.11.2019
4239 Clear 17 1023 33 10000 1 0 14:20 17.11.2019
4240 Clear 17 1023 33 10000 1 0 14:20 17.11.2019
4241 Clear 17 1023 36 10000 1 0 13:57 17.11.2019
4242 Clear 17 1023 45 10000 1 300 13:39 17.11.2019
4243 Clear 17 1023 45 10000 1 300 13:19 17.11.2019
4244 Clear 16 1024 51 10000 1.5 0 12:44 17.11.2019
4245 Clear 17 1024 45 10000 3.1 120 12:23 17.11.2019
4246 Clear 17 1024 45 10000 3.1 120 12:23 17.11.2019
4247 Clear 15 1024 54 10000 2.6 120 11:57 17.11.2019
4248 Clear 14 1024 54 10000 4.1 180 11:39 17.11.2019
4249 Clear 14 1024 54 10000 4.1 180 11:20 17.11.2019
4250 Clear 12 1024 71 10000 2.6 150 10:44 17.11.2019
4251 Clear 11 1024 62 10000 4.1 180 10:23 17.11.2019
4252 Clear 9 1024 93 10000 1 0 09:58 17.11.2019
4253 Clear 9 1024 93 10000 1 0 09:58 17.11.2019
4254 Clear 8 1024 70 10000 6.2 180 09:39 17.11.2019
4255 Clear 8 1024 70 10000 6.2 180 09:21 17.11.2019
4256 Clear 4 1023 75 10000 3.1 180 08:40 17.11.2019
4257 Clear 5 1023 75 10000 3.1 180 08:22 17.11.2019
4258 Clouds 5 1023 100 8000 2.1 120 07:55 17.11.2019
4259 Clear 5 1022 75 10000 5.1 180 07:37 17.11.2019
4260 Clear 5 1022 75 10000 5.1 180 07:18 17.11.2019
4261 Clear 3 1022 93 10000 1.5 130 06:40 17.11.2019
4262 Clear 3 1022 93 10000 1.5 130 06:21 17.11.2019
4263 Rain 9 1021 93 10000 1.5 100 04:24 17.11.2019
4264 Clouds 8 1022 93 10000 2.1 80 03:51 17.11.2019
4265 Clouds 8 1022 93 10000 1 110 03:32 17.11.2019
4266 Clouds 8 1022 93 10000 2.1 100 02:28 17.11.2019
4267 Clouds 9 1022 81 10000 2.6 40 01:41 17.11.2019
4268 Clouds 9 1022 81 10000 2.6 40 00:55 17.11.2019
4269 Clouds 9 1022 87 10000 2.1 40 00:22 17.11.2019
4270 Clouds 9 1022 93 10000 2.1 80 23:47 16.11.2019
4271 Clouds 11 1022 66 10000 2.6 20 23:20 16.11.2019
4272 Clouds 11 1022 66 10000 2.6 20 22:59 16.11.2019
4273 Clouds 11 1022 66 10000 3.1 10 22:40 16.11.2019
4274 Clouds 11 1022 66 10000 3.1 10 22:19 16.11.2019
4275 Clouds 11 1022 71 10000 3.1 10 21:56 16.11.2019
4276 Clear 12 1021 58 10000 2.1 40 21:37 16.11.2019
4277 Clear 12 1021 58 10000 2.1 40 21:19 16.11.2019
4278 Clouds 12 1021 66 10000 3.1 360 20:42 16.11.2019
4279 Clouds 12 1021 62 10000 2.1 20 20:21 16.11.2019
4280 Clouds 13 1021 58 10000 2.6 350 19:58 16.11.2019
4281 Clouds 13 1021 58 10000 2.6 350 19:58 16.11.2019
4282 Clouds 13 1020 54 10000 3.1 40 19:40 16.11.2019
4283 Clouds 12 1020 54 10000 3.1 40 19:21 16.11.2019
4284 Clouds 14 1020 47 10000 2.6 360 18:47 16.11.2019
4285 Clouds 15 1020 47 10000 3.1 20 18:29 16.11.2019
4286 Clouds 15 1020 44 10000 4.6 350 17:57 16.11.2019
4287 Clouds 16 1020 44 10000 5.1 20 17:38 16.11.2019
4288 Clouds 16 1020 44 10000 5.1 20 17:19 16.11.2019
4289 Clouds 16 1020 44 10000 4.1 360 16:48 16.11.2019
4290 Clouds 16 1020 44 10000 5.1 40 16:30 16.11.2019
4291 Clouds 16 1019 41 10000 3.6 340 15:59 16.11.2019
4292 Clouds 16 1019 39 10000 5.1 40 15:39 16.11.2019
4293 Clouds 16 1019 39 10000 5.1 40 15:20 16.11.2019
4294 Clouds 16 1019 44 10000 4.1 340 14:57 16.11.2019
4295 Clouds 16 1019 44 10000 4.1 340 14:57 16.11.2019
4296 Clouds 16 1019 44 10000 5.1 360 14:39 16.11.2019
4297 Clouds 16 1019 44 10000 5.1 360 14:20 16.11.2019
4298 Clouds 16 1019 47 10000 4.6 340 13:55 16.11.2019
4299 Clouds 16 1019 45 10000 7.7 360 13:37 16.11.2019
4300 Clouds 16 1019 45 10000 7.7 360 13:18 16.11.2019
4301 Clouds 16 1019 45 10000 7.7 360 13:18 16.11.2019
4302 Clouds 15 1020 66 10000 3.6 40 12:42 16.11.2019
4303 Clouds 15 1020 44 10000 5.7 360 12:23 16.11.2019
4304 Clouds 15 1020 67 10000 2.1 270 11:56 16.11.2019
4305 Clouds 14 1019 54 10000 7.2 360 11:38 16.11.2019
4306 Clouds 14 1019 54 10000 7.2 360 11:19 16.11.2019
4307 Clouds 13 1019 76 10000 4.6 210 10:43 16.11.2019
4308 Clouds 13 1019 76 10000 2.1 200 10:25 16.11.2019
4309 Clouds 12 1018 100 10000 2.6 200 09:58 16.11.2019
4310 Clouds 11 1017 76 10000 2.6 220 09:40 16.11.2019
4311 Clouds 11 1017 76 10000 2.6 220 09:19 16.11.2019
4312 Clouds 10 1017 81 10000 2.1 240 08:41 16.11.2019
4313 Clouds 10 1017 81 10000 2.1 240 08:20 16.11.2019
4314 Clouds 10 1017 81 10000 2.1 240 08:20 16.11.2019
4315 Clouds 10 1016 100 10000 2.1 0 07:44 16.11.2019
4316 Clouds 10 1016 87 10000 1.5 120 07:22 16.11.2019
4317 Clouds 10 1016 100 10000 2.1 150 06:59 16.11.2019
4318 Clouds 11 1016 100 10000 1.5 140 06:41 16.11.2019
4319 Clouds 11 1016 100 10000 1.5 140 06:19 16.11.2019
4320 Drizzle 12 1015 100 10000 1.5 150 04:21 16.11.2019
4321 Clouds 12 1015 100 10000 3.1 160 03:26 16.11.2019
4322 Clouds 12 1015 100 10000 2.1 150 02:36 16.11.2019
4323 Rain 12 1015 100 10000 2.6 190 01:38 16.11.2019
4324 Rain 12 1015 100 10000 2.6 190 01:38 16.11.2019
4325 Clouds 12 1015 93 10000 3.6 190 00:48 16.11.2019
4326 Clouds 13 1015 81 10000 3.1 210 00:29 16.11.2019
4327 Clouds 13 1015 93 10000 2.6 210 23:44 15.11.2019
4328 Clouds 13 1015 87 10000 1 240 23:25 15.11.2019
4329 Clouds 13 1015 87 10000 1 240 23:25 15.11.2019
4330 Clouds 14 1015 71 10000 1 0 22:59 15.11.2019
4331 Clouds 13 1015 76 10000 1.5 230 22:40 15.11.2019
4332 Clouds 14 1015 76 10000 1.5 230 22:19 15.11.2019
4333 Rain 14 1015 87 10000 7.2 280 21:56 15.11.2019
4334 Clouds 14 1014 58 8000 5.7 340 21:38 15.11.2019
4335 Clouds 14 1014 58 8000 5.7 340 21:19 15.11.2019
4336 Clouds 14 1014 93 10000 2.6 230 20:56 15.11.2019
4337 Clouds 14 1014 93 10000 2.6 230 20:56 15.11.2019
4338 Clouds 15 1014 58 8000 5.7 340 20:38 15.11.2019
4339 Clouds 14 1014 58 8000 5.7 340 20:19 15.11.2019
4340 Rain 14 1014 87 5000 2.6 260 19:57 15.11.2019
4341 Clouds 15 1013 54 8000 3.1 320 19:38 15.11.2019
4342 Clouds 14 1013 54 8000 3.1 320 19:19 15.11.2019
4343 Clouds 15 1014 76 10000 2.6 250 18:43 15.11.2019
4344 Clouds 15 1013 55 10000 5.7 320 18:24 15.11.2019
4345 Clouds 15 1013 62 10000 4.6 280 17:58 15.11.2019
4346 Clouds 15 1013 63 10000 3.6 300 17:39 15.11.2019
4347 Clouds 15 1013 63 10000 3.6 300 17:21 15.11.2019
4348 Clouds 16 1013 58 10000 4.1 290 16:55 15.11.2019
4349 Clouds 16 1013 63 10000 5.7 300 16:37 15.11.2019
4350 Clouds 16 1013 63 10000 5.7 300 16:18 15.11.2019
4351 Clouds 16 1013 51 10000 4.1 300 15:38 15.11.2019
4352 Clouds 16 1013 51 10000 4.1 300 15:19 15.11.2019
4353 Clouds 16 1014 76 10000 3.6 280 14:56 15.11.2019
4354 Clouds 16 1015 59 10000 4.1 320 14:38 15.11.2019
4355 Clouds 16 1015 59 10000 4.1 320 14:19 15.11.2019
4356 Clouds 15 1014 72 10000 8.2 310 13:56 15.11.2019
4357 Rain 15 1014 76 6000 5.1 340 13:38 15.11.2019
4358 Rain 14 1014 76 6000 5.1 340 13:20 15.11.2019
4359 Clouds 16 1015 63 10000 5.7 280 12:57 15.11.2019
4360 Clouds 16 1015 59 10000 5.7 320 12:38 15.11.2019
4361 Clouds 16 1015 59 10000 5.7 320 12:19 15.11.2019
4362 Clouds 16 1015 67 10000 3.6 290 11:56 15.11.2019
4363 Clouds 15 1015 63 10000 5.7 340 11:37 15.11.2019
4364 Clouds 15 1015 63 10000 5.7 340 11:19 15.11.2019
4365 Clouds 15 1015 63 10000 5.7 340 11:19 15.11.2019
4366 Clouds 15 1015 63 10000 7.2 340 10:40 15.11.2019
4367 Clouds 15 1015 63 10000 7.2 340 10:21 15.11.2019
4368 Clouds 14 1014 100 10000 3.6 170 09:58 15.11.2019
4369 Clouds 14 1014 100 10000 3.6 170 09:58 15.11.2019
4370 Rain 13 1014 82 8000 5.1 320 09:39 15.11.2019
4371 Rain 13 1014 82 8000 5.1 320 09:18 15.11.2019
4372 Clouds 12 1014 100 10000 2.6 170 08:42 15.11.2019
4373 Clouds 12 1014 82 10000 1 240 08:21 15.11.2019
4374 Clouds 13 1014 100 8000 1.5 100 07:47 15.11.2019
4375 Clouds 14 1014 100 8000 2.1 360 07:27 15.11.2019
4376 Clouds 14 1014 100 8000 2.6 230 06:38 15.11.2019
4377 Clouds 14 1014 100 8000 1 230 05:58 15.11.2019
4378 Clouds 14 1014 100 8000 1 230 05:39 15.11.2019
4379 Clouds 14 1014 100 8000 1 230 05:39 15.11.2019
4380 Clouds 14 1014 100 8000 1 230 05:19 15.11.2019
4381 Clouds 15 1015 100 8000 2.1 200 03:46 15.11.2019
4382 Clouds 15 1015 100 8000 1.5 180 02:51 15.11.2019
4383 Clouds 15 1015 100 8000 1.5 200 02:18 15.11.2019
4384 Clouds 16 1016 100 8000 1.5 320 01:32 15.11.2019
4385 Clouds 16 1016 100 8000 1.5 320 01:32 15.11.2019
4386 Rain 16 1016 100 8000 2.1 310 00:48 15.11.2019
4387 Rain 16 1016 100 8000 1.5 290 00:29 15.11.2019
4388 Rain 15 1016 100 4000 2.1 260 23:49 14.11.2019
4389 Rain 15 1016 100 6000 2.1 300 23:27 14.11.2019
4390 Rain 14 1016 100 6000 3.1 300 22:57 14.11.2019
4391 Rain 14 1016 100 6000 3.1 300 22:39 14.11.2019
4392 Rain 14 1016 100 6000 3.1 300 22:20 14.11.2019
4393 Rain 14 1016 100 5000 7.2 340 21:55 14.11.2019
4394 Rain 15 1015 93 8000 2.1 340 21:36 14.11.2019
4395 Rain 15 1015 93 8000 2.1 340 21:18 14.11.2019
4396 Clouds 15 1015 67 10000 5.7 320 20:41 14.11.2019
4397 Clouds 15 1015 67 10000 5.7 320 20:22 14.11.2019
4398 Clouds 17 1015 72 10000 3.6 270 19:58 14.11.2019
4399 Clouds 17 1015 68 10000 4.6 280 19:40 14.11.2019
4400 Clouds 17 1015 68 10000 4.6 280 19:18 14.11.2019
4401 Clouds 17 1015 63 10000 4.6 280 18:54 14.11.2019
4402 Clouds 18 1015 63 10000 4.1 300 18:36 14.11.2019
4403 Clouds 19 1015 63 10000 4.1 300 18:18 14.11.2019
4404 Clouds 18 1015 63 10000 6.2 300 17:38 14.11.2019
4405 Clouds 18 1015 63 10000 6.2 300 17:20 14.11.2019
4406 Clouds 19 1015 63 10000 5.7 290 16:58 14.11.2019
4407 Clouds 19 1015 63 10000 5.7 290 16:58 14.11.2019
4408 Clouds 19 1015 64 10000 3.1 280 16:39 14.11.2019
4409 Clouds 19 1015 64 10000 3.1 280 16:20 14.11.2019
4410 Clouds 19 1015 64 10000 3.1 280 16:20 14.11.2019
4411 Clouds 19 1016 52 10000 3.6 310 15:58 14.11.2019
4412 Clouds 19 1016 60 10000 4.1 320 15:39 14.11.2019
4413 Clouds 19 1016 60 10000 4.1 320 15:20 14.11.2019
4414 Clouds 19 1016 55 10000 4.1 290 14:58 14.11.2019
4415 Clouds 19 1016 68 10000 4.1 320 14:39 14.11.2019
4416 Clouds 19 1016 68 10000 4.1 320 14:39 14.11.2019
4417 Clouds 19 1016 68 10000 4.1 320 14:21 14.11.2019
4418 Clouds 20 1017 49 10000 2.1 0 13:42 14.11.2019
4419 Clouds 20 1017 49 10000 2.1 0 13:42 14.11.2019
4420 Clouds 20 1017 49 10000 2.1 0 13:42 14.11.2019
4421 Clouds 19 1017 60 10000 4.1 320 13:23 14.11.2019
4422 Clouds 19 1018 55 10000 2.6 300 12:59 14.11.2019
4423 Clouds 19 1018 64 10000 3.1 220 12:40 14.11.2019
4424 Clouds 19 1018 64 10000 3.1 220 12:21 14.11.2019
4425 Clouds 17 1018 72 10000 1.5 270 11:56 14.11.2019
4426 Clouds 16 1017 67 10000 2.1 200 11:37 14.11.2019
4427 Clouds 16 1017 67 10000 2.1 200 11:37 14.11.2019
4428 Clouds 16 1017 67 10000 2.1 200 11:19 14.11.2019
4429 Clouds 16 1018 77 10000 1.5 190 10:57 14.11.2019
4430 Clouds 16 1017 77 10000 2.1 180 10:37 14.11.2019
4431 Clouds 16 1017 77 10000 2.1 180 10:19 14.11.2019
4432 Clouds 13 1018 93 10000 1 0 09:42 14.11.2019
4433 Clouds 11 1017 82 10000 4.1 200 09:24 14.11.2019
4434 Clouds 10 1017 82 10000 3.1 180 08:59 14.11.2019
4435 Clouds 10 1017 82 10000 3.1 180 08:40 14.11.2019
4436 Clouds 10 1017 82 10000 3.1 180 08:22 14.11.2019
4437 Clouds 7 1017 100 10000 2.1 140 07:42 14.11.2019
4438 Clouds 7 1016 93 10000 2.1 130 07:24 14.11.2019
4439 Clouds 8 1016 93 10000 1.5 140 06:46 14.11.2019
4440 Clouds 7 1016 93 10000 0.5 0 06:21 14.11.2019
4441 Clouds 8 1017 87 10000 1.5 80 05:40 14.11.2019
4442 Clouds 8 1017 87 10000 2.1 120 04:38 14.11.2019
4443 Clouds 9 1018 81 10000 1.5 100 03:28 14.11.2019
4444 Clouds 9 1018 87 10000 1.5 100 02:38 14.11.2019
4445 Clouds 9 1019 87 10000 1.5 100 01:41 14.11.2019
4446 Clouds 10 1019 87 10000 1 120 00:57 14.11.2019
4447 Clouds 11 1019 87 10000 1.5 60 00:38 14.11.2019
4448 Clouds 11 1019 87 10000 1.5 60 00:19 14.11.2019
4449 Clouds 11 1019 87 10000 1.5 80 23:38 13.11.2019
4450 Clouds 11 1019 87 10000 1.5 80 23:20 13.11.2019
4451 Clouds 10 1019 93 10000 1.5 90 22:55 13.11.2019
4452 Clouds 11 1019 87 10000 1.5 110 22:37 13.11.2019
4453 Clouds 15 1019 87 10000 1.5 110 22:19 13.11.2019
4454 Clouds 16 1019 82 10000 1 0 21:55 13.11.2019
4455 Clouds 16 1018 77 10000 2.1 20 21:36 13.11.2019
4456 Clouds 16 1018 77 10000 2.1 20 21:18 13.11.2019
4457 Clouds 16 1019 72 10000 2.6 10 20:54 13.11.2019
4458 Clouds 16 1018 77 10000 2.1 20 20:36 13.11.2019
4459 Clouds 16 1018 77 10000 2.1 20 20:18 13.11.2019
4460 Clouds 17 1019 59 10000 3.1 350 19:42 13.11.2019
4461 Clouds 18 1019 72 10000 2.1 360 19:19 13.11.2019
4462 Clouds 18 1019 52 10000 4.1 350 18:56 13.11.2019
4463 Clouds 19 1019 55 10000 3.1 20 18:37 13.11.2019
4464 Clouds 19 1019 55 10000 3.1 20 18:19 13.11.2019
4465 Clouds 19 1019 48 10000 5.1 340 17:57 13.11.2019
4466 Clouds 20 1019 56 10000 3.1 20 17:38 13.11.2019
4467 Clouds 20 1019 56 10000 3.1 20 17:19 13.11.2019
4468 Clouds 20 1019 56 10000 3.1 20 17:19 13.11.2019
4469 Clouds 20 1019 49 10000 5.1 20 16:57 13.11.2019
4470 Clouds 20 1019 49 10000 5.1 20 16:38 13.11.2019
4471 Clouds 20 1019 49 10000 5.1 20 16:20 13.11.2019
4472 Clouds 20 1019 45 10000 4.1 360 15:57 13.11.2019
4473 Clouds 20 1019 43 10000 3.1 40 15:38 13.11.2019
4474 Clouds 20 1019 43 10000 3.1 40 15:18 13.11.2019
4475 Clouds 20 1019 46 10000 3.1 340 14:41 13.11.2019
4476 Clouds 20 1019 46 10000 3.1 340 14:21 13.11.2019
4477 Clouds 20 1020 52 10000 3.1 320 13:54 13.11.2019
4478 Clouds 20 1020 52 10000 4.1 300 13:36 13.11.2019
4479 Clouds 20 1020 52 10000 4.1 300 13:18 13.11.2019
4480 Clouds 19 1020 64 10000 3.1 140 12:42 13.11.2019
4481 Clouds 21 1020 64 10000 3.1 140 12:23 13.11.2019
4482 Clouds 21 1021 77 10000 2.1 40 11:58 13.11.2019
4483 Clear 20 1017 41 10000 3.1 360 11:38 13.11.2019
4484 Clear 18 1017 41 10000 3.1 360 11:19 13.11.2019
4485 Clear 18 1017 41 10000 3.1 360 10:56 13.11.2019
4486 Clear 17 1017 41 10000 3.1 360 10:37 13.11.2019
4487 Clouds 17 1020 82 10000 3.1 180 10:19 13.11.2019
4488 Clouds 13 1020 100 10000 1.5 110 09:43 13.11.2019
4489 Clouds 13 1020 100 10000 1.5 110 09:43 13.11.2019
4490 Clouds 13 1020 82 10000 5.1 180 09:21 13.11.2019
4491 Clouds 13 1020 82 10000 5.1 180 09:21 13.11.2019
4492 Clouds 11 1019 82 10000 5.1 180 08:44 13.11.2019
4493 Clouds 11 1019 82 10000 5.1 180 08:25 13.11.2019
4494 Clouds 11 1019 100 10000 1.5 130 07:59 13.11.2019
4495 Clouds 8 1019 100 10000 1.5 110 07:40 13.11.2019
4496 Clouds 8 1019 100 10000 1.5 110 07:19 13.11.2019
4497 Clouds 8 1019 100 5000 1.5 110 06:42 13.11.2019
4498 Clouds 8 1019 100 5000 1 100 06:19 13.11.2019
4499 Clouds 8 1019 100 8000 1.5 100 05:48 13.11.2019
4500 Clouds 15 1019 100 8000 1.5 100 05:22 13.11.2019
4501 Clouds 13 1019 100 6000 2.1 80 03:57 13.11.2019
4502 Clouds 13 1019 100 8000 1.5 100 01:52 13.11.2019
4503 Clouds 13 1020 100 8000 2.1 90 01:27 13.11.2019
4504 Clouds 13 1020 100 8000 2.1 90 01:27 13.11.2019
4505 Clouds 13 1020 100 8000 2.1 90 01:27 13.11.2019
4506 Clouds 14 1020 100 8000 2.1 70 00:43 13.11.2019
4507 Clouds 14 1020 100 7000 2.1 120 23:57 12.11.2019
4508 Clouds 14 1020 100 8000 1.5 60 23:39 12.11.2019
4509 Clouds 14 1020 100 8000 1.5 60 23:19 12.11.2019
4510 Clouds 16 1020 100 10000 1.5 40 22:43 12.11.2019
4511 Clouds 17 1020 87 10000 2.1 30 22:19 12.11.2019
4512 Clouds 16 1020 93 10000 1 0 21:57 12.11.2019
4513 Clear 16 1019 72 8000 2.1 360 21:38 12.11.2019
4514 Clear 16 1019 72 8000 2.1 360 21:20 12.11.2019
4515 Clouds 17 1020 93 10000 2.6 350 20:55 12.11.2019
4516 Clear 17 1019 72 8000 2.1 360 20:37 12.11.2019
4517 Clear 17 1019 72 8000 2.1 360 20:37 12.11.2019
4518 Clear 17 1019 72 8000 2.1 360 20:18 12.11.2019
4519 Clouds 17 1019 72 10000 3.1 20 19:55 12.11.2019
4520 Clouds 17 1019 72 10000 3.1 20 19:37 12.11.2019
4521 Clouds 17 1019 72 10000 3.1 20 19:18 12.11.2019
4522 Clouds 18 1019 77 10000 3.6 350 18:55 12.11.2019
4523 Clouds 18 1019 72 10000 3.6 360 18:37 12.11.2019
4524 Clouds 18 1019 72 10000 3.6 360 18:19 12.11.2019
4525 Clouds 19 1019 72 10000 4.1 320 17:55 12.11.2019
4526 Clouds 19 1019 63 10000 5.1 320 17:36 12.11.2019
4527 Clouds 19 1019 63 10000 5.1 320 17:18 12.11.2019
4528 Clouds 19 1019 63 10000 5.1 320 17:18 12.11.2019
4529 Clouds 19 1019 59 10000 4.1 320 16:43 12.11.2019
4530 Clouds 20 1019 56 10000 3.6 310 16:25 12.11.2019
4531 Clouds 20 1019 60 10000 3.6 300 15:57 12.11.2019
4532 Clouds 20 1019 60 10000 3.6 300 15:57 12.11.2019
4533 Clouds 19 1019 56 10000 3.1 300 15:37 12.11.2019
4534 Clouds 19 1019 56 10000 3.1 300 15:18 12.11.2019
4535 Clouds 20 1019 52 10000 3.1 280 14:42 12.11.2019
4536 Clouds 20 1020 60 10000 4.6 360 14:21 12.11.2019
4537 Clouds 20 1020 60 10000 4.6 360 13:59 12.11.2019
4538 Clouds 20 1020 60 10000 4.6 360 13:40 12.11.2019
4539 Clouds 20 1020 60 10000 4.6 360 13:19 12.11.2019
4540 Clouds 19 1020 63 10000 1.5 0 12:59 12.11.2019
4541 Clouds 19 1020 63 10000 1.5 0 12:59 12.11.2019
4542 Clouds 19 1020 63 10000 3.1 360 12:39 12.11.2019
4543 Clouds 19 1020 63 10000 3.1 360 12:18 12.11.2019
4544 Clouds 18 1021 77 10000 1.5 290 11:43 12.11.2019
4545 Clouds 18 1020 63 10000 2.1 320 11:24 12.11.2019
4546 Clouds 16 1020 100 10000 1 0 10:58 12.11.2019
4547 Clouds 16 1020 100 10000 1.5 260 10:40 12.11.2019
4548 Clouds 16 1020 100 10000 1.5 260 10:22 12.11.2019
4549 Mist 16 1020 100 4000 1 0 09:59 12.11.2019
4550 Mist 16 1020 100 2000 2.1 220 09:39 12.11.2019
4551 Mist 16 1020 100 2000 2.1 220 09:18 12.11.2019
4552 Clouds 16 1019 100 300 2.1 210 08:48 12.11.2019
4553 Clouds 16 1018 82 10000 2.6 340 08:28 12.11.2019
4554 Fog 16 1018 100 300 2.6 190 07:42 12.11.2019
4555 Fog 15 1019 100 800 2.6 200 07:24 12.11.2019
4556 Mist 16 1019 93 1500 2.6 220 06:51 12.11.2019
4557 Fog 16 1019 100 600 2.1 200 06:26 12.11.2019
4558 Mist 16 1019 93 4000 2.6 190 05:52 12.11.2019
4559 Rain 16 1019 93 8000 2.6 210 04:51 12.11.2019
4560 Clouds 16 1019 93 8000 2.6 180 04:20 12.11.2019
4561 Drizzle 16 1020 93 8000 2.6 200 01:58 12.11.2019
4562 Clouds 16 1020 93 10000 2.6 180 01:27 12.11.2019
4563 Clouds 16 1020 93 10000 2.1 190 00:55 12.11.2019
4564 Clouds 16 1020 93 10000 2.1 220 00:37 12.11.2019
4565 Clouds 16 1020 93 10000 2.1 250 23:55 11.11.2019
4566 Clouds 16 1021 93 8000 2.6 240 23:37 11.11.2019
4567 Clouds 16 1021 93 8000 2.6 240 23:18 11.11.2019
4568 Drizzle 16 1021 100 8000 2.1 250 22:38 11.11.2019
4569 Drizzle 16 1021 100 8000 2.1 250 22:20 11.11.2019
4570 Drizzle 17 1021 100 6000 3.1 250 21:58 11.11.2019
4571 Clouds 17 1021 88 10000 4.1 240 21:39 11.11.2019
4572 Clouds 17 1021 88 10000 4.1 240 21:20 11.11.2019
4573 Clouds 17 1021 93 10000 2.1 210 20:55 11.11.2019
4574 Clouds 17 1021 82 0 4.6 240 20:37 11.11.2019
4575 Clouds 17 1021 82 0 4.6 240 20:19 11.11.2019
4576 Clouds 17 1021 82 10000 3.6 260 19:42 11.11.2019
4577 Clouds 17 1021 82 10000 3.6 260 19:20 11.11.2019
4578 Clouds 17 1021 82 10000 2.6 260 18:59 11.11.2019
4579 Clouds 17 1021 82 10000 4.6 240 18:40 11.11.2019
4580 Clouds 18 1021 82 10000 4.6 240 18:21 11.11.2019
4581 Clouds 18 1022 82 10000 5.7 280 17:45 11.11.2019
4582 Clouds 18 1021 82 10000 4.6 260 17:27 11.11.2019
4583 Clouds 18 1021 77 10000 3.6 260 16:58 11.11.2019
4584 Clouds 18 1021 72 10000 6.2 260 16:38 11.11.2019
4585 Clouds 18 1021 72 10000 6.2 260 16:20 11.11.2019
4586 Clouds 18 1021 82 10000 3.6 260 15:41 11.11.2019
4587 Clouds 18 1021 77 10000 5.1 260 15:20 11.11.2019
4588 Clouds 18 1022 93 6000 3.6 240 14:55 11.11.2019
4589 Clouds 18 1022 77 10000 4.1 280 14:37 11.11.2019
4590 Clouds 18 1022 77 10000 4.1 280 14:19 11.11.2019
4591 Rain 18 1022 77 6000 3.1 260 13:54 11.11.2019
4592 Rain 18 1023 72 10000 2.1 260 13:36 11.11.2019
4593 Rain 18 1023 72 10000 2.1 260 13:18 11.11.2019
4594 Clouds 18 1023 72 10000 2.1 180 12:54 11.11.2019
4595 Clouds 17 1023 77 10000 4.1 200 12:36 11.11.2019
4596 Clouds 17 1023 77 10000 4.1 200 12:18 11.11.2019
4597 Clouds 16 1024 82 10000 3.1 200 11:40 11.11.2019
4598 Clouds 16 1024 82 10000 3.1 200 11:21 11.11.2019
4599 Clouds 16 1024 82 10000 3.1 200 11:21 11.11.2019
4600 Clouds 15 1025 93 10000 3.1 160 10:43 11.11.2019
4601 Clouds 15 1024 93 10000 2.1 220 10:19 11.11.2019
4602 Clouds 15 1024 100 10000 2.1 150 09:58 11.11.2019
4603 Clouds 15 1024 87 10000 3.1 200 09:40 11.11.2019
4604 Clouds 14 1024 87 10000 3.1 200 09:19 11.11.2019
4605 Clouds 14 1024 100 10000 2.6 220 08:41 11.11.2019
4606 Clouds 14 1023 87 8000 2.1 200 08:22 11.11.2019
4607 Clouds 14 1024 100 10000 3.1 160 07:57 11.11.2019
4608 Clouds 13 1024 100 10000 3.1 180 07:37 11.11.2019
4609 Clouds 13 1024 100 10000 3.1 180 07:37 11.11.2019
4610 Clouds 14 1024 100 10000 3.1 180 07:19 11.11.2019
4611 Mist 14 1024 100 5000 2.6 180 06:49 11.11.2019
4612 Mist 14 1024 100 5000 2.6 180 06:49 11.11.2019
4613 Mist 14 1024 100 5000 3.1 200 06:24 11.11.2019
4614 Rain 15 1024 100 6000 2.6 160 05:51 11.11.2019
4615 Drizzle 15 1025 93 3000 0.5 150 04:50 11.11.2019
4616 Clouds 15 1025 87 10000 2.6 180 03:25 11.11.2019
4617 Rain 15 1026 71 6000 2.6 180 02:30 11.11.2019
4618 Clouds 15 1026 76 10000 2.1 190 01:57 11.11.2019
4619 Clouds 14 1026 76 10000 2.6 190 01:35 11.11.2019
4620 Clouds 14 1025 76 10000 3.1 190 00:51 11.11.2019
4621 Clouds 14 1026 76 10000 2.6 200 00:26 11.11.2019
4622 Clouds 14 1026 81 10000 2.1 180 23:56 10.11.2019
4623 Clouds 14 1026 81 10000 2.1 140 23:36 10.11.2019
4624 Clouds 14 1026 81 10000 2.1 140 23:18 10.11.2019
4625 Clouds 15 1026 76 10000 1 0 22:55 10.11.2019
4626 Clouds 15 1026 76 10000 1.5 330 22:36 10.11.2019
4627 Clouds 16 1026 76 10000 1.5 330 22:18 10.11.2019
4628 Clouds 15 1025 63 10000 2.1 360 21:40 10.11.2019
4629 Clouds 16 1025 63 10000 2.1 360 21:22 10.11.2019
4630 Clouds 16 1025 76 10000 2.6 330 20:59 10.11.2019
4631 Clouds 16 1025 63 10000 3.1 20 20:39 10.11.2019
4632 Clouds 17 1025 63 10000 3.1 20 20:21 10.11.2019
4633 Clouds 17 1026 67 10000 0.5 0 19:55 10.11.2019
4634 Clouds 17 1025 63 10000 3.1 20 19:37 10.11.2019
4635 Clouds 17 1025 63 10000 3.1 20 19:18 10.11.2019
4636 Clouds 17 1025 63 10000 2.6 360 18:56 10.11.2019
4637 Clouds 17 1025 63 10000 2.6 360 18:56 10.11.2019
4638 Clouds 17 1025 59 10000 3.1 20 18:38 10.11.2019
4639 Clouds 17 1025 59 10000 3.1 20 18:19 10.11.2019
4640 Clouds 18 1025 52 10000 5.1 340 17:55 10.11.2019
4641 Clouds 18 1025 52 10000 5.1 340 17:55 10.11.2019
4642 Clouds 18 1025 59 10000 6.2 20 17:37 10.11.2019
4643 Clouds 18 1025 59 10000 6.2 20 17:19 10.11.2019
4644 Clouds 18 1025 55 10000 5.7 350 16:56 10.11.2019
4645 Clouds 19 1024 55 10000 4.1 20 16:37 10.11.2019
4646 Clouds 19 1024 55 10000 4.1 20 16:37 10.11.2019
4647 Clouds 19 1024 55 10000 4.1 20 16:19 10.11.2019
4648 Clouds 19 1024 48 10000 5.1 330 15:54 10.11.2019
4649 Clouds 19 1024 52 10000 6.2 20 15:36 10.11.2019
4650 Clouds 19 1024 52 10000 6.2 20 15:18 10.11.2019
4651 Clouds 18 1025 68 10000 2.1 40 14:40 10.11.2019
4652 Clouds 18 1025 68 10000 2.1 40 14:22 10.11.2019
4653 Clouds 19 1025 55 10000 5.1 350 13:56 10.11.2019
4654 Clouds 19 1025 52 10000 7.7 40 13:38 10.11.2019
4655 Clouds 19 1025 52 10000 7.7 40 13:19 10.11.2019
4656 Clouds 18 1026 63 10000 4.1 340 12:42 10.11.2019
4657 Clouds 18 1026 68 10000 1.5 280 12:20 10.11.2019
4658 Clouds 18 1026 68 10000 1.5 280 12:20 10.11.2019
4659 Clouds 17 1026 67 10000 3.1 310 11:57 10.11.2019
4660 Clouds 16 1026 72 10000 3.1 260 11:38 10.11.2019
4661 Clouds 16 1026 72 10000 3.1 260 11:20 10.11.2019
4662 Clouds 15 1026 67 10000 2.1 220 10:56 10.11.2019
4663 Clouds 14 1026 76 10000 1.5 200 10:38 10.11.2019
4664 Clouds 14 1026 76 10000 1.5 200 10:38 10.11.2019
4665 Clouds 14 1026 76 10000 1.5 200 10:19 10.11.2019
4666 Clouds 13 1026 81 10000 2.1 180 09:42 10.11.2019
4667 Clouds 12 1025 71 8000 3.6 180 09:22 10.11.2019
4668 Clouds 10 1024 76 8000 3.6 180 08:40 10.11.2019
4669 Clouds 10 1024 76 8000 3.6 180 08:21 10.11.2019
4670 Clouds 9 1024 87 10000 2.1 180 07:56 10.11.2019
4671 Clouds 9 1024 76 10000 3.6 200 07:37 10.11.2019
4672 Clouds 10 1024 76 10000 3.6 200 07:18 10.11.2019
4673 Clouds 6 1024 87 10000 3.6 140 06:22 10.11.2019
4674 Clear 12 1025 87 10000 1.5 180 04:46 10.11.2019
4675 Clear 11 1025 87 10000 1.5 130 02:59 10.11.2019
4676 Clouds 12 1025 87 10000 2.1 120 01:43 10.11.2019
4677 Clouds 13 1026 81 10000 2.1 100 01:19 10.11.2019
4678 Clouds 13 1026 81 10000 2.1 40 00:39 10.11.2019
4679 Clouds 16 1025 63 0 4.02 20 23:43 09.11.2019
4680 Clouds 13 1026 81 10000 2.1 80 23:20 09.11.2019
4681 Clouds 16 1025 63 0 4.02 20 22:55 09.11.2019
4682 Clouds 14 1026 67 10000 2.1 20 22:37 09.11.2019
4683 Clouds 15 1026 67 10000 2.1 20 22:18 09.11.2019
4684 Clouds 16 1025 63 10000 4.1 20 21:55 09.11.2019
4685 Clouds 15 1025 63 10000 4.1 20 21:37 09.11.2019
4686 Clouds 15 1025 63 10000 4.1 20 21:19 09.11.2019
4687 Clouds 16 1025 63 10000 5.1 20 20:41 09.11.2019
4688 Clouds 16 1025 63 10000 5.1 20 20:22 09.11.2019
4689 Clouds 16 1025 67 10000 4.6 350 19:57 09.11.2019
4690 Clouds 16 1025 63 10000 5.7 20 19:36 09.11.2019
4691 Clouds 16 1025 63 10000 5.7 20 19:18 09.11.2019
4692 Clouds 17 1024 59 10000 5.1 20 18:40 09.11.2019
4693 Clouds 17 1024 59 10000 5.1 20 18:19 09.11.2019
4694 Clouds 17 1024 51 10000 6.2 350 17:58 09.11.2019
4695 Clouds 18 1024 55 10000 5.7 20 17:40 09.11.2019
4696 Clouds 18 1024 55 10000 5.7 20 17:21 09.11.2019
4697 Clouds 18 1023 45 10000 6.2 350 16:42 09.11.2019
4698 Clouds 18 1023 52 10000 4.1 40 16:21 09.11.2019
4699 Clouds 18 1023 42 10000 6.2 350 15:55 09.11.2019
4700 Clouds 18 1023 42 10000 6.2 350 15:55 09.11.2019
4701 Clouds 18 1024 52 10000 6.2 60 15:37 09.11.2019
4702 Clouds 18 1024 52 10000 6.2 60 15:19 09.11.2019
4703 Clouds 19 1024 39 10000 6.7 10 14:41 09.11.2019
4704 Clouds 18 1024 45 10000 6.2 60 14:21 09.11.2019
4705 Clouds 18 1025 42 10000 7.2 10 13:57 09.11.2019
4706 Clouds 18 1025 48 10000 5.1 20 13:37 09.11.2019
4707 Clouds 18 1025 48 10000 5.1 20 13:18 09.11.2019
4708 Clouds 18 1025 42 10000 8.2 20 12:47 09.11.2019
4709 Clouds 18 1025 45 10000 6.2 40 12:29 09.11.2019
4710 Clouds 18 1025 45 10000 6.2 20 11:57 09.11.2019
4711 Clouds 17 1025 45 10000 6.2 120 11:38 09.11.2019
4712 Clouds 17 1025 45 10000 6.2 120 11:19 09.11.2019
4713 Clouds 15 1025 51 10000 3.1 160 10:41 09.11.2019
4714 Clouds 15 1025 51 10000 3.1 160 10:19 09.11.2019
4715 Clouds 13 1025 76 10000 2.1 60 09:59 09.11.2019
4716 Clouds 12 1024 62 10000 3.1 140 09:40 09.11.2019
4717 Clouds 12 1024 62 10000 3.1 140 09:19 09.11.2019
4718 Clouds 9 1024 87 10000 1 0 08:43 09.11.2019
4719 Clear 9 1024 71 10000 3.1 140 08:24 09.11.2019
4720 Clear 9 1024 87 10000 2.1 70 07:48 09.11.2019
4721 Clear 10 1023 71 10000 3.1 120 07:24 09.11.2019
4722 Clear 7 1023 87 10000 1.5 80 06:56 09.11.2019
4723 Clear 8 1023 81 10000 2.6 50 06:38 09.11.2019
4724 Clear 8 1023 81 10000 2.6 50 06:19 09.11.2019
4725 Clear 8 1023 81 10000 2.6 50 05:37 09.11.2019
4726 Clear 12 1024 81 10000 2.6 60 03:57 09.11.2019
4727 Clear 13 1024 81 10000 3.1 40 02:45 09.11.2019
4728 Clear 14 1024 71 10000 2.6 20 02:22 09.11.2019
4729 Clear 13 1024 81 10000 2.6 60 00:57 09.11.2019
4730 Clear 14 1024 76 10000 2.6 40 00:39 09.11.2019
4731 Clear 14 1024 76 10000 2.6 40 00:20 09.11.2019
4732 Clear 14 1024 71 10000 3.1 10 23:40 08.11.2019
4733 Clear 14 1024 71 10000 3.1 10 23:21 08.11.2019
4734 Clear 14 1024 71 10000 2.6 10 22:50 08.11.2019
4735 Clear 15 1024 67 10000 3.1 10 22:22 08.11.2019
4736 Clouds 15 1024 62 10000 3.6 10 21:58 08.11.2019
4737 Clear 15 1023 63 10000 2.6 40 21:40 08.11.2019
4738 Clear 15 1023 63 10000 2.6 40 21:22 08.11.2019
4739 Clouds 16 1023 58 10000 3.6 350 20:54 08.11.2019
4740 Clear 16 1023 63 10000 4.6 40 20:36 08.11.2019
4741 Clear 16 1023 63 10000 4.6 40 20:36 08.11.2019
4742 Clear 16 1023 63 10000 4.6 40 20:18 08.11.2019
4743 Clouds 16 1022 63 10000 5.1 60 19:39 08.11.2019
4744 Clouds 16 1022 63 10000 5.1 60 19:19 08.11.2019
4745 Clouds 16 1022 63 10000 5.1 60 19:19 08.11.2019
4746 Clouds 17 1022 63 10000 5.1 360 18:56 08.11.2019
4747 Clouds 17 1022 63 10000 5.1 360 18:56 08.11.2019
4748 Clouds 17 1022 63 10000 5.7 60 18:38 08.11.2019
4749 Clouds 17 1022 63 10000 5.7 60 18:20 08.11.2019
4750 Clouds 18 1022 52 10000 5.1 360 17:56 08.11.2019
4751 Clouds 18 1022 52 10000 5.1 360 17:56 08.11.2019
4752 Clouds 18 1022 63 10000 5.7 40 17:37 08.11.2019
4753 Clouds 18 1022 63 10000 5.7 40 17:19 08.11.2019
4754 Clouds 18 1022 63 10000 5.7 40 17:19 08.11.2019
4755 Clouds 19 1021 45 10000 6.2 360 16:58 08.11.2019
4756 Clouds 19 1021 55 10000 5.7 60 16:39 08.11.2019
4757 Clouds 19 1021 55 10000 5.7 60 16:39 08.11.2019
4758 Clouds 19 1021 55 10000 5.7 60 16:39 08.11.2019
4759 Clouds 19 1021 55 10000 5.7 60 16:20 08.11.2019
4760 Clouds 19 1021 55 10000 5.7 60 16:20 08.11.2019
4761 Clouds 18 1021 52 10000 6.2 360 15:59 08.11.2019
4762 Clouds 19 1022 55 10000 6.7 60 15:40 08.11.2019
4763 Clouds 19 1022 55 10000 6.7 60 15:22 08.11.2019
4764 Clouds 19 1022 45 10000 6.2 340 14:56 08.11.2019
4765 Clouds 19 1022 49 10000 4.1 40 14:37 08.11.2019
4766 Clouds 19 1022 49 10000 4.1 40 14:18 08.11.2019
4767 Clouds 19 1022 49 10000 4.1 40 14:18 08.11.2019
4768 Clouds 19 1022 45 10000 3.1 360 13:57 08.11.2019
4769 Clouds 19 1022 49 10000 3.6 40 13:38 08.11.2019
4770 Clouds 19 1022 49 10000 3.6 40 13:19 08.11.2019
4771 Clouds 18 1023 52 10000 4.1 10 12:43 08.11.2019
4772 Clouds 18 1023 52 10000 3.1 60 12:24 08.11.2019
4773 Clouds 19 1023 49 10000 4.1 20 11:57 08.11.2019
4774 Clouds 18 1023 59 10000 4.1 20 11:38 08.11.2019
4775 Clouds 18 1023 59 10000 4.1 20 11:20 08.11.2019
4776 Clouds 18 1023 59 10000 4.1 20 11:20 08.11.2019
4777 Clouds 18 1022 52 10000 2.6 60 10:56 08.11.2019
4778 Clouds 18 1022 52 0 2.24 60 10:38 08.11.2019
4779 Clouds 17 1022 55 10000 5.1 20 10:20 08.11.2019
4780 Clouds 13 1022 55 10000 5.1 20 09:41 08.11.2019
4781 Clouds 13 1022 55 10000 5.1 20 09:20 08.11.2019
4782 Clouds 13 1022 55 10000 5.1 20 09:20 08.11.2019
4783 Clouds 13 1022 100 10000 0.5 0 08:59 08.11.2019
4784 Clouds 13 1021 59 10000 6.2 20 08:37 08.11.2019
4785 Clouds 13 1021 59 10000 6.2 20 08:18 08.11.2019
4786 Clouds 13 1021 72 10000 2.1 20 07:40 08.11.2019
4787 Clouds 13 1021 72 10000 2.1 20 07:22 08.11.2019
4788 Clouds 11 1020 100 10000 2.1 50 06:41 08.11.2019
4789 Clouds 11 1020 100 10000 2.1 50 06:22 08.11.2019
4790 Clouds 11 1020 93 10000 2.1 70 05:55 08.11.2019
4791 Clouds 14 1020 76 10000 2.6 10 05:21 08.11.2019
4792 Clouds 14 1020 82 10000 2.6 360 03:44 08.11.2019
4793 Clouds 14 1020 82 10000 2.6 350 03:23 08.11.2019
4794 Clouds 15 1020 82 10000 3.1 350 02:45 08.11.2019
4795 Clouds 15 1020 82 10000 3.1 340 01:47 08.11.2019
4796 Clouds 15 1020 87 10000 3.6 330 01:24 08.11.2019
4797 Clouds 18 1020 77 10000 3.1 340 00:24 08.11.2019
4798 Rain 17 1020 93 6000 4.1 360 23:58 07.11.2019
4799 Rain 17 1020 100 6000 3.1 360 23:40 07.11.2019
4800 Rain 17 1020 100 6000 3.1 360 23:22 07.11.2019
4801 Rain 17 1020 100 6000 3.1 360 22:42 07.11.2019
4802 Rain 17 1019 100 6000 3.1 360 22:22 07.11.2019
4803 Rain 17 1019 100 6000 3.1 360 22:22 07.11.2019
4804 Clouds 17 1019 87 5000 2.1 320 21:56 07.11.2019
4805 Clouds 17 1019 87 10000 2.1 300 21:37 07.11.2019
4806 Clouds 17 1019 87 10000 2.1 300 21:19 07.11.2019
4807 Clouds 17 1019 87 10000 1 300 20:58 07.11.2019
4808 Clouds 17 1018 82 10000 5.1 320 20:39 07.11.2019
4809 Clouds 17 1018 82 10000 5.1 320 20:21 07.11.2019
4810 Clouds 17 1018 82 10000 2.1 320 19:55 07.11.2019
4811 Clouds 18 1018 77 10000 3.1 320 19:36 07.11.2019
4812 Clouds 18 1018 77 10000 3.1 320 19:18 07.11.2019
4813 Clouds 19 1018 68 10000 4.1 320 18:55 07.11.2019
4814 Clouds 19 1018 68 10000 4.1 320 18:37 07.11.2019
4815 Clouds 19 1018 68 10000 4.1 320 18:37 07.11.2019
4816 Clouds 19 1018 68 10000 4.1 320 18:19 07.11.2019
4817 Clouds 20 1017 56 10000 4.6 310 17:40 07.11.2019
4818 Clouds 20 1017 56 10000 4.6 310 17:21 07.11.2019
4819 Clouds 20 1017 56 10000 4.6 310 16:58 07.11.2019
4820 Clouds 20 1017 56 10000 4.6 310 16:40 07.11.2019
4821 Clouds 20 1017 56 10000 4.1 310 16:20 07.11.2019
4822 Clouds 20 1017 56 10000 3.6 330 15:57 07.11.2019
4823 Clouds 20 1017 56 10000 3.6 330 15:39 07.11.2019
4824 Clouds 20 1017 56 10000 4.1 280 15:19 07.11.2019
4825 Clouds 21 1018 49 10000 2.1 290 14:45 07.11.2019
4826 Clouds 20 1018 60 10000 4.1 340 14:27 07.11.2019
4827 Clouds 20 1018 49 10000 1.5 0 13:57 07.11.2019
4828 Clouds 20 1018 49 10000 1.5 0 13:39 07.11.2019
4829 Clouds 20 1019 56 10000 4.1 320 13:20 07.11.2019
4830 Clouds 19 1019 49 10000 2.1 0 12:58 07.11.2019
4831 Clouds 19 1019 49 10000 2.1 0 12:40 07.11.2019
4832 Clouds 19 1019 52 10000 3.1 180 12:21 07.11.2019
4833 Clouds 18 1019 48 10000 2.6 40 11:58 07.11.2019
4834 Clouds 18 1019 48 10000 2.6 40 11:39 07.11.2019
4835 Clouds 19 1019 52 10000 3.1 180 11:20 07.11.2019
4836 Clouds 17 1019 48 10000 3.1 110 10:40 07.11.2019
4837 Clouds 16 1019 67 10000 4.1 180 10:19 07.11.2019
4838 Clouds 15 1019 76 10000 2.1 130 09:44 07.11.2019
4839 Clouds 14 1018 72 10000 3.1 180 09:23 07.11.2019
4840 Clouds 14 1018 72 10000 3.1 180 09:23 07.11.2019
4841 Clouds 14 1018 72 10000 3.1 180 09:23 07.11.2019
4842 Clouds 13 1019 87 10000 2.1 110 08:57 07.11.2019
4843 Clouds 13 1019 87 10000 2.1 110 08:38 07.11.2019
4844 Clouds 13 1018 76 10000 3.1 180 08:20 07.11.2019
4845 Clouds 9 1018 93 10000 1 120 07:46 07.11.2019
4846 Clouds 9 1018 93 10000 1 120 07:45 07.11.2019
4847 -273 0 0 0 0 0 07:24 07.11.2019
4848 Clouds 8 1018 93 10000 2.1 100 07:22 07.11.2019
4849 Clouds 8 1018 93 10000 2.1 100 07:22 07.11.2019
4850 Clouds 8 1018 93 10000 1.5 90 06:58 07.11.2019
4851 Clouds 11 1018 93 10000 1.5 90 06:40 07.11.2019
4852 Clear 11 1018 93 10000 2.1 110 06:22 07.11.2019
4853 Clouds 8 1018 93 10000 2.1 100 05:47 07.11.2019
4854 Clouds 8 1018 93 10000 1.5 90 05:29 07.11.2019
4855 Clear 14 1018 87 10000 1.5 100 04:49 07.11.2019
4856 Clear 14 1018 87 10000 1.5 100 04:27 07.11.2019
4857 Clear 14 1020 81 10000 2.1 70 01:18 07.11.2019
4858 Clear 15 1020 82 10000 2.1 50 00:23 07.11.2019
4859 Clear 15 1020 82 10000 2.1 50 00:23 07.11.2019
4860 Clear 15 1020 82 10000 2.1 30 23:49 06.11.2019
4861 Clear 15 1020 82 10000 1.5 30 23:23 06.11.2019
4862 Clear 15 1020 76 10000 2.1 30 22:58 06.11.2019
4863 Clear 15 1020 76 10000 2.1 30 22:39 06.11.2019
4864 Clear 15 1020 76 10000 2.1 30 22:39 06.11.2019
4865 Clear 16 1020 76 10000 2.1 30 22:19 06.11.2019
4866 Clear 16 1020 76 10000 2.1 40 21:57 06.11.2019
4867 Clear 16 1020 76 10000 2.1 40 21:38 06.11.2019
4868 Clear 16 1020 76 10000 2.1 40 21:38 06.11.2019
4869 Clouds 16 1020 67 10000 3.1 20 21:19 06.11.2019
4870 Clouds 16 1020 72 10000 2.6 360 20:55 06.11.2019
4871 Clouds 17 1020 72 10000 2.6 360 20:37 06.11.2019
4872 Clouds 17 1020 67 10000 4.1 20 20:19 06.11.2019
4873 Clouds 17 1020 63 10000 3.1 350 19:40 06.11.2019
4874 Clouds 18 1019 59 10000 3.6 350 19:22 06.11.2019
4875 Clouds 18 1019 59 10000 5.1 350 18:59 06.11.2019
4876 Clouds 18 1019 59 10000 5.1 350 18:59 06.11.2019
4877 Clouds 18 1019 59 10000 5.1 20 18:39 06.11.2019
4878 Clouds 18 1019 59 10000 5.1 20 18:20 06.11.2019
4879 Clouds 19 1019 48 10000 4.6 350 17:59 06.11.2019
4880 Clouds 19 1019 55 10000 6.7 40 17:41 06.11.2019
4881 Clouds 19 1019 55 10000 6.7 40 17:22 06.11.2019
4882 Clouds 19 1019 52 10000 6.2 340 16:56 06.11.2019
4883 Clouds 20 1019 52 10000 6.7 20 16:38 06.11.2019
4884 Clouds 20 1019 52 10000 6.7 20 16:38 06.11.2019
4885 Clouds 20 1019 52 10000 6.7 20 16:19 06.11.2019
4886 Clouds 20 1019 52 10000 5.7 340 15:56 06.11.2019
4887 Clouds 20 1020 56 10000 8.7 20 15:37 06.11.2019
4888 Clouds 20 1020 56 10000 8.7 20 15:19 06.11.2019
4889 Clouds 20 1020 56 10000 6.7 10 14:56 06.11.2019
4890 Clouds 20 1020 60 10000 7.7 20 14:38 06.11.2019
4891 Clouds 20 1020 60 10000 7.7 20 14:20 06.11.2019
4892 Clouds 20 1021 60 10000 5.1 360 13:41 06.11.2019
4893 Clouds 20 1021 60 10000 5.1 360 13:23 06.11.2019
4894 Clouds 19 1021 59 10000 3.8 13 12:58 06.11.2019
4895 Clouds 19 1021 56 10000 5.7 360 12:40 06.11.2019
4896 Clouds 19 1021 56 10000 5.7 360 12:21 06.11.2019
4897 Clouds 18 1022 68 10000 1.5 0 11:58 06.11.2019
4898 Clouds 18 1021 63 10000 1 160 11:38 06.11.2019
4899 Clouds 18 1021 63 10000 1 160 11:19 06.11.2019
4900 Clouds 16 1022 77 10000 1.5 130 10:57 06.11.2019
4901 Clouds 15 1021 72 10000 2.6 160 10:39 06.11.2019
4902 Clouds 15 1021 72 10000 2.6 160 10:39 06.11.2019
4903 Clouds 15 1021 72 10000 2.6 160 10:20 06.11.2019
4904 Clouds 15 1021 72 10000 2.6 160 10:20 06.11.2019
4905 Clouds 14 1021 100 10000 1 90 09:56 06.11.2019
4906 Clouds 14 1021 87 8000 2.6 120 09:36 06.11.2019
4907 Clouds 13 1021 87 8000 2.6 120 09:18 06.11.2019
4908 Clouds 11 1021 100 10000 1.5 140 08:54 06.11.2019
4909 Clouds 10 1020 82 10000 2.1 180 08:36 06.11.2019
4910 Clouds 10 1020 82 10000 2.1 180 08:36 06.11.2019
4911 Clouds 11 1020 82 10000 2.1 180 08:18 06.11.2019
4912 Clouds 10 1020 87 10000 3.1 180 07:40 06.11.2019
4913 Clouds 10 1020 87 10000 3.1 180 07:22 06.11.2019
4914 Clouds 9 1020 93 10000 1.5 110 06:47 06.11.2019
4915 Clouds 9 1020 93 10000 1.5 80 06:27 06.11.2019
4916 Clouds 14 1020 93 10000 0.5 0 04:52 06.11.2019
4917 Clouds 13 1021 93 10000 1 90 02:28 06.11.2019
4918 Clouds 13 1022 93 10000 2.1 110 01:38 06.11.2019
4919 Clouds 14 1022 93 10000 2.1 100 00:46 06.11.2019
4920 Clouds 14 1022 93 10000 1 0 23:58 05.11.2019
4921 Clouds 14 1022 93 10000 1.5 80 23:39 05.11.2019
4922 Clouds 14 1022 93 10000 1.5 80 23:39 05.11.2019
4923 Clouds 14 1022 93 10000 1.5 80 23:39 05.11.2019
4924 Clouds 14 1022 93 10000 1.5 80 23:21 05.11.2019
4925 Clouds 14 1022 93 10000 1.5 80 23:21 05.11.2019
4926 Clouds 14 1022 93 10000 1 60 22:46 05.11.2019
4927 Clouds 15 1022 93 10000 1 0 22:20 05.11.2019
4928 Clouds 15 1022 87 10000 2.1 70 21:59 05.11.2019
4929 Clouds 15 1022 87 10000 2.1 70 21:59 05.11.2019
4930 Clouds 15 1021 77 10000 1 120 21:41 05.11.2019
4931 Clouds 15 1021 77 10000 1 120 21:21 05.11.2019
4932 Clouds 15 1022 87 10000 2.6 50 20:59 05.11.2019
4933 Clouds 16 1021 77 10000 2.1 360 20:39 05.11.2019
4934 Clouds 17 1021 77 10000 2.1 360 20:20 05.11.2019
4935 Clouds 17 1021 77 10000 3.1 360 19:57 05.11.2019
4936 Clouds 17 1021 72 10000 3.1 360 19:38 05.11.2019
4937 Clouds 17 1021 72 10000 3.1 360 19:38 05.11.2019
4938 Clouds 18 1021 72 10000 3.1 360 19:20 05.11.2019
4939 Clouds 18 1021 72 10000 3.1 360 18:57 05.11.2019
4940 Clouds 17 1021 72 10000 2.1 360 18:39 05.11.2019
4941 Clouds 19 1021 72 10000 2.1 360 18:20 05.11.2019
4942 Clouds 19 1021 72 10000 2.1 360 18:20 05.11.2019
4943 Clouds 19 1020 72 10000 3.1 360 17:57 05.11.2019
4944 Clouds 18 1021 72 10000 3.1 360 17:38 05.11.2019
4945 Clouds 18 1021 72 10000 3.1 360 17:18 05.11.2019
4946 Clouds 18 1020 68 10000 4.1 340 16:54 05.11.2019
4947 Clouds 17 1020 72 10000 2.1 360 16:36 05.11.2019
4948 Clouds 18 1020 72 10000 2.1 360 16:18 05.11.2019
4949 Clouds 17 1021 72 10000 4.1 20 15:37 05.11.2019
4950 Clouds 18 1021 72 10000 4.1 20 15:19 05.11.2019
4951 Clouds 18 1021 72 10000 4.1 20 15:19 05.11.2019
4952 Clouds 17 1020 72 10000 2.1 20 14:57 05.11.2019
4953 Clouds 17 1020 72 10000 2.1 20 14:38 05.11.2019
4954 Clouds 17 1020 72 10000 2.1 20 14:20 05.11.2019
4955 Clouds 17 1021 93 10000 2.1 360 13:43 05.11.2019
4956 Clouds 17 1021 88 10000 3.1 100 13:24 05.11.2019
4957 Clouds 16 1021 93 10000 5.1 340 12:59 05.11.2019
4958 Clouds 16 1021 88 10000 4.1 340 12:39 05.11.2019
4959 Clouds 16 1021 88 10000 4.1 340 12:19 05.11.2019
4960 Rain 16 1021 93 5000 7.2 340 11:54 05.11.2019
4961 Rain 16 1022 100 5000 7.2 360 11:36 05.11.2019
4962 Rain 16 1022 100 5000 7.2 360 11:36 05.11.2019
4963 Rain 16 1022 100 5000 7.2 360 11:18 05.11.2019
4964 Rain 17 1020 93 5000 4.1 40 10:41 05.11.2019
4965 Rain 17 1020 93 5000 4.1 40 10:23 05.11.2019
4966 Rain 17 1020 93 5000 4.1 40 10:23 05.11.2019
4967 Clouds 17 1020 88 10000 4.1 200 09:57 05.11.2019
4968 Rain 17 1019 82 10000 6.2 260 09:38 05.11.2019
4969 Rain 17 1019 82 10000 6.2 260 09:18 05.11.2019
4970 Clouds 17 1019 82 10000 4.1 220 08:40 05.11.2019
4971 Clouds 17 1019 82 10000 4.1 220 08:20 05.11.2019
4972 Clouds 17 1019 93 10000 4.1 180 07:59 05.11.2019
4973 Rain 17 1019 82 10000 3.1 200 07:40 05.11.2019
4974 Rain 17 1019 82 10000 3.1 200 07:22 05.11.2019
4975 Clouds 17 1019 93 10000 4.1 180 06:50 05.11.2019
4976 Clouds 18 1019 82 10000 4.1 200 05:51 05.11.2019
4977 Rain 18 1019 93 8000 3.6 180 05:24 05.11.2019
4978 Rain 18 1020 87 8000 3.1 180 04:47 05.11.2019
4979 Clouds 18 1020 87 10000 2.6 180 03:56 05.11.2019
4980 Clouds 18 1020 88 10000 2.6 170 02:55 05.11.2019
4981 Clouds 18 1020 88 10000 2.1 190 02:29 05.11.2019
4982 Clouds 18 1020 93 10000 2.1 170 01:26 05.11.2019
4983 Clouds 18 1021 100 10000 2.1 190 00:38 05.11.2019
4984 Clouds 18 1021 93 10000 2.1 230 23:59 04.11.2019
4985 Clouds 18 1021 93 10000 2.6 250 23:38 04.11.2019
4986 Clouds 18 1021 93 10000 2.6 250 23:18 04.11.2019
4987 Clouds 18 1021 93 10000 2.6 250 23:18 04.11.2019
4988 Clouds 18 1021 93 10000 2.6 260 22:43 04.11.2019
4989 Clouds 18 1020 88 10000 2.6 260 22:24 04.11.2019
4990 Clouds 18 1020 88 10000 2.6 260 21:57 04.11.2019
4991 Clouds 18 1019 82 10000 3.1 300 21:38 04.11.2019
4992 Clouds 18 1019 82 10000 3.1 300 21:20 04.11.2019
4993 Clouds 19 1020 82 10000 3.1 280 20:59 04.11.2019
4994 Clouds 19 1019 82 10000 3.1 300 20:40 04.11.2019
4995 Clouds 19 1019 82 10000 3.1 300 20:21 04.11.2019
4996 Clouds 19 1019 82 10000 3.1 300 20:21 04.11.2019
4997 Clouds 19 1019 72 10000 2.6 310 19:59 04.11.2019
4998 Clouds 20 1018 77 10000 3.1 300 19:41 04.11.2019
4999 Clouds 20 1018 77 10000 3.1 300 19:22 04.11.2019
5000 Clouds 20 1019 64 10000 3.6 300 18:58 04.11.2019
5001 Clouds 21 1018 56 10000 4.1 310 18:39 04.11.2019
5002 Clouds 21 1018 56 10000 4.1 310 18:19 04.11.2019
5003 Clouds 21 1018 49 10000 2.6 290 17:55 04.11.2019
5004 Clouds 21 1018 49 10000 2.6 290 17:55 04.11.2019
5005 Clouds 22 1018 64 10000 4.1 300 17:36 04.11.2019
5006 Clouds 22 1018 64 10000 4.1 300 17:18 04.11.2019
5007 Clouds 23 1018 47 10000 2.1 300 16:41 04.11.2019
5008 Clouds 23 1018 47 10000 2.1 300 16:23 04.11.2019
5009 Clouds 22 1019 49 10000 2.6 300 15:57 04.11.2019
5010 Clouds 22 1019 49 10000 4.1 80 15:39 04.11.2019
5011 Clouds 22 1019 49 10000 4.1 80 15:19 04.11.2019
5012 Clouds 22 1019 53 10000 3.1 310 14:57 04.11.2019
5013 Clouds 22 1019 53 10000 5.1 320 14:39 04.11.2019
5014 Clouds 22 1019 53 10000 5.1 320 14:19 04.11.2019
5015 Clouds 22 1020 53 10000 2.1 280 13:56 04.11.2019
5016 Clouds 22 1020 56 10000 3.1 320 13:38 04.11.2019
5017 Clouds 22 1020 56 10000 3.1 320 13:19 04.11.2019
5018 Clouds 22 1021 60 10000 3.6 310 12:44 04.11.2019
5019 Clouds 22 1021 56 10000 2.6 360 12:25 04.11.2019
5020 Clouds 21 1022 64 10000 2.1 240 11:58 04.11.2019
5021 Clouds 20 1021 73 10000 1.5 200 11:40 04.11.2019
5022 Clouds 20 1021 73 10000 1.5 200 11:21 04.11.2019
5023 Clouds 18 1022 82 10000 2.1 220 10:47 04.11.2019
5024 Clouds 18 1021 82 6000 3.1 180 10:26 04.11.2019
5025 Clouds 17 1021 93 10000 2.1 220 09:56 04.11.2019
5026 Clouds 17 1021 88 8000 3.6 200 09:38 04.11.2019
5027 Clouds 16 1021 88 8000 3.6 200 09:19 04.11.2019
5028 Clouds 16 1021 88 8000 3.6 200 09:19 04.11.2019
5029 Clouds 15 1020 87 8000 1.5 200 08:42 04.11.2019
5030 Clouds 15 1020 87 8000 1.5 200 08:22 04.11.2019
5031 Clouds 15 1020 100 10000 0.5 0 07:56 04.11.2019
5032 Clouds 15 1020 87 10000 1.5 200 07:38 04.11.2019
5033 Clouds 15 1020 87 10000 1.5 200 07:38 04.11.2019
5034 Clouds 15 1020 87 10000 1.5 200 07:19 04.11.2019
5035 Clouds 15 1020 100 9000 2.1 140 06:40 04.11.2019
5036 Clouds 15 1020 100 9000 2.1 140 06:18 04.11.2019
5037 Clouds 16 1020 100 6000 2.1 130 05:30 04.11.2019
5038 Clouds 15 1021 100 6000 1.5 140 04:27 04.11.2019
5039 Clouds 15 1021 100 8000 1 130 03:31 04.11.2019
5040 Clouds 17 1021 100 10000 1 360 01:24 04.11.2019
5041 Clouds 17 1021 100 10000 0.5 0 00:59 04.11.2019
5042 Clouds 17 1022 93 10000 0.5 0 00:22 04.11.2019
5043 Clouds 17 1022 93 10000 0.5 0 23:58 03.11.2019
5044 Clouds 17 1022 93 10000 1 330 23:37 03.11.2019
5045 Clouds 17 1022 93 10000 1 330 23:18 03.11.2019
5046 Clouds 17 1022 93 10000 1 330 23:18 03.11.2019
5047 Clouds 18 1022 93 10000 0.5 0 22:56 03.11.2019
5048 Clouds 18 1022 88 10000 1.5 10 22:38 03.11.2019
5049 Clouds 19 1022 88 10000 1.5 10 22:18 03.11.2019
5050 Clouds 19 1022 82 10000 0.5 60 21:42 03.11.2019
5051 Clouds 19 1021 77 10000 1.5 300 21:21 03.11.2019
5052 Clouds 19 1022 82 10000 1.5 350 20:58 03.11.2019
5053 Clouds 19 1021 72 10000 1.5 300 20:37 03.11.2019
5054 Clouds 19 1021 72 10000 1.5 300 20:19 03.11.2019
5055 Clouds 19 1021 72 10000 1.5 300 20:19 03.11.2019
5056 Clouds 19 1021 88 10000 1.5 330 19:57 03.11.2019
5057 Clouds 19 1021 77 10000 1.5 300 19:38 03.11.2019
5058 Clouds 19 1021 77 10000 1.5 300 19:20 03.11.2019
5059 Clouds 20 1021 88 10000 1 0 18:54 03.11.2019
5060 Clouds 20 1020 73 10000 3.6 320 18:36 03.11.2019
5061 Clouds 20 1020 73 10000 3.6 320 18:36 03.11.2019
5062 Clouds 20 1020 73 10000 3.6 320 18:18 03.11.2019
5063 Clouds 19 1020 73 8000 2.6 320 17:42 03.11.2019
5064 Clouds 20 1020 73 8000 2.6 320 17:20 03.11.2019
5065 Drizzle 20 1020 100 4000 4.6 320 16:56 03.11.2019
5066 Drizzle 20 1020 100 4000 4.6 320 16:56 03.11.2019
5067 Clouds 20 1020 82 6000 4.6 320 16:38 03.11.2019
5068 Clouds 19 1020 82 6000 4.6 320 16:20 03.11.2019
5069 Clouds 20 1020 94 8000 4.6 300 15:57 03.11.2019
5070 Clouds 20 1020 88 6000 2.1 320 15:39 03.11.2019
5071 Clouds 20 1020 88 6000 2.1 320 15:21 03.11.2019
5072 Rain 20 1020 88 3000 3.6 340 14:42 03.11.2019
5073 Rain 20 1020 88 3000 3.6 340 14:19 03.11.2019
5074 Rain 21 1020 88 5000 5.1 260 13:58 03.11.2019
5075 Clouds 21 1021 78 10000 6.7 280 13:40 03.11.2019
5076 Clouds 21 1021 78 10000 6.7 280 13:18 03.11.2019
5077 Clouds 21 1020 78 10000 8.2 280 12:39 03.11.2019
5078 Clouds 21 1020 78 10000 8.2 280 12:20 03.11.2019
5079 Clouds 22 1021 73 10000 4.6 210 11:58 03.11.2019
5080 Clouds 21 1020 73 10000 3.6 260 11:40 03.11.2019
5081 Clouds 21 1020 73 10000 3.6 260 11:20 03.11.2019
5082 Clouds 21 1020 73 10000 3.6 260 11:20 03.11.2019
5083 Clouds 21 1020 77 10000 5.1 220 10:54 03.11.2019
5084 Clouds 21 1020 77 10000 5.1 220 10:54 03.11.2019
5085 Clouds 21 1020 83 10000 5.1 240 10:36 03.11.2019
5086 Clouds 21 1020 83 10000 5.1 240 10:36 03.11.2019
5087 Clouds 20 1020 83 10000 5.1 240 10:18 03.11.2019
5088 Clouds 20 1020 83 10000 5.1 240 10:18 03.11.2019
5089 Clouds 20 1019 88 10000 3.1 200 09:42 03.11.2019
5090 Clouds 20 1019 88 10000 3.1 200 09:23 03.11.2019
5091 Clouds 19 1018 93 10000 3.1 220 08:55 03.11.2019
5092 Clouds 19 1018 93 10000 3.1 220 08:36 03.11.2019
5093 Clouds 19 1018 93 10000 3.1 220 08:18 03.11.2019
5094 Clouds 19 1019 100 10000 3.1 200 07:43 03.11.2019
5095 Clouds 20 1018 88 10000 3.6 220 07:18 03.11.2019
5096 Clouds 20 1019 93 10000 4.6 220 06:39 03.11.2019
5097 Clouds 20 1018 93 10000 4.6 230 05:52 03.11.2019
5098 Clouds 20 1018 93 10000 4.6 210 05:32 03.11.2019
5099 Clouds 20 1018 93 10000 5.1 220 04:51 03.11.2019
5100 Clouds 19 1019 100 10000 3.6 200 03:54 03.11.2019
5101 Clouds 20 1019 100 10000 2.6 200 02:47 03.11.2019
5102 Clouds 20 1019 100 10000 2.6 200 02:23 03.11.2019
5103 Clouds 20 1019 100 10000 3.1 180 01:49 03.11.2019
5104 Clouds 19 1019 100 10000 2.6 200 01:24 03.11.2019
5105 Clouds 19 1019 100 10000 2.1 210 00:57 03.11.2019
5106 Clouds 20 1020 93 10000 2.1 210 00:37 03.11.2019
5107 Clouds 20 1020 93 10000 2.1 210 00:18 03.11.2019
5108 Clouds 20 1020 88 10000 2.6 200 23:39 02.11.2019
5109 Clouds 20 1020 88 10000 2.6 200 23:20 02.11.2019
5110 Clouds 20 1020 93 10000 2.6 210 22:56 02.11.2019
5111 Clouds 21 1020 88 10000 2.6 220 22:38 02.11.2019
5112 Clouds 21 1020 88 10000 2.6 220 22:38 02.11.2019
5113 Clouds 21 1020 88 10000 2.6 220 22:19 02.11.2019
5114 Clouds 21 1019 88 10000 2.6 220 21:57 02.11.2019
5115 Clouds 21 1019 88 10000 3.6 280 21:38 02.11.2019
5116 Clouds 21 1019 88 10000 3.6 280 21:19 02.11.2019
5117 Clouds 21 1019 88 10000 3.6 280 21:19 02.11.2019
5118 Clouds 21 1019 88 10000 3.6 280 21:19 02.11.2019
5119 Clouds 21 1019 88 10000 3.6 280 21:19 02.11.2019
5120 Clouds 21 1020 88 10000 3.1 260 20:59 02.11.2019
5121 Clouds 21 1019 83 10000 4.1 260 20:40 02.11.2019
5122 Clouds 21 1019 83 10000 4.1 260 20:21 02.11.2019
5123 Clouds 21 1019 88 10000 2.1 260 19:57 02.11.2019
5124 Clouds 21 1018 83 10000 3.6 240 19:36 02.11.2019
5125 Clouds 21 1018 83 10000 3.6 240 19:18 02.11.2019
5126 Clouds 21 1019 77 10000 2.6 290 18:54 02.11.2019
5127 Clouds 21 1018 78 10000 4.1 260 18:36 02.11.2019
5128 Clouds 21 1018 78 10000 4.1 260 18:18 02.11.2019
5129 Clouds 22 1018 78 10000 4.6 300 17:42 02.11.2019
5130 Clouds 22 1018 78 10000 4.6 300 17:24 02.11.2019
5131 Clouds 22 1019 69 10000 5.7 290 16:58 02.11.2019
5132 Clouds 22 1019 78 10000 4.6 280 16:39 02.11.2019
5133 Clouds 22 1019 78 10000 4.6 280 16:20 02.11.2019
5134 Clouds 23 1019 61 10000 6.2 290 15:42 02.11.2019
5135 Clouds 23 1019 73 10000 7.2 320 15:20 02.11.2019
5136 Clouds 23 1019 65 10000 6.2 310 14:57 02.11.2019
5137 Clouds 23 1020 78 10000 7.2 300 14:39 02.11.2019
5138 Clouds 23 1020 78 10000 7.2 300 14:20 02.11.2019
5139 Clouds 23 1020 73 10000 7.2 320 13:40 02.11.2019
5140 Clouds 23 1020 73 10000 7.2 320 13:20 02.11.2019
5141 Clouds 22 1021 61 10000 4.1 290 12:57 02.11.2019
5142 Clouds 22 1021 78 10000 3.1 240 12:38 02.11.2019
5143 Clouds 22 1021 78 10000 3.1 240 12:19 02.11.2019
5144 Clouds 22 1021 42 10000 4.1 220 11:42 02.11.2019
5145 Clouds 22 1021 73 10000 7.2 340 11:24 02.11.2019
5146 Clouds 21 1021 57 10000 2.6 200 10:57 02.11.2019
5147 Clouds 20 1020 77 10000 3.1 200 10:39 02.11.2019
5148 Clouds 20 1020 77 10000 3.1 200 10:18 02.11.2019
5149 Clouds 20 1020 77 10000 3.1 200 10:18 02.11.2019
5150 Clouds 18 1021 77 10000 2.1 170 09:42 02.11.2019
5151 Clouds 18 1020 88 10000 4.1 180 09:22 02.11.2019
5152 Clouds 17 1021 100 5000 3.6 170 08:51 02.11.2019
5153 Clouds 16 1020 93 10000 3.1 180 08:24 02.11.2019
5154 Clouds 16 1021 100 10000 3.6 160 07:57 02.11.2019
5155 Clouds 16 1021 100 10000 3.6 160 07:57 02.11.2019
5156 Clouds 16 1021 93 10000 2.1 140 07:39 02.11.2019
5157 Clouds 16 1021 93 10000 2.1 140 07:20 02.11.2019
5158 Clouds 14 1021 100 10000 2.1 170 06:46 02.11.2019
5159 Clouds 15 1022 100 10000 0.65 254 06:21 02.11.2019
5160 Clouds 16 1022 100 10000 0.65 254 05:38 02.11.2019
5161 Clear 17 1022 100 10000 0.91 133 04:24 02.11.2019
5162 Clear 18 1022 100 10000 0.91 133 03:51 02.11.2019
5163 Clear 18 1023 100 10000 0.91 133 03:28 02.11.2019
5164 Clouds 19 1024 93 10000 2.1 360 01:57 02.11.2019
5165 Clouds 19 1025 93 10000 2.1 350 01:27 02.11.2019
5166 Clouds 19 1025 93 10000 2.1 350 00:55 02.11.2019
5167 Clouds 19 1025 88 10000 2.1 30 00:29 02.11.2019
5168 Clouds 19 1025 93 10000 2.6 50 23:55 01.11.2019
5169 Clouds 19 1025 88 10000 2.6 40 23:37 01.11.2019
5170 Clouds 19 1025 88 10000 2.6 40 23:37 01.11.2019
5171 Clouds 19 1025 88 10000 2.6 40 23:18 01.11.2019
5172 Clouds 19 1026 93 10000 2.6 30 22:41 01.11.2019
5173 Clouds 19 1026 93 10000 2.6 30 22:41 01.11.2019
5174 Clouds 20 1026 93 10000 2.6 30 22:20 01.11.2019
5175 Clouds 20 1025 93 10000 3.1 30 21:42 01.11.2019
5176 Clouds 20 1025 77 10000 3.1 20 21:24 01.11.2019
5177 Clouds 20 1025 88 10000 3.6 360 20:59 01.11.2019
5178 Clouds 20 1018 77 10000 3.1 40 20:41 01.11.2019
5179 Clouds 20 1018 77 10000 3.1 40 20:21 01.11.2019
5180 Clouds 20 1025 88 10000 5.7 350 19:58 01.11.2019
5181 Clouds 21 1025 83 10000 4.1 20 19:40 01.11.2019
5182 Clouds 21 1025 83 10000 4.1 20 19:21 01.11.2019
5183 Clouds 22 1025 78 10000 6.2 20 18:41 01.11.2019
5184 Clouds 22 1025 78 10000 6.2 20 18:21 01.11.2019
5185 Clouds 23 1025 78 10000 4.1 10 17:57 01.11.2019
5186 Clouds 23 1025 69 10000 6.2 40 17:39 01.11.2019
5187 Clouds 23 1025 69 10000 6.2 40 17:39 01.11.2019
5188 Clouds 23 1025 69 10000 6.2 40 17:20 01.11.2019
5189 Clouds 23 1025 73 10000 6.2 20 16:40 01.11.2019
5190 Clouds 23 1025 73 10000 6.2 20 16:20 01.11.2019
5191 Clear 24 1025 65 10000 6.7 340 15:56 01.11.2019
5192 Clouds 24 1025 73 10000 8.2 360 15:38 01.11.2019
5193 Clouds 24 1025 73 10000 8.2 360 15:19 01.11.2019
5194 Clear 24 1025 65 10000 3.1 10 14:43 01.11.2019
5195 Clouds 24 1027 65 10000 4.1 40 14:24 01.11.2019
5196 Clouds 24 1026 65 10000 3.1 40 13:58 01.11.2019
5197 Clouds 24 1026 65 10000 5.1 40 13:39 01.11.2019
5198 Clouds 24 1026 65 10000 5.1 40 13:21 01.11.2019
5199 Clouds 23 1027 57 10000 3.1 360 12:44 01.11.2019
5200 Clouds 23 1027 73 10000 2.6 20 12:26 01.11.2019
5201 Clouds 23 1027 64 10000 3.1 30 11:59 01.11.2019
5202 Clouds 23 1027 73 10000 2.6 80 11:40 01.11.2019
5203 Clouds 23 1027 73 10000 2.6 80 11:22 01.11.2019
5204 Clouds 22 1027 78 6000 4.6 100 10:42 01.11.2019
5205 Clouds 22 1027 78 6000 4.6 100 10:24 01.11.2019
5206 Clouds 21 1028 100 10000 2.6 40 09:58 01.11.2019
5207 Clouds 21 1028 100 10000 2.6 40 09:58 01.11.2019
5208 Clouds 20 1027 88 5000 2.6 120 09:40 01.11.2019
5209 Clouds 20 1027 88 5000 2.6 120 09:20 01.11.2019
5210 Clouds 20 1027 88 5000 2.6 120 09:20 01.11.2019
5211 Clouds 20 1027 100 10000 2.1 60 08:45 01.11.2019
5212 Clouds 20 1026 94 5000 2.6 80 08:22 01.11.2019
5213 Clouds 20 1027 100 10000 3.1 10 07:57 01.11.2019
5214 Clouds 19 1026 94 6000 2.1 40 07:38 01.11.2019
5215 Clouds 19 1026 94 6000 2.1 40 07:20 01.11.2019
5216 Clouds 19 1027 100 10000 3.1 10 06:46 01.11.2019
5217 Clouds 19 1026 100 10000 3.1 30 06:22 01.11.2019
5218 Clouds 19 1026 100 6000 2.1 360 05:44 01.11.2019
5219 Clouds 19 1026 100 6000 2.1 360 05:44 01.11.2019
5220 Mist 19 1027 100 4800 2.6 20 04:28 01.11.2019
5221 Fog 19 1027 100 400 2.6 360 02:49 01.11.2019
5222 Fog 19 1027 100 400 2.6 10 01:35 01.11.2019
5223 Clouds 19 1028 100 7000 2.6 20 00:42 01.11.2019
5224 Clouds 19 1028 100 7000 2.6 20 00:18 01.11.2019
5225 Clouds 19 1028 100 7000 2.6 30 23:43 31.10.2019
5226 Mist 19 1028 100 3300 3.6 350 23:23 31.10.2019
5227 Mist 19 1028 100 4000 3.1 350 22:56 31.10.2019
5228 Mist 19 1028 100 4000 3.1 350 22:56 31.10.2019
5229 Clouds 19 1027 93 10000 3.1 360 22:38 31.10.2019
5230 Clouds 20 1027 93 10000 3.1 360 22:19 31.10.2019
5231 Clouds 19 1027 93 10000 3.1 360 21:43 31.10.2019
5232 Clouds 20 1027 88 8000 2.1 360 21:20 31.10.2019
5233 Clouds 20 1027 88 10000 3.6 360 20:57 31.10.2019
5234 Clouds 20 1027 88 8000 3.1 360 20:39 31.10.2019
5235 Clouds 20 1027 88 8000 3.1 360 20:20 31.10.2019
5236 Clouds 20 1026 88 8000 5.1 20 19:42 31.10.2019
5237 Clouds 20 1026 88 8000 5.1 20 19:22 31.10.2019
5238 Clouds 21 1026 83 10000 7.2 20 18:57 31.10.2019
5239 Clouds 21 1026 83 10000 5.7 20 18:39 31.10.2019
5240 Clouds 21 1026 83 10000 5.7 20 18:19 31.10.2019
5241 Clouds 22 1026 73 10000 5.7 60 17:42 31.10.2019
5242 Clouds 22 1026 73 10000 5.7 60 17:22 31.10.2019
5243 Clouds 22 1026 73 10000 8.2 10 16:58 31.10.2019
5244 Clouds 23 1026 73 10000 7.2 20 16:40 31.10.2019
5245 Clouds 23 1026 73 10000 7.2 20 16:20 31.10.2019
5246 Clouds 23 1025 65 10000 7.2 20 15:56 31.10.2019
5247 Clouds 23 1026 73 10000 8.2 20 15:37 31.10.2019
5248 Clouds 23 1026 73 10000 8.2 20 15:19 31.10.2019
5249 Clouds 23 1026 50 10000 7.7 350 14:54 31.10.2019
5250 Clouds 23 1026 69 10000 5.1 40 14:36 31.10.2019
5251 Clouds 23 1026 69 10000 5.1 40 14:18 31.10.2019
5252 Clouds 23 1027 69 10000 5.1 40 13:40 31.10.2019
5253 Clouds 23 1027 69 10000 5.1 40 13:20 31.10.2019
5254 Clouds 22 1027 57 10000 5.7 360 12:58 31.10.2019
5255 Clouds 22 1027 73 10000 6.2 40 12:40 31.10.2019
5256 Clouds 22 1027 73 10000 6.2 40 12:22 31.10.2019
5257 Clouds 22 1027 56 10000 5.7 360 11:47 31.10.2019
5258 Clear 21 1027 64 10000 5.1 20 11:21 31.10.2019
5259 Clear 21 1027 68 10000 3.6 20 10:59 31.10.2019
5260 Clear 20 1027 77 10000 3.1 30 10:40 31.10.2019
5261 Clear 20 1027 77 10000 3.1 30 10:21 31.10.2019
5262 Clear 19 1027 82 10000 3.1 30 09:57 31.10.2019
5263 Clear 18 1026 88 10000 3.1 30 09:39 31.10.2019
5264 Clear 18 1026 88 10000 3.1 30 09:18 31.10.2019
5265 Clear 17 1026 100 10000 2.1 30 08:46 31.10.2019
5266 Clouds 16 1026 100 8000 3.1 30 08:26 31.10.2019
5267 Clouds 15 1026 100 10000 2.1 40 07:49 31.10.2019
5268 Clouds 16 1025 100 10000 2.1 30 07:28 31.10.2019
5269 Clouds 16 1025 100 10000 2.1 30 06:55 31.10.2019
5270 Clouds 16 1025 100 10000 2.1 30 06:33 31.10.2019
5271 Clouds 17 1025 100 10000 2.6 20 05:32 31.10.2019
5272 Clouds 18 1025 100 5000 3.1 360 03:21 31.10.2019
5273 Clouds 18 1025 100 8000 3.1 30 02:30 31.10.2019
5274 Clouds 19 1026 100 8000 3.1 30 01:25 31.10.2019
5275 Clouds 19 1026 100 10000 3.6 20 00:34 31.10.2019
5276 Clouds 19 1026 100 10000 4.1 30 23:53 30.10.2019
5277 Clouds 19 1026 93 10000 3.1 20 23:28 30.10.2019
5278 Clouds 19 1026 93 10000 4.6 10 22:43 30.10.2019
5279 Clouds 19 1026 93 10000 5.1 360 22:21 30.10.2019
5280 Clouds 20 1025 93 7000 4.6 360 21:55 30.10.2019
5281 Clouds 20 1025 88 10000 3.49 50 21:37 30.10.2019
5282 Clouds 20 1025 88 10000 3.49 50 21:18 30.10.2019
5283 Clouds 20 1025 93 7000 5.1 350 20:58 30.10.2019
5284 Clouds 20 1024 88 10000 4.1 40 20:39 30.10.2019
5285 Clouds 20 1024 88 10000 4.1 40 20:21 30.10.2019
5286 Clouds 20 1024 82 10000 6.2 360 19:57 30.10.2019
5287 Clouds 20 1024 82 10000 6.2 360 19:57 30.10.2019
5288 Clouds 20 1024 88 10000 5.1 20 19:38 30.10.2019
5289 Clouds 20 1024 88 10000 5.1 20 19:19 30.10.2019
5290 Clouds 21 1023 77 10000 3.6 40 18:39 30.10.2019
5291 Clouds 21 1023 77 10000 3.6 40 18:20 30.10.2019
5292 Clouds 22 1023 47 10000 7.2 350 17:59 30.10.2019
5293 Clouds 23 1023 64 10000 6.2 40 17:41 30.10.2019
5294 Clouds 23 1023 64 10000 6.2 40 17:19 30.10.2019
5295 Clouds 23 1023 64 10000 6.2 40 17:19 30.10.2019
5296 Clouds 23 1023 47 10000 6.2 350 16:55 30.10.2019
5297 Clouds 23 1023 64 10000 6.2 40 16:37 30.10.2019
5298 Clouds 23 1023 64 10000 6.2 40 16:19 30.10.2019
5299 Clouds 23 1023 53 10000 6.2 350 15:56 30.10.2019
5300 Clouds 23 1023 64 0 6.2 40 15:37 30.10.2019
5301 Clouds 23 1023 64 0 6.2 40 15:19 30.10.2019
5302 Clouds 23 1023 69 10000 7.2 20 14:42 30.10.2019
5303 Clouds 23 1023 69 10000 7.2 20 14:22 30.10.2019
5304 Clouds 23 1023 69 10000 7.2 20 14:22 30.10.2019
5305 Clouds 23 1024 44 10000 4.1 10 13:59 30.10.2019
5306 Clouds 23 1024 64 10000 5.1 40 13:40 30.10.2019
5307 Clouds 23 1024 64 10000 5.1 40 13:20 30.10.2019
5308 Clouds 23 1024 53 10000 3.6 360 12:57 30.10.2019
5309 Clouds 22 1024 69 10000 6.2 80 12:39 30.10.2019
5310 Clouds 22 1024 69 10000 6.2 80 12:21 30.10.2019
5311 Clouds 21 1024 73 10000 3.6 20 11:42 30.10.2019
5312 Clouds 21 1024 73 10000 5.1 80 11:23 30.10.2019
5313 Clouds 20 1024 82 10000 2.6 40 10:46 30.10.2019
5314 Clouds 19 1024 100 10000 2.6 50 10:27 30.10.2019
5315 Fog 18 1024 100 600 1.5 70 09:59 30.10.2019
5316 Clouds 18 1023 93 6000 2.1 80 09:40 30.10.2019
5317 Clouds 17 1023 93 6000 2.1 80 09:22 30.10.2019
5318 Fog 16 1023 100 700 1.5 90 08:42 30.10.2019
5319 Clouds 16 1022 93 6000 2.1 120 08:23 30.10.2019
5320 Clouds 16 1022 100 5000 2.1 110 07:59 30.10.2019
5321 Clouds 16 1022 100 5000 2.1 110 07:59 30.10.2019
5322 Clouds 16 1022 93 10000 1 160 07:39 30.10.2019
5323 Clouds 16 1022 100 5000 2.18 62 06:48 30.10.2019
5324 Clouds 17 1022 100 5000 2.18 62 06:29 30.10.2019
5325 Clouds 17 1022 100 5000 2.18 62 05:55 30.10.2019
5326 Clouds 17 1022 100 5000 2.18 62 05:37 30.10.2019
5327 Clouds 18 1022 100 5000 1.85 45 03:50 30.10.2019
5328 Clouds 19 1022 100 5000 1.85 45 03:21 30.10.2019
5329 Clouds 19 1022 100 5000 1.85 45 02:48 30.10.2019
5330 Clouds 18 1022 100 5000 2.6 350 01:43 30.10.2019
5331 Clouds 19 1022 100 10000 2.1 20 00:37 30.10.2019
5332 Clouds 19 1022 100 10000 2.1 20 00:18 30.10.2019
5333 Clouds 19 1022 100 10000 2.1 10 23:39 29.10.2019
5334 Clouds 19 1022 100 10000 2.1 10 23:18 29.10.2019
5335 Clouds 19 1021 100 10000 2.1 360 22:41 29.10.2019
5336 Clouds 19 1021 100 10000 2.1 360 22:19 29.10.2019
5337 Clouds 19 1021 100 10000 2.6 20 21:55 29.10.2019
5338 Clouds 19 1020 88 10000 3.1 320 21:36 29.10.2019
5339 Clouds 19 1020 88 10000 3.1 320 21:18 29.10.2019
5340 Clouds 20 1020 88 10000 3.1 40 20:42 29.10.2019
5341 Clear 20 1020 88 10000 3.1 40 20:23 29.10.2019
5342 Clear 20 1020 82 10000 3.6 360 19:59 29.10.2019
5343 Clear 20 1019 88 10000 3.1 40 19:40 29.10.2019
5344 Clear 20 1019 88 10000 3.1 40 19:22 29.10.2019
5345 Clear 20 1019 68 10000 5.7 340 18:58 29.10.2019
5346 Clear 21 1019 77 10000 6.2 360 18:40 29.10.2019
5347 Clear 21 1019 77 10000 6.2 360 18:20 29.10.2019
5348 Clear 22 1019 56 10000 5.7 330 17:57 29.10.2019
5349 Clear 23 1019 64 10000 6.2 360 17:38 29.10.2019
5350 Clear 23 1019 64 10000 6.2 360 17:20 29.10.2019
5351 Clear 23 1019 53 10000 6.2 320 16:57 29.10.2019
5352 Clear 23 1019 60 10000 5.1 40 16:38 29.10.2019
5353 Clear 23 1019 60 10000 5.1 40 16:18 29.10.2019
5354 Clear 23 1019 60 10000 6.2 20 15:42 29.10.2019
5355 Clear 23 1019 60 10000 6.2 20 15:21 29.10.2019
5356 Clear 23 1019 50 10000 4.1 340 14:57 29.10.2019
5357 Clear 23 1019 56 10000 7.2 20 14:39 29.10.2019
5358 Clouds 23 1019 56 10000 7.2 20 14:21 29.10.2019
5359 Clouds 23 1019 53 10000 2.1 350 13:57 29.10.2019
5360 Clouds 23 1019 57 10000 4.6 20 13:37 29.10.2019
5361 Clouds 23 1019 57 10000 4.6 20 13:18 29.10.2019
5362 Clouds 22 1020 57 10000 3.1 300 12:42 29.10.2019
5363 Clouds 22 1020 60 10000 4.1 360 12:24 29.10.2019
5364 Clouds 22 1020 60 10000 1.5 0 11:55 29.10.2019
5365 Clouds 22 1020 60 6000 3.1 40 11:36 29.10.2019
5366 Clouds 22 1020 60 6000 3.1 40 11:18 29.10.2019
5367 Clouds 20 1020 68 10000 1 0 10:56 29.10.2019
5368 Clouds 19 1019 82 6000 3.1 40 10:37 29.10.2019
5369 Clouds 19 1019 82 6000 3.1 40 10:19 29.10.2019
5370 Clouds 18 1019 82 6000 1 180 09:41 29.10.2019
5371 Clouds 18 1019 82 6000 1 180 09:41 29.10.2019
5372 Clouds 18 1019 82 6000 1 180 09:23 29.10.2019
5373 Clouds 16 1019 100 8000 2.1 110 08:56 29.10.2019
5374 Clouds 16 1018 88 6000 1 100 08:37 29.10.2019
5375 Clouds 16 1018 88 6000 1 100 08:18 29.10.2019
5376 Clouds 16 1018 100 10000 1.5 190 07:47 29.10.2019
5377 Clouds 16 1018 88 8000 1 140 07:20 29.10.2019
5378 Clouds 16 1018 100 10000 1 0 06:52 29.10.2019
5379 Clouds 16 1018 93 10000 1 320 06:29 29.10.2019
5380 Clouds 16 1018 93 10000 2.1 320 05:53 29.10.2019
5381 Clouds 15 1018 100 10000 1.5 300 05:35 29.10.2019
5382 Clouds 18 1017 93 10000 1 0 04:34 29.10.2019
5383 Clouds 18 1018 88 10000 2.6 20 02:34 29.10.2019
5384 Clouds 19 1018 88 10000 3.1 10 01:56 29.10.2019
5385 Clouds 18 1018 88 10000 3.1 10 01:34 29.10.2019
5386 Clouds 18 1018 88 7000 3.1 10 00:52 29.10.2019
5387 Clouds 19 1019 82 7000 2.6 330 23:59 28.10.2019
5388 Clouds 19 1018 82 10000 2.6 340 23:37 28.10.2019
5389 Clouds 19 1018 82 10000 2.6 340 23:19 28.10.2019
5390 Clouds 19 1018 77 10000 2.6 330 22:39 28.10.2019
5391 Clouds 19 1018 77 10000 2.6 330 22:20 28.10.2019
5392 Clouds 19 1018 72 10000 2.6 340 21:58 28.10.2019
5393 Clouds 20 1017 68 8000 2.1 60 21:39 28.10.2019
5394 Clouds 20 1017 68 8000 2.1 60 21:21 28.10.2019
5395 Clouds 21 1018 68 10000 2.6 360 20:58 28.10.2019
5396 Clouds 21 1017 64 8000 3.1 60 20:39 28.10.2019
5397 Clouds 21 1017 64 8000 3.1 60 20:20 28.10.2019
5398 Clouds 20 1017 68 10000 2.6 10 19:54 28.10.2019
5399 Clouds 20 1017 68 8000 3.1 40 19:36 28.10.2019
5400 Clouds 20 1017 68 8000 3.1 40 19:36 28.10.2019
5401 Clouds 20 1017 68 8000 3.1 40 19:18 28.10.2019
5402 Clouds 21 1017 64 10000 5.7 350 18:56 28.10.2019
5403 Clouds 22 1017 64 10000 3.1 40 18:38 28.10.2019
5404 Clouds 22 1017 64 10000 3.1 40 18:20 28.10.2019
5405 Clouds 23 1017 61 10000 6.2 350 17:55 28.10.2019
5406 Clouds 23 1017 60 10000 5.1 20 17:36 28.10.2019
5407 Clear 23 1017 60 10000 5.1 20 17:18 28.10.2019
5408 Clear 23 1018 53 0 5.81 360 16:54 28.10.2019
5409 Clear 22 1018 53 0 5.81 360 16:36 28.10.2019
5410 Clear 22 1018 53 0 5.81 360 16:18 28.10.2019
5411 Clouds 24 1018 47 10000 3.1 300 15:42 28.10.2019
5412 Clouds 24 1018 47 10000 3.1 300 15:24 28.10.2019
5413 Clouds 24 1018 47 10000 3.1 300 14:59 28.10.2019
5414 Clear 24 1018 53 10000 6.2 360 14:40 28.10.2019
5415 Clouds 24 1018 53 10000 6.2 360 14:19 28.10.2019
5416 Clouds 24 1019 50 10000 2.1 0 13:59 28.10.2019
5417 Clouds 24 1019 53 0 3.1 20 13:41 28.10.2019
5418 Clouds 24 1019 53 0 3.1 20 13:18 28.10.2019
5419 Clouds 24 1020 57 10000 2.1 0 12:43 28.10.2019
5420 Clouds 24 1020 50 10000 2.1 340 12:22 28.10.2019
5421 Clouds 23 1020 60 10000 1.5 330 11:59 28.10.2019
5422 Clouds 23 1020 50 8000 3.6 360 11:37 28.10.2019
5423 Clouds 23 1020 50 8000 3.6 360 11:19 28.10.2019
5424 Clouds 21 1020 52 10000 1.5 20 10:41 28.10.2019
5425 Clouds 21 1020 52 10000 1.5 20 10:22 28.10.2019
5426 Clouds 20 1020 60 10000 1 0 09:58 28.10.2019
5427 Clouds 19 1019 63 10000 0.64 160 09:39 28.10.2019
5428 Clouds 19 1019 63 10000 0.64 160 09:19 28.10.2019
5429 Clouds 19 1019 59 10000 1.5 190 08:57 28.10.2019
5430 Clouds 19 1019 63 10000 1 160 08:38 28.10.2019
5431 Clouds 19 1019 63 10000 1 160 08:19 28.10.2019
5432 Clouds 19 1019 55 10000 3.6 0 07:56 28.10.2019
5433 Clouds 19 1019 59 10000 1 140 07:38 28.10.2019
5434 Clouds 19 1019 59 10000 1 140 07:19 28.10.2019
5435 Clouds 18 1019 82 10000 2.6 180 06:40 28.10.2019
5436 Clouds 18 1019 72 10000 1.5 210 05:47 28.10.2019
5437 Clouds 18 1019 82 10000 2.6 200 03:49 28.10.2019
5438 Clouds 18 1019 82 10000 2.1 230 02:54 28.10.2019
5439 Clouds 18 1020 82 10000 1.5 200 02:34 28.10.2019
5440 Clouds 19 1020 88 10000 2.1 160 00:57 28.10.2019
5441 Clouds 19 1020 88 10000 1.5 190 00:33 28.10.2019
5442 Clouds 19 1021 88 10000 2.1 200 23:47 27.10.2019
5443 Clouds 19 1021 88 10000 1.5 190 23:24 27.10.2019
5444 Clouds 18 1021 77 10000 1.5 120 22:59 27.10.2019
5445 Clouds 19 1021 88 10000 1 0 22:40 27.10.2019
5446 Clouds 19 1021 88 10000 1 0 22:22 27.10.2019
5447 Clouds 19 1021 82 10000 0.5 0 21:58 27.10.2019
5448 Clouds 19 1020 88 10000 2.1 360 21:39 27.10.2019
5449 Clouds 19 1020 88 10000 2.1 360 21:39 27.10.2019
5450 Clouds 19 1020 88 10000 2.1 360 21:21 27.10.2019
5451 Clouds 20 1020 88 10000 4.1 350 20:57 27.10.2019
5452 Clouds 20 1019 82 10000 2.6 20 20:38 27.10.2019
5453 Clouds 20 1019 82 10000 2.6 20 20:20 27.10.2019
5454 Clouds 20 1020 68 10000 3.1 300 19:55 27.10.2019
5455 Clouds 20 1019 72 10000 2.1 360 19:36 27.10.2019
5456 Clouds 20 1019 72 10000 2.1 360 19:18 27.10.2019
5457 Clouds 21 1019 53 10000 3.1 300 18:55 27.10.2019
5458 Clouds 22 1019 68 10000 2.6 20 18:36 27.10.2019
5459 Clouds 22 1019 68 10000 2.6 20 18:18 27.10.2019
5460 Clouds 23 1018 64 10000 4.1 360 17:40 27.10.2019
5461 Clouds 23 1018 64 10000 4.1 360 17:40 27.10.2019
5462 Clear 23 1018 64 10000 4.1 360 17:20 27.10.2019
5463 Clear 23 1018 39 10000 5.1 320 16:58 27.10.2019
5464 Clear 24 1018 69 10000 3.1 360 16:40 27.10.2019
5465 Clear 24 1018 69 10000 3.1 360 16:22 27.10.2019
5466 Clear 24 1018 32 10000 3.6 300 15:56 27.10.2019
5467 Clear 24 1018 60 10000 3.1 360 15:38 27.10.2019
5468 Clear 24 1018 60 10000 3.1 360 15:19 27.10.2019
5469 Clear 24 1019 28 10000 5.1 270 14:43 27.10.2019
5470 Clouds 24 1019 64 10000 3.6 360 14:23 27.10.2019
5471 Clouds 23 1019 30 10000 3.6 270 13:58 27.10.2019
5472 Clouds 23 1019 64 10000 5.1 360 13:39 27.10.2019
5473 Clouds 23 1019 64 10000 5.1 360 13:21 27.10.2019
5474 Clouds 23 1020 36 10000 2.6 230 12:58 27.10.2019
5475 Clouds 23 1020 60 10000 2.1 340 12:38 27.10.2019
5476 Clouds 23 1020 60 10000 2.1 340 12:19 27.10.2019
5477 Clouds 21 1020 68 8000 2.1 240 11:41 27.10.2019
5478 Clouds 21 1020 68 8000 2.1 240 11:21 27.10.2019
5479 Clouds 20 1021 43 10000 3.1 230 10:45 27.10.2019
5480 Clouds 20 1020 68 8000 2.1 220 10:26 27.10.2019
5481 Clouds 18 1021 55 10000 1 0 09:58 27.10.2019
5482 Clouds 17 1020 67 8000 2.1 160 09:39 27.10.2019
5483 Clouds 17 1020 67 8000 2.1 160 09:19 27.10.2019
5484 Clouds 15 1020 66 10000 2.1 160 08:56 27.10.2019
5485 Clouds 14 1019 77 6000 2.1 160 08:37 27.10.2019
5486 Clouds 14 1019 77 6000 2.1 160 08:18 27.10.2019
5487 Clouds 14 1019 77 6000 2.1 160 08:18 27.10.2019
5488 Clouds 15 1019 71 10000 2.1 150 07:44 27.10.2019
5489 Fog 15 1019 93 800 2.1 160 07:24 27.10.2019
5490 Clouds 15 1019 62 10000 0.5 150 06:51 27.10.2019
5491 Clouds 15 1019 66 10000 1 180 06:27 27.10.2019
5492 Clouds 15 1019 62 10000 0.5 130 05:41 27.10.2019
5493 Clouds 18 1019 62 10000 2.33 213 04:54 27.10.2019
5494 Clouds 18 1020 58 10000 4.1 220 02:55 27.10.2019
5495 Clear 18 1020 55 10000 3.1 220 01:49 27.10.2019
5496 Clear 18 1020 55 10000 2.6 210 01:21 27.10.2019
5497 Clear 19 1020 48 10000 4.1 220 00:46 27.10.2019
5498 Clear 19 1020 48 10000 3.1 210 00:24 27.10.2019
5499 Clear 19 1020 45 10000 2.6 210 23:56 26.10.2019
5500 Clear 20 1020 35 10000 3.1 190 23:37 26.10.2019
5501 Clear 21 1020 35 10000 3.1 190 23:19 26.10.2019
5502 Clear 21 1020 35 10000 3.1 190 22:55 26.10.2019
5503 Clear 21 1020 35 10000 1 180 22:36 26.10.2019
5504 Clear 21 1020 35 10000 1 180 22:18 26.10.2019
5505 Clear 21 1019 64 10000 1 20 21:42 26.10.2019
5506 Clear 21 1019 64 10000 1 20 21:42 26.10.2019
5507 Clouds 21 1019 64 10000 1 20 21:21 26.10.2019
5508 Clouds 23 1020 31 10000 1 280 20:46 26.10.2019
5509 Clouds 23 1020 31 10000 1 280 20:46 26.10.2019
5510 Clouds 23 1018 56 10000 2.1 20 20:21 26.10.2019
5511 Clouds 24 1019 27 10000 4.6 320 19:59 26.10.2019
5512 Clouds 25 1018 36 10000 2.1 20 19:40 26.10.2019
5513 Clouds 25 1018 36 10000 2.1 20 19:20 26.10.2019
5514 Clouds 26 1018 24 10000 5.1 340 18:56 26.10.2019
5515 Clouds 26 1018 24 10000 5.1 340 18:56 26.10.2019
5516 Clouds 26 1017 31 10000 3.1 360 18:37 26.10.2019
5517 Clouds 26 1017 31 10000 3.1 360 18:18 26.10.2019
5518 Clouds 26 1017 25 10000 6.7 330 17:56 26.10.2019
5519 Clouds 26 1017 31 10000 4.1 340 17:36 26.10.2019
5520 Clouds 26 1017 31 10000 4.1 340 17:18 26.10.2019
5521 Clouds 27 1017 27 10000 3.1 340 16:43 26.10.2019
5522 Clouds 26 1017 27 10000 3.1 340 16:24 26.10.2019
5523 Clouds 26 1017 27 10000 3.1 340 16:24 26.10.2019
5524 Clouds 28 1018 21 10000 5.1 260 15:43 26.10.2019
5525 Clouds 29 1018 20 10000 3.6 300 15:21 26.10.2019
5526 Clouds 29 1018 22 10000 3.1 250 14:56 26.10.2019
5527 Clear 29 1018 20 8000 3.1 300 14:37 26.10.2019
5528 Clear 28 1018 20 8000 3.1 300 14:18 26.10.2019
5529 Clouds 29 1018 14 8000 2.6 260 13:42 26.10.2019
5530 Clouds 30 1019 15 0 2.66 287 13:22 26.10.2019
5531 Clouds 22 1018 25 0 3.58 200 12:49 26.10.2019
5532 Clouds 22 1018 25 0 3.58 200 12:49 26.10.2019
5533 Clouds 24 1018 25 8000 3.6 200 12:25 26.10.2019
5534 Clouds 24 1018 25 8000 3.6 200 11:56 26.10.2019
5535 Clouds 24 1018 25 8000 3.6 200 11:36 26.10.2019
5536 Clouds 24 1018 25 8000 3.6 200 11:36 26.10.2019
5537 Clouds 24 1018 25 8000 3.6 200 11:18 26.10.2019
5538 Clouds 19 1018 34 10000 3.6 160 10:42 26.10.2019
5539 Clouds 19 1018 34 10000 3.6 160 10:23 26.10.2019
5540 Clouds 18 1019 45 10000 3.1 170 09:45 26.10.2019
5541 Clouds 16 1018 36 10000 3.6 180 09:27 26.10.2019
5542 Clouds 16 1018 54 10000 1.5 110 08:44 26.10.2019
5543 Clouds 16 1017 36 10000 2.6 200 08:25 26.10.2019
5544 Clouds 16 1017 36 10000 2.6 200 08:25 26.10.2019
5545 Clouds 14 1018 50 10000 1.5 120 07:56 26.10.2019
5546 Clouds 15 1018 47 10000 3.1 120 07:31 26.10.2019
5547 Clouds 15 1018 47 10000 2.1 120 06:46 26.10.2019
5548 Clouds 16 1018 44 10000 2.1 120 06:28 26.10.2019
5549 Clouds 15 1018 51 10000 2.1 130 05:21 26.10.2019
5550 Clouds 16 1019 48 10000 1.5 140 04:32 26.10.2019
5551 Clouds 20 1019 42 10000 1.5 150 02:57 26.10.2019
5552 Clouds 22 1019 42 10000 2.1 170 01:57 26.10.2019
5553 Clouds 21 1020 42 10000 2.1 180 01:34 26.10.2019
5554 Clouds 20 1020 42 10000 2.1 160 00:26 26.10.2019
5555 Clouds 21 1019 39 10000 2.1 160 23:46 25.10.2019
5556 Clouds 22 1019 28 10000 2.6 180 23:21 25.10.2019
5557 Clouds 22 1019 37 10000 2.1 170 22:43 25.10.2019
5558 Clouds 22 1017 41 6000 1 80 22:25 25.10.2019
5559 Clouds 23 1019 33 10000 2.1 60 21:58 25.10.2019
5560 Clouds 23 1017 41 6000 2.1 80 21:40 25.10.2019
5561 Clouds 23 1017 41 6000 2.1 80 21:21 25.10.2019
5562 Clouds 22 1019 28 10000 2.6 60 20:57 25.10.2019
5563 Clouds 23 1018 43 6000 2.1 80 20:39 25.10.2019
5564 Clouds 23 1018 43 6000 2.1 80 20:19 25.10.2019
5565 Clouds 24 1018 16 10000 1.5 280 19:45 25.10.2019
5566 Clouds 24 1017 41 6000 2.1 80 19:26 25.10.2019
5567 Clouds 26 1018 11 10000 2.6 240 18:46 25.10.2019
5568 Clouds 26 1017 34 6000 2.1 40 18:24 25.10.2019
5569 Clouds 26 1017 31 6000 2.1 40 17:42 25.10.2019
5570 Clouds 26 1017 31 6000 2.1 40 17:22 25.10.2019
5571 Clouds 25 1018 8 10000 2.1 220 16:59 25.10.2019
5572 Clouds 25 1018 36 8000 2.6 20 16:41 25.10.2019
5573 Clouds 25 1018 36 8000 2.6 20 16:19 25.10.2019
5574 Clouds 25 1019 41 10000 3.6 20 15:41 25.10.2019
5575 Clouds 25 1019 41 10000 3.6 20 15:23 25.10.2019
5576 Clouds 25 1019 8 10000 2.6 230 14:59 25.10.2019
5577 Clouds 25 1019 41 10000 3.1 40 14:40 25.10.2019
5578 Clouds 25 1019 41 10000 3.1 40 14:22 25.10.2019
5579 Clouds 24 1020 10 10000 2.1 190 13:44 25.10.2019
5580 Clouds 24 1020 10 10000 2.1 190 13:44 25.10.2019
5581 Clouds 24 1020 33 10000 1 60 13:25 25.10.2019
5582 Clouds 22 1020 24 10000 2.1 180 12:58 25.10.2019
5583 Clouds 21 1020 43 10000 2.1 60 12:40 25.10.2019
5584 Clouds 20 1020 43 10000 2.1 60 12:20 25.10.2019
5585 Clouds 16 1020 52 10000 2.1 180 11:42 25.10.2019
5586 Clouds 16 1020 52 10000 2.1 180 11:24 25.10.2019
5587 Clouds 14 1020 71 10000 2.1 100 10:59 25.10.2019
5588 Clouds 14 1019 82 10000 2.6 220 10:39 25.10.2019
5589 Clouds 14 1019 82 10000 2.6 220 10:21 25.10.2019
5590 Clouds 11 1020 93 10000 2.1 90 09:57 25.10.2019
5591 Clouds 10 1019 87 10000 1.5 160 09:38 25.10.2019
5592 Clear 9 1019 87 10000 1.5 160 09:19 25.10.2019
5593 Clear 9 1019 100 10000 1.5 140 08:44 25.10.2019
5594 Clear 8 1019 100 10000 2.1 100 08:24 25.10.2019
5595 Clear 7 1019 100 10000 2.1 120 07:52 25.10.2019
5596 Clear 8 1019 100 10000 1.5 120 07:34 25.10.2019
5597 Clear 8 1019 100 10000 2.1 140 06:41 25.10.2019
5598 Clouds 15 1019 100 10000 1.5 130 05:51 25.10.2019
5599 Clouds 14 1019 100 10000 1.5 100 05:32 25.10.2019
5600 Clouds 15 1019 87 10000 1.5 50 04:39 25.10.2019
5601 Clear 16 1020 82 8000 3.1 20 03:29 25.10.2019
5602 Clear 16 1020 77 10000 3.1 20 01:53 25.10.2019
5603 Clear 16 1021 82 10000 3.1 10 00:47 25.10.2019
5604 Clear 16 1021 82 10000 4.1 10 00:18 25.10.2019
5605 Clear 17 1021 82 10000 4.6 20 23:40 24.10.2019
5606 Clear 17 1021 82 10000 4.6 20 23:21 24.10.2019
5607 Clear 17 1021 82 10000 5.1 10 22:54 24.10.2019
5608 Clear 17 1021 82 10000 5.1 10 22:54 24.10.2019
5609 Clear 17 1021 82 10000 5.1 10 22:54 24.10.2019
5610 Clear 17 1020 72 10000 5.1 40 22:36 24.10.2019
5611 Clear 17 1020 72 10000 5.1 40 22:18 24.10.2019
5612 Clear 18 1020 72 10000 5.1 10 21:54 24.10.2019
5613 Clear 18 1020 72 10000 5.1 10 21:54 24.10.2019
5614 Clear 18 1019 68 10000 7.2 60 21:36 24.10.2019
5615 Clear 18 1019 68 10000 7.2 60 21:36 24.10.2019
5616 Clear 18 1019 68 10000 7.2 60 21:18 24.10.2019
5617 Clear 19 1020 63 10000 6.2 360 20:54 24.10.2019
5618 Clear 19 1019 63 10000 6.7 40 20:36 24.10.2019
5619 Clear 19 1019 63 10000 6.7 40 20:18 24.10.2019
5620 Clear 20 1019 56 10000 8.2 20 19:42 24.10.2019
5621 Clear 20 1019 56 10000 8.2 20 19:23 24.10.2019
5622 Clear 20 1019 52 10000 8.2 350 18:58 24.10.2019
5623 Clear 20 1019 52 10000 8.2 350 18:58 24.10.2019
5624 Clear 20 1019 56 10000 9.8 60 18:39 24.10.2019
5625 Clear 20 1019 56 10000 9.8 60 18:21 24.10.2019
5626 Clear 21 1019 46 10000 7.2 350 17:57 24.10.2019
5627 Clear 21 1019 52 10000 9.3 60 17:37 24.10.2019
5628 Clear 21 1019 52 10000 9.3 60 17:18 24.10.2019
5629 Clear 20 1019 49 10000 8.2 60 16:42 24.10.2019
5630 Clear 20 1019 49 10000 8.2 60 16:23 24.10.2019
5631 Clear 21 1020 46 10000 7.2 20 15:59 24.10.2019
5632 Clear 21 1020 46 10000 7.2 20 15:41 24.10.2019
5633 Clear 21 1020 46 10000 7.2 20 15:23 24.10.2019
5634 Clear 20 1021 52 10000 5.1 40 14:59 24.10.2019
5635 Clear 20 1021 52 10000 5.1 40 14:41 24.10.2019
5636 Clear 20 1021 52 10000 5.1 40 14:22 24.10.2019
5637 Clear 20 1022 52 10000 5.1 100 13:57 24.10.2019
5638 Clear 21 1021 52 10000 6.2 80 13:37 24.10.2019
5639 Clear 20 1021 52 10000 6.2 80 13:18 24.10.2019
5640 Clear 20 1022 68 10000 6.2 80 12:55 24.10.2019
5641 Clear 20 1022 56 10000 5.1 100 12:37 24.10.2019
5642 Clear 19 1022 56 10000 5.1 100 12:18 24.10.2019
5643 Clear 17 1022 77 10000 3.1 80 11:54 24.10.2019
5644 Clear 16 1022 63 10000 5.1 140 11:36 24.10.2019
5645 Clear 16 1022 63 10000 5.1 140 11:18 24.10.2019
5646 Clear 14 1021 76 10000 3.1 160 10:41 24.10.2019
5647 Clear 14 1021 76 10000 3.1 160 10:22 24.10.2019
5648 Clear 12 1020 76 10000 2.1 180 09:39 24.10.2019
5649 Clear 11 1020 76 10000 2.1 180 09:19 24.10.2019
5650 Clear 10 1020 100 10000 3.1 100 08:56 24.10.2019
5651 Clear 10 1020 87 10000 2.1 180 08:38 24.10.2019
5652 Clear 10 1020 87 10000 2.1 180 08:18 24.10.2019
5653 Clear 9 1020 100 10000 2.35 111 07:46 24.10.2019
5654 Clear 9 1020 93 10000 3.1 90 07:23 24.10.2019
5655 Clouds 9 1020 93 10000 3.6 120 06:48 24.10.2019
5656 Clouds 14 1020 93 10000 3.1 120 06:26 24.10.2019
5657 Clouds 15 1020 93 10000 1.63 102 05:52 24.10.2019
5658 Clouds 14 1020 93 10000 2.1 120 05:29 24.10.2019
5659 Clouds 14 1020 93 8000 1.5 140 03:39 24.10.2019
5660 Clouds 15 1020 93 8000 1.5 140 03:19 24.10.2019
5661 Clouds 14 1021 93 5000 3.1 130 02:29 24.10.2019
5662 Clear 15 1021 87 10000 3.1 140 01:54 24.10.2019
5663 Clear 15 1021 87 10000 3.1 140 01:29 24.10.2019
5664 Clear 15 1021 100 10000 3.1 150 00:47 24.10.2019
5665 Clear 16 1021 93 10000 1.26 334 00:23 24.10.2019
5666 Clear 17 1020 87 10000 1.26 334 23:43 23.10.2019
5667 Clear 17 1020 93 10000 1.5 320 23:24 23.10.2019
5668 Clear 17 1020 93 10000 3.1 300 22:57 23.10.2019
5669 Clear 17 1019 68 10000 3.1 280 22:38 23.10.2019
5670 Clear 17 1019 68 10000 3.1 280 22:19 23.10.2019
5671 Clear 17 1020 87 10000 1 320 21:58 23.10.2019
5672 Clouds 17 1019 68 10000 3.1 280 21:39 23.10.2019
5673 Clouds 17 1019 68 10000 3.1 280 21:20 23.10.2019
5674 Clouds 18 1019 72 10000 3.6 310 20:58 23.10.2019
5675 Clouds 18 1018 63 10000 3.1 280 20:39 23.10.2019
5676 Clouds 18 1018 63 10000 3.1 280 20:20 23.10.2019
5677 Clouds 19 1018 59 10000 5.1 320 19:58 23.10.2019
5678 Clouds 19 1018 56 10000 3.1 280 19:39 23.10.2019
5679 Clouds 19 1018 56 10000 3.1 280 19:18 23.10.2019
5680 Clouds 20 1018 45 10000 4.6 320 18:55 23.10.2019
5681 Clouds 20 1018 49 10000 5.1 280 18:36 23.10.2019
5682 Clouds 20 1018 49 10000 5.1 280 18:18 23.10.2019
5683 Clouds 20 1017 52 10000 4.6 320 17:43 23.10.2019
5684 Clouds 20 1017 49 10000 4.1 320 17:20 23.10.2019
5685 Clouds 20 1017 52 10000 4.1 320 16:56 23.10.2019
5686 Clouds 20 1017 52 10000 4.1 320 16:38 23.10.2019
5687 Clouds 20 1017 52 10000 4.1 320 16:19 23.10.2019
5688 Clouds 20 1017 52 10000 4.1 320 16:19 23.10.2019
5689 Clouds 21 1017 49 10000 4.1 300 15:42 23.10.2019
5690 Clouds 20 1017 49 10000 4.1 300 15:22 23.10.2019
5691 Clouds 20 1018 52 10000 3.6 260 14:58 23.10.2019
5692 Clouds 20 1018 52 10000 3.6 260 14:38 23.10.2019
5693 Clouds 20 1018 52 10000 3.6 260 14:19 23.10.2019
5694 Clouds 19 1018 55 10000 5.1 180 13:57 23.10.2019
5695 Clouds 18 1018 77 10000 5.1 180 13:39 23.10.2019
5696 Clouds 17 1018 77 10000 5.1 180 13:21 23.10.2019
5697 Clouds 17 1018 72 10000 5.1 180 12:55 23.10.2019
5698 Clouds 16 1018 77 10000 2.1 220 12:37 23.10.2019
5699 Clouds 16 1018 77 10000 2.1 220 12:18 23.10.2019
5700 Clouds 15 1018 82 10000 5.1 180 11:56 23.10.2019
5701 Clouds 15 1018 82 10000 5.1 180 11:56 23.10.2019
5702 Clouds 15 1017 77 10000 3.6 220 11:37 23.10.2019
5703 Clouds 15 1017 77 10000 3.6 220 11:19 23.10.2019
5704 Clouds 14 1017 82 10000 5.1 180 10:45 23.10.2019
5705 Clouds 14 1017 76 6000 3.1 200 10:25 23.10.2019
5706 Clouds 13 1017 93 10000 5.1 190 09:42 23.10.2019
5707 Clouds 13 1016 82 10000 6.2 200 09:24 23.10.2019
5708 Clouds 13 1017 93 10000 3.1 180 08:59 23.10.2019
5709 Clouds 12 1016 82 10000 4.1 200 08:41 23.10.2019
5710 Clouds 12 1016 82 10000 4.1 200 08:23 23.10.2019
5711 Clouds 12 1016 93 10000 3.6 170 07:46 23.10.2019
5712 Clouds 12 1016 93 10000 4.1 180 07:22 23.10.2019
5713 Clouds 12 1016 93 10000 5.1 170 06:47 23.10.2019
5714 Clouds 12 1016 100 10000 4.1 170 06:22 23.10.2019
5715 Clouds 12 1016 100 10000 3.1 180 05:45 23.10.2019
5716 Clouds 12 1016 93 10000 3.6 180 04:41 23.10.2019
5717 Clouds 12 1016 100 10000 3.6 210 03:35 23.10.2019
5718 Clouds 12 1016 87 10000 4.6 190 02:40 23.10.2019
5719 Clouds 12 1016 93 10000 2.6 200 01:32 23.10.2019
5720 Clouds 12 1016 93 10000 3.1 190 00:56 23.10.2019
5721 Clouds 12 1016 87 10000 2.1 0 00:28 23.10.2019
5722 Clouds 12 1015 93 10000 3.1 190 23:40 22.10.2019
5723 Clouds 13 1015 93 10000 3.1 190 23:18 22.10.2019
5724 Rain 13 1015 93 6000 3.1 170 22:57 22.10.2019
5725 Clouds 13 1014 87 10000 3.1 200 22:38 22.10.2019
5726 Clouds 13 1014 87 10000 3.1 200 22:20 22.10.2019
5727 Clouds 13 1015 93 10000 3.1 200 21:56 22.10.2019
5728 Clouds 13 1014 82 10000 3.1 200 21:37 22.10.2019
5729 Clouds 13 1014 82 10000 3.1 200 21:18 22.10.2019
5730 Thunderstorm 13 1014 100 8000 4.1 200 20:56 22.10.2019
5731 Clouds 14 1013 87 10000 2.1 140 20:38 22.10.2019
5732 Clouds 14 1013 87 10000 2.1 140 20:19 22.10.2019
5733 Thunderstorm 14 1014 82 1200 7.2 260 19:45 22.10.2019
5734 Thunderstorm 14 1014 82 1200 7.2 260 19:45 22.10.2019
5735 Rain 15 1013 76 5000 6.7 240 19:27 22.10.2019
5736 Rain 16 1013 63 10000 7.2 200 18:58 22.10.2019
5737 Rain 16 1013 63 10000 7.2 200 18:58 22.10.2019
5738 Clouds 16 1013 55 10000 5.7 260 18:40 22.10.2019
5739 Clouds 17 1013 55 10000 5.7 260 18:22 22.10.2019
5740 Clouds 17 1013 77 10000 5.7 200 17:57 22.10.2019
5741 Clouds 17 1025 55 10000 4.1 240 17:38 22.10.2019
5742 Clouds 17 1025 55 10000 4.1 240 17:20 22.10.2019
5743 Clouds 17 1025 55 10000 4.1 240 17:20 22.10.2019
5744 Clouds 17 1025 55 10000 4.1 240 17:20 22.10.2019
5745 Clouds 17 1025 55 10000 4.1 240 17:20 22.10.2019
5746 Clouds 15 1013 93 8000 5.7 230 16:57 22.10.2019
5747 Clouds 14 1012 72 10000 3.6 200 16:37 22.10.2019
5748 Clouds 14 1012 72 10000 3.6 200 16:19 22.10.2019
5749 Thunderstorm 14 1014 100 6000 6.2 320 15:44 22.10.2019
5750 Clouds 14 1014 87 5000 4.6 320 15:21 22.10.2019
5751 Clouds 15 1014 59 10000 6.2 310 14:58 22.10.2019
5752 Clouds 16 1014 72 10000 3.6 300 14:40 22.10.2019
5753 Clouds 16 1014 72 10000 3.6 300 14:19 22.10.2019
5754 Clouds 18 1015 59 10000 5.1 280 13:42 22.10.2019
5755 Clouds 18 1015 59 10000 5.1 280 13:21 22.10.2019
5756 Clouds 18 1014 55 10000 10.3 200 12:58 22.10.2019
5757 Clouds 18 1014 55 10000 6.2 220 12:40 22.10.2019
5758 Clouds 18 1014 55 10000 6.2 220 12:40 22.10.2019
5759 Clouds 18 1014 55 10000 6.2 220 12:21 22.10.2019
5760 Clouds 17 1015 59 10000 7.7 210 11:54 22.10.2019
5761 Clouds 16 1014 63 10000 4.1 220 11:36 22.10.2019
5762 Clouds 16 1014 63 10000 4.1 220 11:18 22.10.2019
5763 Clouds 14 1014 76 10000 4.1 220 10:38 22.10.2019
5764 Clouds 14 1014 76 10000 4.1 220 10:20 22.10.2019
5765 Clouds 13 1015 87 10000 4.1 210 10:00 22.10.2019
5766 Rain 13 1014 76 10000 3.1 220 09:41 22.10.2019
5767 Rain 13 1014 76 10000 3.1 220 09:22 22.10.2019
5768 Clouds 13 1014 87 10000 3.6 180 08:59 22.10.2019
5769 Clouds 13 1014 87 10000 3.6 180 08:59 22.10.2019
5770 Clouds 12 1014 87 10000 3.1 190 08:41 22.10.2019
5771 Clouds 12 1014 87 10000 3.1 190 08:19 22.10.2019
5772 Clouds 10 1014 87 10000 3.6 180 07:44 22.10.2019
5773 Clouds 12 1014 81 10000 4.1 190 07:25 22.10.2019
5774 Clouds 12 1014 87 10000 3.1 180 06:45 22.10.2019
5775 Clouds 14 1015 87 10000 2.6 170 06:27 22.10.2019
5776 Clouds 15 1015 81 10000 2.6 180 05:48 22.10.2019
5777 Clouds 13 1015 87 10000 3.1 170 04:54 22.10.2019
5778 Clouds 14 1016 71 10000 1.5 150 02:31 22.10.2019
5779 Clouds 14 1016 76 10000 2.1 240 01:39 22.10.2019
5780 Clouds 14 1016 76 10000 2.1 240 01:21 22.10.2019
5781 Clear 15 1016 71 10000 1.5 240 00:56 22.10.2019
5782 Clear 15 1017 76 10000 1.5 240 00:38 22.10.2019
5783 Clear 15 1017 76 10000 1.5 240 00:19 22.10.2019
5784 Clear 16 1017 71 10000 1.5 290 23:39 21.10.2019
5785 Clear 16 1017 71 10000 1.5 290 23:19 21.10.2019
5786 Clouds 16 1017 71 10000 2.6 320 22:59 21.10.2019
5787 Clear 16 1017 67 10000 2.6 320 22:39 21.10.2019
5788 Clear 17 1017 67 10000 2.6 320 22:20 21.10.2019
5789 Clear 17 1017 67 10000 3.1 320 21:58 21.10.2019
5790 Clouds 18 1016 55 10000 4.6 360 21:38 21.10.2019
5791 Clouds 18 1016 55 10000 4.6 360 21:20 21.10.2019
5792 Clouds 18 1016 67 10000 4.1 350 20:58 21.10.2019
5793 Clouds 18 1016 59 10000 4.6 360 20:39 21.10.2019
5794 Clouds 18 1016 59 10000 4.6 360 20:20 21.10.2019
5795 Clouds 19 1016 63 10000 6.2 350 19:56 21.10.2019
5796 Clouds 19 1016 55 10000 5.7 360 19:37 21.10.2019
5797 Clouds 19 1016 55 10000 5.7 360 19:19 21.10.2019
5798 Clouds 20 1016 42 10000 5.1 320 18:55 21.10.2019
5799 Clouds 20 1015 56 10000 4.6 360 18:36 21.10.2019
5800 Clouds 20 1015 56 10000 4.6 360 18:18 21.10.2019
5801 Clouds 20 1015 49 10000 6.2 340 17:39 21.10.2019
5802 Clouds 20 1015 49 10000 6.2 340 17:20 21.10.2019
5803 Clouds 20 1015 40 10000 5.7 330 16:59 21.10.2019
5804 Clouds 20 1016 46 10000 6.2 340 16:40 21.10.2019
5805 Clouds 20 1016 46 10000 6.2 340 16:22 21.10.2019
5806 Clouds 20 1016 45 10000 5.7 330 15:58 21.10.2019
5807 Clouds 20 1016 46 10000 5.1 340 15:39 21.10.2019
5808 Clouds 20 1016 46 10000 5.1 340 15:20 21.10.2019
5809 Clouds 20 1017 52 10000 4.1 360 14:55 21.10.2019
5810 Clouds 20 1017 52 10000 4.1 360 14:36 21.10.2019
5811 Clouds 20 1017 52 10000 4.1 360 14:18 21.10.2019
5812 Clouds 20 1017 52 10000 5.1 20 13:42 21.10.2019
5813 Clouds 19 1017 52 10000 5.1 20 13:21 21.10.2019
5814 Clouds 19 1017 52 10000 4.1 360 12:59 21.10.2019
5815 Clouds 19 1017 52 10000 4.1 360 12:59 21.10.2019
5816 Clouds 18 1017 60 10000 2.1 320 12:40 21.10.2019
5817 Clouds 18 1017 60 10000 2.1 320 12:21 21.10.2019
5818 Clouds 18 1017 67 10000 2.1 60 11:55 21.10.2019
5819 Clouds 17 1017 68 10000 1 320 11:36 21.10.2019
5820 Clouds 17 1017 68 10000 1 320 11:18 21.10.2019
5821 Clouds 14 1017 87 10000 1 180 10:54 21.10.2019
5822 Clouds 14 1017 87 10000 1 180 10:54 21.10.2019
5823 Clouds 14 1017 87 10000 1 180 10:54 21.10.2019
5824 Clouds 13 1017 87 10000 1 180 10:36 21.10.2019
5825 Clouds 13 1017 87 10000 1 180 10:18 21.10.2019
5826 Clouds 11 1016 87 10000 2.1 180 09:41 21.10.2019
5827 Clouds 11 1016 87 10000 2.1 180 09:22 21.10.2019
5828 Clouds 11 1016 87 10000 3.1 180 08:42 21.10.2019
5829 Clouds 11 1016 87 10000 3.1 180 08:23 21.10.2019
5830 Clouds 9 1016 100 10000 1 0 07:56 21.10.2019
5831 Clouds 12 1016 100 10000 0.5 160 07:37 21.10.2019
5832 Clouds 9 1016 100 10000 0.5 160 07:18 21.10.2019
5833 Clear 9 1016 100 10000 1 130 06:44 21.10.2019
5834 Clear 9 1016 100 10000 1 120 06:25 21.10.2019
5835 Clear 10 1016 100 10000 0.5 0 05:41 21.10.2019
5836 Clear 10 1017 93 10000 1.5 140 03:41 21.10.2019
5837 Clouds 11 1017 87 10000 1.5 110 02:40 21.10.2019
5838 Clouds 11 1017 87 10000 1.5 110 02:20 21.10.2019
5839 Clouds 11 1017 87 10000 1.5 110 02:20 21.10.2019
5840 Clouds 11 1017 87 10000 2.1 110 01:48 21.10.2019
5841 Clouds 12 1017 81 10000 1.5 80 01:20 21.10.2019
5842 Clouds 16 1017 72 10000 2.6 340 00:40 21.10.2019
5843 Clouds 16 1017 72 10000 2.6 340 00:22 21.10.2019
5844 Clouds 16 1017 77 10000 2.1 350 23:40 20.10.2019
5845 Clouds 17 1017 77 10000 2.1 350 23:21 20.10.2019
5846 Clouds 17 1017 72 10000 3.1 340 22:54 20.10.2019
5847 Clouds 17 1017 68 10000 2.1 20 22:36 20.10.2019
5848 Clouds 17 1017 68 10000 2.1 20 22:18 20.10.2019
5849 Clouds 18 1017 68 10000 2.1 20 21:40 20.10.2019
5850 Clouds 18 1017 68 10000 2.1 20 21:22 20.10.2019
5851 Clouds 19 1017 63 10000 2.6 350 20:57 20.10.2019
5852 Clouds 19 1016 63 10000 3.1 360 20:39 20.10.2019
5853 Clouds 19 1016 63 10000 3.1 360 20:18 20.10.2019
5854 Clouds 19 1016 59 10000 5.1 320 19:56 20.10.2019
5855 Clouds 19 1016 68 10000 4.1 360 19:37 20.10.2019
5856 Clouds 19 1016 68 10000 4.1 360 19:19 20.10.2019
5857 Clouds 20 1016 64 10000 3.6 340 18:41 20.10.2019
5858 Clouds 20 1016 64 10000 3.6 340 18:22 20.10.2019
5859 Clouds 20 1016 46 10000 4.1 320 17:58 20.10.2019
5860 Clouds 20 1016 60 10000 3.6 320 17:39 20.10.2019
5861 Clouds 20 1016 60 10000 3.6 320 17:39 20.10.2019
5862 Clouds 20 1016 60 10000 3.6 320 17:21 20.10.2019
5863 Clouds 21 1016 46 10000 3.1 320 16:55 20.10.2019
5864 Clouds 21 1016 60 10000 3.6 200 16:36 20.10.2019
5865 Clouds 21 1016 60 10000 3.6 200 16:18 20.10.2019
5866 Clouds 21 1016 53 10000 3.6 300 15:41 20.10.2019
5867 Clouds 21 1016 53 10000 3.6 300 15:23 20.10.2019
5868 Clouds 20 1017 72 10000 1.5 0 14:59 20.10.2019
5869 Clouds 20 1016 60 10000 3.6 300 14:38 20.10.2019
5870 Clouds 20 1016 60 10000 3.6 300 14:20 20.10.2019
5871 Clouds 20 1017 60 10000 1.5 0 13:56 20.10.2019
5872 Clouds 20 1016 64 10000 3.6 340 13:37 20.10.2019
5873 Clouds 20 1016 64 10000 3.6 340 13:19 20.10.2019
5874 Clouds 19 1017 88 10000 1.5 60 12:57 20.10.2019
5875 Clouds 19 1016 68 10000 1 220 12:39 20.10.2019
5876 Clouds 19 1016 68 10000 1 220 12:21 20.10.2019
5877 Clouds 18 1017 93 10000 3.1 60 11:59 20.10.2019
5878 Clouds 17 1017 93 10000 2.6 60 11:40 20.10.2019
5879 Clouds 17 1017 93 10000 2.6 60 11:21 20.10.2019
5880 Clouds 17 1016 93 10000 2.6 60 10:57 20.10.2019
5881 Clouds 17 1016 77 10000 1 180 10:37 20.10.2019
5882 Clouds 17 1016 77 10000 1 180 10:18 20.10.2019
5883 Clouds 17 1015 93 10000 1.5 20 09:43 20.10.2019
5884 Clouds 17 1015 82 8000 4.6 360 09:22 20.10.2019
5885 Clouds 17 1015 93 10000 3.1 330 08:56 20.10.2019
5886 Clouds 17 1014 77 8000 3.6 360 08:37 20.10.2019
5887 Clouds 17 1014 77 8000 3.6 360 08:18 20.10.2019
5888 Clouds 17 1015 93 8000 4.1 310 07:43 20.10.2019
5889 Drizzle 18 1014 100 6000 5.1 320 07:24 20.10.2019
5890 Drizzle 18 1014 100 6000 5.1 320 07:24 20.10.2019
5891 Drizzle 19 1014 100 6000 5.1 320 06:26 20.10.2019
5892 Clouds 19 1014 88 10000 3.6 200 04:28 20.10.2019
5893 Clouds 20 1014 88 10000 3.1 190 03:49 20.10.2019
5894 Clouds 20 1014 88 10000 2.6 180 03:21 20.10.2019
5895 Clouds 20 1014 88 10000 3.6 180 02:45 20.10.2019
5896 Clouds 20 1015 88 10000 3.1 200 02:18 20.10.2019
5897 Clouds 20 1015 88 10000 4.1 180 01:43 20.10.2019
5898 Clouds 20 1015 88 10000 4.1 170 01:19 20.10.2019
5899 Clouds 20 1015 88 10000 3.6 190 00:42 20.10.2019
5900 Clouds 20 1015 88 10000 3.6 190 00:20 20.10.2019
5901 Clear 20 1015 88 10000 3.1 190 23:43 19.10.2019
5902 Clear 20 1015 88 10000 2.1 220 23:24 19.10.2019
5903 Clear 20 1014 82 10000 3.1 230 22:57 19.10.2019
5904 Clear 20 1013 73 10000 5.1 280 22:39 19.10.2019
5905 Clear 20 1013 73 10000 5.1 280 22:20 19.10.2019
5906 Clear 21 1014 82 10000 2.1 260 21:46 19.10.2019
5907 Clear 21 1013 73 10000 6.2 280 21:25 19.10.2019
5908 Clear 21 1014 88 10000 5.7 290 20:57 19.10.2019
5909 Clear 21 1013 77 10000 7.7 280 20:38 19.10.2019
5910 Clear 21 1013 77 10000 7.7 280 20:20 19.10.2019
5911 Clear 22 1013 73 10000 7.7 280 19:41 19.10.2019
5912 Clear 22 1013 73 10000 7.7 280 19:23 19.10.2019
5913 Clouds 23 1013 69 10000 6.7 310 18:43 19.10.2019
5914 Clear 23 1013 64 10000 7.2 300 18:25 19.10.2019
5915 Clouds 24 1013 54 10000 5.1 280 17:59 19.10.2019
5916 Clear 24 1013 60 10000 6.2 300 17:37 19.10.2019
5917 Clear 24 1013 60 10000 6.2 300 17:19 19.10.2019
5918 Clouds 24 1013 51 10000 2.6 240 16:54 19.10.2019
5919 Clear 24 1013 57 10000 4.1 300 16:36 19.10.2019
5920 Clear 24 1013 57 10000 4.1 300 16:18 19.10.2019
5921 Clear 24 1014 57 10000 4.6 300 15:40 19.10.2019
5922 Clear 24 1014 57 10000 4.6 300 15:40 19.10.2019
5923 Clear 24 1014 57 10000 4.6 300 15:22 19.10.2019
5924 Clouds 22 1015 64 10000 4.1 320 14:38 19.10.2019
5925 Clouds 22 1015 64 10000 4.1 320 14:20 19.10.2019
5926 Clear 22 1016 69 10000 1.33 289.847 13:56 19.10.2019
5927 Clouds 22 1016 57 10000 2.1 240 13:38 19.10.2019
5928 Clouds 22 1016 57 10000 2.1 240 13:18 19.10.2019
5929 Clear 21 1016 64 10000 3.6 220 12:42 19.10.2019
5930 Clear 22 1016 64 10000 3.6 220 12:23 19.10.2019
5931 Clear 20 1017 88 10000 1.55 167.158 11:59 19.10.2019
5932 Clear 19 1016 72 10000 3.6 180 11:40 19.10.2019
5933 Clear 19 1016 72 10000 3.6 180 11:22 19.10.2019
5934 Clear 17 1016 100 10000 3.1 140 10:54 19.10.2019
5935 Clear 17 1016 82 10000 3.1 180 10:36 19.10.2019
5936 Clouds 16 1016 100 10000 2.6 150 10:18 19.10.2019
5937 Clear 15 1015 87 10000 3.1 180 09:41 19.10.2019
5938 Clear 15 1015 87 10000 3.1 180 09:23 19.10.2019
5939 Clouds 15 1015 100 10000 1 140 08:58 19.10.2019
5940 Clouds 15 1015 100 10000 1 140 08:58 19.10.2019
5941 Clear 15 1015 87 10000 2.6 180 08:39 19.10.2019
5942 Clouds 15 1015 93 10000 2.1 110 08:20 19.10.2019
5943 Clouds 15 1016 100 10000 2.1 120 07:43 19.10.2019
5944 Clouds 15 1016 100 10000 2.1 120 07:24 19.10.2019
5945 Clouds 16 1016 93 10000 2.1 90 06:45 19.10.2019
5946 Clouds 17 1016 93 10000 2.1 90 05:56 19.10.2019
5947 Clouds 17 1016 100 10000 0.5 0 05:27 19.10.2019
5948 Clouds 17 1016 87 10000 2.1 90 03:59 19.10.2019
5949 Clouds 18 1017 88 10000 2.6 360 02:40 19.10.2019
5950 Clouds 18 1018 88 10000 3.1 360 01:51 19.10.2019
5951 Clouds 18 1018 88 10000 4.1 20 01:19 19.10.2019
5952 Clouds 18 1018 82 8000 3.1 30 00:45 19.10.2019
5953 Clouds 19 1018 82 8000 3.1 10 00:23 19.10.2019
5954 Clouds 18 1018 93 8000 2.6 350 23:42 18.10.2019
5955 Clouds 18 1018 93 8000 2.6 350 23:23 18.10.2019
5956 Clouds 18 1018 93 6000 2.1 360 22:56 18.10.2019
5957 Clouds 18 1017 88 10000 2.1 20 22:38 18.10.2019
5958 Clouds 18 1017 88 10000 2.1 20 22:20 18.10.2019
5959 Clear 18 1018 88 10000 2.6 360 21:57 18.10.2019
5960 Clouds 19 1017 82 10000 2.1 360 21:38 18.10.2019
5961 Clouds 19 1017 82 10000 2.1 360 21:19 18.10.2019
5962 Clear 20 1017 82 10000 4.1 360 20:56 18.10.2019
5963 Clouds 20 1017 77 10000 4.1 20 20:38 18.10.2019
5964 Clouds 20 1017 77 10000 4.1 20 20:19 18.10.2019
5965 Clear 21 1017 68 10000 6.2 20 19:55 18.10.2019
5966 Clear 21 1017 73 10000 6.2 20 19:37 18.10.2019
5967 Clear 21 1017 73 10000 6.2 20 19:19 18.10.2019
5968 Clear 22 1018 68 10000 5.7 40 18:42 18.10.2019
5969 Clear 22 1018 68 10000 5.7 40 18:23 18.10.2019
5970 Clear 22 1018 64 10000 6.2 20 17:57 18.10.2019
5971 Clear 22 1018 64 10000 6.2 20 17:38 18.10.2019
5972 Clear 22 1018 64 10000 6.2 20 17:20 18.10.2019
5973 Clear 22 1018 64 10000 6.2 20 17:20 18.10.2019
5974 Clear 22 1018 47 10000 7.2 10 16:44 18.10.2019
5975 Clear 22 1018 47 10000 7.2 10 16:44 18.10.2019
5976 Clear 22 1018 64 10000 6.2 20 16:22 18.10.2019
5977 Clear 22 1018 47 10000 4.6 30 15:59 18.10.2019
5978 Clear 22 1018 47 10000 4.1 0 15:40 18.10.2019
5979 Clear 22 1018 47 10000 4.1 0 15:21 18.10.2019
5980 Clear 22 1019 47 10000 4.1 30 14:58 18.10.2019
5981 Clear 22 1019 56 10000 4.1 40 14:40 18.10.2019
5982 Clear 22 1019 56 10000 4.1 40 14:22 18.10.2019
5983 Clear 21 1020 43 10000 4.1 10 13:59 18.10.2019
5984 Clear 21 1020 60 10000 5.1 40 13:40 18.10.2019
5985 Clear 21 1020 60 10000 5.1 40 13:22 18.10.2019
5986 -273 0 0 0 0 0 12:56 18.10.2019
5987 Clear 21 1020 49 10000 3.6 10 12:56 18.10.2019
5988 Clear 21 1020 60 10000 5.1 60 12:38 18.10.2019
5989 Clear 21 1020 60 10000 5.1 60 12:20 18.10.2019
5990 -273 0 0 0 0 0 11:54 18.10.2019
5991 Clear 19 1020 68 10000 5.1 60 11:36 18.10.2019
5992 Clear 19 1020 68 10000 5.1 60 11:18 18.10.2019
5993 Clear 19 1020 68 10000 5.1 60 11:18 18.10.2019
5994 Clear 16 1020 77 10000 1 140 10:41 18.10.2019
5995 Clear 16 1020 77 10000 1 140 10:22 18.10.2019
5996 Clear 15 1020 100 10000 4.28 52.744 09:58 18.10.2019
5997 Clear 13 1019 87 10000 1 40 09:40 18.10.2019
5998 Clear 13 1019 87 10000 1 40 09:20 18.10.2019
5999 Clear 13 1019 100 10000 2.1 20 08:57 18.10.2019
6000 Clear 12 1019 100 10000 3.33 76.829 08:38 18.10.2019
6001 Clear 11 1019 100 10000 3.33 76.829 08:20 18.10.2019
6002 Clear 12 1019 100 10000 3.33 76.829 07:41 18.10.2019
6003 Clear 12 1019 100 10000 3.33 76.829 07:19 18.10.2019
6004 Clear 14 1019 100 10000 3.33 76.829 06:39 18.10.2019
6005 Clear 18 1019 100 10000 4.5 67.6 06:20 18.10.2019
6006 Clear 17 1019 100 10000 4.5 67.6 05:54 18.10.2019
6007 Clear 17 1020 100 10000 4.5 67.6 05:20 18.10.2019
6008 Clear 16 1020 100 10000 4.5 67.6 03:43 18.10.2019
6009 Clear 17 1020 100 10000 4.69 51.325 03:23 18.10.2019
6010 Clear 17 1021 93 10000 4.69 51.325 02:33 18.10.2019
6011 Clear 16 1021 100 10000 4.69 51.325 01:43 18.10.2019
6012 Clear 18 1021 93 10000 0.5 70 01:23 18.10.2019
6013 Clear 18 1021 93 10000 3.1 20 00:43 18.10.2019
6014 Clear 18 1021 93 10000 2.6 20 00:20 18.10.2019
6015 Clear 17 1021 88 10000 2.6 20 23:42 17.10.2019
6016 Clear 18 1021 88 10000 2.6 20 23:21 17.10.2019
6017 Clear 18 1021 88 10000 2.1 20 22:58 17.10.2019
6018 Clear 19 1020 68 10000 3.1 40 22:39 17.10.2019
6019 Clear 19 1020 68 10000 3.1 40 22:20 17.10.2019
6020 Clear 19 1020 82 10000 2.1 20 21:58 17.10.2019
6021 Clear 19 1020 68 10000 3.1 40 21:39 17.10.2019
6022 Clear 19 1020 68 10000 3.1 40 21:21 17.10.2019
6023 Clear 19 1020 72 10000 4.1 20 20:58 17.10.2019
6024 Clear 19 1020 72 10000 4.1 20 20:58 17.10.2019
6025 Clear 19 1019 68 10000 5.1 20 20:40 17.10.2019
6026 Clear 19 1019 68 10000 5.1 20 20:19 17.10.2019
6027 Clear 19 1019 68 10000 5.1 20 20:19 17.10.2019
6028 Clear 19 1019 68 10000 5.1 20 20:19 17.10.2019
6029 Clear 20 1019 68 10000 6.2 10 19:59 17.10.2019
6030 Clear 20 1019 60 10000 6.2 20 19:39 17.10.2019
6031 Clear 20 1019 60 10000 6.2 20 19:19 17.10.2019
6032 Clear 21 1019 56 10000 6.2 20 18:58 17.10.2019
6033 Clear 20 1019 56 10000 6.2 20 18:38 17.10.2019
6034 Clear 21 1019 56 10000 6.2 20 18:20 17.10.2019
6035 Clear 22 1020 53 10000 5.1 40 17:42 17.10.2019
6036 Clear 22 1020 53 10000 5.1 40 17:23 17.10.2019
6037 Clear 22 1020 53 10000 5.7 30 16:57 17.10.2019
6038 Clouds 22 1020 53 10000 7.2 20 16:38 17.10.2019
6039 Clouds 22 1020 53 10000 7.2 20 16:18 17.10.2019
6040 Clear 22 1020 56 10000 5.7 20 15:56 17.10.2019
6041 Clouds 22 1020 49 10000 7.2 20 15:38 17.10.2019
6042 Clouds 22 1020 49 10000 7.2 20 15:19 17.10.2019
6043 Clear 22 1021 53 10000 5.1 360 14:54 17.10.2019
6044 Clouds 21 1021 53 10000 2.1 40 14:36 17.10.2019
6045 Clouds 21 1021 53 10000 2.1 40 14:18 17.10.2019
6046 Clouds 21 1022 52 10000 4.6 20 13:39 17.10.2019
6047 Clouds 21 1022 52 10000 4.6 20 13:19 17.10.2019
6048 Clouds 19 1022 52 10000 3.6 10 12:43 17.10.2019
6049 Clouds 18 1021 72 10000 3.6 60 12:21 17.10.2019
6050 Clouds 19 1022 72 10000 4.1 50 11:59 17.10.2019
6051 Clear 19 1022 63 8000 2.1 40 11:41 17.10.2019
6052 Clear 19 1022 63 8000 2.1 40 11:41 17.10.2019
6053 Clear 19 1022 63 8000 2.1 40 11:41 17.10.2019
6054 Clear 19 1022 63 8000 2.1 40 11:41 17.10.2019
6055 Clear 18 1022 63 8000 2.1 40 11:20 17.10.2019
6056 Clear 16 1022 82 10000 1.921 47 10:56 17.10.2019
6057 Clear 16 1022 82 10000 1.921 47 10:56 17.10.2019
6058 Clear 16 1021 72 6000 1.5 180 10:38 17.10.2019
6059 Clear 16 1021 72 6000 1.5 180 10:19 17.10.2019
6060 Clear 12 1021 93 10000 1.921 47 09:55 17.10.2019
6061 Clear 11 1020 87 6000 1 160 09:36 17.10.2019
6062 Clear 11 1020 87 6000 1 160 09:18 17.10.2019
6063 Clear 11 1020 87 6000 1 160 09:18 17.10.2019
6064 Clear 11 1020 87 10000 0.5 0 08:43 17.10.2019
6065 Clear 11 1020 87 6000 1.5 180 08:24 17.10.2019
6066 Clear 10 1020 87 10000 1 130 07:56 17.10.2019
6067 Clear 11 1020 81 10000 1 120 07:38 17.10.2019
6068 Clear 11 1020 81 10000 1 120 07:18 17.10.2019
6069 Clear 11 1020 81 10000 1 120 07:18 17.10.2019
6070 Clear 11 1020 81 10000 0.5 100 06:40 17.10.2019
6071 Clear 16 1020 81 10000 0.5 100 06:21 17.10.2019
6072 Clear 16 1020 81 10000 0.5 100 05:57 17.10.2019
6073 Clear 15 1020 76 10000 1 100 05:32 17.10.2019
6074 Clear 15 1020 81 10000 1 110 04:56 17.10.2019
6075 Clear 15 1020 82 10000 1.5 80 03:55 17.10.2019
6076 Clear 16 1021 82 10000 2.1 50 02:50 17.10.2019
6077 Clear 16 1021 76 10000 2.1 70 01:39 17.10.2019
6078 Clear 16 1021 72 10000 1.5 70 00:40 17.10.2019
6079 Clear 17 1021 72 10000 1.5 70 00:19 17.10.2019
6080 Clear 17 1021 72 10000 1.5 360 23:42 16.10.2019
6081 Clear 17 1021 72 10000 1.5 360 23:21 16.10.2019
6082 Clear 17 1021 67 10000 2.1 360 22:56 16.10.2019
6083 Clear 17 1021 67 10000 2.1 360 22:56 16.10.2019
6084 Clear 17 1019 63 10000 2.1 360 22:37 16.10.2019
6085 Clear 17 1019 63 10000 2.1 360 22:37 16.10.2019
6086 Clear 17 1019 63 10000 2.1 360 22:19 16.10.2019
6087 Clear 17 1019 63 10000 2.1 360 22:19 16.10.2019
6088 Clear 17 1019 63 10000 2.1 360 22:19 16.10.2019
6089 Clear 18 1020 67 10000 2.6 350 21:57 16.10.2019
6090 Clear 18 1019 63 10000 3.1 360 21:37 16.10.2019
6091 Clear 18 1019 63 10000 3.1 360 21:19 16.10.2019
6092 Clouds 19 1019 68 10000 4.6 340 20:58 16.10.2019
6093 Clouds 19 1019 68 10000 5.7 350 20:39 16.10.2019
6094 Clouds 19 1019 68 10000 5.7 350 20:20 16.10.2019
6095 Clear 20 1019 60 10000 5.1 350 19:59 16.10.2019
6096 Clear 20 1019 56 10000 4.6 20 19:38 16.10.2019
6097 Clear 20 1019 56 10000 4.6 20 19:20 16.10.2019
6098 Clear 21 1019 49 10000 5.7 60 18:40 16.10.2019
6099 Clear 21 1019 49 10000 5.7 60 18:20 16.10.2019
6100 Clear 21 1019 53 10000 5.1 360 17:58 16.10.2019
6101 Clear 21 1019 53 10000 5.1 360 17:58 16.10.2019
6102 Clear 21 1019 49 10000 6.7 60 17:39 16.10.2019
6103 Clear 21 1019 49 10000 6.7 60 17:21 16.10.2019
6104 Clear 21 1019 49 10000 4.6 10 16:59 16.10.2019
6105 Clear 21 1020 46 10000 6.2 20 16:41 16.10.2019
6106 Clear 21 1020 46 10000 6.2 20 16:21 16.10.2019
6107 Clear 21 1020 49 10000 5.1 20 15:57 16.10.2019
6108 Clear 21 1020 49 10000 5.1 20 15:56 16.10.2019
6109 Clear 21 1020 49 10000 5.1 20 15:56 16.10.2019
6110 Clear 21 1020 49 10000 5.1 20 15:56 16.10.2019
6111 Clear 21 1020 46 10000 7.2 20 15:38 16.10.2019
6112 Clear 21 1020 46 10000 7.2 20 15:18 16.10.2019
6113 Clear 21 1021 46 10000 6.2 20 14:56 16.10.2019
6114 Clear 21 1021 46 10000 6.2 20 14:56 16.10.2019
6115 Clear 21 1021 46 10000 6.2 20 14:37 16.10.2019
6116 Clear 21 1021 46 10000 6.2 20 14:18 16.10.2019
6117 Clouds 21 1021 40 10000 3.6 340 13:56 16.10.2019
6118 Clear 20 1021 46 10000 6.2 360 13:36 16.10.2019
6119 Clear 20 1021 46 10000 6.2 360 13:18 16.10.2019
6120 Clear 20 1021 46 10000 4.1 40 12:40 16.10.2019
6121 Clear 20 1021 46 10000 4.1 40 12:18 16.10.2019
6122 Clear 19 1022 52 10000 3.6 10 11:43 16.10.2019
6123 Clear 17 1021 52 10000 3.6 20 11:18 16.10.2019
6124 Clouds 16 1021 76 10000 1 0 10:39 16.10.2019
6125 Clouds 15 1021 76 10000 1 0 10:20 16.10.2019
6126 Clouds 14 1021 81 10000 1.5 60 09:56 16.10.2019
6127 Clear 13 1020 87 10000 1.5 180 09:38 16.10.2019
6128 Clear 12 1020 87 10000 1.5 180 09:19 16.10.2019
6129 Clear 13 1020 87 10000 1 80 08:43 16.10.2019
6130 Clear 13 1020 82 10000 1 160 08:24 16.10.2019
6131 Clear 11 1020 100 10000 1.26 93 07:46 16.10.2019
6132 Clear 12 1020 93 10000 1.26 93 07:25 16.10.2019
6133 Clear 12 1021 100 10000 1.26 93 06:59 16.10.2019
6134 Clear 13 1020 93 10000 1.26 93 06:39 16.10.2019
6135 Clear 17 1021 93 10000 1 70 05:54 16.10.2019
6136 Clear 16 1021 82 10000 2.1 30 03:26 16.10.2019
6137 Clear 17 1022 87 10000 2.1 40 02:49 16.10.2019
6138 Clear 17 1022 82 10000 2.6 30 01:19 16.10.2019
6139 Clear 17 1022 87 10000 1.5 20 00:50 16.10.2019
6140 Clear 17 1022 87 10000 2.1 20 00:28 16.10.2019
6141 Clear 18 1022 82 10000 2.1 10 23:41 15.10.2019
6142 Clear 18 1022 82 10000 2.1 10 23:22 15.10.2019
6143 Clear 18 1022 82 10000 2.1 20 22:56 15.10.2019
6144 Clear 18 1022 72 10000 4.1 40 22:38 15.10.2019
6145 Clear 18 1022 72 10000 4.1 40 22:38 15.10.2019
6146 Clear 18 1022 72 10000 4.1 40 22:20 15.10.2019
6147 Clear 19 1022 88 10000 2.1 30 21:56 15.10.2019
6148 Clear 19 1022 88 10000 2.1 30 21:56 15.10.2019
6149 Clear 19 1022 88 10000 2.1 30 21:56 15.10.2019
6150 Clear 19 1022 88 10000 2.1 30 21:56 15.10.2019
6151 Clear 19 1021 68 10000 3.1 40 21:38 15.10.2019
6152 Clear 19 1021 68 10000 3.1 40 21:38 15.10.2019
6153 Clear 19 1021 68 10000 3.1 40 21:20 15.10.2019
6154 Clouds 19 1021 72 10000 5.7 340 20:57 15.10.2019
6155 Clouds 19 1021 68 10000 7.2 20 20:39 15.10.2019
6156 Clouds 19 1021 68 10000 7.2 20 20:39 15.10.2019
6157 Clouds 19 1021 68 10000 7.2 20 20:20 15.10.2019
6158 Clouds 20 1021 68 10000 6.7 340 19:58 15.10.2019
6159 Clouds 21 1020 68 10000 7.2 40 19:40 15.10.2019
6160 Clouds 21 1020 68 10000 7.2 40 19:20 15.10.2019
6161 Clouds 21 1020 56 10000 6.2 340 18:47 15.10.2019
6162 Clouds 22 1020 64 10000 5.1 40 18:29 15.10.2019
6163 Clouds 22 1020 64 10000 7.2 20 17:59 15.10.2019
6164 Clouds 22 1020 64 10000 7.2 20 17:40 15.10.2019
6165 Clouds 22 1020 64 10000 7.2 20 17:40 15.10.2019
6166 Clouds 22 1020 64 10000 7.2 20 17:40 15.10.2019
6167 Clouds 22 1020 64 10000 7.2 20 17:20 15.10.2019
6168 -273 0 0 0 0 0 16:56 15.10.2019
6169 Clouds 22 1020 50 10000 6.7 340 16:37 15.10.2019
6170 Clouds 22 1020 50 10000 6.7 340 16:19 15.10.2019
6171 Clouds 22 1021 56 10000 6.2 40 15:42 15.10.2019
6172 Clouds 22 1021 56 10000 6.2 40 15:21 15.10.2019
6173 Clouds 22 1021 49 10000 4.6 350 14:58 15.10.2019
6174 Clouds 22 1021 60 10000 5.1 360 14:38 15.10.2019
6175 Clouds 22 1021 60 10000 5.1 360 14:38 15.10.2019
6176 Clouds 22 1021 60 10000 5.1 360 14:38 15.10.2019
6177 Clouds 22 1021 60 10000 5.1 360 14:38 15.10.2019
6178 Clouds 22 1021 60 10000 5.1 360 14:20 15.10.2019
6179 Clouds 23 1021 48 10000 2.1 320 13:55 15.10.2019
6180 Clouds 22 1022 60 10000 5.1 20 13:37 15.10.2019
6181 Clouds 22 1022 60 10000 5.1 20 13:18 15.10.2019
6182 Clouds 21 1022 60 10000 3.1 20 12:42 15.10.2019
6183 Clouds 21 1022 60 10000 3.1 20 12:21 15.10.2019
6184 Clouds 19 1022 64 10000 3.1 40 11:56 15.10.2019
6185 Clouds 19 1022 68 10000 3.1 80 11:37 15.10.2019
6186 Clouds 19 1022 68 10000 3.1 80 11:19 15.10.2019
6187 Clouds 19 1022 68 10000 3.1 80 11:19 15.10.2019
6188 Clouds 18 1022 77 10000 2.1 80 10:44 15.10.2019
6189 Clouds 18 1022 77 10000 2.1 80 10:44 15.10.2019
6190 Clouds 17 1021 82 10000 1 160 10:21 15.10.2019
6191 Clouds 15 1021 93 10000 2.6 90 09:58 15.10.2019
6192 Clouds 14 1021 93 10000 2.1 180 09:38 15.10.2019
6193 Clouds 13 1021 93 10000 2.1 180 09:19 15.10.2019
6194 Clear 13 1021 100 10000 1.58 67.565 08:54 15.10.2019
6195 Clear 13 1021 100 10000 1.58 67.565 08:36 15.10.2019
6196 Clouds 14 1021 87 10000 1 200 08:18 15.10.2019
6197 Clear 13 1021 100 10000 1.58 67.565 07:41 15.10.2019
6198 Clear 13 1021 100 10000 1.58 67.565 07:20 15.10.2019
6199 Clear 13 1021 100 10000 1.58 67.565 06:45 15.10.2019
6200 Clear 18 1021 100 10000 1.58 67.565 06:27 15.10.2019
6201 Clear 17 1021 100 10000 2.9 38.567 05:44 15.10.2019
6202 Clear 17 1021 100 10000 2.9 38.567 05:24 15.10.2019
6203 Clear 17 1021 100 10000 2.9 38.567 04:33 15.10.2019
6204 Clear 17 1022 100 10000 2.9 38.567 03:38 15.10.2019
6205 Clear 17 1022 100 10000 2.9 38.567 03:38 15.10.2019
6206 Clear 18 1022 100 10000 3.47 14.678 02:51 15.10.2019
6207 Clear 17 1022 93 10000 2.1 40 01:49 15.10.2019
6208 Clear 18 1023 93 10000 2.1 40 01:22 15.10.2019
6209 Clear 18 1023 93 10000 2.1 40 00:49 15.10.2019
6210 Clear 18 1023 93 10000 1 40 00:22 15.10.2019
6211 Clear 18 1023 93 10000 2.1 40 23:45 14.10.2019
6212 Clear 18 1023 93 10000 2.1 360 23:21 14.10.2019
6213 Clear 19 1023 88 10000 2.1 360 22:58 14.10.2019
6214 Clouds 19 1021 82 10000 2.1 20 22:38 14.10.2019
6215 Clouds 19 1021 82 10000 2.1 20 22:19 14.10.2019
6216 Clear 19 1022 88 10000 4.1 320 21:56 14.10.2019
6217 Clouds 22 1021 72 10000 1 20 21:37 14.10.2019
6218 Clouds 22 1021 72 10000 1 20 21:19 14.10.2019
6219 Clouds 20 1021 68 10000 5.1 340 20:55 14.10.2019
6220 Clouds 20 1021 68 10000 5.1 340 20:36 14.10.2019
6221 Clouds 20 1021 68 10000 5.1 340 20:18 14.10.2019
6222 Clouds 21 1021 64 10000 4.1 320 19:41 14.10.2019
6223 Clouds 21 1021 64 10000 4.1 320 19:23 14.10.2019
6224 Clouds 22 1021 78 1000 6.2 330 18:58 14.10.2019
6225 Clouds 22 1021 68 10000 5.1 300 18:39 14.10.2019
6226 Clouds 22 1021 68 10000 5.1 300 18:39 14.10.2019
6227 Clouds 22 1021 68 10000 5.1 300 18:19 14.10.2019
6228 Clouds 22 1021 60 10000 4.6 300 17:57 14.10.2019
6229 Clouds 22 1021 60 10000 4.6 300 17:57 14.10.2019
6230 Clouds 22 1020 73 10000 4.1 280 17:38 14.10.2019
6231 Clouds 22 1020 73 10000 4.1 280 17:38 14.10.2019
6232 Clouds 22 1020 73 10000 4.1 280 17:19 14.10.2019
6233 Clouds 22 1020 64 10000 5.1 270 16:44 14.10.2019
6234 Clouds 22 1020 73 10000 6.2 280 16:21 14.10.2019
6235 Clouds 21 1020 78 10000 5.1 280 15:43 14.10.2019
6236 Clouds 21 1020 78 10000 5.1 280 15:24 14.10.2019
6237 Clouds 20 1021 94 10000 6.7 300 14:58 14.10.2019
6238 Clouds 20 1021 88 8000 3.1 200 14:39 14.10.2019
6239 Clouds 20 1021 88 8000 3.1 200 14:20 14.10.2019
6240 Rain 20 1021 78 10000 4.1 220 13:44 14.10.2019
6241 Rain 20 1021 82 6000 4.1 300 13:21 14.10.2019
6242 Clouds 21 1021 88 10000 6.7 210 12:56 14.10.2019
6243 Drizzle 21 1021 73 10000 5.7 220 12:37 14.10.2019
6244 Drizzle 21 1021 73 10000 5.7 220 12:18 14.10.2019
6245 Drizzle 19 1021 93 4000 6.2 240 11:45 14.10.2019
6246 Drizzle 19 1020 88 10000 5.1 200 11:26 14.10.2019
6247 Rain 19 1021 93 10000 6.2 230 10:57 14.10.2019
6248 Rain 19 1020 82 6000 3.6 240 10:38 14.10.2019
6249 Rain 19 1020 82 6000 3.6 240 10:20 14.10.2019
6250 Clouds 19 1020 93 10000 5.7 200 09:54 14.10.2019
6251 Clouds 19 1019 100 10000 5.73 216.476 09:36 14.10.2019
6252 Clouds 19 1019 100 10000 5.98 208.129 09:18 14.10.2019
6253 Clear 18 1018 82 10000 4.1 200 08:42 14.10.2019
6254 Clear 18 1018 82 10000 4.1 200 08:20 14.10.2019
6255 Clouds 18 1019 93 0 5.1 200 07:41 14.10.2019
6256 Clouds 18 1019 93 0 5.1 200 07:41 14.10.2019
6257 Clouds 18 1019 93 0 5.1 200 07:18 14.10.2019
6258 Clouds 19 1018 100 10000 4.6 200 06:38 14.10.2019
6259 Clouds 19 1018 100 10000 4.6 200 06:20 14.10.2019
6260 Clouds 20 1018 93 10000 4.1 200 05:46 14.10.2019
6261 Clouds 20 1018 93 10000 4.6 220 04:43 14.10.2019
6262 Clouds 20 1018 93 10000 3.6 190 03:27 14.10.2019
6263 Clouds 20 1018 93 10000 3.6 200 02:42 14.10.2019
6264 Clouds 20 1018 88 10000 4.6 230 01:23 14.10.2019
6265 Clouds 20 1017 88 10000 4.1 240 00:56 14.10.2019
6266 Clouds 21 1017 88 10000 3.6 210 00:19 14.10.2019
6267 Clouds 21 1017 94 10000 3.1 220 23:45 13.10.2019
6268 Clouds 21 1017 100 10000 3.1 250 23:20 13.10.2019
6269 Clouds 21 1017 100 10000 2.6 250 22:58 13.10.2019
6270 Clouds 21 1014 88 5000 4.1 280 22:40 13.10.2019
6271 Clouds 21 1014 88 5000 4.1 280 22:21 13.10.2019
6272 Clouds 21 1016 100 10000 5.7 300 21:58 13.10.2019
6273 Clouds 21 1014 88 5000 5.1 280 21:37 13.10.2019
6274 Clouds 21 1014 88 5000 5.1 280 21:19 13.10.2019
6275 Clouds 21 1014 88 5000 5.1 280 21:19 13.10.2019
6276 Clear 21 1015 100 10000 7.2 310 20:57 13.10.2019
6277 Clear 21 1015 100 10000 7.2 310 20:57 13.10.2019
6278 Clouds 21 1014 88 5000 5.7 300 20:38 13.10.2019
6279 Clouds 21 1014 88 5000 5.7 300 20:20 13.10.2019
6280 Clear 22 1014 73 10000 6.7 310 19:58 13.10.2019
6281 Clear 22 1014 73 10000 6.7 310 19:58 13.10.2019
6282 Clear 22 1014 73 10000 6.7 310 19:57 13.10.2019
6283 Clouds 22 1013 83 8000 5.7 320 19:39 13.10.2019
6284 Clouds 22 1013 83 8000 5.7 320 19:39 13.10.2019
6285 Clouds 22 1013 83 8000 5.7 320 19:20 13.10.2019
6286 Clear 23 1013 65 10000 6.7 320 18:55 13.10.2019
6287 Clouds 23 1013 73 8000 5.7 340 18:36 13.10.2019
6288 Clouds 23 1013 73 8000 5.7 340 18:18 13.10.2019
6289 Clear 24 1013 51 10000 5.1 300 17:44 13.10.2019
6290 Clear 24 1013 51 10000 5.1 300 17:44 13.10.2019
6291 Clouds 24 1012 69 8000 4.1 320 17:26 13.10.2019
6292 -273 0 0 0 0 0 17:25 13.10.2019
6293 Clouds 24 1012 69 8000 4.1 320 17:25 13.10.2019
6294 Clear 23 1012 57 10000 4.6 320 16:55 13.10.2019
6295 Clouds 23 1013 78 5000 4.1 20 16:36 13.10.2019
6296 Clouds 23 1013 78 5000 4.1 20 16:18 13.10.2019
6297 Clouds 23 1013 78 5000 4.1 20 16:18 13.10.2019
6298 Clear 23 1013 51 10000 4.1 310 15:54 13.10.2019
6299 Clouds 23 1013 78 5000 4.6 20 15:36 13.10.2019
6300 Clouds 23 1013 78 5000 4.6 20 15:18 13.10.2019
6301 Clouds 22 1014 83 8000 4.1 40 14:40 13.10.2019
6302 Clouds 22 1014 83 8000 4.1 40 14:22 13.10.2019
6303 Clear 21 1014 57 10000 3.1 310 13:59 13.10.2019
6304 Clouds 21 1014 93 5000 5.7 20 13:38 13.10.2019
6305 Clouds 21 1014 93 5000 5.7 20 13:38 13.10.2019
6306 Clouds 21 1014 93 5000 5.7 20 13:38 13.10.2019
6307 Clouds 22 1014 93 5000 5.7 20 13:20 13.10.2019
6308 Fog 22 1014 60 10000 3.1 320 12:56 13.10.2019
6309 Fog 22 1014 93 20 4.1 340 12:38 13.10.2019
6310 Fog 21 1014 93 20 4.1 340 12:19 13.10.2019
6311 Fog 21 1017 41 10000 3.1 360 11:58 13.10.2019
6312 Fog 21 1017 41 10000 3.1 360 11:38 13.10.2019
6313 Fog 20 1013 93 20 4.1 60 11:19 13.10.2019
6314 Fog 18 1013 93 200 3.1 40 10:42 13.10.2019
6315 Fog 18 1013 93 200 3.1 40 10:23 13.10.2019
6316 Fog 18 1013 93 200 3.1 40 10:23 13.10.2019
6317 Fog 18 1014 72 10000 1.5 0 09:57 13.10.2019
6318 Mist 14 1013 148 4000 2.1 340 09:38 13.10.2019
6319 Mist 15 1013 148 4000 2.1 340 09:19 13.10.2019
6320 Clouds 16 1013 100 8000 3.6 70 08:43 13.10.2019
6321 Clouds 15 1014 100 8000 2.1 120 08:22 13.10.2019
6322 Clouds 16 1014 100 6000 2.1 120 07:46 13.10.2019
6323 Mist 16 1014 100 4000 2.1 90 07:23 13.10.2019
6324 Fog 16 1014 100 800 1.5 100 06:46 13.10.2019
6325 Fog 18 1014 100 400 1.5 110 05:50 13.10.2019
6326 Fog 19 1015 100 500 1.5 30 04:52 13.10.2019
6327 Fog 19 1015 100 200 1 330 04:32 13.10.2019
6328 Fog 19 1016 100 600 2.1 30 02:42 13.10.2019
6329 Fog 19 1016 100 600 2.1 30 02:42 13.10.2019
6330 Fog 18 1016 100 800 2.1 50 01:59 13.10.2019
6331 Mist 19 1017 100 4000 2.1 30 01:31 13.10.2019
6332 Mist 19 1017 100 4000 2.1 40 00:50 13.10.2019
6333 Clouds 19 1017 93 5000 2.1 30 00:22 13.10.2019
6334 Clouds 19 1017 100 6000 2.1 20 23:57 12.10.2019
6335 Clear 19 1017 88 8000 2.6 350 23:39 12.10.2019
6336 Clear 20 1017 88 8000 2.6 350 23:20 12.10.2019
6337 Clear 20 1017 88 10000 2.6 350 22:57 12.10.2019
6338 Clear 20 1016 88 10000 2.1 20 22:38 12.10.2019
6339 Clear 19 1016 88 10000 2.1 20 22:20 12.10.2019
6340 Clear 20 1017 83 10000 3.1 350 21:55 12.10.2019
6341 Clear 20 1016 83 10000 2.1 20 21:37 12.10.2019
6342 Clear 20 1016 83 10000 2.1 20 21:19 12.10.2019
6343 Clear 20 1015 83 10000 3.1 340 20:41 12.10.2019
6344 Clear 20 1015 83 10000 3.1 340 20:41 12.10.2019
6345 Clear 21 1015 83 10000 3.1 340 20:23 12.10.2019
6346 Clear 22 1015 73 10000 4.1 360 19:40 12.10.2019
6347 Clear 22 1015 73 10000 4.1 360 19:40 12.10.2019
6348 Clear 22 1015 73 10000 4.1 360 19:22 12.10.2019
6349 Clear 23 1016 61 10000 4.1 320 18:59 12.10.2019
6350 Clear 23 1016 69 10000 4.1 320 18:40 12.10.2019
6351 Clear 23 1016 69 10000 4.1 320 18:22 12.10.2019
6352 Clear 24 1016 57 10000 4.6 310 17:44 12.10.2019
6353 Clear 24 1015 69 10000 5.1 340 17:19 12.10.2019
6354 Clear 24 1015 54 10000 4.6 300 16:55 12.10.2019
6355 Clear 25 1015 65 10000 3.6 320 16:36 12.10.2019
6356 Clear 25 1015 65 10000 3.6 320 16:18 12.10.2019
6357 Clear 25 1016 51 10000 2.6 270 15:44 12.10.2019
6358 Clear 25 1016 61 10000 5.7 320 15:25 12.10.2019
6359 Clear 24 1017 61 10000 4.51 290.909 14:55 12.10.2019
6360 Clear 24 1017 61 10000 4.51 290.909 14:55 12.10.2019
6361 Clear 24 1017 69 8000 4.1 320 14:37 12.10.2019
6362 Clear 24 1017 69 8000 4.1 320 14:18 12.10.2019
6363 Clear 24 1017 73 10000 2.6 280 13:43 12.10.2019
6364 Clouds 24 1017 65 8000 5.1 280 13:25 12.10.2019
6365 Clouds 22 1017 73 6000 5.1 280 12:40 12.10.2019
6366 Clouds 22 1017 73 6000 5.1 280 12:22 12.10.2019
6367 Clouds 22 1018 94 8000 4.1 220 11:59 12.10.2019
6368 Mist 22 1017 78 6000 4.1 260 11:39 12.10.2019
6369 Mist 21 1017 78 6000 4.1 260 11:20 12.10.2019
6370 Mist 21 1017 94 4000 2.6 190 10:45 12.10.2019
6371 Mist 20 1016 78 5000 2.1 200 10:25 12.10.2019
6372 Mist 20 1016 93 3000 3.1 260 09:58 12.10.2019
6373 Mist 20 1016 83 5000 2.1 180 09:40 12.10.2019
6374 Mist 20 1016 83 5000 2.1 180 09:22 12.10.2019
6375 -273 0 0 0 0 0 08:58 12.10.2019
6376 Mist 19 1015 88 5000 2.1 200 08:38 12.10.2019
6377 Mist 19 1015 88 5000 2.1 200 08:20 12.10.2019
6378 -273 0 0 0 0 0 08:20 12.10.2019
6379 Fog 17 1016 100 400 2.1 220 07:35 12.10.2019
6380 Fog 17 1016 100 900 3.1 220 06:57 12.10.2019
6381 Clouds 21 1015 93 10000 3.1 180 05:48 12.10.2019
6382 Clouds 20 1015 88 10000 3.1 190 05:23 12.10.2019
6383 Clouds 20 1016 82 10000 1.5 240 04:24 12.10.2019
6384 Clouds 20 1016 82 10000 2.1 180 03:33 12.10.2019
6385 Clouds 21 1017 77 10000 2.1 220 01:56 12.10.2019
6386 Clouds 21 1017 77 10000 2.1 310 01:24 12.10.2019
6387 Clouds 21 1017 83 10000 1.5 300 00:43 12.10.2019
6388 Clouds 21 1017 83 10000 1.5 300 00:19 12.10.2019
6389 Clear 21 1017 68 10000 2.6 300 23:40 11.10.2019
6390 Clear 22 1017 68 10000 2.6 300 23:20 11.10.2019
6391 Clouds 22 1015 56 5000 1 280 22:41 11.10.2019
6392 Clouds 22 1015 56 5000 1 280 22:22 11.10.2019
6393 Clear 23 1016 53 10000 2.6 280 21:59 11.10.2019
6394 Clear 23 1015 53 10000 2.6 350 21:40 11.10.2019
6395 Clear 23 1015 53 10000 2.6 350 21:21 11.10.2019
6396 Clear 23 1015 50 10000 2.6 360 20:45 11.10.2019
6397 Clouds 23 1014 60 5000 4.1 60 20:27 11.10.2019
6398 Clouds 24 1015 51 5000 3.1 20 19:59 11.10.2019
6399 Clouds 24 1015 53 5000 3.1 60 19:39 11.10.2019
6400 Clouds 25 1015 53 5000 3.1 60 19:18 11.10.2019
6401 Clouds 25 1015 53 5000 3.1 60 19:18 11.10.2019
6402 Clouds 25 1015 53 5000 3.1 60 19:18 11.10.2019
6403 Clouds 26 1015 45 5000 3.6 30 18:59 11.10.2019
6404 Clouds 26 1014 47 5000 4.1 20 18:38 11.10.2019
6405 Clouds 26 1014 47 5000 4.1 20 18:19 11.10.2019
6406 Clear 26 1015 33 10000 2.6 30 17:59 11.10.2019
6407 Clouds 26 1015 54 5000 3.1 360 17:38 11.10.2019
6408 Clouds 26 1015 54 5000 3.1 360 17:19 11.10.2019
6409 Clear 27 1016 35 10000 1.5 10 16:59 11.10.2019
6410 Clouds 27 1015 51 5000 2.1 40 16:39 11.10.2019
6411 Clouds 27 1015 51 5000 2.1 40 16:19 11.10.2019
6412 Clouds 25 1016 61 5000 2.1 360 15:42 11.10.2019
6413 Clouds 25 1016 61 5000 2.1 360 15:22 11.10.2019
6414 Clear 24 1017 48 10000 2.52 352.895 14:59 11.10.2019
6415 Clouds 24 1017 64 5000 2.1 360 14:40 11.10.2019
6416 Clouds 24 1017 64 5000 2.1 360 14:21 11.10.2019
6417 Clouds 24 1018 57 10000 1.5 120 13:45 11.10.2019
6418 Clouds 24 1017 60 5000 2.1 40 13:26 11.10.2019
6419 Clouds 22 1018 69 10000 1.5 10 12:58 11.10.2019
6420 Clouds 22 1017 73 5000 3.1 140 12:39 11.10.2019
6421 Clouds 22 1017 73 5000 3.1 140 12:20 11.10.2019
6422 Clear 21 1018 73 10000 3.1 330 11:58 11.10.2019
6423 Clear 22 1017 73 5000 1.5 360 11:39 11.10.2019
6424 Clear 22 1017 73 5000 1.5 360 11:39 11.10.2019
6425 Clear 21 1017 73 5000 1.5 360 11:20 11.10.2019
6426 Clouds 21 1017 64 10000 1.5 120 10:56 11.10.2019
6427 Clouds 21 1017 64 10000 1.5 120 10:56 11.10.2019
6428 Clouds 20 1017 73 5000 2.1 140 10:36 11.10.2019
6429 Clouds 20 1017 73 5000 2.1 140 10:18 11.10.2019
6430 Clouds 19 1016 77 10000 2.6 80 09:42 11.10.2019
6431 Clouds 19 1016 77 10000 2.6 80 09:21 11.10.2019
6432 Clouds 18 1016 82 10000 2.6 80 08:59 11.10.2019
6433 Clear 18 1016 82 5000 2.1 120 08:38 11.10.2019
6434 Clear 18 1016 82 5000 2.1 120 08:20 11.10.2019
6435 Clouds 18 1017 77 10000 0.5 0 07:53 11.10.2019
6436 Clouds 17 1016 82 10000 0.5 0 07:34 11.10.2019
6437 Clouds 18 1016 82 10000 1 0 06:50 11.10.2019
6438 Clear 19 1016 82 10000 0.5 0 06:25 11.10.2019
6439 Clear 19 1016 82 10000 2.1 200 05:47 11.10.2019
6440 Clear 19 1016 82 10000 2.1 200 05:47 11.10.2019
6441 Clouds 19 1016 93 8000 2.1 210 05:29 11.10.2019
6442 Clouds 19 1016 100 10000 2.78 225.146 04:58 11.10.2019
6443 Clouds 19 1016 88 10000 1 0 03:27 11.10.2019
6444 Clouds 19 1017 93 10000 1.5 80 01:26 11.10.2019
6445 Clear 19 1017 93 10000 0.5 0 00:31 11.10.2019
6446 Clear 20 1017 93 10000 2.1 240 23:58 10.10.2019
6447 Clear 19 1017 88 10000 2.1 220 23:40 10.10.2019
6448 Clear 20 1017 88 10000 2.1 220 23:19 10.10.2019
6449 Clear 20 1017 100 10000 0.93 61.36 22:56 10.10.2019
6450 Clouds 20 1015 88 5000 1.5 260 22:36 10.10.2019
6451 Clouds 20 1015 88 5000 1.5 260 22:18 10.10.2019
6452 Clouds 20 1015 88 5000 2.1 260 21:42 10.10.2019
6453 Clouds 20 1015 88 5000 2.1 260 21:42 10.10.2019
6454 Clouds 20 1015 88 5000 2.1 260 21:22 10.10.2019
6455 Clear 21 1015 88 10000 3.6 340 20:58 10.10.2019
6456 Clouds 21 1015 83 5000 2.6 300 20:39 10.10.2019
6457 Clouds 22 1015 83 5000 2.6 300 20:20 10.10.2019
6458 Clear 22 1015 78 10000 3.6 340 19:57 10.10.2019
6459 Clouds 22 1014 83 6000 3.1 320 19:39 10.10.2019
6460 Clouds 22 1014 83 6000 3.1 320 19:19 10.10.2019
6461 Clouds 23 1014 78 6000 3.1 360 18:42 10.10.2019
6462 Clouds 23 1014 78 6000 3.1 360 18:21 10.10.2019
6463 Clear 23 1014 61 10000 3.1 30 17:59 10.10.2019
6464 Clouds 23 1014 78 8000 4.1 340 17:40 10.10.2019
6465 Clouds 23 1014 78 8000 4.1 340 17:19 10.10.2019
6466 Clear 23 1014 61 10000 4.1 10 16:56 10.10.2019
6467 Clouds 24 1014 64 8000 5.1 360 16:37 10.10.2019
6468 Clouds 23 1014 64 8000 5.1 360 16:19 10.10.2019
6469 Clouds 24 1015 64 8000 6.2 360 15:42 10.10.2019
6470 Clouds 23 1015 64 8000 6.2 360 15:23 10.10.2019
6471 Clear 24 1015 57 10000 2.6 330 14:58 10.10.2019
6472 Clear 23 1015 57 10000 3.1 350 14:37 10.10.2019
6473 Clear 23 1015 57 10000 3.1 350 14:19 10.10.2019
6474 Clear 23 1016 57 10000 2.1 340 13:58 10.10.2019
6475 Clear 22 1016 73 10000 4.1 340 13:39 10.10.2019
6476 Clear 22 1016 73 10000 4.1 340 13:18 10.10.2019
6477 Clear 22 1016 69 8000 3.1 20 12:42 10.10.2019
6478 Clear 22 1016 69 8000 3.1 20 12:21 10.10.2019
6479 Clear 21 1016 77 10000 2.1 350 11:58 10.10.2019
6480 Clouds 20 1016 78 8000 2.1 60 11:40 10.10.2019
6481 Clouds 20 1016 78 8000 2.1 60 11:19 10.10.2019
6482 Clouds 20 1016 88 10000 1.5 40 10:47 10.10.2019
6483 Clouds 19 1015 82 10000 1.5 140 10:28 10.10.2019
6484 Clouds 19 1015 82 10000 1.5 140 10:28 10.10.2019
6485 Clouds 19 1015 93 10000 2.1 60 09:59 10.10.2019
6486 Mist 19 1015 88 8000 0.5 140 09:41 10.10.2019
6487 Mist 19 1015 88 8000 0.5 140 09:23 10.10.2019
6488 Mist 18 1015 93 4000 2.1 50 08:59 10.10.2019
6489 Mist 18 1015 93 4000 2.1 50 08:40 10.10.2019
6490 Mist 18 1015 93 4000 2.1 50 08:21 10.10.2019
6491 Mist 18 1015 88 4000 2.1 70 07:48 10.10.2019
6492 Mist 19 1015 93 4000 2.6 40 07:26 10.10.2019
6493 Mist 18 1015 93 4000 2.1 20 06:56 10.10.2019
6494 Mist 18 1015 88 4000 2.1 30 06:38 10.10.2019
6495 Mist 19 1015 88 4000 2.1 30 05:50 10.10.2019
6496 Mist 19 1015 88 4000 2.1 30 05:19 10.10.2019
6497 Clouds 19 1016 88 6000 1.5 30 04:35 10.10.2019
6498 Mist 19 1016 93 4000 1.5 290 02:29 10.10.2019
6499 Mist 19 1016 93 3000 2.1 10 01:37 10.10.2019
6500 Mist 19 1016 93 3000 2.1 10 01:18 10.10.2019
6501 Mist 19 1016 88 4000 2.1 0 00:38 10.10.2019
6502 Mist 19 1016 93 4000 2.6 340 23:55 09.10.2019
6503 Clouds 20 1016 88 6000 3.1 360 23:36 09.10.2019
6504 Clouds 19 1016 88 6000 3.1 360 23:18 09.10.2019
6505 Clouds 19 1016 88 6000 3.1 360 23:18 09.10.2019
6506 Clouds 20 1015 94 8000 3.6 340 22:41 09.10.2019
6507 Clouds 20 1015 94 8000 3.6 340 22:22 09.10.2019
6508 Clouds 20 1015 94 8000 3.1 340 21:58 09.10.2019
6509 Clouds 20 1015 94 10000 3.6 320 21:39 09.10.2019
6510 Clouds 20 1015 94 10000 3.6 320 21:19 09.10.2019
6511 Clouds 20 1015 94 10000 4.6 320 20:55 09.10.2019
6512 Clouds 21 1015 88 10000 3.1 330 20:37 09.10.2019
6513 Clouds 21 1015 88 10000 3.1 330 20:18 09.10.2019
6514 Clouds 21 1015 88 10000 3.1 330 20:18 09.10.2019
6515 Clouds 21 1015 88 10000 3.1 330 20:18 09.10.2019
6516 Clear 21 1015 78 10000 5.1 320 19:44 09.10.2019
6517 Clear 22 1014 65 10000 4.6 310 19:23 09.10.2019
6518 Clear 24 1014 54 10000 4.6 320 18:40 09.10.2019
6519 Clear 24 1014 54 10000 4.6 320 18:21 09.10.2019
6520 Clear 25 1014 45 10000 5.1 340 17:59 09.10.2019
6521 Clear 24 1014 45 10000 5.1 340 17:40 09.10.2019
6522 Clear 24 1014 45 10000 5.1 340 17:40 09.10.2019
6523 Clear 24 1014 45 10000 5.1 340 17:22 09.10.2019
6524 Clear 24 1014 51 10000 3.6 300 16:58 09.10.2019
6525 Clear 24 1014 48 10000 5.1 300 16:40 09.10.2019
6526 Clear 24 1014 48 10000 5.1 300 16:21 09.10.2019
6527 Clear 25 1014 42 10000 2.6 310 15:57 09.10.2019
6528 Clear 24 1014 42 10000 3.1 300 15:38 09.10.2019
6529 Clear 24 1014 42 10000 3.1 300 15:38 09.10.2019
6530 Clear 24 1014 42 10000 3.1 300 15:19 09.10.2019
6531 Clear 24 1015 48 10000 2.1 300 14:55 09.10.2019
6532 Clear 23 1015 51 10000 2.1 270 14:37 09.10.2019
6533 Clear 23 1015 51 10000 2.1 270 14:18 09.10.2019
6534 Clear 22 1016 64 10000 2.1 260 13:38 09.10.2019
6535 Clear 22 1016 64 10000 2.1 260 13:20 09.10.2019
6536 Clouds 21 1016 83 6000 2.1 240 12:56 09.10.2019
6537 Clouds 20 1017 94 6000 1.5 200 12:37 09.10.2019
6538 Clouds 21 1017 94 6000 1.5 200 12:19 09.10.2019
6539 Mist 19 1017 100 1500 1 0 11:40 09.10.2019
6540 Mist 19 1017 100 1500 1 0 11:40 09.10.2019
6541 Mist 19 1017 100 1500 1 0 11:21 09.10.2019
6542 Mist 18 1016 100 1200 1 0 10:59 09.10.2019
6543 Fog 17 1016 100 500 2.1 270 10:40 09.10.2019
6544 Fog 17 1016 100 500 2.1 270 10:19 09.10.2019
6545 Fog 17 1016 100 300 2.1 240 09:56 09.10.2019
6546 Fog 16 1015 100 500 2.1 240 09:38 09.10.2019
6547 Fog 16 1015 100 500 2.1 240 09:18 09.10.2019
6548 Fog 16 1015 100 400 1 0 08:39 09.10.2019
6549 Fog 17 1015 100 400 1 0 08:20 09.10.2019
6550 Fog 17 1015 100 400 1 0 08:20 09.10.2019
6551 Fog 17 1015 100 400 1 0 07:47 09.10.2019
6552 Fog 17 1015 100 400 1 0 07:47 09.10.2019
6553 Fog 16 1015 100 400 0.98 258.644 07:25 09.10.2019
6554 Clouds 16 1014 100 300 0.98 258.644 06:58 09.10.2019
6555 Fog 15 1014 100 400 1 200 06:40 09.10.2019
6556 Clouds 12 1014 100 750 0.48 243.219 05:53 09.10.2019
6557 Fog 13 1014 100 400 0.48 243.219 04:56 09.10.2019
6558 Fog 16 1015 93 500 1 120 03:48 09.10.2019
6559 Fog 16 1015 93 500 1 120 03:48 09.10.2019
6560 Clouds 16 1015 93 10000 1 200 02:34 09.10.2019
6561 Clouds 17 1015 100 10000 0.13 5.315 01:39 09.10.2019
6562 Clouds 17 1015 100 10000 0.31 25.897 01:18 09.10.2019
6563 Clouds 18 1016 93 10000 2.1 160 00:42 09.10.2019
6564 Clouds 18 1016 93 10000 2.1 160 00:23 09.10.2019
6565 Clouds 18 1016 88 10000 1 0 23:58 08.10.2019
6566 Clouds 19 1015 82 8000 1 0 23:38 08.10.2019
6567 Clouds 19 1015 82 8000 1 0 23:18 08.10.2019
6568 Clouds 19 1015 82 8000 1 0 23:18 08.10.2019
6569 Clear 19 1015 94 10000 0.8 33.271 22:55 08.10.2019
6570 Clear 20 1015 88 10000 0.8 33.271 22:36 08.10.2019
6571 Clear 20 1015 88 10000 0.8 33.271 22:18 08.10.2019
6572 Clear 20 1015 88 10000 2.1 360 21:55 08.10.2019
6573 Clear 19 1015 72 10000 3.1 320 21:36 08.10.2019
6574 Clear 19 1015 72 10000 3.1 320 21:36 08.10.2019
6575 Clear 20 1015 72 10000 3.1 320 21:18 08.10.2019
6576 Clear 20 1015 64 10000 3.1 310 20:54 08.10.2019
6577 Clear 21 1015 53 10000 3.6 320 20:36 08.10.2019
6578 Clear 21 1015 53 10000 3.6 320 20:18 08.10.2019
6579 Clear 23 1014 39 10000 5.1 320 19:41 08.10.2019
6580 Clear 22 1014 39 10000 5.1 320 19:23 08.10.2019
6581 Clear 23 1014 36 10000 5.1 320 18:57 08.10.2019
6582 Clear 22 1014 39 10000 5.7 320 18:39 08.10.2019
6583 Clear 22 1014 39 10000 5.7 320 18:19 08.10.2019
6584 Clear 23 1014 30 10000 5.7 340 17:56 08.10.2019
6585 Clear 23 1014 28 10000 6.2 330 17:38 08.10.2019
6586 Clear 23 1014 28 10000 6.2 330 17:18 08.10.2019
6587 Clear 31 1014 23 10000 4.6 350 16:41 08.10.2019
6588 Clear 31 1014 23 10000 4.6 350 16:22 08.10.2019
6589 Clear 30 1015 23 10000 4.6 340 15:57 08.10.2019
6590 Clear 24 1013 57 0 3.73 3.247 15:38 08.10.2019
6591 Clear 18 1014 88 0 1.34 342 15:19 08.10.2019
6592 -273 0 0 0 0 0 14:42 08.10.2019
6593 Clear 24 1016 26 10000 5.1 360 14:42 08.10.2019
6594 Clear 22 1016 26 10000 5.1 360 14:21 08.10.2019
6595 Clear 22 1016 26 10000 5.1 360 13:59 08.10.2019
6596 Clear 27 1016 34 10000 2.6 350 13:39 08.10.2019
6597 Clear 27 1016 34 10000 2.6 350 13:21 08.10.2019
6598 Clouds 26 1017 39 10000 1 0 12:59 08.10.2019
6599 Clouds 23 1017 49 10000 1 0 12:40 08.10.2019
6600 Clouds 19 1017 49 10000 1 0 12:20 08.10.2019
6601 Clouds 17 1017 93 8000 1 0 11:57 08.10.2019
6602 Clouds 17 1017 100 5000 2.24 42.904 11:38 08.10.2019
6603 Clouds 17 1017 100 5000 2.24 42.904 11:20 08.10.2019
6604 Fog 14 1017 100 200 1.5 120 10:42 08.10.2019
6605 Fog 14 1017 100 200 1.5 120 10:22 08.10.2019
6606 Fog 15 1017 100 200 1.5 120 09:58 08.10.2019
6607 Fog 15 1016 100 200 1 40 09:40 08.10.2019
6608 Fog 15 1016 100 200 1 40 09:40 08.10.2019
6609 Fog 15 1016 100 200 1 40 09:21 08.10.2019
6610 Fog 15 1016 100 300 1 0 08:45 08.10.2019
6611 Fog 14 1016 100 300 1 20 08:25 08.10.2019
6612 Fog 14 1016 100 300 1 0 07:47 08.10.2019
6613 Fog 14 1016 100 300 1 0 07:23 08.10.2019
6614 Fog 12 1015 100 200 2.1 20 06:57 08.10.2019
6615 Clear 13 1015 100 10000 2.13 37.656 06:36 08.10.2019
6616 Clear 13 1015 100 10000 2.97 46.815 05:59 08.10.2019
6617 Clear 13 1015 100 10000 2.97 46.815 05:40 08.10.2019
6618 Clear 14 1016 93 10000 2.97 46.815 04:55 08.10.2019
6619 Clear 14 1016 100 10000 2.97 46.815 03:30 08.10.2019
6620 Clear 14 1016 100 10000 2.97 46.815 03:30 08.10.2019
6621 Clear 18 1016 93 10000 1 20 02:40 08.10.2019
6622 Clear 18 1017 100 10000 1.5 40 01:51 08.10.2019
6623 Clear 18 1017 100 10000 1 40 01:32 08.10.2019
6624 Clear 19 1017 100 10000 2.79 63.811 00:55 08.10.2019
6625 Clear 18 1017 100 10000 3.66 51.979 00:22 08.10.2019
6626 Clear 19 1017 88 10000 3.66 51.979 23:43 07.10.2019
6627 Clear 19 1017 88 10000 3.66 51.979 23:21 07.10.2019
6628 Clear 20 1017 88 10000 3.66 51.979 22:58 07.10.2019
6629 Clear 20 1017 88 10000 3.66 51.979 22:58 07.10.2019
6630 Clear 21 1017 83 0 3.66 51.979 22:40 07.10.2019
6631 Clear 21 1017 83 0 3.66 51.979 22:21 07.10.2019
6632 Clear 21 1017 83 0 3.66 51.979 22:21 07.10.2019
6633 Clear 21 1016 83 10000 3.66 51.979 21:58 07.10.2019
6634 Clear 22 1016 73 10000 3.66 51.979 21:40 07.10.2019
6635 Clear 22 1016 73 10000 4.37 33.65 21:20 07.10.2019
6636 Clear 23 1016 60 10000 4.28 33.092 20:58 07.10.2019
6637 Clear 24 1016 57 10000 4.28 33.092 20:39 07.10.2019
6638 Clear 24 1016 57 10000 4.28 33.092 20:21 07.10.2019
6639 Clear 25 1016 53 10000 6.2 10 19:58 07.10.2019
6640 Clear 22 1016 50 10000 6.7 10 19:40 07.10.2019
6641 Clear 23 1016 50 10000 4.28 33.092 19:20 07.10.2019
6642 Clear 23 1016 50 10000 4.28 33.092 19:20 07.10.2019
6643 Clear 22 1016 50 10000 4.28 33.092 18:58 07.10.2019
6644 Clear 23 1016 37 10000 7.2 10 18:38 07.10.2019
6645 Clear 23 1016 37 10000 7.2 10 18:18 07.10.2019
6646 Clear 22 1016 37 10000 7.2 10 17:43 07.10.2019
6647 Clear 22 1016 37 10000 7.2 10 17:43 07.10.2019
6648 Clear 23 1016 42 10000 7.2 360 17:22 07.10.2019
6649 Clear 23 1016 37 10000 7.7 10 16:58 07.10.2019
6650 Clear 23 1016 37 10000 7.7 10 16:58 07.10.2019
6651 Clear 24 1016 33 10000 3.1 10 16:39 07.10.2019
6652 Clear 24 1016 33 10000 3.1 10 16:39 07.10.2019
6653 Clear 30 1016 33 10000 3.1 10 16:20 07.10.2019
6654 Clear 30 1016 35 10000 5.78 23.257 15:45 07.10.2019
6655 Clear 22 1017 32 10000 5.1 350 15:26 07.10.2019
6656 Clear 23 1017 32 10000 4.1 360 14:56 07.10.2019
6657 Clear 23 1017 25 10000 5.1 360 14:38 07.10.2019
6658 Clear 23 1017 25 10000 5.1 360 14:20 07.10.2019
6659 Clear 22 1018 32 10000 4.6 360 13:43 07.10.2019
6660 Clear 27 1018 32 10000 4.6 360 13:20 07.10.2019
6661 Clear 26 1018 39 10000 3.6 10 12:56 07.10.2019
6662 Clear 25 1018 41 10000 4.6 360 12:38 07.10.2019
6663 Clear 20 1018 41 10000 4.6 360 12:19 07.10.2019
6664 Clear 20 1018 44 10000 3.1 30 11:57 07.10.2019
6665 Clear 19 1018 56 10000 2.1 10 11:37 07.10.2019
6666 Clear 19 1018 56 10000 2.1 10 11:18 07.10.2019
6667 Clear 17 1018 88 0 2.24 44 10:41 07.10.2019
6668 Clear 17 1018 88 0 2.24 44 10:41 07.10.2019
6669 Clear 17 1018 88 0 0.89 15 10:20 07.10.2019
6670 Clear 14 1017 100 8000 1.5 70 09:42 07.10.2019
6671 Clear 11 1017 100 8000 1.5 70 09:23 07.10.2019
6672 Clear 11 1017 100 8000 1.5 70 08:57 07.10.2019
6673 Clear 12 1017 100 8000 1 0 08:38 07.10.2019
6674 Clear 12 1017 100 8000 1 0 08:19 07.10.2019
6675 Clear 13 1017 100 6000 1 0 07:41 07.10.2019
6676 Clear 13 1017 100 6000 1 0 07:22 07.10.2019
6677 Clear 14 1017 100 5000 1 0 06:54 07.10.2019
6678 Clear 14 1017 100 6000 2.1 60 06:34 07.10.2019
6679 Clear 17 1018 88 8000 2.6 30 05:47 07.10.2019
6680 Clear 17 1018 93 8000 2.6 20 05:22 07.10.2019
6681 Clear 20 1016 85 0 4.49 40.618 04:25 07.10.2019
6682 Clear 20 1016 85 0 4.49 40.618 03:45 07.10.2019
6683 Clear 18 1019 93 10000 4.6 360 03:21 07.10.2019
6684 Clear 18 1019 93 10000 4.6 3